<?xml version="1.0" encoding="UTF-8" standalone="no" ?>
<gpx xmlns="http://www.topografix.com/GPX/1/1" xmlns:xsi="http://www.w3.org/2001/XMLSchema-instance" xsi:schemaLocation="http://www.topografix.com/GPX/1/1 http://www.topografix.com/GPX/1/1/gpx.xsd" version="1.1" creator="VisuGPX - https://www.visugpx.com">
  <metadata>
    <name>Rando Larzac Brebis Tour</name>
    <desc><![CDATA[Je ne sais pas pourquoi il me met 48 min de pause....]]></desc>
  </metadata>
  <trk>
    <name><![CDATA[Rando Larzac Brebis Tour_1]]></name>
    <trkseg>
      <trkpt lat="43.86193" lon="3.32029">
        <ele>794</ele>
        <time>2014-09-14T06:39:09.000Z</time>
      </trkpt>
      <trkpt lat="43.86193" lon="3.32012">
        <ele>797</ele>
        <time>2014-09-14T06:39:29.000Z</time>
      </trkpt>
      <trkpt lat="43.86197" lon="3.32005">
        <ele>800</ele>
        <time>2014-09-14T06:39:35.000Z</time>
      </trkpt>
      <trkpt lat="43.86203" lon="3.32004">
        <ele>796</ele>
        <time>2014-09-14T06:39:43.000Z</time>
      </trkpt>
      <trkpt lat="43.86209" lon="3.32006">
        <ele>793</ele>
        <time>2014-09-14T06:39:47.000Z</time>
      </trkpt>
      <trkpt lat="43.86217" lon="3.31999">
        <ele>792</ele>
        <time>2014-09-14T06:39:51.000Z</time>
      </trkpt>
      <trkpt lat="43.86221" lon="3.31994">
        <ele>794</ele>
        <time>2014-09-14T06:39:53.000Z</time>
      </trkpt>
      <trkpt lat="43.86229" lon="3.31983">
        <ele>796</ele>
        <time>2014-09-14T06:39:57.000Z</time>
      </trkpt>
      <trkpt lat="43.86232" lon="3.31976">
        <ele>796</ele>
        <time>2014-09-14T06:39:59.000Z</time>
      </trkpt>
      <trkpt lat="43.86236" lon="3.31969">
        <ele>796</ele>
        <time>2014-09-14T06:40:01.000Z</time>
      </trkpt>
      <trkpt lat="43.8624" lon="3.31962">
        <ele>796</ele>
        <time>2014-09-14T06:40:03.000Z</time>
      </trkpt>
      <trkpt lat="43.86245" lon="3.31957">
        <ele>797</ele>
        <time>2014-09-14T06:40:05.000Z</time>
      </trkpt>
      <trkpt lat="43.8625" lon="3.31952">
        <ele>797</ele>
        <time>2014-09-14T06:40:07.000Z</time>
      </trkpt>
      <trkpt lat="43.86254" lon="3.31948">
        <ele>797</ele>
        <time>2014-09-14T06:40:09.000Z</time>
      </trkpt>
      <trkpt lat="43.86259" lon="3.31943">
        <ele>797</ele>
        <time>2014-09-14T06:40:11.000Z</time>
      </trkpt>
      <trkpt lat="43.86268" lon="3.31936">
        <ele>795</ele>
        <time>2014-09-14T06:40:15.000Z</time>
      </trkpt>
      <trkpt lat="43.86268" lon="3.31936">
        <ele>795</ele>
        <time>2014-09-14T06:40:17.000Z</time>
      </trkpt>
      <trkpt lat="43.86277" lon="3.31929">
        <ele>795</ele>
        <time>2014-09-14T06:40:19.000Z</time>
      </trkpt>
      <trkpt lat="43.86277" lon="3.31929">
        <ele>795</ele>
        <time>2014-09-14T06:40:21.000Z</time>
      </trkpt>
      <trkpt lat="43.86285" lon="3.31923">
        <ele>797</ele>
        <time>2014-09-14T06:40:23.000Z</time>
      </trkpt>
      <trkpt lat="43.86285" lon="3.31923">
        <ele>797</ele>
        <time>2014-09-14T06:40:25.000Z</time>
      </trkpt>
      <trkpt lat="43.86292" lon="3.31916">
        <ele>798</ele>
        <time>2014-09-14T06:40:27.000Z</time>
      </trkpt>
      <trkpt lat="43.86292" lon="3.31916">
        <ele>798</ele>
        <time>2014-09-14T06:40:29.000Z</time>
      </trkpt>
      <trkpt lat="43.86299" lon="3.31908">
        <ele>800</ele>
        <time>2014-09-14T06:40:31.000Z</time>
      </trkpt>
      <trkpt lat="43.86304" lon="3.31904">
        <ele>799</ele>
        <time>2014-09-14T06:40:33.000Z</time>
      </trkpt>
      <trkpt lat="43.86309" lon="3.31899">
        <ele>799</ele>
        <time>2014-09-14T06:40:35.000Z</time>
      </trkpt>
      <trkpt lat="43.86314" lon="3.31894">
        <ele>799</ele>
        <time>2014-09-14T06:40:37.000Z</time>
      </trkpt>
      <trkpt lat="43.86319" lon="3.31888">
        <ele>801</ele>
        <time>2014-09-14T06:40:39.000Z</time>
      </trkpt>
      <trkpt lat="43.86324" lon="3.31883">
        <ele>800</ele>
        <time>2014-09-14T06:40:41.000Z</time>
      </trkpt>
      <trkpt lat="43.86329" lon="3.31878">
        <ele>800</ele>
        <time>2014-09-14T06:40:43.000Z</time>
      </trkpt>
      <trkpt lat="43.86334" lon="3.31872">
        <ele>800</ele>
        <time>2014-09-14T06:40:45.000Z</time>
      </trkpt>
      <trkpt lat="43.86339" lon="3.31865">
        <ele>802</ele>
        <time>2014-09-14T06:40:47.000Z</time>
      </trkpt>
      <trkpt lat="43.86344" lon="3.3186">
        <ele>803</ele>
        <time>2014-09-14T06:40:49.000Z</time>
      </trkpt>
      <trkpt lat="43.86349" lon="3.31854">
        <ele>803</ele>
        <time>2014-09-14T06:40:51.000Z</time>
      </trkpt>
      <trkpt lat="43.86354" lon="3.31849">
        <ele>803</ele>
        <time>2014-09-14T06:40:53.000Z</time>
      </trkpt>
      <trkpt lat="43.86359" lon="3.31843">
        <ele>804</ele>
        <time>2014-09-14T06:40:55.000Z</time>
      </trkpt>
      <trkpt lat="43.86363" lon="3.31837">
        <ele>802</ele>
        <time>2014-09-14T06:40:57.000Z</time>
      </trkpt>
      <trkpt lat="43.86369" lon="3.31831">
        <ele>804</ele>
        <time>2014-09-14T06:40:59.000Z</time>
      </trkpt>
      <trkpt lat="43.86375" lon="3.31828">
        <ele>808</ele>
        <time>2014-09-14T06:41:01.000Z</time>
      </trkpt>
      <trkpt lat="43.86381" lon="3.31826">
        <ele>808</ele>
        <time>2014-09-14T06:41:03.000Z</time>
      </trkpt>
      <trkpt lat="43.86387" lon="3.31822">
        <ele>809</ele>
        <time>2014-09-14T06:41:05.000Z</time>
      </trkpt>
      <trkpt lat="43.86394" lon="3.3182">
        <ele>808</ele>
        <time>2014-09-14T06:41:07.000Z</time>
      </trkpt>
      <trkpt lat="43.86401" lon="3.31818">
        <ele>809</ele>
        <time>2014-09-14T06:41:09.000Z</time>
      </trkpt>
      <trkpt lat="43.86407" lon="3.31813">
        <ele>809</ele>
        <time>2014-09-14T06:41:11.000Z</time>
      </trkpt>
      <trkpt lat="43.86412" lon="3.31808">
        <ele>811</ele>
        <time>2014-09-14T06:41:13.000Z</time>
      </trkpt>
      <trkpt lat="43.86418" lon="3.31804">
        <ele>809</ele>
        <time>2014-09-14T06:41:15.000Z</time>
      </trkpt>
      <trkpt lat="43.86424" lon="3.31797">
        <ele>808</ele>
        <time>2014-09-14T06:41:17.000Z</time>
      </trkpt>
      <trkpt lat="43.8643" lon="3.31791">
        <ele>806</ele>
        <time>2014-09-14T06:41:19.000Z</time>
      </trkpt>
      <trkpt lat="43.86437" lon="3.31783">
        <ele>807</ele>
        <time>2014-09-14T06:41:21.000Z</time>
      </trkpt>
      <trkpt lat="43.86444" lon="3.31775">
        <ele>805</ele>
        <time>2014-09-14T06:41:23.000Z</time>
      </trkpt>
      <trkpt lat="43.86452" lon="3.31765">
        <ele>804</ele>
        <time>2014-09-14T06:41:25.000Z</time>
      </trkpt>
      <trkpt lat="43.86459" lon="3.31751">
        <ele>803</ele>
        <time>2014-09-14T06:41:27.000Z</time>
      </trkpt>
      <trkpt lat="43.8647" lon="3.31745">
        <ele>804</ele>
        <time>2014-09-14T06:41:30.000Z</time>
      </trkpt>
      <trkpt lat="43.8647" lon="3.31745">
        <ele>804</ele>
        <time>2014-09-14T06:41:32.000Z</time>
      </trkpt>
      <trkpt lat="43.86478" lon="3.31741">
        <ele>808</ele>
        <time>2014-09-14T06:41:34.000Z</time>
      </trkpt>
      <trkpt lat="43.86478" lon="3.31741">
        <ele>808</ele>
        <time>2014-09-14T06:41:36.000Z</time>
      </trkpt>
      <trkpt lat="43.86484" lon="3.31736">
        <ele>814</ele>
        <time>2014-09-14T06:41:38.000Z</time>
      </trkpt>
      <trkpt lat="43.86484" lon="3.31736">
        <ele>814</ele>
        <time>2014-09-14T06:41:40.000Z</time>
      </trkpt>
      <trkpt lat="43.86493" lon="3.31728">
        <ele>816</ele>
        <time>2014-09-14T06:41:42.000Z</time>
      </trkpt>
      <trkpt lat="43.86498" lon="3.31725">
        <ele>815</ele>
        <time>2014-09-14T06:41:44.000Z</time>
      </trkpt>
      <trkpt lat="43.86506" lon="3.3172">
        <ele>815</ele>
        <time>2014-09-14T06:41:46.000Z</time>
      </trkpt>
      <trkpt lat="43.86512" lon="3.31717">
        <ele>816</ele>
        <time>2014-09-14T06:41:48.000Z</time>
      </trkpt>
      <trkpt lat="43.86521" lon="3.31713">
        <ele>817</ele>
        <time>2014-09-14T06:41:52.000Z</time>
      </trkpt>
      <trkpt lat="43.86521" lon="3.31713">
        <ele>817</ele>
        <time>2014-09-14T06:41:54.000Z</time>
      </trkpt>
      <trkpt lat="43.8653" lon="3.31706">
        <ele>813</ele>
        <time>2014-09-14T06:41:56.000Z</time>
      </trkpt>
      <trkpt lat="43.86539" lon="3.31698">
        <ele>806</ele>
        <time>2014-09-14T06:42:00.000Z</time>
      </trkpt>
      <trkpt lat="43.86539" lon="3.31698">
        <ele>806</ele>
        <time>2014-09-14T06:42:02.000Z</time>
      </trkpt>
      <trkpt lat="43.86547" lon="3.31696">
        <ele>801</ele>
        <time>2014-09-14T06:42:04.000Z</time>
      </trkpt>
      <trkpt lat="43.86547" lon="3.31696">
        <ele>801</ele>
        <time>2014-09-14T06:42:06.000Z</time>
      </trkpt>
      <trkpt lat="43.8655" lon="3.31697">
        <ele>800</ele>
        <time>2014-09-14T06:42:08.000Z</time>
      </trkpt>
      <trkpt lat="43.8655" lon="3.31697">
        <ele>800</ele>
        <time>2014-09-14T06:42:10.000Z</time>
      </trkpt>
      <trkpt lat="43.86553" lon="3.31699">
        <ele>799</ele>
        <time>2014-09-14T06:42:12.000Z</time>
      </trkpt>
      <trkpt lat="43.86553" lon="3.31699">
        <ele>799</ele>
        <time>2014-09-14T06:42:14.000Z</time>
      </trkpt>
      <trkpt lat="43.86556" lon="3.31701">
        <ele>801</ele>
        <time>2014-09-14T06:42:16.000Z</time>
      </trkpt>
      <trkpt lat="43.86556" lon="3.31701">
        <ele>801</ele>
        <time>2014-09-14T06:42:18.000Z</time>
      </trkpt>
      <trkpt lat="43.8656" lon="3.31702">
        <ele>797</ele>
        <time>2014-09-14T06:42:20.000Z</time>
      </trkpt>
      <trkpt lat="43.86564" lon="3.31703">
        <ele>797</ele>
        <time>2014-09-14T06:42:22.000Z</time>
      </trkpt>
      <trkpt lat="43.86567" lon="3.31703">
        <ele>799</ele>
        <time>2014-09-14T06:42:24.000Z</time>
      </trkpt>
      <trkpt lat="43.86572" lon="3.31702">
        <ele>798</ele>
        <time>2014-09-14T06:42:28.000Z</time>
      </trkpt>
      <trkpt lat="43.86575" lon="3.31701">
        <ele>799</ele>
        <time>2014-09-14T06:42:30.000Z</time>
      </trkpt>
      <trkpt lat="43.86578" lon="3.31701">
        <ele>799</ele>
        <time>2014-09-14T06:42:32.000Z</time>
      </trkpt>
      <trkpt lat="43.86582" lon="3.317">
        <ele>798</ele>
        <time>2014-09-14T06:42:34.000Z</time>
      </trkpt>
      <trkpt lat="43.86585" lon="3.31699">
        <ele>798</ele>
        <time>2014-09-14T06:42:36.000Z</time>
      </trkpt>
      <trkpt lat="43.86591" lon="3.31694">
        <ele>798</ele>
        <time>2014-09-14T06:42:38.000Z</time>
      </trkpt>
      <trkpt lat="43.86602" lon="3.31685">
        <ele>796</ele>
        <time>2014-09-14T06:42:42.000Z</time>
      </trkpt>
      <trkpt lat="43.86607" lon="3.31679">
        <ele>795</ele>
        <time>2014-09-14T06:42:44.000Z</time>
      </trkpt>
      <trkpt lat="43.86614" lon="3.31675">
        <ele>794</ele>
        <time>2014-09-14T06:42:46.000Z</time>
      </trkpt>
      <trkpt lat="43.8662" lon="3.31673">
        <ele>793</ele>
        <time>2014-09-14T06:42:48.000Z</time>
      </trkpt>
      <trkpt lat="43.8662" lon="3.31673">
        <ele>793</ele>
        <time>2014-09-14T06:42:50.000Z</time>
      </trkpt>
      <trkpt lat="43.86629" lon="3.31667">
        <ele>792</ele>
        <time>2014-09-14T06:42:52.000Z</time>
      </trkpt>
      <trkpt lat="43.86629" lon="3.31667">
        <ele>792</ele>
        <time>2014-09-14T06:42:54.000Z</time>
      </trkpt>
      <trkpt lat="43.86639" lon="3.3166">
        <ele>791</ele>
        <time>2014-09-14T06:42:56.000Z</time>
      </trkpt>
      <trkpt lat="43.86639" lon="3.3166">
        <ele>791</ele>
        <time>2014-09-14T06:42:58.000Z</time>
      </trkpt>
      <trkpt lat="43.86651" lon="3.31663">
        <ele>792</ele>
        <time>2014-09-14T06:43:00.000Z</time>
      </trkpt>
      <trkpt lat="43.86658" lon="3.31664">
        <ele>792</ele>
        <time>2014-09-14T06:43:02.000Z</time>
      </trkpt>
      <trkpt lat="43.86666" lon="3.31664">
        <ele>791</ele>
        <time>2014-09-14T06:43:04.000Z</time>
      </trkpt>
      <trkpt lat="43.86677" lon="3.31665">
        <ele>790</ele>
        <time>2014-09-14T06:43:06.000Z</time>
      </trkpt>
      <trkpt lat="43.86687" lon="3.31664">
        <ele>789</ele>
        <time>2014-09-14T06:43:08.000Z</time>
      </trkpt>
      <trkpt lat="43.86699" lon="3.31663">
        <ele>787</ele>
        <time>2014-09-14T06:43:10.000Z</time>
      </trkpt>
      <trkpt lat="43.8671" lon="3.31661">
        <ele>786</ele>
        <time>2014-09-14T06:43:12.000Z</time>
      </trkpt>
      <trkpt lat="43.86721" lon="3.31657">
        <ele>786</ele>
        <time>2014-09-14T06:43:14.000Z</time>
      </trkpt>
      <trkpt lat="43.86732" lon="3.31654">
        <ele>787</ele>
        <time>2014-09-14T06:43:16.000Z</time>
      </trkpt>
      <trkpt lat="43.86744" lon="3.3165">
        <ele>786</ele>
        <time>2014-09-14T06:43:18.000Z</time>
      </trkpt>
      <trkpt lat="43.86755" lon="3.31645">
        <ele>786</ele>
        <time>2014-09-14T06:43:20.000Z</time>
      </trkpt>
      <trkpt lat="43.86766" lon="3.31641">
        <ele>785</ele>
        <time>2014-09-14T06:43:22.000Z</time>
      </trkpt>
      <trkpt lat="43.86776" lon="3.31635">
        <ele>783</ele>
        <time>2014-09-14T06:43:24.000Z</time>
      </trkpt>
      <trkpt lat="43.86785" lon="3.31631">
        <ele>782</ele>
        <time>2014-09-14T06:43:26.000Z</time>
      </trkpt>
      <trkpt lat="43.86794" lon="3.31626">
        <ele>781</ele>
        <time>2014-09-14T06:43:28.000Z</time>
      </trkpt>
      <trkpt lat="43.86802" lon="3.3162">
        <ele>781</ele>
        <time>2014-09-14T06:43:30.000Z</time>
      </trkpt>
      <trkpt lat="43.86813" lon="3.31617">
        <ele>780</ele>
        <time>2014-09-14T06:43:32.000Z</time>
      </trkpt>
      <trkpt lat="43.86821" lon="3.31618">
        <ele>781</ele>
        <time>2014-09-14T06:43:34.000Z</time>
      </trkpt>
      <trkpt lat="43.8683" lon="3.31614">
        <ele>778</ele>
        <time>2014-09-14T06:43:36.000Z</time>
      </trkpt>
      <trkpt lat="43.86836" lon="3.31612">
        <ele>780</ele>
        <time>2014-09-14T06:43:39.000Z</time>
      </trkpt>
      <trkpt lat="43.86836" lon="3.31612">
        <ele>780</ele>
        <time>2014-09-14T06:43:41.000Z</time>
      </trkpt>
      <trkpt lat="43.86844" lon="3.31605">
        <ele>781</ele>
        <time>2014-09-14T06:43:43.000Z</time>
      </trkpt>
      <trkpt lat="43.8685" lon="3.31601">
        <ele>781</ele>
        <time>2014-09-14T06:43:45.000Z</time>
      </trkpt>
      <trkpt lat="43.86857" lon="3.31601">
        <ele>781</ele>
        <time>2014-09-14T06:43:47.000Z</time>
      </trkpt>
      <trkpt lat="43.86863" lon="3.31601">
        <ele>781</ele>
        <time>2014-09-14T06:43:49.000Z</time>
      </trkpt>
      <trkpt lat="43.86863" lon="3.31601">
        <ele>781</ele>
        <time>2014-09-14T06:43:51.000Z</time>
      </trkpt>
      <trkpt lat="43.86867" lon="3.31595">
        <ele>780</ele>
        <time>2014-09-14T06:43:53.000Z</time>
      </trkpt>
      <trkpt lat="43.86867" lon="3.31595">
        <ele>780</ele>
        <time>2014-09-14T06:43:55.000Z</time>
      </trkpt>
      <trkpt lat="43.86864" lon="3.3158">
        <ele>778</ele>
        <time>2014-09-14T06:43:57.000Z</time>
      </trkpt>
      <trkpt lat="43.86873" lon="3.31576">
        <ele>780</ele>
        <time>2014-09-14T06:44:01.000Z</time>
      </trkpt>
      <trkpt lat="43.8688" lon="3.31577">
        <ele>780</ele>
        <time>2014-09-14T06:44:03.000Z</time>
      </trkpt>
      <trkpt lat="43.86888" lon="3.31583">
        <ele>781</ele>
        <time>2014-09-14T06:44:05.000Z</time>
      </trkpt>
      <trkpt lat="43.86895" lon="3.31587">
        <ele>781</ele>
        <time>2014-09-14T06:44:07.000Z</time>
      </trkpt>
      <trkpt lat="43.86905" lon="3.31593">
        <ele>780</ele>
        <time>2014-09-14T06:44:11.000Z</time>
      </trkpt>
      <trkpt lat="43.86905" lon="3.31593">
        <ele>780</ele>
        <time>2014-09-14T06:44:13.000Z</time>
      </trkpt>
      <trkpt lat="43.86914" lon="3.31595">
        <ele>784</ele>
        <time>2014-09-14T06:44:15.000Z</time>
      </trkpt>
      <trkpt lat="43.86914" lon="3.31595">
        <ele>784</ele>
        <time>2014-09-14T06:44:17.000Z</time>
      </trkpt>
      <trkpt lat="43.86919" lon="3.31598">
        <ele>783</ele>
        <time>2014-09-14T06:44:19.000Z</time>
      </trkpt>
      <trkpt lat="43.86919" lon="3.31598">
        <ele>783</ele>
        <time>2014-09-14T06:44:21.000Z</time>
      </trkpt>
      <trkpt lat="43.86917" lon="3.31609">
        <ele>783</ele>
        <time>2014-09-14T06:44:23.000Z</time>
      </trkpt>
      <trkpt lat="43.86917" lon="3.31609">
        <ele>783</ele>
        <time>2014-09-14T06:44:25.000Z</time>
      </trkpt>
      <trkpt lat="43.86917" lon="3.31609">
        <ele>783</ele>
        <time>2014-09-14T06:44:27.000Z</time>
      </trkpt>
      <trkpt lat="43.86917" lon="3.31609">
        <ele>783</ele>
        <time>2014-09-14T06:44:29.000Z</time>
      </trkpt>
      <trkpt lat="43.86917" lon="3.31609">
        <ele>783</ele>
        <time>2014-09-14T06:44:31.000Z</time>
      </trkpt>
      <trkpt lat="43.86919" lon="3.31619">
        <ele>786</ele>
        <time>2014-09-14T06:44:33.000Z</time>
      </trkpt>
      <trkpt lat="43.86921" lon="3.31627">
        <ele>782</ele>
        <time>2014-09-14T06:44:39.000Z</time>
      </trkpt>
      <trkpt lat="43.86921" lon="3.31627">
        <ele>782</ele>
        <time>2014-09-14T06:44:45.000Z</time>
      </trkpt>
      <trkpt lat="43.86942" lon="3.31635">
        <ele>782</ele>
        <time>2014-09-14T06:45:01.000Z</time>
      </trkpt>
      <trkpt lat="43.86948" lon="3.31639">
        <ele>779</ele>
        <time>2014-09-14T06:45:05.000Z</time>
      </trkpt>
      <trkpt lat="43.86951" lon="3.31641">
        <ele>778</ele>
        <time>2014-09-14T06:45:09.000Z</time>
      </trkpt>
      <trkpt lat="43.86955" lon="3.31645">
        <ele>778</ele>
        <time>2014-09-14T06:45:11.000Z</time>
      </trkpt>
      <trkpt lat="43.86959" lon="3.31648">
        <ele>779</ele>
        <time>2014-09-14T06:45:13.000Z</time>
      </trkpt>
      <trkpt lat="43.86964" lon="3.3165">
        <ele>779</ele>
        <time>2014-09-14T06:45:15.000Z</time>
      </trkpt>
      <trkpt lat="43.86968" lon="3.31651">
        <ele>781</ele>
        <time>2014-09-14T06:45:17.000Z</time>
      </trkpt>
      <trkpt lat="43.86977" lon="3.3165">
        <ele>781</ele>
        <time>2014-09-14T06:45:19.000Z</time>
      </trkpt>
      <trkpt lat="43.86977" lon="3.3165">
        <ele>781</ele>
        <time>2014-09-14T06:45:21.000Z</time>
      </trkpt>
      <trkpt lat="43.86977" lon="3.3165">
        <ele>781</ele>
        <time>2014-09-14T06:45:23.000Z</time>
      </trkpt>
      <trkpt lat="43.86977" lon="3.3165">
        <ele>781</ele>
        <time>2014-09-14T06:45:25.000Z</time>
      </trkpt>
      <trkpt lat="43.86983" lon="3.31655">
        <ele>776</ele>
        <time>2014-09-14T06:45:27.000Z</time>
      </trkpt>
      <trkpt lat="43.86983" lon="3.31655">
        <ele>776</ele>
        <time>2014-09-14T06:45:29.000Z</time>
      </trkpt>
      <trkpt lat="43.86987" lon="3.31662">
        <ele>779</ele>
        <time>2014-09-14T06:45:35.000Z</time>
      </trkpt>
      <trkpt lat="43.86987" lon="3.31662">
        <ele>779</ele>
        <time>2014-09-14T06:45:37.000Z</time>
      </trkpt>
      <trkpt lat="43.86987" lon="3.31662">
        <ele>779</ele>
        <time>2014-09-14T06:45:39.000Z</time>
      </trkpt>
      <trkpt lat="43.86987" lon="3.31662">
        <ele>779</ele>
        <time>2014-09-14T06:45:41.000Z</time>
      </trkpt>
      <trkpt lat="43.86987" lon="3.31662">
        <ele>779</ele>
        <time>2014-09-14T06:45:43.000Z</time>
      </trkpt>
      <trkpt lat="43.86987" lon="3.31662">
        <ele>779</ele>
        <time>2014-09-14T06:45:45.000Z</time>
      </trkpt>
      <trkpt lat="43.86987" lon="3.31662">
        <ele>779</ele>
        <time>2014-09-14T06:45:47.000Z</time>
      </trkpt>
      <trkpt lat="43.86987" lon="3.31662">
        <ele>779</ele>
        <time>2014-09-14T06:45:49.000Z</time>
      </trkpt>
      <trkpt lat="43.87001" lon="3.31679">
        <ele>783</ele>
        <time>2014-09-14T06:46:11.000Z</time>
      </trkpt>
      <trkpt lat="43.87001" lon="3.31679">
        <ele>783</ele>
        <time>2014-09-14T06:46:13.000Z</time>
      </trkpt>
      <trkpt lat="43.87001" lon="3.31679">
        <ele>783</ele>
        <time>2014-09-14T06:46:15.000Z</time>
      </trkpt>
      <trkpt lat="43.87001" lon="3.31679">
        <ele>783</ele>
        <time>2014-09-14T06:46:17.000Z</time>
      </trkpt>
      <trkpt lat="43.87001" lon="3.31679">
        <ele>783</ele>
        <time>2014-09-14T06:46:19.000Z</time>
      </trkpt>
      <trkpt lat="43.87001" lon="3.31679">
        <ele>783</ele>
        <time>2014-09-14T06:46:21.000Z</time>
      </trkpt>
      <trkpt lat="43.87001" lon="3.31679">
        <ele>783</ele>
        <time>2014-09-14T06:46:27.000Z</time>
      </trkpt>
      <trkpt lat="43.87001" lon="3.31679">
        <ele>783</ele>
        <time>2014-09-14T06:46:29.000Z</time>
      </trkpt>
      <trkpt lat="43.87014" lon="3.31672">
        <ele>786</ele>
        <time>2014-09-14T06:46:47.000Z</time>
      </trkpt>
      <trkpt lat="43.87023" lon="3.31667">
        <ele>787</ele>
        <time>2014-09-14T06:46:49.000Z</time>
      </trkpt>
      <trkpt lat="43.87029" lon="3.31664">
        <ele>786</ele>
        <time>2014-09-14T06:46:51.000Z</time>
      </trkpt>
      <trkpt lat="43.87034" lon="3.31661">
        <ele>788</ele>
        <time>2014-09-14T06:46:53.000Z</time>
      </trkpt>
      <trkpt lat="43.87039" lon="3.31657">
        <ele>786</ele>
        <time>2014-09-14T06:46:55.000Z</time>
      </trkpt>
      <trkpt lat="43.87049" lon="3.31648">
        <ele>786</ele>
        <time>2014-09-14T06:46:57.000Z</time>
      </trkpt>
      <trkpt lat="43.87054" lon="3.31643">
        <ele>785</ele>
        <time>2014-09-14T06:46:59.000Z</time>
      </trkpt>
      <trkpt lat="43.87059" lon="3.31635">
        <ele>787</ele>
        <time>2014-09-14T06:47:01.000Z</time>
      </trkpt>
      <trkpt lat="43.87066" lon="3.31631">
        <ele>787</ele>
        <time>2014-09-14T06:47:03.000Z</time>
      </trkpt>
      <trkpt lat="43.87073" lon="3.31628">
        <ele>785</ele>
        <time>2014-09-14T06:47:05.000Z</time>
      </trkpt>
      <trkpt lat="43.8708" lon="3.31627">
        <ele>784</ele>
        <time>2014-09-14T06:47:07.000Z</time>
      </trkpt>
      <trkpt lat="43.87085" lon="3.31624">
        <ele>783</ele>
        <time>2014-09-14T06:47:09.000Z</time>
      </trkpt>
      <trkpt lat="43.87091" lon="3.31621">
        <ele>784</ele>
        <time>2014-09-14T06:47:11.000Z</time>
      </trkpt>
      <trkpt lat="43.87091" lon="3.31621">
        <ele>784</ele>
        <time>2014-09-14T06:47:13.000Z</time>
      </trkpt>
      <trkpt lat="43.87098" lon="3.31617">
        <ele>784</ele>
        <time>2014-09-14T06:47:15.000Z</time>
      </trkpt>
      <trkpt lat="43.87098" lon="3.31617">
        <ele>784</ele>
        <time>2014-09-14T06:47:17.000Z</time>
      </trkpt>
      <trkpt lat="43.87098" lon="3.31617">
        <ele>784</ele>
        <time>2014-09-14T06:47:19.000Z</time>
      </trkpt>
      <trkpt lat="43.87098" lon="3.31617">
        <ele>784</ele>
        <time>2014-09-14T06:47:21.000Z</time>
      </trkpt>
      <trkpt lat="43.87104" lon="3.31619">
        <ele>785</ele>
        <time>2014-09-14T06:47:23.000Z</time>
      </trkpt>
      <trkpt lat="43.87112" lon="3.31628">
        <ele>783</ele>
        <time>2014-09-14T06:47:27.000Z</time>
      </trkpt>
      <trkpt lat="43.87114" lon="3.31636">
        <ele>784</ele>
        <time>2014-09-14T06:47:29.000Z</time>
      </trkpt>
      <trkpt lat="43.87116" lon="3.31646">
        <ele>785</ele>
        <time>2014-09-14T06:47:31.000Z</time>
      </trkpt>
      <trkpt lat="43.8712" lon="3.31653">
        <ele>784</ele>
        <time>2014-09-14T06:47:33.000Z</time>
      </trkpt>
      <trkpt lat="43.8712" lon="3.31653">
        <ele>784</ele>
        <time>2014-09-14T06:47:35.000Z</time>
      </trkpt>
      <trkpt lat="43.87129" lon="3.31659">
        <ele>783</ele>
        <time>2014-09-14T06:47:37.000Z</time>
      </trkpt>
      <trkpt lat="43.87129" lon="3.31659">
        <ele>783</ele>
        <time>2014-09-14T06:47:39.000Z</time>
      </trkpt>
      <trkpt lat="43.87141" lon="3.31663">
        <ele>778</ele>
        <time>2014-09-14T06:47:41.000Z</time>
      </trkpt>
      <trkpt lat="43.87148" lon="3.31663">
        <ele>780</ele>
        <time>2014-09-14T06:47:43.000Z</time>
      </trkpt>
      <trkpt lat="43.87154" lon="3.31659">
        <ele>782</ele>
        <time>2014-09-14T06:47:45.000Z</time>
      </trkpt>
      <trkpt lat="43.87162" lon="3.31654">
        <ele>781</ele>
        <time>2014-09-14T06:47:49.000Z</time>
      </trkpt>
      <trkpt lat="43.87162" lon="3.31654">
        <ele>781</ele>
        <time>2014-09-14T06:47:51.000Z</time>
      </trkpt>
      <trkpt lat="43.8717" lon="3.31656">
        <ele>784</ele>
        <time>2014-09-14T06:47:53.000Z</time>
      </trkpt>
      <trkpt lat="43.8717" lon="3.31656">
        <ele>784</ele>
        <time>2014-09-14T06:47:55.000Z</time>
      </trkpt>
      <trkpt lat="43.87181" lon="3.31657">
        <ele>785</ele>
        <time>2014-09-14T06:47:57.000Z</time>
      </trkpt>
      <trkpt lat="43.87187" lon="3.31655">
        <ele>784</ele>
        <time>2014-09-14T06:47:59.000Z</time>
      </trkpt>
      <trkpt lat="43.87195" lon="3.31654">
        <ele>782</ele>
        <time>2014-09-14T06:48:01.000Z</time>
      </trkpt>
      <trkpt lat="43.87203" lon="3.31655">
        <ele>782</ele>
        <time>2014-09-14T06:48:03.000Z</time>
      </trkpt>
      <trkpt lat="43.87209" lon="3.31656">
        <ele>782</ele>
        <time>2014-09-14T06:48:05.000Z</time>
      </trkpt>
      <trkpt lat="43.87216" lon="3.31658">
        <ele>778</ele>
        <time>2014-09-14T06:48:07.000Z</time>
      </trkpt>
      <trkpt lat="43.87223" lon="3.31659">
        <ele>779</ele>
        <time>2014-09-14T06:48:09.000Z</time>
      </trkpt>
      <trkpt lat="43.87229" lon="3.31655">
        <ele>781</ele>
        <time>2014-09-14T06:48:11.000Z</time>
      </trkpt>
      <trkpt lat="43.87235" lon="3.31652">
        <ele>782</ele>
        <time>2014-09-14T06:48:13.000Z</time>
      </trkpt>
      <trkpt lat="43.87241" lon="3.31649">
        <ele>782</ele>
        <time>2014-09-14T06:48:15.000Z</time>
      </trkpt>
      <trkpt lat="43.87247" lon="3.31646">
        <ele>780</ele>
        <time>2014-09-14T06:48:17.000Z</time>
      </trkpt>
      <trkpt lat="43.87255" lon="3.31646">
        <ele>782</ele>
        <time>2014-09-14T06:48:19.000Z</time>
      </trkpt>
      <trkpt lat="43.87262" lon="3.31646">
        <ele>782</ele>
        <time>2014-09-14T06:48:21.000Z</time>
      </trkpt>
      <trkpt lat="43.87269" lon="3.31645">
        <ele>784</ele>
        <time>2014-09-14T06:48:23.000Z</time>
      </trkpt>
      <trkpt lat="43.87275" lon="3.31645">
        <ele>780</ele>
        <time>2014-09-14T06:48:25.000Z</time>
      </trkpt>
      <trkpt lat="43.87275" lon="3.31645">
        <ele>780</ele>
        <time>2014-09-14T06:48:27.000Z</time>
      </trkpt>
      <trkpt lat="43.87285" lon="3.31645">
        <ele>785</ele>
        <time>2014-09-14T06:48:29.000Z</time>
      </trkpt>
      <trkpt lat="43.87285" lon="3.31645">
        <ele>785</ele>
        <time>2014-09-14T06:48:31.000Z</time>
      </trkpt>
      <trkpt lat="43.87296" lon="3.31645">
        <ele>784</ele>
        <time>2014-09-14T06:48:33.000Z</time>
      </trkpt>
      <trkpt lat="43.87302" lon="3.31647">
        <ele>787</ele>
        <time>2014-09-14T06:48:35.000Z</time>
      </trkpt>
      <trkpt lat="43.87308" lon="3.31647">
        <ele>785</ele>
        <time>2014-09-14T06:48:37.000Z</time>
      </trkpt>
      <trkpt lat="43.87314" lon="3.31647">
        <ele>784</ele>
        <time>2014-09-14T06:48:39.000Z</time>
      </trkpt>
      <trkpt lat="43.8732" lon="3.31647">
        <ele>781</ele>
        <time>2014-09-14T06:48:41.000Z</time>
      </trkpt>
      <trkpt lat="43.87329" lon="3.31644">
        <ele>783</ele>
        <time>2014-09-14T06:48:45.000Z</time>
      </trkpt>
      <trkpt lat="43.87329" lon="3.31644">
        <ele>783</ele>
        <time>2014-09-14T06:48:47.000Z</time>
      </trkpt>
      <trkpt lat="43.87337" lon="3.3164">
        <ele>784</ele>
        <time>2014-09-14T06:48:49.000Z</time>
      </trkpt>
      <trkpt lat="43.87337" lon="3.3164">
        <ele>784</ele>
        <time>2014-09-14T06:48:51.000Z</time>
      </trkpt>
      <trkpt lat="43.87344" lon="3.31641">
        <ele>784</ele>
        <time>2014-09-14T06:48:53.000Z</time>
      </trkpt>
      <trkpt lat="43.87344" lon="3.31641">
        <ele>784</ele>
        <time>2014-09-14T06:48:55.000Z</time>
      </trkpt>
      <trkpt lat="43.87351" lon="3.31642">
        <ele>783</ele>
        <time>2014-09-14T06:48:57.000Z</time>
      </trkpt>
      <trkpt lat="43.87351" lon="3.31642">
        <ele>783</ele>
        <time>2014-09-14T06:48:59.000Z</time>
      </trkpt>
      <trkpt lat="43.87359" lon="3.31645">
        <ele>780</ele>
        <time>2014-09-14T06:49:01.000Z</time>
      </trkpt>
      <trkpt lat="43.87359" lon="3.31645">
        <ele>780</ele>
        <time>2014-09-14T06:49:03.000Z</time>
      </trkpt>
      <trkpt lat="43.87366" lon="3.31644">
        <ele>780</ele>
        <time>2014-09-14T06:49:05.000Z</time>
      </trkpt>
      <trkpt lat="43.87366" lon="3.31644">
        <ele>780</ele>
        <time>2014-09-14T06:49:07.000Z</time>
      </trkpt>
      <trkpt lat="43.87374" lon="3.31644">
        <ele>783</ele>
        <time>2014-09-14T06:49:09.000Z</time>
      </trkpt>
      <trkpt lat="43.87374" lon="3.31644">
        <ele>783</ele>
        <time>2014-09-14T06:49:11.000Z</time>
      </trkpt>
      <trkpt lat="43.8738" lon="3.31645">
        <ele>784</ele>
        <time>2014-09-14T06:49:13.000Z</time>
      </trkpt>
      <trkpt lat="43.8738" lon="3.31645">
        <ele>784</ele>
        <time>2014-09-14T06:49:15.000Z</time>
      </trkpt>
      <trkpt lat="43.87386" lon="3.31645">
        <ele>785</ele>
        <time>2014-09-14T06:49:17.000Z</time>
      </trkpt>
      <trkpt lat="43.87386" lon="3.31645">
        <ele>785</ele>
        <time>2014-09-14T06:49:19.000Z</time>
      </trkpt>
      <trkpt lat="43.87386" lon="3.31645">
        <ele>785</ele>
        <time>2014-09-14T06:49:21.000Z</time>
      </trkpt>
      <trkpt lat="43.87386" lon="3.31645">
        <ele>785</ele>
        <time>2014-09-14T06:49:23.000Z</time>
      </trkpt>
      <trkpt lat="43.87392" lon="3.31645">
        <ele>785</ele>
        <time>2014-09-14T06:49:25.000Z</time>
      </trkpt>
      <trkpt lat="43.87392" lon="3.31645">
        <ele>785</ele>
        <time>2014-09-14T06:49:27.000Z</time>
      </trkpt>
      <trkpt lat="43.87399" lon="3.31647">
        <ele>786</ele>
        <time>2014-09-14T06:49:29.000Z</time>
      </trkpt>
      <trkpt lat="43.87405" lon="3.31649">
        <ele>781</ele>
        <time>2014-09-14T06:49:33.000Z</time>
      </trkpt>
      <trkpt lat="43.8741" lon="3.31647">
        <ele>786</ele>
        <time>2014-09-14T06:49:37.000Z</time>
      </trkpt>
      <trkpt lat="43.87417" lon="3.31644">
        <ele>786</ele>
        <time>2014-09-14T06:49:41.000Z</time>
      </trkpt>
      <trkpt lat="43.87424" lon="3.31644">
        <ele>788</ele>
        <time>2014-09-14T06:49:45.000Z</time>
      </trkpt>
      <trkpt lat="43.87428" lon="3.31642">
        <ele>788</ele>
        <time>2014-09-14T06:49:49.000Z</time>
      </trkpt>
      <trkpt lat="43.87431" lon="3.31641">
        <ele>789</ele>
        <time>2014-09-14T06:49:51.000Z</time>
      </trkpt>
      <trkpt lat="43.87434" lon="3.31641">
        <ele>789</ele>
        <time>2014-09-14T06:49:53.000Z</time>
      </trkpt>
      <trkpt lat="43.87434" lon="3.31641">
        <ele>789</ele>
        <time>2014-09-14T06:49:55.000Z</time>
      </trkpt>
      <trkpt lat="43.87434" lon="3.31641">
        <ele>789</ele>
        <time>2014-09-14T06:49:57.000Z</time>
      </trkpt>
      <trkpt lat="43.87434" lon="3.31641">
        <ele>789</ele>
        <time>2014-09-14T06:49:59.000Z</time>
      </trkpt>
      <trkpt lat="43.87438" lon="3.31643">
        <ele>785</ele>
        <time>2014-09-14T06:50:01.000Z</time>
      </trkpt>
      <trkpt lat="43.87441" lon="3.31645">
        <ele>789</ele>
        <time>2014-09-14T06:50:05.000Z</time>
      </trkpt>
      <trkpt lat="43.87445" lon="3.31646">
        <ele>789</ele>
        <time>2014-09-14T06:50:07.000Z</time>
      </trkpt>
      <trkpt lat="43.87448" lon="3.31646">
        <ele>786</ele>
        <time>2014-09-14T06:50:09.000Z</time>
      </trkpt>
      <trkpt lat="43.87452" lon="3.31646">
        <ele>786</ele>
        <time>2014-09-14T06:50:11.000Z</time>
      </trkpt>
      <trkpt lat="43.87456" lon="3.31645">
        <ele>786</ele>
        <time>2014-09-14T06:50:13.000Z</time>
      </trkpt>
      <trkpt lat="43.87465" lon="3.31646">
        <ele>786</ele>
        <time>2014-09-14T06:50:15.000Z</time>
      </trkpt>
      <trkpt lat="43.87474" lon="3.31647">
        <ele>789</ele>
        <time>2014-09-14T06:50:19.000Z</time>
      </trkpt>
      <trkpt lat="43.87481" lon="3.31647">
        <ele>789</ele>
        <time>2014-09-14T06:50:21.000Z</time>
      </trkpt>
      <trkpt lat="43.87489" lon="3.31646">
        <ele>789</ele>
        <time>2014-09-14T06:50:23.000Z</time>
      </trkpt>
      <trkpt lat="43.87495" lon="3.31646">
        <ele>790</ele>
        <time>2014-09-14T06:50:25.000Z</time>
      </trkpt>
      <trkpt lat="43.87495" lon="3.31646">
        <ele>790</ele>
        <time>2014-09-14T06:50:27.000Z</time>
      </trkpt>
      <trkpt lat="43.87503" lon="3.31645">
        <ele>790</ele>
        <time>2014-09-14T06:50:29.000Z</time>
      </trkpt>
      <trkpt lat="43.87503" lon="3.31645">
        <ele>790</ele>
        <time>2014-09-14T06:50:31.000Z</time>
      </trkpt>
      <trkpt lat="43.87509" lon="3.31639">
        <ele>791</ele>
        <time>2014-09-14T06:50:33.000Z</time>
      </trkpt>
      <trkpt lat="43.87509" lon="3.31639">
        <ele>791</ele>
        <time>2014-09-14T06:50:35.000Z</time>
      </trkpt>
      <trkpt lat="43.87509" lon="3.31639">
        <ele>791</ele>
        <time>2014-09-14T06:50:37.000Z</time>
      </trkpt>
      <trkpt lat="43.87516" lon="3.31634">
        <ele>790</ele>
        <time>2014-09-14T06:50:39.000Z</time>
      </trkpt>
      <trkpt lat="43.87523" lon="3.31631">
        <ele>790</ele>
        <time>2014-09-14T06:50:43.000Z</time>
      </trkpt>
      <trkpt lat="43.8753" lon="3.31635">
        <ele>788</ele>
        <time>2014-09-14T06:50:47.000Z</time>
      </trkpt>
      <trkpt lat="43.87537" lon="3.31634">
        <ele>789</ele>
        <time>2014-09-14T06:50:49.000Z</time>
      </trkpt>
      <trkpt lat="43.87544" lon="3.31632">
        <ele>789</ele>
        <time>2014-09-14T06:50:51.000Z</time>
      </trkpt>
      <trkpt lat="43.87551" lon="3.31634">
        <ele>792</ele>
        <time>2014-09-14T06:50:53.000Z</time>
      </trkpt>
      <trkpt lat="43.87557" lon="3.31634">
        <ele>790</ele>
        <time>2014-09-14T06:50:55.000Z</time>
      </trkpt>
      <trkpt lat="43.87563" lon="3.31637">
        <ele>792</ele>
        <time>2014-09-14T06:50:57.000Z</time>
      </trkpt>
      <trkpt lat="43.87563" lon="3.31637">
        <ele>792</ele>
        <time>2014-09-14T06:50:59.000Z</time>
      </trkpt>
      <trkpt lat="43.87574" lon="3.3164">
        <ele>793</ele>
        <time>2014-09-14T06:51:01.000Z</time>
      </trkpt>
      <trkpt lat="43.87574" lon="3.3164">
        <ele>793</ele>
        <time>2014-09-14T06:51:03.000Z</time>
      </trkpt>
      <trkpt lat="43.87582" lon="3.31651">
        <ele>793</ele>
        <time>2014-09-14T06:51:05.000Z</time>
      </trkpt>
      <trkpt lat="43.87582" lon="3.31651">
        <ele>793</ele>
        <time>2014-09-14T06:51:07.000Z</time>
      </trkpt>
      <trkpt lat="43.87586" lon="3.3166">
        <ele>795</ele>
        <time>2014-09-14T06:51:09.000Z</time>
      </trkpt>
      <trkpt lat="43.87595" lon="3.31671">
        <ele>796</ele>
        <time>2014-09-14T06:51:13.000Z</time>
      </trkpt>
      <trkpt lat="43.87602" lon="3.31675">
        <ele>791</ele>
        <time>2014-09-14T06:51:15.000Z</time>
      </trkpt>
      <trkpt lat="43.87608" lon="3.31679">
        <ele>788</ele>
        <time>2014-09-14T06:51:17.000Z</time>
      </trkpt>
      <trkpt lat="43.87614" lon="3.31683">
        <ele>789</ele>
        <time>2014-09-14T06:51:19.000Z</time>
      </trkpt>
      <trkpt lat="43.87614" lon="3.31683">
        <ele>789</ele>
        <time>2014-09-14T06:51:21.000Z</time>
      </trkpt>
      <trkpt lat="43.87623" lon="3.31691">
        <ele>789</ele>
        <time>2014-09-14T06:51:23.000Z</time>
      </trkpt>
      <trkpt lat="43.87623" lon="3.31691">
        <ele>789</ele>
        <time>2014-09-14T06:51:25.000Z</time>
      </trkpt>
      <trkpt lat="43.87631" lon="3.31702">
        <ele>786</ele>
        <time>2014-09-14T06:51:27.000Z</time>
      </trkpt>
      <trkpt lat="43.87637" lon="3.31706">
        <ele>789</ele>
        <time>2014-09-14T06:51:29.000Z</time>
      </trkpt>
      <trkpt lat="43.87647" lon="3.3171">
        <ele>786</ele>
        <time>2014-09-14T06:51:33.000Z</time>
      </trkpt>
      <trkpt lat="43.87647" lon="3.3171">
        <ele>786</ele>
        <time>2014-09-14T06:51:35.000Z</time>
      </trkpt>
      <trkpt lat="43.87655" lon="3.31711">
        <ele>788</ele>
        <time>2014-09-14T06:51:37.000Z</time>
      </trkpt>
      <trkpt lat="43.87655" lon="3.31711">
        <ele>788</ele>
        <time>2014-09-14T06:51:39.000Z</time>
      </trkpt>
      <trkpt lat="43.87664" lon="3.31713">
        <ele>790</ele>
        <time>2014-09-14T06:51:41.000Z</time>
      </trkpt>
      <trkpt lat="43.87673" lon="3.31715">
        <ele>791</ele>
        <time>2014-09-14T06:51:45.000Z</time>
      </trkpt>
      <trkpt lat="43.87681" lon="3.31718">
        <ele>791</ele>
        <time>2014-09-14T06:51:49.000Z</time>
      </trkpt>
      <trkpt lat="43.87687" lon="3.31719">
        <ele>795</ele>
        <time>2014-09-14T06:51:53.000Z</time>
      </trkpt>
      <trkpt lat="43.87687" lon="3.31719">
        <ele>795</ele>
        <time>2014-09-14T06:51:55.000Z</time>
      </trkpt>
      <trkpt lat="43.87687" lon="3.31719">
        <ele>795</ele>
        <time>2014-09-14T06:51:57.000Z</time>
      </trkpt>
      <trkpt lat="43.87696" lon="3.31722">
        <ele>790</ele>
        <time>2014-09-14T06:51:59.000Z</time>
      </trkpt>
      <trkpt lat="43.87703" lon="3.31726">
        <ele>794</ele>
        <time>2014-09-14T06:52:03.000Z</time>
      </trkpt>
      <trkpt lat="43.87711" lon="3.31728">
        <ele>793</ele>
        <time>2014-09-14T06:52:07.000Z</time>
      </trkpt>
      <trkpt lat="43.87717" lon="3.31728">
        <ele>790</ele>
        <time>2014-09-14T06:52:11.000Z</time>
      </trkpt>
      <trkpt lat="43.87717" lon="3.31728">
        <ele>790</ele>
        <time>2014-09-14T06:52:13.000Z</time>
      </trkpt>
      <trkpt lat="43.87727" lon="3.31729">
        <ele>789</ele>
        <time>2014-09-14T06:52:15.000Z</time>
      </trkpt>
      <trkpt lat="43.87738" lon="3.31732">
        <ele>790</ele>
        <time>2014-09-14T06:52:19.000Z</time>
      </trkpt>
      <trkpt lat="43.87743" lon="3.31732">
        <ele>794</ele>
        <time>2014-09-14T06:52:21.000Z</time>
      </trkpt>
      <trkpt lat="43.87753" lon="3.31734">
        <ele>793</ele>
        <time>2014-09-14T06:52:25.000Z</time>
      </trkpt>
      <trkpt lat="43.87753" lon="3.31734">
        <ele>793</ele>
        <time>2014-09-14T06:52:27.000Z</time>
      </trkpt>
      <trkpt lat="43.87753" lon="3.31734">
        <ele>793</ele>
        <time>2014-09-14T06:52:29.000Z</time>
      </trkpt>
      <trkpt lat="43.87759" lon="3.3174">
        <ele>796</ele>
        <time>2014-09-14T06:52:31.000Z</time>
      </trkpt>
      <trkpt lat="43.87759" lon="3.3174">
        <ele>796</ele>
        <time>2014-09-14T06:52:33.000Z</time>
      </trkpt>
      <trkpt lat="43.87762" lon="3.31742">
        <ele>797</ele>
        <time>2014-09-14T06:52:35.000Z</time>
      </trkpt>
      <trkpt lat="43.87766" lon="3.31744">
        <ele>796</ele>
        <time>2014-09-14T06:52:37.000Z</time>
      </trkpt>
      <trkpt lat="43.8777" lon="3.31744">
        <ele>795</ele>
        <time>2014-09-14T06:52:39.000Z</time>
      </trkpt>
      <trkpt lat="43.87774" lon="3.31744">
        <ele>795</ele>
        <time>2014-09-14T06:52:41.000Z</time>
      </trkpt>
      <trkpt lat="43.87778" lon="3.31742">
        <ele>793</ele>
        <time>2014-09-14T06:52:43.000Z</time>
      </trkpt>
      <trkpt lat="43.87786" lon="3.31737">
        <ele>794</ele>
        <time>2014-09-14T06:52:45.000Z</time>
      </trkpt>
      <trkpt lat="43.87794" lon="3.31732">
        <ele>793</ele>
        <time>2014-09-14T06:52:49.000Z</time>
      </trkpt>
      <trkpt lat="43.87803" lon="3.31729">
        <ele>793</ele>
        <time>2014-09-14T06:52:53.000Z</time>
      </trkpt>
      <trkpt lat="43.87814" lon="3.31726">
        <ele>794</ele>
        <time>2014-09-14T06:52:57.000Z</time>
      </trkpt>
      <trkpt lat="43.8782" lon="3.31724">
        <ele>793</ele>
        <time>2014-09-14T06:52:59.000Z</time>
      </trkpt>
      <trkpt lat="43.87831" lon="3.31724">
        <ele>792</ele>
        <time>2014-09-14T06:53:03.000Z</time>
      </trkpt>
      <trkpt lat="43.87831" lon="3.31724">
        <ele>792</ele>
        <time>2014-09-14T06:53:05.000Z</time>
      </trkpt>
      <trkpt lat="43.87841" lon="3.31724">
        <ele>793</ele>
        <time>2014-09-14T06:53:07.000Z</time>
      </trkpt>
      <trkpt lat="43.87846" lon="3.31722">
        <ele>794</ele>
        <time>2014-09-14T06:53:09.000Z</time>
      </trkpt>
      <trkpt lat="43.87852" lon="3.31721">
        <ele>794</ele>
        <time>2014-09-14T06:53:11.000Z</time>
      </trkpt>
      <trkpt lat="43.87858" lon="3.31718">
        <ele>793</ele>
        <time>2014-09-14T06:53:13.000Z</time>
      </trkpt>
      <trkpt lat="43.87858" lon="3.31718">
        <ele>793</ele>
        <time>2014-09-14T06:53:15.000Z</time>
      </trkpt>
      <trkpt lat="43.87865" lon="3.31712">
        <ele>794</ele>
        <time>2014-09-14T06:53:17.000Z</time>
      </trkpt>
      <trkpt lat="43.87865" lon="3.31712">
        <ele>794</ele>
        <time>2014-09-14T06:53:19.000Z</time>
      </trkpt>
      <trkpt lat="43.87875" lon="3.31704">
        <ele>795</ele>
        <time>2014-09-14T06:53:21.000Z</time>
      </trkpt>
      <trkpt lat="43.87881" lon="3.31699">
        <ele>794</ele>
        <time>2014-09-14T06:53:23.000Z</time>
      </trkpt>
      <trkpt lat="43.87886" lon="3.31694">
        <ele>795</ele>
        <time>2014-09-14T06:53:25.000Z</time>
      </trkpt>
      <trkpt lat="43.87891" lon="3.3169">
        <ele>796</ele>
        <time>2014-09-14T06:53:27.000Z</time>
      </trkpt>
      <trkpt lat="43.87891" lon="3.3169">
        <ele>796</ele>
        <time>2014-09-14T06:53:29.000Z</time>
      </trkpt>
      <trkpt lat="43.87899" lon="3.31681">
        <ele>796</ele>
        <time>2014-09-14T06:53:31.000Z</time>
      </trkpt>
      <trkpt lat="43.87899" lon="3.31681">
        <ele>796</ele>
        <time>2014-09-14T06:53:33.000Z</time>
      </trkpt>
      <trkpt lat="43.87906" lon="3.31671">
        <ele>799</ele>
        <time>2014-09-14T06:53:35.000Z</time>
      </trkpt>
      <trkpt lat="43.87906" lon="3.31671">
        <ele>799</ele>
        <time>2014-09-14T06:53:37.000Z</time>
      </trkpt>
      <trkpt lat="43.87912" lon="3.3166">
        <ele>801</ele>
        <time>2014-09-14T06:53:39.000Z</time>
      </trkpt>
      <trkpt lat="43.87916" lon="3.31652">
        <ele>801</ele>
        <time>2014-09-14T06:53:41.000Z</time>
      </trkpt>
      <trkpt lat="43.8792" lon="3.31644">
        <ele>801</ele>
        <time>2014-09-14T06:53:43.000Z</time>
      </trkpt>
      <trkpt lat="43.87923" lon="3.31637">
        <ele>802</ele>
        <time>2014-09-14T06:53:45.000Z</time>
      </trkpt>
      <trkpt lat="43.87927" lon="3.3163">
        <ele>800</ele>
        <time>2014-09-14T06:53:47.000Z</time>
      </trkpt>
      <trkpt lat="43.87927" lon="3.3163">
        <ele>800</ele>
        <time>2014-09-14T06:53:49.000Z</time>
      </trkpt>
      <trkpt lat="43.87936" lon="3.31622">
        <ele>798</ele>
        <time>2014-09-14T06:53:51.000Z</time>
      </trkpt>
      <trkpt lat="43.87936" lon="3.31622">
        <ele>798</ele>
        <time>2014-09-14T06:53:53.000Z</time>
      </trkpt>
      <trkpt lat="43.87949" lon="3.31616">
        <ele>800</ele>
        <time>2014-09-14T06:53:55.000Z</time>
      </trkpt>
      <trkpt lat="43.87956" lon="3.31608">
        <ele>799</ele>
        <time>2014-09-14T06:53:57.000Z</time>
      </trkpt>
      <trkpt lat="43.87962" lon="3.316">
        <ele>802</ele>
        <time>2014-09-14T06:53:59.000Z</time>
      </trkpt>
      <trkpt lat="43.87965" lon="3.31589">
        <ele>801</ele>
        <time>2014-09-14T06:54:01.000Z</time>
      </trkpt>
      <trkpt lat="43.87968" lon="3.31581">
        <ele>802</ele>
        <time>2014-09-14T06:54:03.000Z</time>
      </trkpt>
      <trkpt lat="43.87972" lon="3.31572">
        <ele>804</ele>
        <time>2014-09-14T06:54:05.000Z</time>
      </trkpt>
      <trkpt lat="43.87975" lon="3.31563">
        <ele>804</ele>
        <time>2014-09-14T06:54:07.000Z</time>
      </trkpt>
      <trkpt lat="43.8798" lon="3.31551">
        <ele>803</ele>
        <time>2014-09-14T06:54:09.000Z</time>
      </trkpt>
      <trkpt lat="43.87983" lon="3.31539">
        <ele>803</ele>
        <time>2014-09-14T06:54:11.000Z</time>
      </trkpt>
      <trkpt lat="43.87986" lon="3.31528">
        <ele>802</ele>
        <time>2014-09-14T06:54:13.000Z</time>
      </trkpt>
      <trkpt lat="43.87989" lon="3.31518">
        <ele>803</ele>
        <time>2014-09-14T06:54:15.000Z</time>
      </trkpt>
      <trkpt lat="43.87989" lon="3.31518">
        <ele>803</ele>
        <time>2014-09-14T06:54:17.000Z</time>
      </trkpt>
      <trkpt lat="43.87994" lon="3.31506">
        <ele>803</ele>
        <time>2014-09-14T06:54:19.000Z</time>
      </trkpt>
      <trkpt lat="43.87994" lon="3.31506">
        <ele>803</ele>
        <time>2014-09-14T06:54:21.000Z</time>
      </trkpt>
      <trkpt lat="43.87995" lon="3.31496">
        <ele>803</ele>
        <time>2014-09-14T06:54:23.000Z</time>
      </trkpt>
      <trkpt lat="43.87995" lon="3.31496">
        <ele>803</ele>
        <time>2014-09-14T06:54:25.000Z</time>
      </trkpt>
      <trkpt lat="43.87998" lon="3.31489">
        <ele>804</ele>
        <time>2014-09-14T06:54:27.000Z</time>
      </trkpt>
      <trkpt lat="43.88005" lon="3.31479">
        <ele>805</ele>
        <time>2014-09-14T06:54:31.000Z</time>
      </trkpt>
      <trkpt lat="43.88011" lon="3.31474">
        <ele>805</ele>
        <time>2014-09-14T06:54:33.000Z</time>
      </trkpt>
      <trkpt lat="43.88016" lon="3.31468">
        <ele>804</ele>
        <time>2014-09-14T06:54:35.000Z</time>
      </trkpt>
      <trkpt lat="43.88021" lon="3.31463">
        <ele>804</ele>
        <time>2014-09-14T06:54:37.000Z</time>
      </trkpt>
      <trkpt lat="43.88025" lon="3.31456">
        <ele>805</ele>
        <time>2014-09-14T06:54:39.000Z</time>
      </trkpt>
      <trkpt lat="43.8803" lon="3.31448">
        <ele>807</ele>
        <time>2014-09-14T06:54:43.000Z</time>
      </trkpt>
      <trkpt lat="43.8803" lon="3.31448">
        <ele>807</ele>
        <time>2014-09-14T06:54:45.000Z</time>
      </trkpt>
      <trkpt lat="43.8803" lon="3.31448">
        <ele>807</ele>
        <time>2014-09-14T06:54:47.000Z</time>
      </trkpt>
      <trkpt lat="43.88038" lon="3.31442">
        <ele>808</ele>
        <time>2014-09-14T06:54:51.000Z</time>
      </trkpt>
      <trkpt lat="43.88038" lon="3.31442">
        <ele>808</ele>
        <time>2014-09-14T06:54:53.000Z</time>
      </trkpt>
      <trkpt lat="43.88038" lon="3.31442">
        <ele>808</ele>
        <time>2014-09-14T06:54:55.000Z</time>
      </trkpt>
      <trkpt lat="43.88038" lon="3.31442">
        <ele>808</ele>
        <time>2014-09-14T06:54:57.000Z</time>
      </trkpt>
      <trkpt lat="43.88038" lon="3.31442">
        <ele>808</ele>
        <time>2014-09-14T06:54:59.000Z</time>
      </trkpt>
      <trkpt lat="43.8805" lon="3.31453">
        <ele>804</ele>
        <time>2014-09-14T06:55:09.000Z</time>
      </trkpt>
      <trkpt lat="43.88054" lon="3.31462">
        <ele>803</ele>
        <time>2014-09-14T06:55:11.000Z</time>
      </trkpt>
      <trkpt lat="43.88059" lon="3.31471">
        <ele>797</ele>
        <time>2014-09-14T06:55:13.000Z</time>
      </trkpt>
      <trkpt lat="43.88066" lon="3.3148">
        <ele>799</ele>
        <time>2014-09-14T06:55:15.000Z</time>
      </trkpt>
      <trkpt lat="43.8807" lon="3.31495">
        <ele>801</ele>
        <time>2014-09-14T06:55:17.000Z</time>
      </trkpt>
      <trkpt lat="43.88073" lon="3.31503">
        <ele>799</ele>
        <time>2014-09-14T06:55:19.000Z</time>
      </trkpt>
      <trkpt lat="43.88075" lon="3.31512">
        <ele>799</ele>
        <time>2014-09-14T06:55:21.000Z</time>
      </trkpt>
      <trkpt lat="43.88083" lon="3.31518">
        <ele>800</ele>
        <time>2014-09-14T06:55:23.000Z</time>
      </trkpt>
      <trkpt lat="43.88092" lon="3.31522">
        <ele>799</ele>
        <time>2014-09-14T06:55:25.000Z</time>
      </trkpt>
      <trkpt lat="43.88102" lon="3.31526">
        <ele>798</ele>
        <time>2014-09-14T06:55:27.000Z</time>
      </trkpt>
      <trkpt lat="43.88111" lon="3.3153">
        <ele>799</ele>
        <time>2014-09-14T06:55:29.000Z</time>
      </trkpt>
      <trkpt lat="43.8812" lon="3.31534">
        <ele>799</ele>
        <time>2014-09-14T06:55:31.000Z</time>
      </trkpt>
      <trkpt lat="43.88127" lon="3.3154">
        <ele>800</ele>
        <time>2014-09-14T06:55:33.000Z</time>
      </trkpt>
      <trkpt lat="43.88133" lon="3.31544">
        <ele>799</ele>
        <time>2014-09-14T06:55:35.000Z</time>
      </trkpt>
      <trkpt lat="43.88133" lon="3.31544">
        <ele>799</ele>
        <time>2014-09-14T06:55:37.000Z</time>
      </trkpt>
      <trkpt lat="43.88139" lon="3.31557">
        <ele>799</ele>
        <time>2014-09-14T06:55:39.000Z</time>
      </trkpt>
      <trkpt lat="43.88143" lon="3.31564">
        <ele>800</ele>
        <time>2014-09-14T06:55:41.000Z</time>
      </trkpt>
      <trkpt lat="43.88145" lon="3.31573">
        <ele>799</ele>
        <time>2014-09-14T06:55:43.000Z</time>
      </trkpt>
      <trkpt lat="43.88147" lon="3.31582">
        <ele>803</ele>
        <time>2014-09-14T06:55:45.000Z</time>
      </trkpt>
      <trkpt lat="43.88148" lon="3.31592">
        <ele>802</ele>
        <time>2014-09-14T06:55:47.000Z</time>
      </trkpt>
      <trkpt lat="43.88149" lon="3.31602">
        <ele>802</ele>
        <time>2014-09-14T06:55:49.000Z</time>
      </trkpt>
      <trkpt lat="43.88151" lon="3.31612">
        <ele>804</ele>
        <time>2014-09-14T06:55:51.000Z</time>
      </trkpt>
      <trkpt lat="43.88156" lon="3.31621">
        <ele>804</ele>
        <time>2014-09-14T06:55:53.000Z</time>
      </trkpt>
      <trkpt lat="43.88163" lon="3.31628">
        <ele>803</ele>
        <time>2014-09-14T06:55:55.000Z</time>
      </trkpt>
      <trkpt lat="43.88169" lon="3.31634">
        <ele>804</ele>
        <time>2014-09-14T06:55:57.000Z</time>
      </trkpt>
      <trkpt lat="43.88174" lon="3.31638">
        <ele>805</ele>
        <time>2014-09-14T06:55:59.000Z</time>
      </trkpt>
      <trkpt lat="43.8818" lon="3.31642">
        <ele>805</ele>
        <time>2014-09-14T06:56:01.000Z</time>
      </trkpt>
      <trkpt lat="43.88186" lon="3.31645">
        <ele>804</ele>
        <time>2014-09-14T06:56:03.000Z</time>
      </trkpt>
      <trkpt lat="43.88192" lon="3.31648">
        <ele>805</ele>
        <time>2014-09-14T06:56:05.000Z</time>
      </trkpt>
      <trkpt lat="43.88199" lon="3.3165">
        <ele>804</ele>
        <time>2014-09-14T06:56:07.000Z</time>
      </trkpt>
      <trkpt lat="43.88206" lon="3.31654">
        <ele>803</ele>
        <time>2014-09-14T06:56:09.000Z</time>
      </trkpt>
      <trkpt lat="43.88215" lon="3.31658">
        <ele>803</ele>
        <time>2014-09-14T06:56:11.000Z</time>
      </trkpt>
      <trkpt lat="43.88223" lon="3.31663">
        <ele>801</ele>
        <time>2014-09-14T06:56:13.000Z</time>
      </trkpt>
      <trkpt lat="43.8823" lon="3.31669">
        <ele>801</ele>
        <time>2014-09-14T06:56:15.000Z</time>
      </trkpt>
      <trkpt lat="43.88238" lon="3.31674">
        <ele>801</ele>
        <time>2014-09-14T06:56:17.000Z</time>
      </trkpt>
      <trkpt lat="43.88245" lon="3.31679">
        <ele>800</ele>
        <time>2014-09-14T06:56:19.000Z</time>
      </trkpt>
      <trkpt lat="43.88251" lon="3.31682">
        <ele>799</ele>
        <time>2014-09-14T06:56:21.000Z</time>
      </trkpt>
      <trkpt lat="43.88258" lon="3.31684">
        <ele>800</ele>
        <time>2014-09-14T06:56:23.000Z</time>
      </trkpt>
      <trkpt lat="43.88258" lon="3.31684">
        <ele>800</ele>
        <time>2014-09-14T06:56:25.000Z</time>
      </trkpt>
      <trkpt lat="43.88258" lon="3.31684">
        <ele>800</ele>
        <time>2014-09-14T06:56:27.000Z</time>
      </trkpt>
      <trkpt lat="43.88258" lon="3.31684">
        <ele>800</ele>
        <time>2014-09-14T06:56:29.000Z</time>
      </trkpt>
      <trkpt lat="43.88258" lon="3.31684">
        <ele>800</ele>
        <time>2014-09-14T06:56:31.000Z</time>
      </trkpt>
      <trkpt lat="43.88264" lon="3.31689">
        <ele>800</ele>
        <time>2014-09-14T06:58:47.000Z</time>
      </trkpt>
      <trkpt lat="43.88272" lon="3.31693">
        <ele>799</ele>
        <time>2014-09-14T06:58:49.000Z</time>
      </trkpt>
      <trkpt lat="43.8828" lon="3.31697">
        <ele>800</ele>
        <time>2014-09-14T06:58:51.000Z</time>
      </trkpt>
      <trkpt lat="43.88288" lon="3.31701">
        <ele>800</ele>
        <time>2014-09-14T06:58:53.000Z</time>
      </trkpt>
      <trkpt lat="43.88296" lon="3.31705">
        <ele>801</ele>
        <time>2014-09-14T06:58:55.000Z</time>
      </trkpt>
      <trkpt lat="43.88313" lon="3.31712">
        <ele>800</ele>
        <time>2014-09-14T06:58:57.000Z</time>
      </trkpt>
      <trkpt lat="43.88321" lon="3.31716">
        <ele>799</ele>
        <time>2014-09-14T06:58:59.000Z</time>
      </trkpt>
      <trkpt lat="43.88329" lon="3.31718">
        <ele>799</ele>
        <time>2014-09-14T06:59:01.000Z</time>
      </trkpt>
      <trkpt lat="43.88337" lon="3.31719">
        <ele>799</ele>
        <time>2014-09-14T06:59:03.000Z</time>
      </trkpt>
      <trkpt lat="43.88345" lon="3.31718">
        <ele>799</ele>
        <time>2014-09-14T06:59:05.000Z</time>
      </trkpt>
      <trkpt lat="43.88353" lon="3.31717">
        <ele>801</ele>
        <time>2014-09-14T06:59:07.000Z</time>
      </trkpt>
      <trkpt lat="43.8836" lon="3.31715">
        <ele>801</ele>
        <time>2014-09-14T06:59:09.000Z</time>
      </trkpt>
      <trkpt lat="43.88367" lon="3.31714">
        <ele>801</ele>
        <time>2014-09-14T06:59:11.000Z</time>
      </trkpt>
      <trkpt lat="43.88375" lon="3.31713">
        <ele>800</ele>
        <time>2014-09-14T06:59:13.000Z</time>
      </trkpt>
      <trkpt lat="43.88375" lon="3.31713">
        <ele>800</ele>
        <time>2014-09-14T06:59:15.000Z</time>
      </trkpt>
      <trkpt lat="43.88388" lon="3.31712">
        <ele>802</ele>
        <time>2014-09-14T06:59:17.000Z</time>
      </trkpt>
      <trkpt lat="43.88393" lon="3.31712">
        <ele>802</ele>
        <time>2014-09-14T06:59:19.000Z</time>
      </trkpt>
      <trkpt lat="43.88393" lon="3.31712">
        <ele>802</ele>
        <time>2014-09-14T06:59:21.000Z</time>
      </trkpt>
      <trkpt lat="43.88403" lon="3.31713">
        <ele>806</ele>
        <time>2014-09-14T06:59:23.000Z</time>
      </trkpt>
      <trkpt lat="43.88403" lon="3.31713">
        <ele>806</ele>
        <time>2014-09-14T06:59:25.000Z</time>
      </trkpt>
      <trkpt lat="43.88413" lon="3.31713">
        <ele>810</ele>
        <time>2014-09-14T06:59:27.000Z</time>
      </trkpt>
      <trkpt lat="43.88413" lon="3.31713">
        <ele>810</ele>
        <time>2014-09-14T06:59:29.000Z</time>
      </trkpt>
      <trkpt lat="43.88427" lon="3.31714">
        <ele>809</ele>
        <time>2014-09-14T06:59:31.000Z</time>
      </trkpt>
      <trkpt lat="43.88436" lon="3.31715">
        <ele>803</ele>
        <time>2014-09-14T06:59:33.000Z</time>
      </trkpt>
      <trkpt lat="43.88444" lon="3.31714">
        <ele>806</ele>
        <time>2014-09-14T06:59:35.000Z</time>
      </trkpt>
      <trkpt lat="43.88452" lon="3.31714">
        <ele>804</ele>
        <time>2014-09-14T06:59:37.000Z</time>
      </trkpt>
      <trkpt lat="43.8846" lon="3.31715">
        <ele>804</ele>
        <time>2014-09-14T06:59:39.000Z</time>
      </trkpt>
      <trkpt lat="43.88468" lon="3.31715">
        <ele>804</ele>
        <time>2014-09-14T06:59:41.000Z</time>
      </trkpt>
      <trkpt lat="43.88477" lon="3.31714">
        <ele>807</ele>
        <time>2014-09-14T06:59:43.000Z</time>
      </trkpt>
      <trkpt lat="43.88484" lon="3.31715">
        <ele>811</ele>
        <time>2014-09-14T06:59:45.000Z</time>
      </trkpt>
      <trkpt lat="43.88492" lon="3.31718">
        <ele>808</ele>
        <time>2014-09-14T06:59:47.000Z</time>
      </trkpt>
      <trkpt lat="43.88499" lon="3.3172">
        <ele>809</ele>
        <time>2014-09-14T06:59:49.000Z</time>
      </trkpt>
      <trkpt lat="43.88499" lon="3.3172">
        <ele>809</ele>
        <time>2014-09-14T06:59:51.000Z</time>
      </trkpt>
      <trkpt lat="43.88509" lon="3.31717">
        <ele>807</ele>
        <time>2014-09-14T06:59:53.000Z</time>
      </trkpt>
      <trkpt lat="43.88509" lon="3.31717">
        <ele>807</ele>
        <time>2014-09-14T06:59:55.000Z</time>
      </trkpt>
      <trkpt lat="43.88519" lon="3.31714">
        <ele>808</ele>
        <time>2014-09-14T06:59:57.000Z</time>
      </trkpt>
      <trkpt lat="43.88519" lon="3.31714">
        <ele>808</ele>
        <time>2014-09-14T06:59:59.000Z</time>
      </trkpt>
      <trkpt lat="43.88527" lon="3.31714">
        <ele>812</ele>
        <time>2014-09-14T07:00:01.000Z</time>
      </trkpt>
      <trkpt lat="43.88527" lon="3.31714">
        <ele>812</ele>
        <time>2014-09-14T07:00:03.000Z</time>
      </trkpt>
      <trkpt lat="43.88538" lon="3.31715">
        <ele>811</ele>
        <time>2014-09-14T07:00:05.000Z</time>
      </trkpt>
      <trkpt lat="43.88538" lon="3.31715">
        <ele>811</ele>
        <time>2014-09-14T07:00:07.000Z</time>
      </trkpt>
      <trkpt lat="43.88548" lon="3.31716">
        <ele>817</ele>
        <time>2014-09-14T07:00:09.000Z</time>
      </trkpt>
      <trkpt lat="43.88553" lon="3.31714">
        <ele>816</ele>
        <time>2014-09-14T07:00:11.000Z</time>
      </trkpt>
      <trkpt lat="43.88559" lon="3.31712">
        <ele>819</ele>
        <time>2014-09-14T07:00:13.000Z</time>
      </trkpt>
      <trkpt lat="43.88566" lon="3.31706">
        <ele>814</ele>
        <time>2014-09-14T07:00:17.000Z</time>
      </trkpt>
      <trkpt lat="43.88566" lon="3.31706">
        <ele>814</ele>
        <time>2014-09-14T07:00:19.000Z</time>
      </trkpt>
      <trkpt lat="43.88572" lon="3.31702">
        <ele>816</ele>
        <time>2014-09-14T07:00:21.000Z</time>
      </trkpt>
      <trkpt lat="43.88572" lon="3.31702">
        <ele>816</ele>
        <time>2014-09-14T07:00:23.000Z</time>
      </trkpt>
      <trkpt lat="43.88581" lon="3.31703">
        <ele>814</ele>
        <time>2014-09-14T07:00:25.000Z</time>
      </trkpt>
      <trkpt lat="43.8859" lon="3.31703">
        <ele>812</ele>
        <time>2014-09-14T07:00:27.000Z</time>
      </trkpt>
      <trkpt lat="43.88597" lon="3.31703">
        <ele>808</ele>
        <time>2014-09-14T07:00:29.000Z</time>
      </trkpt>
      <trkpt lat="43.88597" lon="3.31703">
        <ele>808</ele>
        <time>2014-09-14T07:00:31.000Z</time>
      </trkpt>
      <trkpt lat="43.88607" lon="3.31701">
        <ele>809</ele>
        <time>2014-09-14T07:00:33.000Z</time>
      </trkpt>
      <trkpt lat="43.88607" lon="3.31701">
        <ele>809</ele>
        <time>2014-09-14T07:00:35.000Z</time>
      </trkpt>
      <trkpt lat="43.88618" lon="3.31701">
        <ele>813</ele>
        <time>2014-09-14T07:00:37.000Z</time>
      </trkpt>
      <trkpt lat="43.88627" lon="3.31699">
        <ele>812</ele>
        <time>2014-09-14T07:00:39.000Z</time>
      </trkpt>
      <trkpt lat="43.8866" lon="3.31685">
        <ele>814</ele>
        <time>2014-09-14T07:00:43.000Z</time>
      </trkpt>
      <trkpt lat="43.88673" lon="3.31678">
        <ele>814</ele>
        <time>2014-09-14T07:00:50.000Z</time>
      </trkpt>
      <trkpt lat="43.88678" lon="3.31675">
        <ele>813</ele>
        <time>2014-09-14T07:00:52.000Z</time>
      </trkpt>
      <trkpt lat="43.88678" lon="3.31675">
        <ele>813</ele>
        <time>2014-09-14T07:00:54.000Z</time>
      </trkpt>
      <trkpt lat="43.88685" lon="3.31674">
        <ele>811</ele>
        <time>2014-09-14T07:00:56.000Z</time>
      </trkpt>
      <trkpt lat="43.88685" lon="3.31674">
        <ele>811</ele>
        <time>2014-09-14T07:00:58.000Z</time>
      </trkpt>
      <trkpt lat="43.88696" lon="3.3167">
        <ele>812</ele>
        <time>2014-09-14T07:01:00.000Z</time>
      </trkpt>
      <trkpt lat="43.88705" lon="3.31668">
        <ele>811</ele>
        <time>2014-09-14T07:01:04.000Z</time>
      </trkpt>
      <trkpt lat="43.88705" lon="3.31668">
        <ele>811</ele>
        <time>2014-09-14T07:01:06.000Z</time>
      </trkpt>
      <trkpt lat="43.88714" lon="3.31668">
        <ele>814</ele>
        <time>2014-09-14T07:01:08.000Z</time>
      </trkpt>
      <trkpt lat="43.88714" lon="3.31668">
        <ele>814</ele>
        <time>2014-09-14T07:01:10.000Z</time>
      </trkpt>
      <trkpt lat="43.88726" lon="3.31668">
        <ele>814</ele>
        <time>2014-09-14T07:01:12.000Z</time>
      </trkpt>
      <trkpt lat="43.88733" lon="3.31666">
        <ele>811</ele>
        <time>2014-09-14T07:01:14.000Z</time>
      </trkpt>
      <trkpt lat="43.88749" lon="3.3166">
        <ele>812</ele>
        <time>2014-09-14T07:01:17.000Z</time>
      </trkpt>
      <trkpt lat="43.88758" lon="3.3166">
        <ele>814</ele>
        <time>2014-09-14T07:01:21.000Z</time>
      </trkpt>
      <trkpt lat="43.88767" lon="3.31661">
        <ele>813</ele>
        <time>2014-09-14T07:01:25.000Z</time>
      </trkpt>
      <trkpt lat="43.88767" lon="3.31661">
        <ele>813</ele>
        <time>2014-09-14T07:01:27.000Z</time>
      </trkpt>
      <trkpt lat="43.88774" lon="3.31661">
        <ele>812</ele>
        <time>2014-09-14T07:01:29.000Z</time>
      </trkpt>
      <trkpt lat="43.88774" lon="3.31661">
        <ele>812</ele>
        <time>2014-09-14T07:01:31.000Z</time>
      </trkpt>
      <trkpt lat="43.88784" lon="3.31656">
        <ele>817</ele>
        <time>2014-09-14T07:01:33.000Z</time>
      </trkpt>
      <trkpt lat="43.8879" lon="3.31651">
        <ele>816</ele>
        <time>2014-09-14T07:01:35.000Z</time>
      </trkpt>
      <trkpt lat="43.88796" lon="3.31646">
        <ele>815</ele>
        <time>2014-09-14T07:01:37.000Z</time>
      </trkpt>
      <trkpt lat="43.88802" lon="3.31644">
        <ele>816</ele>
        <time>2014-09-14T07:01:39.000Z</time>
      </trkpt>
      <trkpt lat="43.88802" lon="3.31644">
        <ele>816</ele>
        <time>2014-09-14T07:01:41.000Z</time>
      </trkpt>
      <trkpt lat="43.88809" lon="3.31649">
        <ele>818</ele>
        <time>2014-09-14T07:01:43.000Z</time>
      </trkpt>
      <trkpt lat="43.88809" lon="3.31649">
        <ele>818</ele>
        <time>2014-09-14T07:01:45.000Z</time>
      </trkpt>
      <trkpt lat="43.88818" lon="3.31653">
        <ele>822</ele>
        <time>2014-09-14T07:01:47.000Z</time>
      </trkpt>
      <trkpt lat="43.88818" lon="3.31653">
        <ele>822</ele>
        <time>2014-09-14T07:01:49.000Z</time>
      </trkpt>
      <trkpt lat="43.88826" lon="3.31656">
        <ele>820</ele>
        <time>2014-09-14T07:01:51.000Z</time>
      </trkpt>
      <trkpt lat="43.88826" lon="3.31656">
        <ele>820</ele>
        <time>2014-09-14T07:01:53.000Z</time>
      </trkpt>
      <trkpt lat="43.88834" lon="3.31653">
        <ele>822</ele>
        <time>2014-09-14T07:01:55.000Z</time>
      </trkpt>
      <trkpt lat="43.88842" lon="3.31649">
        <ele>823</ele>
        <time>2014-09-14T07:01:59.000Z</time>
      </trkpt>
      <trkpt lat="43.88842" lon="3.31649">
        <ele>823</ele>
        <time>2014-09-14T07:02:01.000Z</time>
      </trkpt>
      <trkpt lat="43.8885" lon="3.31648">
        <ele>825</ele>
        <time>2014-09-14T07:02:03.000Z</time>
      </trkpt>
      <trkpt lat="43.88857" lon="3.31648">
        <ele>824</ele>
        <time>2014-09-14T07:02:07.000Z</time>
      </trkpt>
      <trkpt lat="43.88857" lon="3.31648">
        <ele>824</ele>
        <time>2014-09-14T07:02:09.000Z</time>
      </trkpt>
      <trkpt lat="43.88861" lon="3.31646">
        <ele>822</ele>
        <time>2014-09-14T07:02:11.000Z</time>
      </trkpt>
      <trkpt lat="43.88865" lon="3.31644">
        <ele>822</ele>
        <time>2014-09-14T07:02:13.000Z</time>
      </trkpt>
      <trkpt lat="43.8887" lon="3.31642">
        <ele>820</ele>
        <time>2014-09-14T07:02:15.000Z</time>
      </trkpt>
      <trkpt lat="43.88874" lon="3.3164">
        <ele>822</ele>
        <time>2014-09-14T07:02:17.000Z</time>
      </trkpt>
      <trkpt lat="43.88879" lon="3.31637">
        <ele>824</ele>
        <time>2014-09-14T07:02:19.000Z</time>
      </trkpt>
      <trkpt lat="43.88888" lon="3.31635">
        <ele>827</ele>
        <time>2014-09-14T07:02:21.000Z</time>
      </trkpt>
      <trkpt lat="43.88899" lon="3.31634">
        <ele>828</ele>
        <time>2014-09-14T07:02:26.000Z</time>
      </trkpt>
      <trkpt lat="43.88905" lon="3.31634">
        <ele>828</ele>
        <time>2014-09-14T07:02:27.000Z</time>
      </trkpt>
      <trkpt lat="43.88916" lon="3.31634">
        <ele>827</ele>
        <time>2014-09-14T07:02:31.000Z</time>
      </trkpt>
      <trkpt lat="43.88926" lon="3.31635">
        <ele>828</ele>
        <time>2014-09-14T07:02:35.000Z</time>
      </trkpt>
      <trkpt lat="43.88935" lon="3.31635">
        <ele>827</ele>
        <time>2014-09-14T07:02:39.000Z</time>
      </trkpt>
      <trkpt lat="43.88935" lon="3.31635">
        <ele>827</ele>
        <time>2014-09-14T07:02:41.000Z</time>
      </trkpt>
      <trkpt lat="43.88942" lon="3.31637">
        <ele>829</ele>
        <time>2014-09-14T07:02:43.000Z</time>
      </trkpt>
      <trkpt lat="43.88942" lon="3.31637">
        <ele>829</ele>
        <time>2014-09-14T07:02:45.000Z</time>
      </trkpt>
      <trkpt lat="43.8895" lon="3.31637">
        <ele>833</ele>
        <time>2014-09-14T07:02:47.000Z</time>
      </trkpt>
      <trkpt lat="43.8895" lon="3.31637">
        <ele>833</ele>
        <time>2014-09-14T07:02:49.000Z</time>
      </trkpt>
      <trkpt lat="43.88956" lon="3.31637">
        <ele>832</ele>
        <time>2014-09-14T07:02:51.000Z</time>
      </trkpt>
      <trkpt lat="43.88956" lon="3.31637">
        <ele>832</ele>
        <time>2014-09-14T07:02:53.000Z</time>
      </trkpt>
      <trkpt lat="43.88961" lon="3.31637">
        <ele>831</ele>
        <time>2014-09-14T07:02:55.000Z</time>
      </trkpt>
      <trkpt lat="43.88961" lon="3.31637">
        <ele>831</ele>
        <time>2014-09-14T07:02:57.000Z</time>
      </trkpt>
      <trkpt lat="43.88968" lon="3.31635">
        <ele>831</ele>
        <time>2014-09-14T07:02:59.000Z</time>
      </trkpt>
      <trkpt lat="43.88968" lon="3.31635">
        <ele>831</ele>
        <time>2014-09-14T07:03:01.000Z</time>
      </trkpt>
      <trkpt lat="43.88974" lon="3.31635">
        <ele>831</ele>
        <time>2014-09-14T07:03:03.000Z</time>
      </trkpt>
      <trkpt lat="43.88974" lon="3.31635">
        <ele>831</ele>
        <time>2014-09-14T07:03:05.000Z</time>
      </trkpt>
      <trkpt lat="43.88979" lon="3.31632">
        <ele>836</ele>
        <time>2014-09-14T07:03:07.000Z</time>
      </trkpt>
      <trkpt lat="43.88979" lon="3.31632">
        <ele>836</ele>
        <time>2014-09-14T07:03:09.000Z</time>
      </trkpt>
      <trkpt lat="43.88986" lon="3.31626">
        <ele>834</ele>
        <time>2014-09-14T07:03:11.000Z</time>
      </trkpt>
      <trkpt lat="43.88986" lon="3.31626">
        <ele>834</ele>
        <time>2014-09-14T07:03:13.000Z</time>
      </trkpt>
      <trkpt lat="43.88992" lon="3.31626">
        <ele>834</ele>
        <time>2014-09-14T07:03:15.000Z</time>
      </trkpt>
      <trkpt lat="43.88992" lon="3.31626">
        <ele>834</ele>
        <time>2014-09-14T07:03:17.000Z</time>
      </trkpt>
      <trkpt lat="43.88992" lon="3.31626">
        <ele>834</ele>
        <time>2014-09-14T07:03:19.000Z</time>
      </trkpt>
      <trkpt lat="43.88998" lon="3.31625">
        <ele>836</ele>
        <time>2014-09-14T07:03:21.000Z</time>
      </trkpt>
      <trkpt lat="43.88998" lon="3.31625">
        <ele>836</ele>
        <time>2014-09-14T07:03:23.000Z</time>
      </trkpt>
      <trkpt lat="43.88998" lon="3.31625">
        <ele>836</ele>
        <time>2014-09-14T07:03:25.000Z</time>
      </trkpt>
      <trkpt lat="43.89004" lon="3.31622">
        <ele>839</ele>
        <time>2014-09-14T07:03:27.000Z</time>
      </trkpt>
      <trkpt lat="43.89004" lon="3.31622">
        <ele>839</ele>
        <time>2014-09-14T07:03:29.000Z</time>
      </trkpt>
      <trkpt lat="43.89004" lon="3.31622">
        <ele>839</ele>
        <time>2014-09-14T07:03:31.000Z</time>
      </trkpt>
      <trkpt lat="43.89004" lon="3.31622">
        <ele>839</ele>
        <time>2014-09-14T07:03:33.000Z</time>
      </trkpt>
      <trkpt lat="43.89023" lon="3.31618">
        <ele>845</ele>
        <time>2014-09-14T07:03:47.000Z</time>
      </trkpt>
      <trkpt lat="43.89029" lon="3.31613">
        <ele>846</ele>
        <time>2014-09-14T07:03:51.000Z</time>
      </trkpt>
      <trkpt lat="43.89029" lon="3.31613">
        <ele>846</ele>
        <time>2014-09-14T07:03:53.000Z</time>
      </trkpt>
      <trkpt lat="43.89029" lon="3.31613">
        <ele>846</ele>
        <time>2014-09-14T07:03:55.000Z</time>
      </trkpt>
      <trkpt lat="43.89029" lon="3.31613">
        <ele>846</ele>
        <time>2014-09-14T07:03:57.000Z</time>
      </trkpt>
      <trkpt lat="43.89032" lon="3.31613">
        <ele>849</ele>
        <time>2014-09-14T07:03:59.000Z</time>
      </trkpt>
      <trkpt lat="43.89035" lon="3.31612">
        <ele>850</ele>
        <time>2014-09-14T07:04:01.000Z</time>
      </trkpt>
      <trkpt lat="43.89038" lon="3.31611">
        <ele>845</ele>
        <time>2014-09-14T07:04:03.000Z</time>
      </trkpt>
      <trkpt lat="43.89042" lon="3.31611">
        <ele>848</ele>
        <time>2014-09-14T07:04:05.000Z</time>
      </trkpt>
      <trkpt lat="43.89042" lon="3.31611">
        <ele>848</ele>
        <time>2014-09-14T07:04:07.000Z</time>
      </trkpt>
      <trkpt lat="43.89045" lon="3.31611">
        <ele>845</ele>
        <time>2014-09-14T07:04:09.000Z</time>
      </trkpt>
      <trkpt lat="43.89045" lon="3.31611">
        <ele>845</ele>
        <time>2014-09-14T07:04:11.000Z</time>
      </trkpt>
      <trkpt lat="43.89048" lon="3.3161">
        <ele>844</ele>
        <time>2014-09-14T07:04:13.000Z</time>
      </trkpt>
      <trkpt lat="43.89048" lon="3.3161">
        <ele>844</ele>
        <time>2014-09-14T07:04:15.000Z</time>
      </trkpt>
      <trkpt lat="43.89051" lon="3.31611">
        <ele>843</ele>
        <time>2014-09-14T07:04:17.000Z</time>
      </trkpt>
      <trkpt lat="43.89051" lon="3.31611">
        <ele>843</ele>
        <time>2014-09-14T07:04:19.000Z</time>
      </trkpt>
      <trkpt lat="43.89051" lon="3.31611">
        <ele>843</ele>
        <time>2014-09-14T07:04:21.000Z</time>
      </trkpt>
      <trkpt lat="43.89051" lon="3.31611">
        <ele>843</ele>
        <time>2014-09-14T07:04:23.000Z</time>
      </trkpt>
      <trkpt lat="43.89051" lon="3.31611">
        <ele>843</ele>
        <time>2014-09-14T07:04:25.000Z</time>
      </trkpt>
      <trkpt lat="43.89051" lon="3.31611">
        <ele>843</ele>
        <time>2014-09-14T07:04:27.000Z</time>
      </trkpt>
      <trkpt lat="43.89051" lon="3.31611">
        <ele>843</ele>
        <time>2014-09-14T07:04:29.000Z</time>
      </trkpt>
      <trkpt lat="43.89051" lon="3.31611">
        <ele>843</ele>
        <time>2014-09-14T07:04:31.000Z</time>
      </trkpt>
      <trkpt lat="43.89051" lon="3.31611">
        <ele>843</ele>
        <time>2014-09-14T07:04:33.000Z</time>
      </trkpt>
      <trkpt lat="43.89051" lon="3.31611">
        <ele>843</ele>
        <time>2014-09-14T07:04:35.000Z</time>
      </trkpt>
      <trkpt lat="43.89051" lon="3.31611">
        <ele>843</ele>
        <time>2014-09-14T07:04:37.000Z</time>
      </trkpt>
      <trkpt lat="43.89051" lon="3.31611">
        <ele>843</ele>
        <time>2014-09-14T07:04:39.000Z</time>
      </trkpt>
      <trkpt lat="43.89051" lon="3.31611">
        <ele>843</ele>
        <time>2014-09-14T07:04:41.000Z</time>
      </trkpt>
      <trkpt lat="43.89051" lon="3.31611">
        <ele>843</ele>
        <time>2014-09-14T07:04:43.000Z</time>
      </trkpt>
      <trkpt lat="43.89051" lon="3.31611">
        <ele>843</ele>
        <time>2014-09-14T07:04:45.000Z</time>
      </trkpt>
      <trkpt lat="43.89051" lon="3.31611">
        <ele>843</ele>
        <time>2014-09-14T07:04:47.000Z</time>
      </trkpt>
      <trkpt lat="43.89051" lon="3.31611">
        <ele>843</ele>
        <time>2014-09-14T07:04:49.000Z</time>
      </trkpt>
      <trkpt lat="43.89051" lon="3.31611">
        <ele>843</ele>
        <time>2014-09-14T07:04:51.000Z</time>
      </trkpt>
      <trkpt lat="43.89051" lon="3.31611">
        <ele>843</ele>
        <time>2014-09-14T07:04:53.000Z</time>
      </trkpt>
      <trkpt lat="43.89051" lon="3.31611">
        <ele>843</ele>
        <time>2014-09-14T07:04:55.000Z</time>
      </trkpt>
      <trkpt lat="43.89051" lon="3.31611">
        <ele>843</ele>
        <time>2014-09-14T07:04:57.000Z</time>
      </trkpt>
      <trkpt lat="43.89051" lon="3.31611">
        <ele>843</ele>
        <time>2014-09-14T07:04:59.000Z</time>
      </trkpt>
      <trkpt lat="43.89073" lon="3.31616">
        <ele>853</ele>
        <time>2014-09-14T07:05:05.000Z</time>
      </trkpt>
      <trkpt lat="43.89085" lon="3.31618">
        <ele>851</ele>
        <time>2014-09-14T07:05:07.000Z</time>
      </trkpt>
      <trkpt lat="43.89093" lon="3.31618">
        <ele>853</ele>
        <time>2014-09-14T07:05:09.000Z</time>
      </trkpt>
      <trkpt lat="43.89098" lon="3.31618">
        <ele>854</ele>
        <time>2014-09-14T07:05:11.000Z</time>
      </trkpt>
      <trkpt lat="43.89104" lon="3.31618">
        <ele>857</ele>
        <time>2014-09-14T07:05:13.000Z</time>
      </trkpt>
      <trkpt lat="43.89112" lon="3.3162">
        <ele>857</ele>
        <time>2014-09-14T07:05:15.000Z</time>
      </trkpt>
      <trkpt lat="43.89119" lon="3.31619">
        <ele>857</ele>
        <time>2014-09-14T07:05:19.000Z</time>
      </trkpt>
      <trkpt lat="43.89126" lon="3.31612">
        <ele>861</ele>
        <time>2014-09-14T07:05:23.000Z</time>
      </trkpt>
      <trkpt lat="43.89126" lon="3.31612">
        <ele>861</ele>
        <time>2014-09-14T07:05:25.000Z</time>
      </trkpt>
      <trkpt lat="43.89126" lon="3.31612">
        <ele>861</ele>
        <time>2014-09-14T07:05:27.000Z</time>
      </trkpt>
      <trkpt lat="43.89126" lon="3.31612">
        <ele>861</ele>
        <time>2014-09-14T07:05:29.000Z</time>
      </trkpt>
      <trkpt lat="43.89131" lon="3.31607">
        <ele>858</ele>
        <time>2014-09-14T07:05:31.000Z</time>
      </trkpt>
      <trkpt lat="43.89131" lon="3.31607">
        <ele>858</ele>
        <time>2014-09-14T07:05:33.000Z</time>
      </trkpt>
      <trkpt lat="43.89131" lon="3.31607">
        <ele>858</ele>
        <time>2014-09-14T07:05:35.000Z</time>
      </trkpt>
      <trkpt lat="43.89131" lon="3.31607">
        <ele>858</ele>
        <time>2014-09-14T07:05:37.000Z</time>
      </trkpt>
      <trkpt lat="43.89139" lon="3.31606">
        <ele>859</ele>
        <time>2014-09-14T07:05:39.000Z</time>
      </trkpt>
      <trkpt lat="43.89145" lon="3.31612">
        <ele>859</ele>
        <time>2014-09-14T07:05:45.000Z</time>
      </trkpt>
      <trkpt lat="43.89145" lon="3.31612">
        <ele>859</ele>
        <time>2014-09-14T07:05:47.000Z</time>
      </trkpt>
      <trkpt lat="43.89145" lon="3.31612">
        <ele>859</ele>
        <time>2014-09-14T07:05:49.000Z</time>
      </trkpt>
      <trkpt lat="43.89167" lon="3.3162">
        <ele>865</ele>
        <time>2014-09-14T07:06:13.000Z</time>
      </trkpt>
      <trkpt lat="43.89177" lon="3.31619">
        <ele>867</ele>
        <time>2014-09-14T07:06:17.000Z</time>
      </trkpt>
      <trkpt lat="43.89177" lon="3.31619">
        <ele>867</ele>
        <time>2014-09-14T07:06:19.000Z</time>
      </trkpt>
      <trkpt lat="43.89177" lon="3.31619">
        <ele>867</ele>
        <time>2014-09-14T07:06:21.000Z</time>
      </trkpt>
      <trkpt lat="43.89183" lon="3.31622">
        <ele>867</ele>
        <time>2014-09-14T07:06:23.000Z</time>
      </trkpt>
      <trkpt lat="43.89183" lon="3.31622">
        <ele>867</ele>
        <time>2014-09-14T07:06:25.000Z</time>
      </trkpt>
      <trkpt lat="43.8919" lon="3.31625">
        <ele>863</ele>
        <time>2014-09-14T07:06:27.000Z</time>
      </trkpt>
      <trkpt lat="43.89199" lon="3.31622">
        <ele>863</ele>
        <time>2014-09-14T07:06:31.000Z</time>
      </trkpt>
      <trkpt lat="43.89211" lon="3.31617">
        <ele>863</ele>
        <time>2014-09-14T07:06:35.000Z</time>
      </trkpt>
      <trkpt lat="43.89219" lon="3.31612">
        <ele>862</ele>
        <time>2014-09-14T07:06:37.000Z</time>
      </trkpt>
      <trkpt lat="43.89227" lon="3.31607">
        <ele>862</ele>
        <time>2014-09-14T07:06:39.000Z</time>
      </trkpt>
      <trkpt lat="43.89234" lon="3.31605">
        <ele>858</ele>
        <time>2014-09-14T07:06:41.000Z</time>
      </trkpt>
      <trkpt lat="43.89234" lon="3.31605">
        <ele>858</ele>
        <time>2014-09-14T07:06:43.000Z</time>
      </trkpt>
      <trkpt lat="43.89238" lon="3.31604">
        <ele>854</ele>
        <time>2014-09-14T07:06:45.000Z</time>
      </trkpt>
      <trkpt lat="43.89243" lon="3.31603">
        <ele>855</ele>
        <time>2014-09-14T07:06:47.000Z</time>
      </trkpt>
      <trkpt lat="43.89249" lon="3.316">
        <ele>858</ele>
        <time>2014-09-14T07:06:49.000Z</time>
      </trkpt>
      <trkpt lat="43.89256" lon="3.31599">
        <ele>857</ele>
        <time>2014-09-14T07:06:51.000Z</time>
      </trkpt>
      <trkpt lat="43.89262" lon="3.31597">
        <ele>855</ele>
        <time>2014-09-14T07:06:53.000Z</time>
      </trkpt>
      <trkpt lat="43.89275" lon="3.31595">
        <ele>854</ele>
        <time>2014-09-14T07:06:55.000Z</time>
      </trkpt>
      <trkpt lat="43.89275" lon="3.31595">
        <ele>854</ele>
        <time>2014-09-14T07:06:57.000Z</time>
      </trkpt>
      <trkpt lat="43.89285" lon="3.31595">
        <ele>840</ele>
        <time>2014-09-14T07:06:59.000Z</time>
      </trkpt>
      <trkpt lat="43.89293" lon="3.31594">
        <ele>844</ele>
        <time>2014-09-14T07:07:01.000Z</time>
      </trkpt>
      <trkpt lat="43.89301" lon="3.31592">
        <ele>847</ele>
        <time>2014-09-14T07:07:03.000Z</time>
      </trkpt>
      <trkpt lat="43.89307" lon="3.31592">
        <ele>849</ele>
        <time>2014-09-14T07:07:05.000Z</time>
      </trkpt>
      <trkpt lat="43.89314" lon="3.31592">
        <ele>846</ele>
        <time>2014-09-14T07:07:07.000Z</time>
      </trkpt>
      <trkpt lat="43.89314" lon="3.31592">
        <ele>846</ele>
        <time>2014-09-14T07:07:09.000Z</time>
      </trkpt>
      <trkpt lat="43.89323" lon="3.31589">
        <ele>851</ele>
        <time>2014-09-14T07:07:11.000Z</time>
      </trkpt>
      <trkpt lat="43.89323" lon="3.31589">
        <ele>851</ele>
        <time>2014-09-14T07:07:13.000Z</time>
      </trkpt>
      <trkpt lat="43.89336" lon="3.31586">
        <ele>855</ele>
        <time>2014-09-14T07:07:15.000Z</time>
      </trkpt>
      <trkpt lat="43.89344" lon="3.31579">
        <ele>855</ele>
        <time>2014-09-14T07:07:17.000Z</time>
      </trkpt>
      <trkpt lat="43.8935" lon="3.31574">
        <ele>855</ele>
        <time>2014-09-14T07:07:19.000Z</time>
      </trkpt>
      <trkpt lat="43.8935" lon="3.31574">
        <ele>855</ele>
        <time>2014-09-14T07:07:21.000Z</time>
      </trkpt>
      <trkpt lat="43.89362" lon="3.31572">
        <ele>851</ele>
        <time>2014-09-14T07:07:23.000Z</time>
      </trkpt>
      <trkpt lat="43.8937" lon="3.31569">
        <ele>849</ele>
        <time>2014-09-14T07:07:25.000Z</time>
      </trkpt>
      <trkpt lat="43.89378" lon="3.31566">
        <ele>847</ele>
        <time>2014-09-14T07:07:27.000Z</time>
      </trkpt>
      <trkpt lat="43.89386" lon="3.31564">
        <ele>848</ele>
        <time>2014-09-14T07:07:29.000Z</time>
      </trkpt>
      <trkpt lat="43.89395" lon="3.31562">
        <ele>846</ele>
        <time>2014-09-14T07:07:31.000Z</time>
      </trkpt>
      <trkpt lat="43.89404" lon="3.3156">
        <ele>846</ele>
        <time>2014-09-14T07:07:33.000Z</time>
      </trkpt>
      <trkpt lat="43.89411" lon="3.31558">
        <ele>844</ele>
        <time>2014-09-14T07:07:35.000Z</time>
      </trkpt>
      <trkpt lat="43.89411" lon="3.31558">
        <ele>844</ele>
        <time>2014-09-14T07:07:37.000Z</time>
      </trkpt>
      <trkpt lat="43.8942" lon="3.31553">
        <ele>848</ele>
        <time>2014-09-14T07:07:39.000Z</time>
      </trkpt>
      <trkpt lat="43.8942" lon="3.31553">
        <ele>848</ele>
        <time>2014-09-14T07:07:41.000Z</time>
      </trkpt>
      <trkpt lat="43.89432" lon="3.31545">
        <ele>846</ele>
        <time>2014-09-14T07:07:43.000Z</time>
      </trkpt>
      <trkpt lat="43.89441" lon="3.31541">
        <ele>847</ele>
        <time>2014-09-14T07:07:45.000Z</time>
      </trkpt>
      <trkpt lat="43.89449" lon="3.31539">
        <ele>845</ele>
        <time>2014-09-14T07:07:47.000Z</time>
      </trkpt>
      <trkpt lat="43.89458" lon="3.3154">
        <ele>845</ele>
        <time>2014-09-14T07:07:49.000Z</time>
      </trkpt>
      <trkpt lat="43.89467" lon="3.31542">
        <ele>844</ele>
        <time>2014-09-14T07:07:51.000Z</time>
      </trkpt>
      <trkpt lat="43.89486" lon="3.31538">
        <ele>842</ele>
        <time>2014-09-14T07:07:54.000Z</time>
      </trkpt>
      <trkpt lat="43.89497" lon="3.31537">
        <ele>842</ele>
        <time>2014-09-14T07:07:56.000Z</time>
      </trkpt>
      <trkpt lat="43.89507" lon="3.31536">
        <ele>841</ele>
        <time>2014-09-14T07:07:58.000Z</time>
      </trkpt>
      <trkpt lat="43.89514" lon="3.31541">
        <ele>842</ele>
        <time>2014-09-14T07:08:00.000Z</time>
      </trkpt>
      <trkpt lat="43.89521" lon="3.31543">
        <ele>842</ele>
        <time>2014-09-14T07:08:02.000Z</time>
      </trkpt>
      <trkpt lat="43.89529" lon="3.31548">
        <ele>841</ele>
        <time>2014-09-14T07:08:04.000Z</time>
      </trkpt>
      <trkpt lat="43.89539" lon="3.31552">
        <ele>841</ele>
        <time>2014-09-14T07:08:06.000Z</time>
      </trkpt>
      <trkpt lat="43.89545" lon="3.3156">
        <ele>841</ele>
        <time>2014-09-14T07:08:08.000Z</time>
      </trkpt>
      <trkpt lat="43.89552" lon="3.31563">
        <ele>843</ele>
        <time>2014-09-14T07:08:10.000Z</time>
      </trkpt>
      <trkpt lat="43.89558" lon="3.31566">
        <ele>841</ele>
        <time>2014-09-14T07:08:12.000Z</time>
      </trkpt>
      <trkpt lat="43.89566" lon="3.31569">
        <ele>841</ele>
        <time>2014-09-14T07:08:14.000Z</time>
      </trkpt>
      <trkpt lat="43.89566" lon="3.31569">
        <ele>841</ele>
        <time>2014-09-14T07:08:16.000Z</time>
      </trkpt>
      <trkpt lat="43.89576" lon="3.31577">
        <ele>835</ele>
        <time>2014-09-14T07:08:18.000Z</time>
      </trkpt>
      <trkpt lat="43.89583" lon="3.31581">
        <ele>832</ele>
        <time>2014-09-14T07:08:20.000Z</time>
      </trkpt>
      <trkpt lat="43.89591" lon="3.31584">
        <ele>832</ele>
        <time>2014-09-14T07:08:22.000Z</time>
      </trkpt>
      <trkpt lat="43.89601" lon="3.31584">
        <ele>834</ele>
        <time>2014-09-14T07:08:24.000Z</time>
      </trkpt>
      <trkpt lat="43.8961" lon="3.31586">
        <ele>836</ele>
        <time>2014-09-14T07:08:26.000Z</time>
      </trkpt>
      <trkpt lat="43.89629" lon="3.31586">
        <ele>839</ele>
        <time>2014-09-14T07:08:29.000Z</time>
      </trkpt>
      <trkpt lat="43.89637" lon="3.31591">
        <ele>838</ele>
        <time>2014-09-14T07:08:32.000Z</time>
      </trkpt>
      <trkpt lat="43.89637" lon="3.31591">
        <ele>838</ele>
        <time>2014-09-14T07:08:34.000Z</time>
      </trkpt>
      <trkpt lat="43.89637" lon="3.31591">
        <ele>838</ele>
        <time>2014-09-14T07:08:36.000Z</time>
      </trkpt>
      <trkpt lat="43.89643" lon="3.31596">
        <ele>841</ele>
        <time>2014-09-14T07:08:38.000Z</time>
      </trkpt>
      <trkpt lat="43.89653" lon="3.31594">
        <ele>839</ele>
        <time>2014-09-14T07:08:42.000Z</time>
      </trkpt>
      <trkpt lat="43.89662" lon="3.31588">
        <ele>841</ele>
        <time>2014-09-14T07:08:46.000Z</time>
      </trkpt>
      <trkpt lat="43.89662" lon="3.31588">
        <ele>841</ele>
        <time>2014-09-14T07:08:48.000Z</time>
      </trkpt>
      <trkpt lat="43.89669" lon="3.31584">
        <ele>839</ele>
        <time>2014-09-14T07:08:50.000Z</time>
      </trkpt>
      <trkpt lat="43.89669" lon="3.31584">
        <ele>839</ele>
        <time>2014-09-14T07:08:52.000Z</time>
      </trkpt>
      <trkpt lat="43.89669" lon="3.31584">
        <ele>839</ele>
        <time>2014-09-14T07:08:54.000Z</time>
      </trkpt>
      <trkpt lat="43.89675" lon="3.31588">
        <ele>840</ele>
        <time>2014-09-14T07:08:56.000Z</time>
      </trkpt>
      <trkpt lat="43.89675" lon="3.31588">
        <ele>840</ele>
        <time>2014-09-14T07:08:58.000Z</time>
      </trkpt>
      <trkpt lat="43.89675" lon="3.31588">
        <ele>840</ele>
        <time>2014-09-14T07:09:00.000Z</time>
      </trkpt>
      <trkpt lat="43.89684" lon="3.31588">
        <ele>841</ele>
        <time>2014-09-14T07:09:02.000Z</time>
      </trkpt>
      <trkpt lat="43.89691" lon="3.31591">
        <ele>842</ele>
        <time>2014-09-14T07:09:06.000Z</time>
      </trkpt>
      <trkpt lat="43.89697" lon="3.31591">
        <ele>844</ele>
        <time>2014-09-14T07:09:10.000Z</time>
      </trkpt>
      <trkpt lat="43.89697" lon="3.31591">
        <ele>844</ele>
        <time>2014-09-14T07:09:12.000Z</time>
      </trkpt>
      <trkpt lat="43.89704" lon="3.31591">
        <ele>845</ele>
        <time>2014-09-14T07:09:14.000Z</time>
      </trkpt>
      <trkpt lat="43.89704" lon="3.31591">
        <ele>845</ele>
        <time>2014-09-14T07:09:16.000Z</time>
      </trkpt>
      <trkpt lat="43.89709" lon="3.31596">
        <ele>843</ele>
        <time>2014-09-14T07:09:18.000Z</time>
      </trkpt>
      <trkpt lat="43.89709" lon="3.31596">
        <ele>843</ele>
        <time>2014-09-14T07:09:20.000Z</time>
      </trkpt>
      <trkpt lat="43.89716" lon="3.31595">
        <ele>841</ele>
        <time>2014-09-14T07:09:22.000Z</time>
      </trkpt>
      <trkpt lat="43.89716" lon="3.31595">
        <ele>841</ele>
        <time>2014-09-14T07:09:24.000Z</time>
      </trkpt>
      <trkpt lat="43.89722" lon="3.31598">
        <ele>843</ele>
        <time>2014-09-14T07:09:26.000Z</time>
      </trkpt>
      <trkpt lat="43.89729" lon="3.316">
        <ele>842</ele>
        <time>2014-09-14T07:09:28.000Z</time>
      </trkpt>
      <trkpt lat="43.89735" lon="3.31603">
        <ele>840</ele>
        <time>2014-09-14T07:09:30.000Z</time>
      </trkpt>
      <trkpt lat="43.89742" lon="3.31603">
        <ele>840</ele>
        <time>2014-09-14T07:09:32.000Z</time>
      </trkpt>
      <trkpt lat="43.89748" lon="3.31604">
        <ele>841</ele>
        <time>2014-09-14T07:09:34.000Z</time>
      </trkpt>
      <trkpt lat="43.89748" lon="3.31604">
        <ele>841</ele>
        <time>2014-09-14T07:09:36.000Z</time>
      </trkpt>
      <trkpt lat="43.89758" lon="3.31608">
        <ele>842</ele>
        <time>2014-09-14T07:09:38.000Z</time>
      </trkpt>
      <trkpt lat="43.89758" lon="3.31608">
        <ele>842</ele>
        <time>2014-09-14T07:09:40.000Z</time>
      </trkpt>
      <trkpt lat="43.89769" lon="3.31611">
        <ele>843</ele>
        <time>2014-09-14T07:09:42.000Z</time>
      </trkpt>
      <trkpt lat="43.89776" lon="3.31613">
        <ele>843</ele>
        <time>2014-09-14T07:09:44.000Z</time>
      </trkpt>
      <trkpt lat="43.89782" lon="3.31615">
        <ele>842</ele>
        <time>2014-09-14T07:09:46.000Z</time>
      </trkpt>
      <trkpt lat="43.8979" lon="3.3162">
        <ele>844</ele>
        <time>2014-09-14T07:09:50.000Z</time>
      </trkpt>
      <trkpt lat="43.8979" lon="3.3162">
        <ele>844</ele>
        <time>2014-09-14T07:09:52.000Z</time>
      </trkpt>
      <trkpt lat="43.89798" lon="3.31624">
        <ele>844</ele>
        <time>2014-09-14T07:09:54.000Z</time>
      </trkpt>
      <trkpt lat="43.89798" lon="3.31624">
        <ele>844</ele>
        <time>2014-09-14T07:09:56.000Z</time>
      </trkpt>
      <trkpt lat="43.89806" lon="3.31627">
        <ele>843</ele>
        <time>2014-09-14T07:09:58.000Z</time>
      </trkpt>
      <trkpt lat="43.89806" lon="3.31627">
        <ele>843</ele>
        <time>2014-09-14T07:10:00.000Z</time>
      </trkpt>
      <trkpt lat="43.89816" lon="3.31631">
        <ele>844</ele>
        <time>2014-09-14T07:10:02.000Z</time>
      </trkpt>
      <trkpt lat="43.89823" lon="3.31632">
        <ele>845</ele>
        <time>2014-09-14T07:10:04.000Z</time>
      </trkpt>
      <trkpt lat="43.89829" lon="3.31635">
        <ele>844</ele>
        <time>2014-09-14T07:10:06.000Z</time>
      </trkpt>
      <trkpt lat="43.89833" lon="3.31641">
        <ele>844</ele>
        <time>2014-09-14T07:10:08.000Z</time>
      </trkpt>
      <trkpt lat="43.89837" lon="3.31649">
        <ele>844</ele>
        <time>2014-09-14T07:10:10.000Z</time>
      </trkpt>
      <trkpt lat="43.89838" lon="3.31657">
        <ele>843</ele>
        <time>2014-09-14T07:10:12.000Z</time>
      </trkpt>
      <trkpt lat="43.89841" lon="3.31664">
        <ele>843</ele>
        <time>2014-09-14T07:10:14.000Z</time>
      </trkpt>
      <trkpt lat="43.89846" lon="3.3167">
        <ele>843</ele>
        <time>2014-09-14T07:10:16.000Z</time>
      </trkpt>
      <trkpt lat="43.89853" lon="3.31676">
        <ele>844</ele>
        <time>2014-09-14T07:10:18.000Z</time>
      </trkpt>
      <trkpt lat="43.89858" lon="3.31684">
        <ele>843</ele>
        <time>2014-09-14T07:10:20.000Z</time>
      </trkpt>
      <trkpt lat="43.89863" lon="3.31691">
        <ele>844</ele>
        <time>2014-09-14T07:10:22.000Z</time>
      </trkpt>
      <trkpt lat="43.89868" lon="3.317">
        <ele>845</ele>
        <time>2014-09-14T07:10:24.000Z</time>
      </trkpt>
      <trkpt lat="43.89872" lon="3.31707">
        <ele>842</ele>
        <time>2014-09-14T07:10:26.000Z</time>
      </trkpt>
      <trkpt lat="43.89877" lon="3.31715">
        <ele>843</ele>
        <time>2014-09-14T07:10:28.000Z</time>
      </trkpt>
      <trkpt lat="43.89882" lon="3.31722">
        <ele>846</ele>
        <time>2014-09-14T07:10:30.000Z</time>
      </trkpt>
      <trkpt lat="43.89886" lon="3.31728">
        <ele>846</ele>
        <time>2014-09-14T07:10:32.000Z</time>
      </trkpt>
      <trkpt lat="43.89886" lon="3.31728">
        <ele>846</ele>
        <time>2014-09-14T07:10:34.000Z</time>
      </trkpt>
      <trkpt lat="43.89894" lon="3.3174">
        <ele>847</ele>
        <time>2014-09-14T07:10:36.000Z</time>
      </trkpt>
      <trkpt lat="43.89894" lon="3.3174">
        <ele>847</ele>
        <time>2014-09-14T07:10:38.000Z</time>
      </trkpt>
      <trkpt lat="43.89898" lon="3.31745">
        <ele>847</ele>
        <time>2014-09-14T07:10:40.000Z</time>
      </trkpt>
      <trkpt lat="43.89903" lon="3.3175">
        <ele>846</ele>
        <time>2014-09-14T07:10:42.000Z</time>
      </trkpt>
      <trkpt lat="43.89907" lon="3.31753">
        <ele>848</ele>
        <time>2014-09-14T07:10:44.000Z</time>
      </trkpt>
      <trkpt lat="43.89911" lon="3.31756">
        <ele>850</ele>
        <time>2014-09-14T07:10:46.000Z</time>
      </trkpt>
      <trkpt lat="43.89915" lon="3.31759">
        <ele>851</ele>
        <time>2014-09-14T07:10:48.000Z</time>
      </trkpt>
      <trkpt lat="43.89926" lon="3.31765">
        <ele>851</ele>
        <time>2014-09-14T07:10:50.000Z</time>
      </trkpt>
      <trkpt lat="43.89932" lon="3.31766">
        <ele>848</ele>
        <time>2014-09-14T07:10:52.000Z</time>
      </trkpt>
      <trkpt lat="43.89938" lon="3.31764">
        <ele>847</ele>
        <time>2014-09-14T07:10:54.000Z</time>
      </trkpt>
      <trkpt lat="43.89949" lon="3.31763">
        <ele>849</ele>
        <time>2014-09-14T07:10:58.000Z</time>
      </trkpt>
      <trkpt lat="43.89957" lon="3.31764">
        <ele>846</ele>
        <time>2014-09-14T07:11:00.000Z</time>
      </trkpt>
      <trkpt lat="43.89965" lon="3.31764">
        <ele>847</ele>
        <time>2014-09-14T07:11:02.000Z</time>
      </trkpt>
      <trkpt lat="43.89972" lon="3.31765">
        <ele>844</ele>
        <time>2014-09-14T07:11:04.000Z</time>
      </trkpt>
      <trkpt lat="43.89972" lon="3.31765">
        <ele>844</ele>
        <time>2014-09-14T07:11:06.000Z</time>
      </trkpt>
      <trkpt lat="43.89983" lon="3.31761">
        <ele>847</ele>
        <time>2014-09-14T07:11:08.000Z</time>
      </trkpt>
      <trkpt lat="43.89983" lon="3.31761">
        <ele>847</ele>
        <time>2014-09-14T07:11:10.000Z</time>
      </trkpt>
      <trkpt lat="43.89993" lon="3.31754">
        <ele>844</ele>
        <time>2014-09-14T07:11:12.000Z</time>
      </trkpt>
      <trkpt lat="43.89993" lon="3.31754">
        <ele>844</ele>
        <time>2014-09-14T07:11:14.000Z</time>
      </trkpt>
      <trkpt lat="43.90002" lon="3.31748">
        <ele>845</ele>
        <time>2014-09-14T07:11:16.000Z</time>
      </trkpt>
      <trkpt lat="43.90002" lon="3.31748">
        <ele>845</ele>
        <time>2014-09-14T07:11:18.000Z</time>
      </trkpt>
      <trkpt lat="43.90012" lon="3.31742">
        <ele>845</ele>
        <time>2014-09-14T07:11:20.000Z</time>
      </trkpt>
      <trkpt lat="43.90012" lon="3.31742">
        <ele>845</ele>
        <time>2014-09-14T07:11:22.000Z</time>
      </trkpt>
      <trkpt lat="43.90022" lon="3.31738">
        <ele>848</ele>
        <time>2014-09-14T07:11:24.000Z</time>
      </trkpt>
      <trkpt lat="43.90022" lon="3.31738">
        <ele>848</ele>
        <time>2014-09-14T07:11:26.000Z</time>
      </trkpt>
      <trkpt lat="43.90031" lon="3.31736">
        <ele>850</ele>
        <time>2014-09-14T07:11:28.000Z</time>
      </trkpt>
      <trkpt lat="43.90031" lon="3.31736">
        <ele>850</ele>
        <time>2014-09-14T07:11:30.000Z</time>
      </trkpt>
      <trkpt lat="43.9004" lon="3.31737">
        <ele>848</ele>
        <time>2014-09-14T07:11:32.000Z</time>
      </trkpt>
      <trkpt lat="43.9004" lon="3.31737">
        <ele>848</ele>
        <time>2014-09-14T07:11:34.000Z</time>
      </trkpt>
      <trkpt lat="43.9005" lon="3.31739">
        <ele>849</ele>
        <time>2014-09-14T07:11:36.000Z</time>
      </trkpt>
      <trkpt lat="43.9005" lon="3.31739">
        <ele>849</ele>
        <time>2014-09-14T07:11:38.000Z</time>
      </trkpt>
      <trkpt lat="43.9006" lon="3.3174">
        <ele>852</ele>
        <time>2014-09-14T07:11:40.000Z</time>
      </trkpt>
      <trkpt lat="43.9006" lon="3.3174">
        <ele>852</ele>
        <time>2014-09-14T07:11:42.000Z</time>
      </trkpt>
      <trkpt lat="43.9007" lon="3.31738">
        <ele>850</ele>
        <time>2014-09-14T07:11:44.000Z</time>
      </trkpt>
      <trkpt lat="43.9007" lon="3.31738">
        <ele>850</ele>
        <time>2014-09-14T07:11:46.000Z</time>
      </trkpt>
      <trkpt lat="43.9008" lon="3.31733">
        <ele>851</ele>
        <time>2014-09-14T07:11:48.000Z</time>
      </trkpt>
      <trkpt lat="43.9008" lon="3.31733">
        <ele>851</ele>
        <time>2014-09-14T07:11:50.000Z</time>
      </trkpt>
      <trkpt lat="43.9008" lon="3.31733">
        <ele>851</ele>
        <time>2014-09-14T07:11:52.000Z</time>
      </trkpt>
      <trkpt lat="43.9008" lon="3.31733">
        <ele>851</ele>
        <time>2014-09-14T07:11:54.000Z</time>
      </trkpt>
      <trkpt lat="43.9008" lon="3.31733">
        <ele>851</ele>
        <time>2014-09-14T07:11:56.000Z</time>
      </trkpt>
      <trkpt lat="43.9008" lon="3.31733">
        <ele>851</ele>
        <time>2014-09-14T07:11:58.000Z</time>
      </trkpt>
      <trkpt lat="43.9009" lon="3.31733">
        <ele>857</ele>
        <time>2014-09-14T07:12:26.000Z</time>
      </trkpt>
      <trkpt lat="43.90095" lon="3.31733">
        <ele>856</ele>
        <time>2014-09-14T07:12:28.000Z</time>
      </trkpt>
      <trkpt lat="43.90095" lon="3.31733">
        <ele>856</ele>
        <time>2014-09-14T07:12:30.000Z</time>
      </trkpt>
      <trkpt lat="43.90095" lon="3.31733">
        <ele>856</ele>
        <time>2014-09-14T07:12:34.000Z</time>
      </trkpt>
      <trkpt lat="43.90095" lon="3.31733">
        <ele>856</ele>
        <time>2014-09-14T07:12:36.000Z</time>
      </trkpt>
      <trkpt lat="43.90095" lon="3.31733">
        <ele>856</ele>
        <time>2014-09-14T07:12:38.000Z</time>
      </trkpt>
      <trkpt lat="43.90095" lon="3.31733">
        <ele>856</ele>
        <time>2014-09-14T07:12:40.000Z</time>
      </trkpt>
      <trkpt lat="43.90111" lon="3.31738">
        <ele>854</ele>
        <time>2014-09-14T07:13:00.000Z</time>
      </trkpt>
      <trkpt lat="43.90121" lon="3.31743">
        <ele>858</ele>
        <time>2014-09-14T07:13:02.000Z</time>
      </trkpt>
      <trkpt lat="43.90128" lon="3.31747">
        <ele>856</ele>
        <time>2014-09-14T07:13:04.000Z</time>
      </trkpt>
      <trkpt lat="43.90133" lon="3.31751">
        <ele>856</ele>
        <time>2014-09-14T07:13:06.000Z</time>
      </trkpt>
      <trkpt lat="43.90137" lon="3.31756">
        <ele>857</ele>
        <time>2014-09-14T07:13:08.000Z</time>
      </trkpt>
      <trkpt lat="43.90147" lon="3.31762">
        <ele>858</ele>
        <time>2014-09-14T07:13:10.000Z</time>
      </trkpt>
      <trkpt lat="43.90152" lon="3.3176">
        <ele>859</ele>
        <time>2014-09-14T07:13:12.000Z</time>
      </trkpt>
      <trkpt lat="43.90161" lon="3.3176">
        <ele>860</ele>
        <time>2014-09-14T07:13:16.000Z</time>
      </trkpt>
      <trkpt lat="43.90161" lon="3.3176">
        <ele>860</ele>
        <time>2014-09-14T07:13:18.000Z</time>
      </trkpt>
      <trkpt lat="43.90168" lon="3.31762">
        <ele>858</ele>
        <time>2014-09-14T07:13:20.000Z</time>
      </trkpt>
      <trkpt lat="43.90168" lon="3.31762">
        <ele>858</ele>
        <time>2014-09-14T07:13:22.000Z</time>
      </trkpt>
      <trkpt lat="43.90174" lon="3.31768">
        <ele>859</ele>
        <time>2014-09-14T07:13:24.000Z</time>
      </trkpt>
      <trkpt lat="43.90174" lon="3.31768">
        <ele>859</ele>
        <time>2014-09-14T07:13:26.000Z</time>
      </trkpt>
      <trkpt lat="43.90181" lon="3.31774">
        <ele>859</ele>
        <time>2014-09-14T07:13:28.000Z</time>
      </trkpt>
      <trkpt lat="43.90181" lon="3.31774">
        <ele>859</ele>
        <time>2014-09-14T07:13:30.000Z</time>
      </trkpt>
      <trkpt lat="43.90187" lon="3.31779">
        <ele>858</ele>
        <time>2014-09-14T07:13:32.000Z</time>
      </trkpt>
      <trkpt lat="43.90187" lon="3.31779">
        <ele>858</ele>
        <time>2014-09-14T07:13:34.000Z</time>
      </trkpt>
      <trkpt lat="43.90195" lon="3.31782">
        <ele>860</ele>
        <time>2014-09-14T07:13:36.000Z</time>
      </trkpt>
      <trkpt lat="43.90195" lon="3.31782">
        <ele>860</ele>
        <time>2014-09-14T07:13:38.000Z</time>
      </trkpt>
      <trkpt lat="43.90202" lon="3.31785">
        <ele>863</ele>
        <time>2014-09-14T07:13:40.000Z</time>
      </trkpt>
      <trkpt lat="43.90202" lon="3.31785">
        <ele>863</ele>
        <time>2014-09-14T07:13:42.000Z</time>
      </trkpt>
      <trkpt lat="43.90209" lon="3.31788">
        <ele>864</ele>
        <time>2014-09-14T07:13:44.000Z</time>
      </trkpt>
      <trkpt lat="43.90209" lon="3.31788">
        <ele>864</ele>
        <time>2014-09-14T07:13:46.000Z</time>
      </trkpt>
      <trkpt lat="43.90216" lon="3.3179">
        <ele>867</ele>
        <time>2014-09-14T07:13:48.000Z</time>
      </trkpt>
      <trkpt lat="43.90216" lon="3.3179">
        <ele>867</ele>
        <time>2014-09-14T07:13:50.000Z</time>
      </trkpt>
      <trkpt lat="43.90221" lon="3.31793">
        <ele>868</ele>
        <time>2014-09-14T07:13:52.000Z</time>
      </trkpt>
      <trkpt lat="43.90221" lon="3.31793">
        <ele>868</ele>
        <time>2014-09-14T07:13:54.000Z</time>
      </trkpt>
      <trkpt lat="43.90227" lon="3.31797">
        <ele>868</ele>
        <time>2014-09-14T07:13:56.000Z</time>
      </trkpt>
      <trkpt lat="43.90227" lon="3.31797">
        <ele>868</ele>
        <time>2014-09-14T07:13:58.000Z</time>
      </trkpt>
      <trkpt lat="43.90233" lon="3.31799">
        <ele>868</ele>
        <time>2014-09-14T07:14:00.000Z</time>
      </trkpt>
      <trkpt lat="43.90233" lon="3.31799">
        <ele>868</ele>
        <time>2014-09-14T07:14:02.000Z</time>
      </trkpt>
      <trkpt lat="43.90239" lon="3.31801">
        <ele>869</ele>
        <time>2014-09-14T07:14:04.000Z</time>
      </trkpt>
      <trkpt lat="43.90239" lon="3.31801">
        <ele>869</ele>
        <time>2014-09-14T07:14:06.000Z</time>
      </trkpt>
      <trkpt lat="43.90245" lon="3.31802">
        <ele>870</ele>
        <time>2014-09-14T07:14:08.000Z</time>
      </trkpt>
      <trkpt lat="43.90245" lon="3.31802">
        <ele>870</ele>
        <time>2014-09-14T07:14:10.000Z</time>
      </trkpt>
      <trkpt lat="43.90251" lon="3.31802">
        <ele>869</ele>
        <time>2014-09-14T07:14:12.000Z</time>
      </trkpt>
      <trkpt lat="43.90251" lon="3.31802">
        <ele>869</ele>
        <time>2014-09-14T07:14:14.000Z</time>
      </trkpt>
      <trkpt lat="43.90251" lon="3.31802">
        <ele>869</ele>
        <time>2014-09-14T07:14:16.000Z</time>
      </trkpt>
      <trkpt lat="43.90259" lon="3.31805">
        <ele>870</ele>
        <time>2014-09-14T07:14:18.000Z</time>
      </trkpt>
      <trkpt lat="43.90259" lon="3.31805">
        <ele>870</ele>
        <time>2014-09-14T07:14:20.000Z</time>
      </trkpt>
      <trkpt lat="43.90259" lon="3.31805">
        <ele>870</ele>
        <time>2014-09-14T07:14:22.000Z</time>
      </trkpt>
      <trkpt lat="43.90267" lon="3.31809">
        <ele>873</ele>
        <time>2014-09-14T07:14:24.000Z</time>
      </trkpt>
      <trkpt lat="43.90267" lon="3.31809">
        <ele>873</ele>
        <time>2014-09-14T07:14:26.000Z</time>
      </trkpt>
      <trkpt lat="43.90274" lon="3.31812">
        <ele>873</ele>
        <time>2014-09-14T07:14:28.000Z</time>
      </trkpt>
      <trkpt lat="43.90274" lon="3.31812">
        <ele>873</ele>
        <time>2014-09-14T07:14:30.000Z</time>
      </trkpt>
      <trkpt lat="43.90281" lon="3.31811">
        <ele>870</ele>
        <time>2014-09-14T07:14:32.000Z</time>
      </trkpt>
      <trkpt lat="43.90281" lon="3.31811">
        <ele>870</ele>
        <time>2014-09-14T07:14:34.000Z</time>
      </trkpt>
      <trkpt lat="43.90288" lon="3.3181">
        <ele>869</ele>
        <time>2014-09-14T07:14:36.000Z</time>
      </trkpt>
      <trkpt lat="43.90295" lon="3.3181">
        <ele>870</ele>
        <time>2014-09-14T07:14:40.000Z</time>
      </trkpt>
      <trkpt lat="43.90303" lon="3.31811">
        <ele>872</ele>
        <time>2014-09-14T07:14:44.000Z</time>
      </trkpt>
      <trkpt lat="43.90311" lon="3.31811">
        <ele>863</ele>
        <time>2014-09-14T07:14:48.000Z</time>
      </trkpt>
      <trkpt lat="43.90319" lon="3.31813">
        <ele>867</ele>
        <time>2014-09-14T07:14:52.000Z</time>
      </trkpt>
      <trkpt lat="43.9033" lon="3.31813">
        <ele>871</ele>
        <time>2014-09-14T07:14:56.000Z</time>
      </trkpt>
      <trkpt lat="43.90337" lon="3.31813">
        <ele>871</ele>
        <time>2014-09-14T07:14:58.000Z</time>
      </trkpt>
      <trkpt lat="43.90344" lon="3.31812">
        <ele>873</ele>
        <time>2014-09-14T07:15:00.000Z</time>
      </trkpt>
      <trkpt lat="43.90353" lon="3.3181">
        <ele>874</ele>
        <time>2014-09-14T07:15:02.000Z</time>
      </trkpt>
      <trkpt lat="43.90361" lon="3.31807">
        <ele>873</ele>
        <time>2014-09-14T07:15:04.000Z</time>
      </trkpt>
      <trkpt lat="43.9037" lon="3.31805">
        <ele>869</ele>
        <time>2014-09-14T07:15:06.000Z</time>
      </trkpt>
      <trkpt lat="43.90379" lon="3.31802">
        <ele>869</ele>
        <time>2014-09-14T07:15:08.000Z</time>
      </trkpt>
      <trkpt lat="43.90392" lon="3.318">
        <ele>868</ele>
        <time>2014-09-14T07:15:10.000Z</time>
      </trkpt>
      <trkpt lat="43.90402" lon="3.31801">
        <ele>868</ele>
        <time>2014-09-14T07:15:12.000Z</time>
      </trkpt>
      <trkpt lat="43.90413" lon="3.31801">
        <ele>868</ele>
        <time>2014-09-14T07:15:14.000Z</time>
      </trkpt>
      <trkpt lat="43.90422" lon="3.31802">
        <ele>870</ele>
        <time>2014-09-14T07:15:16.000Z</time>
      </trkpt>
      <trkpt lat="43.90429" lon="3.31801">
        <ele>868</ele>
        <time>2014-09-14T07:15:18.000Z</time>
      </trkpt>
      <trkpt lat="43.90437" lon="3.318">
        <ele>867</ele>
        <time>2014-09-14T07:15:20.000Z</time>
      </trkpt>
      <trkpt lat="43.90444" lon="3.31801">
        <ele>867</ele>
        <time>2014-09-14T07:15:22.000Z</time>
      </trkpt>
      <trkpt lat="43.9045" lon="3.31804">
        <ele>866</ele>
        <time>2014-09-14T07:15:24.000Z</time>
      </trkpt>
      <trkpt lat="43.90456" lon="3.31806">
        <ele>865</ele>
        <time>2014-09-14T07:15:26.000Z</time>
      </trkpt>
      <trkpt lat="43.90461" lon="3.31809">
        <ele>864</ele>
        <time>2014-09-14T07:15:28.000Z</time>
      </trkpt>
      <trkpt lat="43.90461" lon="3.31809">
        <ele>864</ele>
        <time>2014-09-14T07:15:30.000Z</time>
      </trkpt>
      <trkpt lat="43.90471" lon="3.31813">
        <ele>862</ele>
        <time>2014-09-14T07:15:32.000Z</time>
      </trkpt>
      <trkpt lat="43.90477" lon="3.31816">
        <ele>860</ele>
        <time>2014-09-14T07:15:34.000Z</time>
      </trkpt>
      <trkpt lat="43.90484" lon="3.31816">
        <ele>860</ele>
        <time>2014-09-14T07:15:36.000Z</time>
      </trkpt>
      <trkpt lat="43.9049" lon="3.31819">
        <ele>858</ele>
        <time>2014-09-14T07:15:38.000Z</time>
      </trkpt>
      <trkpt lat="43.90499" lon="3.31821">
        <ele>858</ele>
        <time>2014-09-14T07:15:40.000Z</time>
      </trkpt>
      <trkpt lat="43.90508" lon="3.31821">
        <ele>856</ele>
        <time>2014-09-14T07:15:42.000Z</time>
      </trkpt>
      <trkpt lat="43.90515" lon="3.31823">
        <ele>856</ele>
        <time>2014-09-14T07:15:44.000Z</time>
      </trkpt>
      <trkpt lat="43.90522" lon="3.31823">
        <ele>851</ele>
        <time>2014-09-14T07:15:46.000Z</time>
      </trkpt>
      <trkpt lat="43.9053" lon="3.31823">
        <ele>850</ele>
        <time>2014-09-14T07:15:48.000Z</time>
      </trkpt>
      <trkpt lat="43.90549" lon="3.31825">
        <ele>851</ele>
        <time>2014-09-14T07:15:51.000Z</time>
      </trkpt>
      <trkpt lat="43.90558" lon="3.31823">
        <ele>849</ele>
        <time>2014-09-14T07:15:53.000Z</time>
      </trkpt>
      <trkpt lat="43.90569" lon="3.31824">
        <ele>849</ele>
        <time>2014-09-14T07:15:55.000Z</time>
      </trkpt>
      <trkpt lat="43.90582" lon="3.31824">
        <ele>848</ele>
        <time>2014-09-14T07:15:57.000Z</time>
      </trkpt>
      <trkpt lat="43.90594" lon="3.31826">
        <ele>848</ele>
        <time>2014-09-14T07:15:59.000Z</time>
      </trkpt>
      <trkpt lat="43.90605" lon="3.31827">
        <ele>846</ele>
        <time>2014-09-14T07:16:01.000Z</time>
      </trkpt>
      <trkpt lat="43.90615" lon="3.31826">
        <ele>846</ele>
        <time>2014-09-14T07:16:03.000Z</time>
      </trkpt>
      <trkpt lat="43.90626" lon="3.31822">
        <ele>844</ele>
        <time>2014-09-14T07:16:05.000Z</time>
      </trkpt>
      <trkpt lat="43.90635" lon="3.31818">
        <ele>844</ele>
        <time>2014-09-14T07:16:07.000Z</time>
      </trkpt>
      <trkpt lat="43.90641" lon="3.31815">
        <ele>845</ele>
        <time>2014-09-14T07:16:09.000Z</time>
      </trkpt>
      <trkpt lat="43.90641" lon="3.31815">
        <ele>845</ele>
        <time>2014-09-14T07:16:11.000Z</time>
      </trkpt>
      <trkpt lat="43.90651" lon="3.31802">
        <ele>847</ele>
        <time>2014-09-14T07:16:13.000Z</time>
      </trkpt>
      <trkpt lat="43.90656" lon="3.31798">
        <ele>847</ele>
        <time>2014-09-14T07:16:15.000Z</time>
      </trkpt>
      <trkpt lat="43.90666" lon="3.31801">
        <ele>848</ele>
        <time>2014-09-14T07:16:17.000Z</time>
      </trkpt>
      <trkpt lat="43.90678" lon="3.31796">
        <ele>848</ele>
        <time>2014-09-14T07:16:19.000Z</time>
      </trkpt>
      <trkpt lat="43.90687" lon="3.31792">
        <ele>846</ele>
        <time>2014-09-14T07:16:21.000Z</time>
      </trkpt>
      <trkpt lat="43.90696" lon="3.31792">
        <ele>846</ele>
        <time>2014-09-14T07:16:23.000Z</time>
      </trkpt>
      <trkpt lat="43.90704" lon="3.31792">
        <ele>845</ele>
        <time>2014-09-14T07:16:25.000Z</time>
      </trkpt>
      <trkpt lat="43.9071" lon="3.31789">
        <ele>842</ele>
        <time>2014-09-14T07:16:27.000Z</time>
      </trkpt>
      <trkpt lat="43.9071" lon="3.31789">
        <ele>842</ele>
        <time>2014-09-14T07:16:29.000Z</time>
      </trkpt>
      <trkpt lat="43.90715" lon="3.31788">
        <ele>839</ele>
        <time>2014-09-14T07:16:31.000Z</time>
      </trkpt>
      <trkpt lat="43.9072" lon="3.31785">
        <ele>840</ele>
        <time>2014-09-14T07:16:33.000Z</time>
      </trkpt>
      <trkpt lat="43.90724" lon="3.31783">
        <ele>848</ele>
        <time>2014-09-14T07:16:35.000Z</time>
      </trkpt>
      <trkpt lat="43.90729" lon="3.31779">
        <ele>847</ele>
        <time>2014-09-14T07:16:37.000Z</time>
      </trkpt>
      <trkpt lat="43.90734" lon="3.31773">
        <ele>850</ele>
        <time>2014-09-14T07:16:39.000Z</time>
      </trkpt>
      <trkpt lat="43.9076" lon="3.31729">
        <ele>849</ele>
        <time>2014-09-14T07:16:43.000Z</time>
      </trkpt>
      <trkpt lat="43.90771" lon="3.31719">
        <ele>844</ele>
        <time>2014-09-14T07:16:45.000Z</time>
      </trkpt>
      <trkpt lat="43.90781" lon="3.3171">
        <ele>839</ele>
        <time>2014-09-14T07:16:47.000Z</time>
      </trkpt>
      <trkpt lat="43.90791" lon="3.31702">
        <ele>840</ele>
        <time>2014-09-14T07:16:49.000Z</time>
      </trkpt>
      <trkpt lat="43.90799" lon="3.31691">
        <ele>840</ele>
        <time>2014-09-14T07:16:51.000Z</time>
      </trkpt>
      <trkpt lat="43.90806" lon="3.31682">
        <ele>839</ele>
        <time>2014-09-14T07:16:53.000Z</time>
      </trkpt>
      <trkpt lat="43.90813" lon="3.31672">
        <ele>837</ele>
        <time>2014-09-14T07:16:55.000Z</time>
      </trkpt>
      <trkpt lat="43.90817" lon="3.31665">
        <ele>839</ele>
        <time>2014-09-14T07:16:57.000Z</time>
      </trkpt>
      <trkpt lat="43.90822" lon="3.31655">
        <ele>837</ele>
        <time>2014-09-14T07:16:59.000Z</time>
      </trkpt>
      <trkpt lat="43.90829" lon="3.31647">
        <ele>834</ele>
        <time>2014-09-14T07:17:01.000Z</time>
      </trkpt>
      <trkpt lat="43.90836" lon="3.31634">
        <ele>830</ele>
        <time>2014-09-14T07:17:03.000Z</time>
      </trkpt>
      <trkpt lat="43.90841" lon="3.31623">
        <ele>835</ele>
        <time>2014-09-14T07:17:05.000Z</time>
      </trkpt>
      <trkpt lat="43.90846" lon="3.31611">
        <ele>834</ele>
        <time>2014-09-14T07:17:07.000Z</time>
      </trkpt>
      <trkpt lat="43.90847" lon="3.31597">
        <ele>834</ele>
        <time>2014-09-14T07:17:09.000Z</time>
      </trkpt>
      <trkpt lat="43.90848" lon="3.31583">
        <ele>833</ele>
        <time>2014-09-14T07:17:11.000Z</time>
      </trkpt>
      <trkpt lat="43.90849" lon="3.31571">
        <ele>833</ele>
        <time>2014-09-14T07:17:13.000Z</time>
      </trkpt>
      <trkpt lat="43.90849" lon="3.31571">
        <ele>833</ele>
        <time>2014-09-14T07:17:15.000Z</time>
      </trkpt>
      <trkpt lat="43.90846" lon="3.31558">
        <ele>832</ele>
        <time>2014-09-14T07:17:17.000Z</time>
      </trkpt>
      <trkpt lat="43.90846" lon="3.31558">
        <ele>832</ele>
        <time>2014-09-14T07:17:19.000Z</time>
      </trkpt>
      <trkpt lat="43.90842" lon="3.31547">
        <ele>832</ele>
        <time>2014-09-14T07:17:21.000Z</time>
      </trkpt>
      <trkpt lat="43.90842" lon="3.31547">
        <ele>832</ele>
        <time>2014-09-14T07:17:23.000Z</time>
      </trkpt>
      <trkpt lat="43.9084" lon="3.31535">
        <ele>835</ele>
        <time>2014-09-14T07:17:25.000Z</time>
      </trkpt>
      <trkpt lat="43.9084" lon="3.31535">
        <ele>835</ele>
        <time>2014-09-14T07:17:27.000Z</time>
      </trkpt>
      <trkpt lat="43.90836" lon="3.31527">
        <ele>833</ele>
        <time>2014-09-14T07:17:29.000Z</time>
      </trkpt>
      <trkpt lat="43.90836" lon="3.31527">
        <ele>833</ele>
        <time>2014-09-14T07:17:31.000Z</time>
      </trkpt>
      <trkpt lat="43.90831" lon="3.3152">
        <ele>832</ele>
        <time>2014-09-14T07:17:33.000Z</time>
      </trkpt>
      <trkpt lat="43.90831" lon="3.3152">
        <ele>832</ele>
        <time>2014-09-14T07:17:35.000Z</time>
      </trkpt>
      <trkpt lat="43.90831" lon="3.3152">
        <ele>832</ele>
        <time>2014-09-14T07:17:37.000Z</time>
      </trkpt>
      <trkpt lat="43.90831" lon="3.31512">
        <ele>833</ele>
        <time>2014-09-14T07:17:39.000Z</time>
      </trkpt>
      <trkpt lat="43.90823" lon="3.31502">
        <ele>835</ele>
        <time>2014-09-14T07:17:43.000Z</time>
      </trkpt>
      <trkpt lat="43.90818" lon="3.31499">
        <ele>835</ele>
        <time>2014-09-14T07:17:45.000Z</time>
      </trkpt>
      <trkpt lat="43.90818" lon="3.31499">
        <ele>835</ele>
        <time>2014-09-14T07:17:47.000Z</time>
      </trkpt>
      <trkpt lat="43.90811" lon="3.31496">
        <ele>834</ele>
        <time>2014-09-14T07:17:49.000Z</time>
      </trkpt>
      <trkpt lat="43.90811" lon="3.31496">
        <ele>834</ele>
        <time>2014-09-14T07:17:51.000Z</time>
      </trkpt>
      <trkpt lat="43.90805" lon="3.31494">
        <ele>835</ele>
        <time>2014-09-14T07:17:53.000Z</time>
      </trkpt>
      <trkpt lat="43.90799" lon="3.31491">
        <ele>835</ele>
        <time>2014-09-14T07:17:55.000Z</time>
      </trkpt>
      <trkpt lat="43.90793" lon="3.31489">
        <ele>834</ele>
        <time>2014-09-14T07:17:57.000Z</time>
      </trkpt>
      <trkpt lat="43.90788" lon="3.31485">
        <ele>836</ele>
        <time>2014-09-14T07:17:59.000Z</time>
      </trkpt>
      <trkpt lat="43.90788" lon="3.31485">
        <ele>836</ele>
        <time>2014-09-14T07:18:01.000Z</time>
      </trkpt>
      <trkpt lat="43.90781" lon="3.3148">
        <ele>834</ele>
        <time>2014-09-14T07:18:03.000Z</time>
      </trkpt>
      <trkpt lat="43.90781" lon="3.3148">
        <ele>834</ele>
        <time>2014-09-14T07:18:05.000Z</time>
      </trkpt>
      <trkpt lat="43.90775" lon="3.31472">
        <ele>838</ele>
        <time>2014-09-14T07:18:07.000Z</time>
      </trkpt>
      <trkpt lat="43.90767" lon="3.31461">
        <ele>841</ele>
        <time>2014-09-14T07:18:11.000Z</time>
      </trkpt>
      <trkpt lat="43.90757" lon="3.31452">
        <ele>842</ele>
        <time>2014-09-14T07:18:15.000Z</time>
      </trkpt>
      <trkpt lat="43.90748" lon="3.31446">
        <ele>841</ele>
        <time>2014-09-14T07:18:19.000Z</time>
      </trkpt>
      <trkpt lat="43.90748" lon="3.31446">
        <ele>841</ele>
        <time>2014-09-14T07:18:21.000Z</time>
      </trkpt>
      <trkpt lat="43.90741" lon="3.31439">
        <ele>842</ele>
        <time>2014-09-14T07:18:23.000Z</time>
      </trkpt>
      <trkpt lat="43.90733" lon="3.31432">
        <ele>844</ele>
        <time>2014-09-14T07:18:27.000Z</time>
      </trkpt>
      <trkpt lat="43.90733" lon="3.31432">
        <ele>844</ele>
        <time>2014-09-14T07:18:29.000Z</time>
      </trkpt>
      <trkpt lat="43.90733" lon="3.31432">
        <ele>844</ele>
        <time>2014-09-14T07:18:31.000Z</time>
      </trkpt>
      <trkpt lat="43.90726" lon="3.31422">
        <ele>843</ele>
        <time>2014-09-14T07:18:33.000Z</time>
      </trkpt>
      <trkpt lat="43.90726" lon="3.31422">
        <ele>843</ele>
        <time>2014-09-14T07:18:35.000Z</time>
      </trkpt>
      <trkpt lat="43.90721" lon="3.31415">
        <ele>844</ele>
        <time>2014-09-14T07:18:37.000Z</time>
      </trkpt>
      <trkpt lat="43.90718" lon="3.31404">
        <ele>845</ele>
        <time>2014-09-14T07:18:41.000Z</time>
      </trkpt>
      <trkpt lat="43.90714" lon="3.31391">
        <ele>843</ele>
        <time>2014-09-14T07:18:45.000Z</time>
      </trkpt>
      <trkpt lat="43.9071" lon="3.31379">
        <ele>844</ele>
        <time>2014-09-14T07:18:49.000Z</time>
      </trkpt>
      <trkpt lat="43.9071" lon="3.31379">
        <ele>844</ele>
        <time>2014-09-14T07:18:51.000Z</time>
      </trkpt>
      <trkpt lat="43.9071" lon="3.31379">
        <ele>844</ele>
        <time>2014-09-14T07:18:53.000Z</time>
      </trkpt>
      <trkpt lat="43.9071" lon="3.31379">
        <ele>844</ele>
        <time>2014-09-14T07:18:55.000Z</time>
      </trkpt>
      <trkpt lat="43.9071" lon="3.31379">
        <ele>844</ele>
        <time>2014-09-14T07:18:57.000Z</time>
      </trkpt>
      <trkpt lat="43.9071" lon="3.31379">
        <ele>844</ele>
        <time>2014-09-14T07:18:59.000Z</time>
      </trkpt>
      <trkpt lat="43.9071" lon="3.31379">
        <ele>844</ele>
        <time>2014-09-14T07:19:01.000Z</time>
      </trkpt>
      <trkpt lat="43.9071" lon="3.31379">
        <ele>844</ele>
        <time>2014-09-14T07:19:03.000Z</time>
      </trkpt>
      <trkpt lat="43.9071" lon="3.31379">
        <ele>844</ele>
        <time>2014-09-14T07:19:05.000Z</time>
      </trkpt>
      <trkpt lat="43.9071" lon="3.31379">
        <ele>844</ele>
        <time>2014-09-14T07:19:07.000Z</time>
      </trkpt>
      <trkpt lat="43.90701" lon="3.31368">
        <ele>843</ele>
        <time>2014-09-14T07:19:13.000Z</time>
      </trkpt>
      <trkpt lat="43.90695" lon="3.31359">
        <ele>843</ele>
        <time>2014-09-14T07:19:15.000Z</time>
      </trkpt>
      <trkpt lat="43.90691" lon="3.31352">
        <ele>843</ele>
        <time>2014-09-14T07:19:17.000Z</time>
      </trkpt>
      <trkpt lat="43.90689" lon="3.31345">
        <ele>843</ele>
        <time>2014-09-14T07:19:19.000Z</time>
      </trkpt>
      <trkpt lat="43.90688" lon="3.31339">
        <ele>842</ele>
        <time>2014-09-14T07:19:21.000Z</time>
      </trkpt>
      <trkpt lat="43.90684" lon="3.31327">
        <ele>844</ele>
        <time>2014-09-14T07:19:23.000Z</time>
      </trkpt>
      <trkpt lat="43.9068" lon="3.31316">
        <ele>842</ele>
        <time>2014-09-14T07:19:27.000Z</time>
      </trkpt>
      <trkpt lat="43.9068" lon="3.31304">
        <ele>843</ele>
        <time>2014-09-14T07:19:31.000Z</time>
      </trkpt>
      <trkpt lat="43.90682" lon="3.31289">
        <ele>843</ele>
        <time>2014-09-14T07:19:35.000Z</time>
      </trkpt>
      <trkpt lat="43.90682" lon="3.3128">
        <ele>842</ele>
        <time>2014-09-14T07:19:37.000Z</time>
      </trkpt>
      <trkpt lat="43.90679" lon="3.31267">
        <ele>842</ele>
        <time>2014-09-14T07:19:41.000Z</time>
      </trkpt>
      <trkpt lat="43.90679" lon="3.31267">
        <ele>842</ele>
        <time>2014-09-14T07:19:43.000Z</time>
      </trkpt>
      <trkpt lat="43.90678" lon="3.31256">
        <ele>840</ele>
        <time>2014-09-14T07:19:45.000Z</time>
      </trkpt>
      <trkpt lat="43.90678" lon="3.31256">
        <ele>840</ele>
        <time>2014-09-14T07:19:47.000Z</time>
      </trkpt>
      <trkpt lat="43.90678" lon="3.31244">
        <ele>843</ele>
        <time>2014-09-14T07:19:49.000Z</time>
      </trkpt>
      <trkpt lat="43.90677" lon="3.31234">
        <ele>842</ele>
        <time>2014-09-14T07:19:51.000Z</time>
      </trkpt>
      <trkpt lat="43.90675" lon="3.31225">
        <ele>842</ele>
        <time>2014-09-14T07:19:53.000Z</time>
      </trkpt>
      <trkpt lat="43.90673" lon="3.31215">
        <ele>837</ele>
        <time>2014-09-14T07:19:55.000Z</time>
      </trkpt>
      <trkpt lat="43.9067" lon="3.31207">
        <ele>837</ele>
        <time>2014-09-14T07:19:57.000Z</time>
      </trkpt>
      <trkpt lat="43.9067" lon="3.31199">
        <ele>839</ele>
        <time>2014-09-14T07:19:59.000Z</time>
      </trkpt>
      <trkpt lat="43.9067" lon="3.31199">
        <ele>839</ele>
        <time>2014-09-14T07:20:01.000Z</time>
      </trkpt>
      <trkpt lat="43.90671" lon="3.31186">
        <ele>837</ele>
        <time>2014-09-14T07:20:03.000Z</time>
      </trkpt>
      <trkpt lat="43.90671" lon="3.31186">
        <ele>837</ele>
        <time>2014-09-14T07:20:05.000Z</time>
      </trkpt>
      <trkpt lat="43.9067" lon="3.31172">
        <ele>834</ele>
        <time>2014-09-14T07:20:07.000Z</time>
      </trkpt>
      <trkpt lat="43.9067" lon="3.31172">
        <ele>834</ele>
        <time>2014-09-14T07:20:09.000Z</time>
      </trkpt>
      <trkpt lat="43.90673" lon="3.31163">
        <ele>835</ele>
        <time>2014-09-14T07:20:11.000Z</time>
      </trkpt>
      <trkpt lat="43.90673" lon="3.31163">
        <ele>835</ele>
        <time>2014-09-14T07:20:13.000Z</time>
      </trkpt>
      <trkpt lat="43.90681" lon="3.31158">
        <ele>834</ele>
        <time>2014-09-14T07:20:15.000Z</time>
      </trkpt>
      <trkpt lat="43.9068" lon="3.31144">
        <ele>835</ele>
        <time>2014-09-14T07:20:19.000Z</time>
      </trkpt>
      <trkpt lat="43.90685" lon="3.31133">
        <ele>835</ele>
        <time>2014-09-14T07:20:23.000Z</time>
      </trkpt>
      <trkpt lat="43.90699" lon="3.31132">
        <ele>831</ele>
        <time>2014-09-14T07:20:27.000Z</time>
      </trkpt>
      <trkpt lat="43.9072" lon="3.31126">
        <ele>833</ele>
        <time>2014-09-14T07:20:30.000Z</time>
      </trkpt>
      <trkpt lat="43.90733" lon="3.31124">
        <ele>832</ele>
        <time>2014-09-14T07:20:33.000Z</time>
      </trkpt>
      <trkpt lat="43.90742" lon="3.31127">
        <ele>832</ele>
        <time>2014-09-14T07:20:35.000Z</time>
      </trkpt>
      <trkpt lat="43.9075" lon="3.31127">
        <ele>831</ele>
        <time>2014-09-14T07:20:37.000Z</time>
      </trkpt>
      <trkpt lat="43.90759" lon="3.31125">
        <ele>831</ele>
        <time>2014-09-14T07:20:39.000Z</time>
      </trkpt>
      <trkpt lat="43.9077" lon="3.31121">
        <ele>835</ele>
        <time>2014-09-14T07:20:41.000Z</time>
      </trkpt>
      <trkpt lat="43.90775" lon="3.31116">
        <ele>834</ele>
        <time>2014-09-14T07:20:43.000Z</time>
      </trkpt>
      <trkpt lat="43.90775" lon="3.31116">
        <ele>834</ele>
        <time>2014-09-14T07:20:45.000Z</time>
      </trkpt>
      <trkpt lat="43.90781" lon="3.31109">
        <ele>834</ele>
        <time>2014-09-14T07:20:47.000Z</time>
      </trkpt>
      <trkpt lat="43.90781" lon="3.31109">
        <ele>834</ele>
        <time>2014-09-14T07:20:49.000Z</time>
      </trkpt>
      <trkpt lat="43.90782" lon="3.31101">
        <ele>830</ele>
        <time>2014-09-14T07:20:53.000Z</time>
      </trkpt>
      <trkpt lat="43.90791" lon="3.31102">
        <ele>829</ele>
        <time>2014-09-14T07:20:57.000Z</time>
      </trkpt>
      <trkpt lat="43.90798" lon="3.31105">
        <ele>828</ele>
        <time>2014-09-14T07:20:59.000Z</time>
      </trkpt>
      <trkpt lat="43.90807" lon="3.31109">
        <ele>828</ele>
        <time>2014-09-14T07:21:01.000Z</time>
      </trkpt>
      <trkpt lat="43.90818" lon="3.31113">
        <ele>827</ele>
        <time>2014-09-14T07:21:03.000Z</time>
      </trkpt>
      <trkpt lat="43.90829" lon="3.31116">
        <ele>829</ele>
        <time>2014-09-14T07:21:05.000Z</time>
      </trkpt>
      <trkpt lat="43.90839" lon="3.3112">
        <ele>831</ele>
        <time>2014-09-14T07:21:07.000Z</time>
      </trkpt>
      <trkpt lat="43.9085" lon="3.31121">
        <ele>830</ele>
        <time>2014-09-14T07:21:09.000Z</time>
      </trkpt>
      <trkpt lat="43.90862" lon="3.31122">
        <ele>828</ele>
        <time>2014-09-14T07:21:11.000Z</time>
      </trkpt>
      <trkpt lat="43.90874" lon="3.31124">
        <ele>831</ele>
        <time>2014-09-14T07:21:13.000Z</time>
      </trkpt>
      <trkpt lat="43.90885" lon="3.31126">
        <ele>830</ele>
        <time>2014-09-14T07:21:15.000Z</time>
      </trkpt>
      <trkpt lat="43.90895" lon="3.31126">
        <ele>828</ele>
        <time>2014-09-14T07:21:17.000Z</time>
      </trkpt>
      <trkpt lat="43.90905" lon="3.31125">
        <ele>830</ele>
        <time>2014-09-14T07:21:19.000Z</time>
      </trkpt>
      <trkpt lat="43.90915" lon="3.31126">
        <ele>829</ele>
        <time>2014-09-14T07:21:21.000Z</time>
      </trkpt>
      <trkpt lat="43.90923" lon="3.31126">
        <ele>830</ele>
        <time>2014-09-14T07:21:23.000Z</time>
      </trkpt>
      <trkpt lat="43.90928" lon="3.3112">
        <ele>829</ele>
        <time>2014-09-14T07:21:25.000Z</time>
      </trkpt>
      <trkpt lat="43.90928" lon="3.3112">
        <ele>829</ele>
        <time>2014-09-14T07:21:27.000Z</time>
      </trkpt>
      <trkpt lat="43.90928" lon="3.31111">
        <ele>832</ele>
        <time>2014-09-14T07:21:29.000Z</time>
      </trkpt>
      <trkpt lat="43.90928" lon="3.31111">
        <ele>832</ele>
        <time>2014-09-14T07:21:31.000Z</time>
      </trkpt>
      <trkpt lat="43.90927" lon="3.311">
        <ele>835</ele>
        <time>2014-09-14T07:21:33.000Z</time>
      </trkpt>
      <trkpt lat="43.90927" lon="3.311">
        <ele>835</ele>
        <time>2014-09-14T07:21:35.000Z</time>
      </trkpt>
      <trkpt lat="43.90929" lon="3.31084">
        <ele>835</ele>
        <time>2014-09-14T07:21:37.000Z</time>
      </trkpt>
      <trkpt lat="43.90929" lon="3.31075">
        <ele>835</ele>
        <time>2014-09-14T07:21:39.000Z</time>
      </trkpt>
      <trkpt lat="43.90929" lon="3.31065">
        <ele>836</ele>
        <time>2014-09-14T07:21:41.000Z</time>
      </trkpt>
      <trkpt lat="43.90929" lon="3.31054">
        <ele>838</ele>
        <time>2014-09-14T07:21:43.000Z</time>
      </trkpt>
      <trkpt lat="43.90929" lon="3.31045">
        <ele>839</ele>
        <time>2014-09-14T07:21:45.000Z</time>
      </trkpt>
      <trkpt lat="43.90929" lon="3.31045">
        <ele>839</ele>
        <time>2014-09-14T07:21:47.000Z</time>
      </trkpt>
      <trkpt lat="43.90924" lon="3.3103">
        <ele>842</ele>
        <time>2014-09-14T07:21:49.000Z</time>
      </trkpt>
      <trkpt lat="43.90924" lon="3.3103">
        <ele>842</ele>
        <time>2014-09-14T07:21:51.000Z</time>
      </trkpt>
      <trkpt lat="43.90918" lon="3.31018">
        <ele>843</ele>
        <time>2014-09-14T07:21:53.000Z</time>
      </trkpt>
      <trkpt lat="43.90918" lon="3.31018">
        <ele>843</ele>
        <time>2014-09-14T07:21:55.000Z</time>
      </trkpt>
      <trkpt lat="43.90914" lon="3.31005">
        <ele>844</ele>
        <time>2014-09-14T07:21:57.000Z</time>
      </trkpt>
      <trkpt lat="43.90914" lon="3.31005">
        <ele>844</ele>
        <time>2014-09-14T07:21:59.000Z</time>
      </trkpt>
      <trkpt lat="43.90909" lon="3.30994">
        <ele>843</ele>
        <time>2014-09-14T07:22:01.000Z</time>
      </trkpt>
      <trkpt lat="43.90909" lon="3.30994">
        <ele>843</ele>
        <time>2014-09-14T07:22:03.000Z</time>
      </trkpt>
      <trkpt lat="43.90906" lon="3.30982">
        <ele>844</ele>
        <time>2014-09-14T07:22:05.000Z</time>
      </trkpt>
      <trkpt lat="43.90903" lon="3.30966">
        <ele>844</ele>
        <time>2014-09-14T07:22:09.000Z</time>
      </trkpt>
      <trkpt lat="43.909" lon="3.30956">
        <ele>843</ele>
        <time>2014-09-14T07:22:11.000Z</time>
      </trkpt>
      <trkpt lat="43.90897" lon="3.30947">
        <ele>841</ele>
        <time>2014-09-14T07:22:13.000Z</time>
      </trkpt>
      <trkpt lat="43.90894" lon="3.30937">
        <ele>841</ele>
        <time>2014-09-14T07:22:15.000Z</time>
      </trkpt>
      <trkpt lat="43.90893" lon="3.30928">
        <ele>841</ele>
        <time>2014-09-14T07:22:17.000Z</time>
      </trkpt>
      <trkpt lat="43.90892" lon="3.30919">
        <ele>840</ele>
        <time>2014-09-14T07:22:19.000Z</time>
      </trkpt>
      <trkpt lat="43.9089" lon="3.3091">
        <ele>839</ele>
        <time>2014-09-14T07:22:21.000Z</time>
      </trkpt>
      <trkpt lat="43.90889" lon="3.30901">
        <ele>841</ele>
        <time>2014-09-14T07:22:23.000Z</time>
      </trkpt>
      <trkpt lat="43.90888" lon="3.30892">
        <ele>843</ele>
        <time>2014-09-14T07:22:25.000Z</time>
      </trkpt>
      <trkpt lat="43.90887" lon="3.30881">
        <ele>841</ele>
        <time>2014-09-14T07:22:27.000Z</time>
      </trkpt>
      <trkpt lat="43.90886" lon="3.30871">
        <ele>842</ele>
        <time>2014-09-14T07:22:29.000Z</time>
      </trkpt>
      <trkpt lat="43.90884" lon="3.30861">
        <ele>843</ele>
        <time>2014-09-14T07:22:31.000Z</time>
      </trkpt>
      <trkpt lat="43.90882" lon="3.30851">
        <ele>843</ele>
        <time>2014-09-14T07:22:33.000Z</time>
      </trkpt>
      <trkpt lat="43.9088" lon="3.3084">
        <ele>843</ele>
        <time>2014-09-14T07:22:35.000Z</time>
      </trkpt>
      <trkpt lat="43.90878" lon="3.3083">
        <ele>843</ele>
        <time>2014-09-14T07:22:37.000Z</time>
      </trkpt>
      <trkpt lat="43.90873" lon="3.3082">
        <ele>842</ele>
        <time>2014-09-14T07:22:39.000Z</time>
      </trkpt>
      <trkpt lat="43.90867" lon="3.30813">
        <ele>842</ele>
        <time>2014-09-14T07:22:41.000Z</time>
      </trkpt>
      <trkpt lat="43.90867" lon="3.30813">
        <ele>842</ele>
        <time>2014-09-14T07:22:43.000Z</time>
      </trkpt>
      <trkpt lat="43.9086" lon="3.30802">
        <ele>843</ele>
        <time>2014-09-14T07:22:45.000Z</time>
      </trkpt>
      <trkpt lat="43.9086" lon="3.30802">
        <ele>843</ele>
        <time>2014-09-14T07:22:47.000Z</time>
      </trkpt>
      <trkpt lat="43.90853" lon="3.30795">
        <ele>840</ele>
        <time>2014-09-14T07:22:49.000Z</time>
      </trkpt>
      <trkpt lat="43.90853" lon="3.30795">
        <ele>840</ele>
        <time>2014-09-14T07:22:51.000Z</time>
      </trkpt>
      <trkpt lat="43.90848" lon="3.30789">
        <ele>837</ele>
        <time>2014-09-14T07:22:53.000Z</time>
      </trkpt>
      <trkpt lat="43.90848" lon="3.30789">
        <ele>837</ele>
        <time>2014-09-14T07:22:55.000Z</time>
      </trkpt>
      <trkpt lat="43.90846" lon="3.30782">
        <ele>836</ele>
        <time>2014-09-14T07:22:57.000Z</time>
      </trkpt>
      <trkpt lat="43.90844" lon="3.30773">
        <ele>835</ele>
        <time>2014-09-14T07:22:59.000Z</time>
      </trkpt>
      <trkpt lat="43.90841" lon="3.30765">
        <ele>835</ele>
        <time>2014-09-14T07:23:01.000Z</time>
      </trkpt>
      <trkpt lat="43.90837" lon="3.30757">
        <ele>834</ele>
        <time>2014-09-14T07:23:03.000Z</time>
      </trkpt>
      <trkpt lat="43.90833" lon="3.30749">
        <ele>834</ele>
        <time>2014-09-14T07:23:05.000Z</time>
      </trkpt>
      <trkpt lat="43.90822" lon="3.30731">
        <ele>836</ele>
        <time>2014-09-14T07:23:07.000Z</time>
      </trkpt>
      <trkpt lat="43.90817" lon="3.30722">
        <ele>836</ele>
        <time>2014-09-14T07:23:09.000Z</time>
      </trkpt>
      <trkpt lat="43.90817" lon="3.30722">
        <ele>836</ele>
        <time>2014-09-14T07:23:11.000Z</time>
      </trkpt>
      <trkpt lat="43.90811" lon="3.30711">
        <ele>836</ele>
        <time>2014-09-14T07:23:13.000Z</time>
      </trkpt>
      <trkpt lat="43.90809" lon="3.307">
        <ele>836</ele>
        <time>2014-09-14T07:23:15.000Z</time>
      </trkpt>
      <trkpt lat="43.90807" lon="3.30689">
        <ele>832</ele>
        <time>2014-09-14T07:23:17.000Z</time>
      </trkpt>
      <trkpt lat="43.90802" lon="3.30679">
        <ele>831</ele>
        <time>2014-09-14T07:23:19.000Z</time>
      </trkpt>
      <trkpt lat="43.90798" lon="3.3067">
        <ele>832</ele>
        <time>2014-09-14T07:23:21.000Z</time>
      </trkpt>
      <trkpt lat="43.90798" lon="3.3067">
        <ele>832</ele>
        <time>2014-09-14T07:23:23.000Z</time>
      </trkpt>
      <trkpt lat="43.90796" lon="3.30659">
        <ele>829</ele>
        <time>2014-09-14T07:23:25.000Z</time>
      </trkpt>
      <trkpt lat="43.90796" lon="3.30659">
        <ele>829</ele>
        <time>2014-09-14T07:23:27.000Z</time>
      </trkpt>
      <trkpt lat="43.90792" lon="3.30643">
        <ele>829</ele>
        <time>2014-09-14T07:23:29.000Z</time>
      </trkpt>
      <trkpt lat="43.90791" lon="3.30635">
        <ele>829</ele>
        <time>2014-09-14T07:23:31.000Z</time>
      </trkpt>
      <trkpt lat="43.90791" lon="3.30626">
        <ele>829</ele>
        <time>2014-09-14T07:23:33.000Z</time>
      </trkpt>
      <trkpt lat="43.90792" lon="3.30618">
        <ele>830</ele>
        <time>2014-09-14T07:23:35.000Z</time>
      </trkpt>
      <trkpt lat="43.90792" lon="3.3061">
        <ele>831</ele>
        <time>2014-09-14T07:23:37.000Z</time>
      </trkpt>
      <trkpt lat="43.90792" lon="3.30598">
        <ele>828</ele>
        <time>2014-09-14T07:23:39.000Z</time>
      </trkpt>
      <trkpt lat="43.90793" lon="3.30587">
        <ele>826</ele>
        <time>2014-09-14T07:23:41.000Z</time>
      </trkpt>
      <trkpt lat="43.90794" lon="3.30575">
        <ele>827</ele>
        <time>2014-09-14T07:23:43.000Z</time>
      </trkpt>
      <trkpt lat="43.90792" lon="3.30563">
        <ele>831</ele>
        <time>2014-09-14T07:23:45.000Z</time>
      </trkpt>
      <trkpt lat="43.90788" lon="3.30554">
        <ele>835</ele>
        <time>2014-09-14T07:23:47.000Z</time>
      </trkpt>
      <trkpt lat="43.90785" lon="3.30547">
        <ele>833</ele>
        <time>2014-09-14T07:23:49.000Z</time>
      </trkpt>
      <trkpt lat="43.90781" lon="3.30539">
        <ele>833</ele>
        <time>2014-09-14T07:23:51.000Z</time>
      </trkpt>
      <trkpt lat="43.90779" lon="3.30531">
        <ele>832</ele>
        <time>2014-09-14T07:23:53.000Z</time>
      </trkpt>
      <trkpt lat="43.90778" lon="3.30522">
        <ele>832</ele>
        <time>2014-09-14T07:23:55.000Z</time>
      </trkpt>
      <trkpt lat="43.90779" lon="3.3051">
        <ele>832</ele>
        <time>2014-09-14T07:23:57.000Z</time>
      </trkpt>
      <trkpt lat="43.90778" lon="3.30495">
        <ele>830</ele>
        <time>2014-09-14T07:23:59.000Z</time>
      </trkpt>
      <trkpt lat="43.90776" lon="3.30481">
        <ele>830</ele>
        <time>2014-09-14T07:24:01.000Z</time>
      </trkpt>
      <trkpt lat="43.90764" lon="3.30457">
        <ele>826</ele>
        <time>2014-09-14T07:24:04.000Z</time>
      </trkpt>
      <trkpt lat="43.90759" lon="3.30445">
        <ele>825</ele>
        <time>2014-09-14T07:24:07.000Z</time>
      </trkpt>
      <trkpt lat="43.90758" lon="3.30437">
        <ele>826</ele>
        <time>2014-09-14T07:24:09.000Z</time>
      </trkpt>
      <trkpt lat="43.90746" lon="3.3042">
        <ele>827</ele>
        <time>2014-09-14T07:24:12.000Z</time>
      </trkpt>
      <trkpt lat="43.90741" lon="3.30411">
        <ele>827</ele>
        <time>2014-09-14T07:24:14.000Z</time>
      </trkpt>
      <trkpt lat="43.90734" lon="3.30402">
        <ele>827</ele>
        <time>2014-09-14T07:24:16.000Z</time>
      </trkpt>
      <trkpt lat="43.90726" lon="3.30396">
        <ele>826</ele>
        <time>2014-09-14T07:24:18.000Z</time>
      </trkpt>
      <trkpt lat="43.90724" lon="3.30388">
        <ele>826</ele>
        <time>2014-09-14T07:24:20.000Z</time>
      </trkpt>
      <trkpt lat="43.90724" lon="3.30388">
        <ele>826</ele>
        <time>2014-09-14T07:24:22.000Z</time>
      </trkpt>
      <trkpt lat="43.9071" lon="3.30377">
        <ele>820</ele>
        <time>2014-09-14T07:24:24.000Z</time>
      </trkpt>
      <trkpt lat="43.90702" lon="3.30374">
        <ele>821</ele>
        <time>2014-09-14T07:24:26.000Z</time>
      </trkpt>
      <trkpt lat="43.90694" lon="3.30372">
        <ele>823</ele>
        <time>2014-09-14T07:24:28.000Z</time>
      </trkpt>
      <trkpt lat="43.90686" lon="3.30373">
        <ele>823</ele>
        <time>2014-09-14T07:24:30.000Z</time>
      </trkpt>
      <trkpt lat="43.90679" lon="3.30374">
        <ele>821</ele>
        <time>2014-09-14T07:24:32.000Z</time>
      </trkpt>
      <trkpt lat="43.90674" lon="3.30371">
        <ele>820</ele>
        <time>2014-09-14T07:24:34.000Z</time>
      </trkpt>
      <trkpt lat="43.90669" lon="3.30365">
        <ele>822</ele>
        <time>2014-09-14T07:24:36.000Z</time>
      </trkpt>
      <trkpt lat="43.90669" lon="3.30365">
        <ele>822</ele>
        <time>2014-09-14T07:24:38.000Z</time>
      </trkpt>
      <trkpt lat="43.9066" lon="3.30354">
        <ele>823</ele>
        <time>2014-09-14T07:24:40.000Z</time>
      </trkpt>
      <trkpt lat="43.90656" lon="3.30346">
        <ele>822</ele>
        <time>2014-09-14T07:24:42.000Z</time>
      </trkpt>
      <trkpt lat="43.90654" lon="3.30338">
        <ele>821</ele>
        <time>2014-09-14T07:24:44.000Z</time>
      </trkpt>
      <trkpt lat="43.90654" lon="3.30338">
        <ele>821</ele>
        <time>2014-09-14T07:24:46.000Z</time>
      </trkpt>
      <trkpt lat="43.9065" lon="3.30324">
        <ele>827</ele>
        <time>2014-09-14T07:24:48.000Z</time>
      </trkpt>
      <trkpt lat="43.9065" lon="3.30324">
        <ele>827</ele>
        <time>2014-09-14T07:24:50.000Z</time>
      </trkpt>
      <trkpt lat="43.90646" lon="3.3031">
        <ele>829</ele>
        <time>2014-09-14T07:24:52.000Z</time>
      </trkpt>
      <trkpt lat="43.90646" lon="3.3031">
        <ele>829</ele>
        <time>2014-09-14T07:24:54.000Z</time>
      </trkpt>
      <trkpt lat="43.90637" lon="3.30295">
        <ele>825</ele>
        <time>2014-09-14T07:24:56.000Z</time>
      </trkpt>
      <trkpt lat="43.9063" lon="3.30288">
        <ele>824</ele>
        <time>2014-09-14T07:24:58.000Z</time>
      </trkpt>
      <trkpt lat="43.90626" lon="3.30282">
        <ele>826</ele>
        <time>2014-09-14T07:25:00.000Z</time>
      </trkpt>
      <trkpt lat="43.90625" lon="3.30275">
        <ele>824</ele>
        <time>2014-09-14T07:25:02.000Z</time>
      </trkpt>
      <trkpt lat="43.90622" lon="3.30267">
        <ele>824</ele>
        <time>2014-09-14T07:25:04.000Z</time>
      </trkpt>
      <trkpt lat="43.90621" lon="3.30258">
        <ele>825</ele>
        <time>2014-09-14T07:25:06.000Z</time>
      </trkpt>
      <trkpt lat="43.9062" lon="3.3025">
        <ele>826</ele>
        <time>2014-09-14T07:25:08.000Z</time>
      </trkpt>
      <trkpt lat="43.9062" lon="3.3025">
        <ele>826</ele>
        <time>2014-09-14T07:25:10.000Z</time>
      </trkpt>
      <trkpt lat="43.90619" lon="3.30238">
        <ele>825</ele>
        <time>2014-09-14T07:25:12.000Z</time>
      </trkpt>
      <trkpt lat="43.90619" lon="3.30238">
        <ele>825</ele>
        <time>2014-09-14T07:25:14.000Z</time>
      </trkpt>
      <trkpt lat="43.90615" lon="3.30228">
        <ele>825</ele>
        <time>2014-09-14T07:25:16.000Z</time>
      </trkpt>
      <trkpt lat="43.90615" lon="3.30228">
        <ele>825</ele>
        <time>2014-09-14T07:25:18.000Z</time>
      </trkpt>
      <trkpt lat="43.9061" lon="3.30218">
        <ele>826</ele>
        <time>2014-09-14T07:25:20.000Z</time>
      </trkpt>
      <trkpt lat="43.9061" lon="3.30218">
        <ele>826</ele>
        <time>2014-09-14T07:25:22.000Z</time>
      </trkpt>
      <trkpt lat="43.90607" lon="3.3021">
        <ele>828</ele>
        <time>2014-09-14T07:25:24.000Z</time>
      </trkpt>
      <trkpt lat="43.90607" lon="3.3021">
        <ele>828</ele>
        <time>2014-09-14T07:25:26.000Z</time>
      </trkpt>
      <trkpt lat="43.90605" lon="3.30201">
        <ele>828</ele>
        <time>2014-09-14T07:25:28.000Z</time>
      </trkpt>
      <trkpt lat="43.90603" lon="3.3019">
        <ele>829</ele>
        <time>2014-09-14T07:25:32.000Z</time>
      </trkpt>
      <trkpt lat="43.90599" lon="3.30179">
        <ele>831</ele>
        <time>2014-09-14T07:25:36.000Z</time>
      </trkpt>
      <trkpt lat="43.90594" lon="3.30169">
        <ele>830</ele>
        <time>2014-09-14T07:25:40.000Z</time>
      </trkpt>
      <trkpt lat="43.90594" lon="3.30169">
        <ele>830</ele>
        <time>2014-09-14T07:25:42.000Z</time>
      </trkpt>
      <trkpt lat="43.90591" lon="3.3016">
        <ele>828</ele>
        <time>2014-09-14T07:25:44.000Z</time>
      </trkpt>
      <trkpt lat="43.90591" lon="3.3016">
        <ele>828</ele>
        <time>2014-09-14T07:25:46.000Z</time>
      </trkpt>
      <trkpt lat="43.90589" lon="3.30151">
        <ele>828</ele>
        <time>2014-09-14T07:25:48.000Z</time>
      </trkpt>
      <trkpt lat="43.90589" lon="3.30151">
        <ele>828</ele>
        <time>2014-09-14T07:25:50.000Z</time>
      </trkpt>
      <trkpt lat="43.90587" lon="3.30142">
        <ele>828</ele>
        <time>2014-09-14T07:25:52.000Z</time>
      </trkpt>
      <trkpt lat="43.90586" lon="3.30132">
        <ele>827</ele>
        <time>2014-09-14T07:25:54.000Z</time>
      </trkpt>
      <trkpt lat="43.90583" lon="3.30122">
        <ele>826</ele>
        <time>2014-09-14T07:25:56.000Z</time>
      </trkpt>
      <trkpt lat="43.90578" lon="3.30114">
        <ele>828</ele>
        <time>2014-09-14T07:25:58.000Z</time>
      </trkpt>
      <trkpt lat="43.90574" lon="3.30106">
        <ele>828</ele>
        <time>2014-09-14T07:26:00.000Z</time>
      </trkpt>
      <trkpt lat="43.90574" lon="3.30106">
        <ele>828</ele>
        <time>2014-09-14T07:26:02.000Z</time>
      </trkpt>
      <trkpt lat="43.90571" lon="3.30095">
        <ele>830</ele>
        <time>2014-09-14T07:26:04.000Z</time>
      </trkpt>
      <trkpt lat="43.90571" lon="3.30095">
        <ele>830</ele>
        <time>2014-09-14T07:26:06.000Z</time>
      </trkpt>
      <trkpt lat="43.90565" lon="3.30087">
        <ele>834</ele>
        <time>2014-09-14T07:26:08.000Z</time>
      </trkpt>
      <trkpt lat="43.90565" lon="3.30087">
        <ele>834</ele>
        <time>2014-09-14T07:26:10.000Z</time>
      </trkpt>
      <trkpt lat="43.90557" lon="3.30084">
        <ele>833</ele>
        <time>2014-09-14T07:26:12.000Z</time>
      </trkpt>
      <trkpt lat="43.90557" lon="3.30084">
        <ele>833</ele>
        <time>2014-09-14T07:26:14.000Z</time>
      </trkpt>
      <trkpt lat="43.9055" lon="3.3008">
        <ele>832</ele>
        <time>2014-09-14T07:26:16.000Z</time>
      </trkpt>
      <trkpt lat="43.9055" lon="3.3008">
        <ele>832</ele>
        <time>2014-09-14T07:26:18.000Z</time>
      </trkpt>
      <trkpt lat="43.90542" lon="3.30071">
        <ele>831</ele>
        <time>2014-09-14T07:26:20.000Z</time>
      </trkpt>
      <trkpt lat="43.90535" lon="3.30066">
        <ele>833</ele>
        <time>2014-09-14T07:26:22.000Z</time>
      </trkpt>
      <trkpt lat="43.90529" lon="3.30061">
        <ele>832</ele>
        <time>2014-09-14T07:26:24.000Z</time>
      </trkpt>
      <trkpt lat="43.90529" lon="3.30061">
        <ele>832</ele>
        <time>2014-09-14T07:26:26.000Z</time>
      </trkpt>
      <trkpt lat="43.90521" lon="3.3005">
        <ele>834</ele>
        <time>2014-09-14T07:26:28.000Z</time>
      </trkpt>
      <trkpt lat="43.90521" lon="3.3005">
        <ele>834</ele>
        <time>2014-09-14T07:26:30.000Z</time>
      </trkpt>
      <trkpt lat="43.9051" lon="3.30043">
        <ele>831</ele>
        <time>2014-09-14T07:26:32.000Z</time>
      </trkpt>
      <trkpt lat="43.90502" lon="3.30035">
        <ele>830</ele>
        <time>2014-09-14T07:26:34.000Z</time>
      </trkpt>
      <trkpt lat="43.90493" lon="3.30027">
        <ele>830</ele>
        <time>2014-09-14T07:26:36.000Z</time>
      </trkpt>
      <trkpt lat="43.90486" lon="3.30019">
        <ele>831</ele>
        <time>2014-09-14T07:26:38.000Z</time>
      </trkpt>
      <trkpt lat="43.90479" lon="3.30012">
        <ele>832</ele>
        <time>2014-09-14T07:26:40.000Z</time>
      </trkpt>
      <trkpt lat="43.90474" lon="3.3">
        <ele>832</ele>
        <time>2014-09-14T07:26:42.000Z</time>
      </trkpt>
      <trkpt lat="43.90471" lon="3.29989">
        <ele>830</ele>
        <time>2014-09-14T07:26:44.000Z</time>
      </trkpt>
      <trkpt lat="43.90472" lon="3.29976">
        <ele>829</ele>
        <time>2014-09-14T07:26:46.000Z</time>
      </trkpt>
      <trkpt lat="43.90475" lon="3.29964">
        <ele>830</ele>
        <time>2014-09-14T07:26:48.000Z</time>
      </trkpt>
      <trkpt lat="43.90479" lon="3.29951">
        <ele>827</ele>
        <time>2014-09-14T07:26:50.000Z</time>
      </trkpt>
      <trkpt lat="43.90483" lon="3.2994">
        <ele>829</ele>
        <time>2014-09-14T07:26:52.000Z</time>
      </trkpt>
      <trkpt lat="43.90488" lon="3.29926">
        <ele>827</ele>
        <time>2014-09-14T07:26:54.000Z</time>
      </trkpt>
      <trkpt lat="43.90491" lon="3.29912">
        <ele>827</ele>
        <time>2014-09-14T07:26:56.000Z</time>
      </trkpt>
      <trkpt lat="43.90494" lon="3.29899">
        <ele>826</ele>
        <time>2014-09-14T07:26:58.000Z</time>
      </trkpt>
      <trkpt lat="43.90497" lon="3.29885">
        <ele>827</ele>
        <time>2014-09-14T07:27:00.000Z</time>
      </trkpt>
      <trkpt lat="43.90504" lon="3.29875">
        <ele>826</ele>
        <time>2014-09-14T07:27:02.000Z</time>
      </trkpt>
      <trkpt lat="43.90507" lon="3.29864">
        <ele>826</ele>
        <time>2014-09-14T07:27:04.000Z</time>
      </trkpt>
      <trkpt lat="43.9051" lon="3.29856">
        <ele>827</ele>
        <time>2014-09-14T07:27:06.000Z</time>
      </trkpt>
      <trkpt lat="43.90513" lon="3.29848">
        <ele>828</ele>
        <time>2014-09-14T07:27:08.000Z</time>
      </trkpt>
      <trkpt lat="43.90515" lon="3.29836">
        <ele>830</ele>
        <time>2014-09-14T07:27:10.000Z</time>
      </trkpt>
      <trkpt lat="43.90516" lon="3.29822">
        <ele>829</ele>
        <time>2014-09-14T07:27:12.000Z</time>
      </trkpt>
      <trkpt lat="43.90512" lon="3.29813">
        <ele>829</ele>
        <time>2014-09-14T07:27:14.000Z</time>
      </trkpt>
      <trkpt lat="43.90507" lon="3.29801">
        <ele>831</ele>
        <time>2014-09-14T07:27:16.000Z</time>
      </trkpt>
      <trkpt lat="43.90503" lon="3.29788">
        <ele>829</ele>
        <time>2014-09-14T07:27:18.000Z</time>
      </trkpt>
      <trkpt lat="43.90498" lon="3.29776">
        <ele>829</ele>
        <time>2014-09-14T07:27:20.000Z</time>
      </trkpt>
      <trkpt lat="43.90495" lon="3.29765">
        <ele>829</ele>
        <time>2014-09-14T07:27:22.000Z</time>
      </trkpt>
      <trkpt lat="43.90491" lon="3.29753">
        <ele>828</ele>
        <time>2014-09-14T07:27:24.000Z</time>
      </trkpt>
      <trkpt lat="43.90492" lon="3.29741">
        <ele>828</ele>
        <time>2014-09-14T07:27:26.000Z</time>
      </trkpt>
      <trkpt lat="43.9049" lon="3.2973">
        <ele>828</ele>
        <time>2014-09-14T07:27:28.000Z</time>
      </trkpt>
      <trkpt lat="43.9049" lon="3.29721">
        <ele>829</ele>
        <time>2014-09-14T07:27:30.000Z</time>
      </trkpt>
      <trkpt lat="43.90489" lon="3.29712">
        <ele>831</ele>
        <time>2014-09-14T07:27:32.000Z</time>
      </trkpt>
      <trkpt lat="43.90488" lon="3.29702">
        <ele>830</ele>
        <time>2014-09-14T07:27:34.000Z</time>
      </trkpt>
      <trkpt lat="43.90487" lon="3.29692">
        <ele>828</ele>
        <time>2014-09-14T07:27:36.000Z</time>
      </trkpt>
      <trkpt lat="43.90485" lon="3.29683">
        <ele>829</ele>
        <time>2014-09-14T07:27:38.000Z</time>
      </trkpt>
      <trkpt lat="43.90484" lon="3.29673">
        <ele>832</ele>
        <time>2014-09-14T07:27:40.000Z</time>
      </trkpt>
      <trkpt lat="43.90483" lon="3.29663">
        <ele>836</ele>
        <time>2014-09-14T07:27:42.000Z</time>
      </trkpt>
      <trkpt lat="43.90482" lon="3.29652">
        <ele>835</ele>
        <time>2014-09-14T07:27:44.000Z</time>
      </trkpt>
      <trkpt lat="43.90482" lon="3.29641">
        <ele>837</ele>
        <time>2014-09-14T07:27:46.000Z</time>
      </trkpt>
      <trkpt lat="43.90482" lon="3.29631">
        <ele>837</ele>
        <time>2014-09-14T07:27:48.000Z</time>
      </trkpt>
      <trkpt lat="43.9048" lon="3.2962">
        <ele>838</ele>
        <time>2014-09-14T07:27:50.000Z</time>
      </trkpt>
      <trkpt lat="43.90479" lon="3.29609">
        <ele>834</ele>
        <time>2014-09-14T07:27:52.000Z</time>
      </trkpt>
      <trkpt lat="43.90477" lon="3.29597">
        <ele>834</ele>
        <time>2014-09-14T07:27:54.000Z</time>
      </trkpt>
      <trkpt lat="43.90475" lon="3.29585">
        <ele>836</ele>
        <time>2014-09-14T07:27:56.000Z</time>
      </trkpt>
      <trkpt lat="43.90472" lon="3.29574">
        <ele>835</ele>
        <time>2014-09-14T07:27:58.000Z</time>
      </trkpt>
      <trkpt lat="43.90471" lon="3.29562">
        <ele>833</ele>
        <time>2014-09-14T07:28:00.000Z</time>
      </trkpt>
      <trkpt lat="43.90469" lon="3.2955">
        <ele>832</ele>
        <time>2014-09-14T07:28:02.000Z</time>
      </trkpt>
      <trkpt lat="43.90467" lon="3.29538">
        <ele>832</ele>
        <time>2014-09-14T07:28:04.000Z</time>
      </trkpt>
      <trkpt lat="43.90465" lon="3.29526">
        <ele>833</ele>
        <time>2014-09-14T07:28:06.000Z</time>
      </trkpt>
      <trkpt lat="43.90465" lon="3.29514">
        <ele>833</ele>
        <time>2014-09-14T07:28:08.000Z</time>
      </trkpt>
      <trkpt lat="43.90465" lon="3.29502">
        <ele>834</ele>
        <time>2014-09-14T07:28:10.000Z</time>
      </trkpt>
      <trkpt lat="43.90464" lon="3.29491">
        <ele>835</ele>
        <time>2014-09-14T07:28:12.000Z</time>
      </trkpt>
      <trkpt lat="43.90464" lon="3.29481">
        <ele>835</ele>
        <time>2014-09-14T07:28:14.000Z</time>
      </trkpt>
      <trkpt lat="43.90464" lon="3.2947">
        <ele>835</ele>
        <time>2014-09-14T07:28:16.000Z</time>
      </trkpt>
      <trkpt lat="43.90464" lon="3.2946">
        <ele>835</ele>
        <time>2014-09-14T07:28:18.000Z</time>
      </trkpt>
      <trkpt lat="43.90463" lon="3.29449">
        <ele>834</ele>
        <time>2014-09-14T07:28:20.000Z</time>
      </trkpt>
      <trkpt lat="43.90461" lon="3.29439">
        <ele>835</ele>
        <time>2014-09-14T07:28:22.000Z</time>
      </trkpt>
      <trkpt lat="43.9046" lon="3.29429">
        <ele>835</ele>
        <time>2014-09-14T07:28:24.000Z</time>
      </trkpt>
      <trkpt lat="43.90458" lon="3.29419">
        <ele>835</ele>
        <time>2014-09-14T07:28:26.000Z</time>
      </trkpt>
      <trkpt lat="43.90458" lon="3.29409">
        <ele>836</ele>
        <time>2014-09-14T07:28:28.000Z</time>
      </trkpt>
      <trkpt lat="43.90457" lon="3.29399">
        <ele>837</ele>
        <time>2014-09-14T07:28:30.000Z</time>
      </trkpt>
      <trkpt lat="43.90454" lon="3.2939">
        <ele>839</ele>
        <time>2014-09-14T07:28:32.000Z</time>
      </trkpt>
      <trkpt lat="43.9045" lon="3.2938">
        <ele>836</ele>
        <time>2014-09-14T07:28:34.000Z</time>
      </trkpt>
      <trkpt lat="43.90446" lon="3.2937">
        <ele>836</ele>
        <time>2014-09-14T07:28:36.000Z</time>
      </trkpt>
      <trkpt lat="43.9044" lon="3.29361">
        <ele>838</ele>
        <time>2014-09-14T07:28:38.000Z</time>
      </trkpt>
      <trkpt lat="43.90436" lon="3.29352">
        <ele>839</ele>
        <time>2014-09-14T07:28:40.000Z</time>
      </trkpt>
      <trkpt lat="43.90434" lon="3.29342">
        <ele>841</ele>
        <time>2014-09-14T07:28:42.000Z</time>
      </trkpt>
      <trkpt lat="43.90432" lon="3.29332">
        <ele>840</ele>
        <time>2014-09-14T07:28:44.000Z</time>
      </trkpt>
      <trkpt lat="43.90429" lon="3.29322">
        <ele>841</ele>
        <time>2014-09-14T07:28:46.000Z</time>
      </trkpt>
      <trkpt lat="43.90427" lon="3.29312">
        <ele>841</ele>
        <time>2014-09-14T07:28:48.000Z</time>
      </trkpt>
      <trkpt lat="43.90424" lon="3.29301">
        <ele>836</ele>
        <time>2014-09-14T07:28:50.000Z</time>
      </trkpt>
      <trkpt lat="43.90421" lon="3.2929">
        <ele>836</ele>
        <time>2014-09-14T07:28:52.000Z</time>
      </trkpt>
      <trkpt lat="43.90419" lon="3.2928">
        <ele>837</ele>
        <time>2014-09-14T07:28:54.000Z</time>
      </trkpt>
      <trkpt lat="43.90418" lon="3.2927">
        <ele>837</ele>
        <time>2014-09-14T07:28:56.000Z</time>
      </trkpt>
      <trkpt lat="43.90416" lon="3.29261">
        <ele>839</ele>
        <time>2014-09-14T07:28:58.000Z</time>
      </trkpt>
      <trkpt lat="43.90416" lon="3.29252">
        <ele>840</ele>
        <time>2014-09-14T07:29:00.000Z</time>
      </trkpt>
      <trkpt lat="43.90416" lon="3.29252">
        <ele>840</ele>
        <time>2014-09-14T07:29:02.000Z</time>
      </trkpt>
      <trkpt lat="43.90418" lon="3.29238">
        <ele>843</ele>
        <time>2014-09-14T07:29:04.000Z</time>
      </trkpt>
      <trkpt lat="43.90421" lon="3.2923">
        <ele>842</ele>
        <time>2014-09-14T07:29:06.000Z</time>
      </trkpt>
      <trkpt lat="43.90422" lon="3.29222">
        <ele>840</ele>
        <time>2014-09-14T07:29:08.000Z</time>
      </trkpt>
      <trkpt lat="43.90424" lon="3.29214">
        <ele>841</ele>
        <time>2014-09-14T07:29:10.000Z</time>
      </trkpt>
      <trkpt lat="43.90422" lon="3.29205">
        <ele>841</ele>
        <time>2014-09-14T07:29:12.000Z</time>
      </trkpt>
      <trkpt lat="43.90422" lon="3.29196">
        <ele>845</ele>
        <time>2014-09-14T07:29:14.000Z</time>
      </trkpt>
      <trkpt lat="43.90422" lon="3.29187">
        <ele>845</ele>
        <time>2014-09-14T07:29:16.000Z</time>
      </trkpt>
      <trkpt lat="43.90422" lon="3.29178">
        <ele>844</ele>
        <time>2014-09-14T07:29:18.000Z</time>
      </trkpt>
      <trkpt lat="43.90424" lon="3.29169">
        <ele>845</ele>
        <time>2014-09-14T07:29:20.000Z</time>
      </trkpt>
      <trkpt lat="43.90425" lon="3.29161">
        <ele>846</ele>
        <time>2014-09-14T07:29:22.000Z</time>
      </trkpt>
      <trkpt lat="43.90426" lon="3.29153">
        <ele>848</ele>
        <time>2014-09-14T07:29:24.000Z</time>
      </trkpt>
      <trkpt lat="43.90426" lon="3.29153">
        <ele>848</ele>
        <time>2014-09-14T07:29:26.000Z</time>
      </trkpt>
      <trkpt lat="43.90427" lon="3.29139">
        <ele>849</ele>
        <time>2014-09-14T07:29:28.000Z</time>
      </trkpt>
      <trkpt lat="43.90427" lon="3.29139">
        <ele>849</ele>
        <time>2014-09-14T07:29:30.000Z</time>
      </trkpt>
      <trkpt lat="43.90425" lon="3.29125">
        <ele>847</ele>
        <time>2014-09-14T07:29:32.000Z</time>
      </trkpt>
      <trkpt lat="43.90425" lon="3.29125">
        <ele>847</ele>
        <time>2014-09-14T07:29:34.000Z</time>
      </trkpt>
      <trkpt lat="43.90425" lon="3.29118">
        <ele>849</ele>
        <time>2014-09-14T07:29:36.000Z</time>
      </trkpt>
      <trkpt lat="43.90425" lon="3.29111">
        <ele>849</ele>
        <time>2014-09-14T07:29:38.000Z</time>
      </trkpt>
      <trkpt lat="43.90424" lon="3.29104">
        <ele>848</ele>
        <time>2014-09-14T07:29:40.000Z</time>
      </trkpt>
      <trkpt lat="43.90424" lon="3.29098">
        <ele>849</ele>
        <time>2014-09-14T07:29:42.000Z</time>
      </trkpt>
      <trkpt lat="43.90425" lon="3.29091">
        <ele>850</ele>
        <time>2014-09-14T07:29:44.000Z</time>
      </trkpt>
      <trkpt lat="43.90425" lon="3.29079">
        <ele>850</ele>
        <time>2014-09-14T07:29:46.000Z</time>
      </trkpt>
      <trkpt lat="43.90425" lon="3.29079">
        <ele>850</ele>
        <time>2014-09-14T07:29:48.000Z</time>
      </trkpt>
      <trkpt lat="43.90425" lon="3.29066">
        <ele>851</ele>
        <time>2014-09-14T07:29:50.000Z</time>
      </trkpt>
      <trkpt lat="43.90425" lon="3.29066">
        <ele>851</ele>
        <time>2014-09-14T07:29:52.000Z</time>
      </trkpt>
      <trkpt lat="43.90425" lon="3.29054">
        <ele>850</ele>
        <time>2014-09-14T07:29:54.000Z</time>
      </trkpt>
      <trkpt lat="43.90425" lon="3.29054">
        <ele>850</ele>
        <time>2014-09-14T07:29:56.000Z</time>
      </trkpt>
      <trkpt lat="43.90425" lon="3.29042">
        <ele>851</ele>
        <time>2014-09-14T07:29:58.000Z</time>
      </trkpt>
      <trkpt lat="43.90425" lon="3.29042">
        <ele>851</ele>
        <time>2014-09-14T07:30:00.000Z</time>
      </trkpt>
      <trkpt lat="43.90425" lon="3.29032">
        <ele>856</ele>
        <time>2014-09-14T07:30:02.000Z</time>
      </trkpt>
      <trkpt lat="43.90425" lon="3.29032">
        <ele>856</ele>
        <time>2014-09-14T07:30:04.000Z</time>
      </trkpt>
      <trkpt lat="43.90424" lon="3.2902">
        <ele>852</ele>
        <time>2014-09-14T07:30:06.000Z</time>
      </trkpt>
      <trkpt lat="43.90424" lon="3.2902">
        <ele>852</ele>
        <time>2014-09-14T07:30:08.000Z</time>
      </trkpt>
      <trkpt lat="43.90423" lon="3.29007">
        <ele>852</ele>
        <time>2014-09-14T07:30:10.000Z</time>
      </trkpt>
      <trkpt lat="43.90423" lon="3.28991">
        <ele>852</ele>
        <time>2014-09-14T07:30:14.000Z</time>
      </trkpt>
      <trkpt lat="43.90424" lon="3.28981">
        <ele>853</ele>
        <time>2014-09-14T07:30:16.000Z</time>
      </trkpt>
      <trkpt lat="43.90424" lon="3.28971">
        <ele>853</ele>
        <time>2014-09-14T07:30:18.000Z</time>
      </trkpt>
      <trkpt lat="43.90424" lon="3.28961">
        <ele>855</ele>
        <time>2014-09-14T07:30:20.000Z</time>
      </trkpt>
      <trkpt lat="43.90424" lon="3.28951">
        <ele>854</ele>
        <time>2014-09-14T07:30:22.000Z</time>
      </trkpt>
      <trkpt lat="43.90423" lon="3.28941">
        <ele>855</ele>
        <time>2014-09-14T07:30:24.000Z</time>
      </trkpt>
      <trkpt lat="43.90422" lon="3.2893">
        <ele>855</ele>
        <time>2014-09-14T07:30:26.000Z</time>
      </trkpt>
      <trkpt lat="43.90421" lon="3.28923">
        <ele>856</ele>
        <time>2014-09-14T07:30:28.000Z</time>
      </trkpt>
      <trkpt lat="43.90421" lon="3.28923">
        <ele>856</ele>
        <time>2014-09-14T07:30:30.000Z</time>
      </trkpt>
      <trkpt lat="43.90419" lon="3.2891">
        <ele>857</ele>
        <time>2014-09-14T07:30:32.000Z</time>
      </trkpt>
      <trkpt lat="43.90419" lon="3.2891">
        <ele>857</ele>
        <time>2014-09-14T07:30:34.000Z</time>
      </trkpt>
      <trkpt lat="43.90419" lon="3.28898">
        <ele>858</ele>
        <time>2014-09-14T07:30:36.000Z</time>
      </trkpt>
      <trkpt lat="43.90416" lon="3.28883">
        <ele>858</ele>
        <time>2014-09-14T07:30:40.000Z</time>
      </trkpt>
      <trkpt lat="43.90413" lon="3.28875">
        <ele>858</ele>
        <time>2014-09-14T07:30:42.000Z</time>
      </trkpt>
      <trkpt lat="43.90411" lon="3.28868">
        <ele>858</ele>
        <time>2014-09-14T07:30:44.000Z</time>
      </trkpt>
      <trkpt lat="43.9041" lon="3.28857">
        <ele>858</ele>
        <time>2014-09-14T07:30:46.000Z</time>
      </trkpt>
      <trkpt lat="43.90411" lon="3.28842">
        <ele>857</ele>
        <time>2014-09-14T07:30:48.000Z</time>
      </trkpt>
      <trkpt lat="43.90409" lon="3.28829">
        <ele>857</ele>
        <time>2014-09-14T07:30:50.000Z</time>
      </trkpt>
      <trkpt lat="43.90402" lon="3.28818">
        <ele>857</ele>
        <time>2014-09-14T07:30:52.000Z</time>
      </trkpt>
      <trkpt lat="43.90392" lon="3.28811">
        <ele>856</ele>
        <time>2014-09-14T07:30:54.000Z</time>
      </trkpt>
      <trkpt lat="43.90385" lon="3.28798">
        <ele>855</ele>
        <time>2014-09-14T07:30:56.000Z</time>
      </trkpt>
      <trkpt lat="43.90378" lon="3.28785">
        <ele>854</ele>
        <time>2014-09-14T07:30:58.000Z</time>
      </trkpt>
      <trkpt lat="43.90375" lon="3.28772">
        <ele>855</ele>
        <time>2014-09-14T07:31:00.000Z</time>
      </trkpt>
      <trkpt lat="43.9037" lon="3.2876">
        <ele>855</ele>
        <time>2014-09-14T07:31:02.000Z</time>
      </trkpt>
      <trkpt lat="43.90365" lon="3.2875">
        <ele>857</ele>
        <time>2014-09-14T07:31:04.000Z</time>
      </trkpt>
      <trkpt lat="43.90355" lon="3.28744">
        <ele>856</ele>
        <time>2014-09-14T07:31:06.000Z</time>
      </trkpt>
      <trkpt lat="43.90347" lon="3.28744">
        <ele>856</ele>
        <time>2014-09-14T07:31:08.000Z</time>
      </trkpt>
      <trkpt lat="43.90336" lon="3.28749">
        <ele>854</ele>
        <time>2014-09-14T07:31:10.000Z</time>
      </trkpt>
      <trkpt lat="43.90328" lon="3.28753">
        <ele>853</ele>
        <time>2014-09-14T07:31:12.000Z</time>
      </trkpt>
      <trkpt lat="43.90321" lon="3.28754">
        <ele>853</ele>
        <time>2014-09-14T07:31:14.000Z</time>
      </trkpt>
      <trkpt lat="43.9031" lon="3.28755">
        <ele>853</ele>
        <time>2014-09-14T07:31:16.000Z</time>
      </trkpt>
      <trkpt lat="43.90298" lon="3.28756">
        <ele>853</ele>
        <time>2014-09-14T07:31:18.000Z</time>
      </trkpt>
      <trkpt lat="43.9029" lon="3.28755">
        <ele>852</ele>
        <time>2014-09-14T07:31:20.000Z</time>
      </trkpt>
      <trkpt lat="43.90285" lon="3.28748">
        <ele>852</ele>
        <time>2014-09-14T07:31:22.000Z</time>
      </trkpt>
      <trkpt lat="43.90282" lon="3.28737">
        <ele>851</ele>
        <time>2014-09-14T07:31:24.000Z</time>
      </trkpt>
      <trkpt lat="43.90282" lon="3.28737">
        <ele>851</ele>
        <time>2014-09-14T07:31:26.000Z</time>
      </trkpt>
      <trkpt lat="43.90287" lon="3.28723">
        <ele>848</ele>
        <time>2014-09-14T07:31:28.000Z</time>
      </trkpt>
      <trkpt lat="43.90292" lon="3.28717">
        <ele>845</ele>
        <time>2014-09-14T07:31:30.000Z</time>
      </trkpt>
      <trkpt lat="43.90301" lon="3.28706">
        <ele>845</ele>
        <time>2014-09-14T07:31:32.000Z</time>
      </trkpt>
      <trkpt lat="43.9031" lon="3.28697">
        <ele>845</ele>
        <time>2014-09-14T07:31:34.000Z</time>
      </trkpt>
      <trkpt lat="43.90318" lon="3.28689">
        <ele>847</ele>
        <time>2014-09-14T07:31:36.000Z</time>
      </trkpt>
      <trkpt lat="43.90326" lon="3.28676">
        <ele>845</ele>
        <time>2014-09-14T07:31:38.000Z</time>
      </trkpt>
      <trkpt lat="43.9033" lon="3.28663">
        <ele>847</ele>
        <time>2014-09-14T07:31:40.000Z</time>
      </trkpt>
      <trkpt lat="43.9034" lon="3.2865">
        <ele>844</ele>
        <time>2014-09-14T07:31:42.000Z</time>
      </trkpt>
      <trkpt lat="43.90347" lon="3.28635">
        <ele>843</ele>
        <time>2014-09-14T07:31:44.000Z</time>
      </trkpt>
      <trkpt lat="43.90348" lon="3.2862">
        <ele>844</ele>
        <time>2014-09-14T07:31:46.000Z</time>
      </trkpt>
      <trkpt lat="43.90351" lon="3.28612">
        <ele>842</ele>
        <time>2014-09-14T07:31:48.000Z</time>
      </trkpt>
      <trkpt lat="43.90355" lon="3.28603">
        <ele>840</ele>
        <time>2014-09-14T07:31:50.000Z</time>
      </trkpt>
      <trkpt lat="43.90359" lon="3.28594">
        <ele>841</ele>
        <time>2014-09-14T07:31:52.000Z</time>
      </trkpt>
      <trkpt lat="43.90361" lon="3.28583">
        <ele>841</ele>
        <time>2014-09-14T07:31:54.000Z</time>
      </trkpt>
      <trkpt lat="43.90364" lon="3.28571">
        <ele>841</ele>
        <time>2014-09-14T07:31:56.000Z</time>
      </trkpt>
      <trkpt lat="43.90367" lon="3.28559">
        <ele>843</ele>
        <time>2014-09-14T07:31:58.000Z</time>
      </trkpt>
      <trkpt lat="43.9037" lon="3.28545">
        <ele>845</ele>
        <time>2014-09-14T07:32:00.000Z</time>
      </trkpt>
      <trkpt lat="43.90367" lon="3.28531">
        <ele>846</ele>
        <time>2014-09-14T07:32:02.000Z</time>
      </trkpt>
      <trkpt lat="43.90363" lon="3.28522">
        <ele>846</ele>
        <time>2014-09-14T07:32:04.000Z</time>
      </trkpt>
      <trkpt lat="43.90358" lon="3.28512">
        <ele>848</ele>
        <time>2014-09-14T07:32:06.000Z</time>
      </trkpt>
      <trkpt lat="43.90355" lon="3.285">
        <ele>849</ele>
        <time>2014-09-14T07:32:08.000Z</time>
      </trkpt>
      <trkpt lat="43.90352" lon="3.28487">
        <ele>849</ele>
        <time>2014-09-14T07:32:10.000Z</time>
      </trkpt>
      <trkpt lat="43.90347" lon="3.28474">
        <ele>848</ele>
        <time>2014-09-14T07:32:12.000Z</time>
      </trkpt>
      <trkpt lat="43.90339" lon="3.28463">
        <ele>847</ele>
        <time>2014-09-14T07:32:14.000Z</time>
      </trkpt>
      <trkpt lat="43.90332" lon="3.28451">
        <ele>845</ele>
        <time>2014-09-14T07:32:16.000Z</time>
      </trkpt>
      <trkpt lat="43.90329" lon="3.28436">
        <ele>845</ele>
        <time>2014-09-14T07:32:18.000Z</time>
      </trkpt>
      <trkpt lat="43.90326" lon="3.28418">
        <ele>843</ele>
        <time>2014-09-14T07:32:20.000Z</time>
      </trkpt>
      <trkpt lat="43.90321" lon="3.284">
        <ele>841</ele>
        <time>2014-09-14T07:32:22.000Z</time>
      </trkpt>
      <trkpt lat="43.90318" lon="3.28383">
        <ele>840</ele>
        <time>2014-09-14T07:32:24.000Z</time>
      </trkpt>
      <trkpt lat="43.90313" lon="3.28365">
        <ele>839</ele>
        <time>2014-09-14T07:32:26.000Z</time>
      </trkpt>
      <trkpt lat="43.9031" lon="3.28346">
        <ele>837</ele>
        <time>2014-09-14T07:32:28.000Z</time>
      </trkpt>
      <trkpt lat="43.90308" lon="3.2833">
        <ele>837</ele>
        <time>2014-09-14T07:32:30.000Z</time>
      </trkpt>
      <trkpt lat="43.90306" lon="3.28318">
        <ele>837</ele>
        <time>2014-09-14T07:32:32.000Z</time>
      </trkpt>
      <trkpt lat="43.90304" lon="3.2831">
        <ele>837</ele>
        <time>2014-09-14T07:32:34.000Z</time>
      </trkpt>
      <trkpt lat="43.90303" lon="3.28299">
        <ele>836</ele>
        <time>2014-09-14T07:32:36.000Z</time>
      </trkpt>
      <trkpt lat="43.90303" lon="3.28284">
        <ele>836</ele>
        <time>2014-09-14T07:32:38.000Z</time>
      </trkpt>
      <trkpt lat="43.903" lon="3.2827">
        <ele>834</ele>
        <time>2014-09-14T07:32:40.000Z</time>
      </trkpt>
      <trkpt lat="43.90297" lon="3.2826">
        <ele>835</ele>
        <time>2014-09-14T07:32:42.000Z</time>
      </trkpt>
      <trkpt lat="43.90297" lon="3.2826">
        <ele>835</ele>
        <time>2014-09-14T07:32:44.000Z</time>
      </trkpt>
      <trkpt lat="43.90292" lon="3.28248">
        <ele>834</ele>
        <time>2014-09-14T07:32:46.000Z</time>
      </trkpt>
      <trkpt lat="43.90291" lon="3.28238">
        <ele>833</ele>
        <time>2014-09-14T07:32:48.000Z</time>
      </trkpt>
      <trkpt lat="43.90291" lon="3.28238">
        <ele>833</ele>
        <time>2014-09-14T07:32:50.000Z</time>
      </trkpt>
      <trkpt lat="43.90295" lon="3.28229">
        <ele>831</ele>
        <time>2014-09-14T07:32:52.000Z</time>
      </trkpt>
      <trkpt lat="43.90295" lon="3.28229">
        <ele>831</ele>
        <time>2014-09-14T07:32:54.000Z</time>
      </trkpt>
      <trkpt lat="43.90299" lon="3.28212">
        <ele>827</ele>
        <time>2014-09-14T07:32:56.000Z</time>
      </trkpt>
      <trkpt lat="43.90303" lon="3.282">
        <ele>826</ele>
        <time>2014-09-14T07:32:58.000Z</time>
      </trkpt>
      <trkpt lat="43.90305" lon="3.28174">
        <ele>826</ele>
        <time>2014-09-14T07:33:01.000Z</time>
      </trkpt>
      <trkpt lat="43.90305" lon="3.2816">
        <ele>826</ele>
        <time>2014-09-14T07:33:03.000Z</time>
      </trkpt>
      <trkpt lat="43.90304" lon="3.28145">
        <ele>826</ele>
        <time>2014-09-14T07:33:05.000Z</time>
      </trkpt>
      <trkpt lat="43.90305" lon="3.28129">
        <ele>827</ele>
        <time>2014-09-14T07:33:07.000Z</time>
      </trkpt>
      <trkpt lat="43.90305" lon="3.28114">
        <ele>827</ele>
        <time>2014-09-14T07:33:09.000Z</time>
      </trkpt>
      <trkpt lat="43.90304" lon="3.28102">
        <ele>827</ele>
        <time>2014-09-14T07:33:11.000Z</time>
      </trkpt>
      <trkpt lat="43.90303" lon="3.2809">
        <ele>827</ele>
        <time>2014-09-14T07:33:13.000Z</time>
      </trkpt>
      <trkpt lat="43.90303" lon="3.2809">
        <ele>827</ele>
        <time>2014-09-14T07:33:15.000Z</time>
      </trkpt>
      <trkpt lat="43.90301" lon="3.28077">
        <ele>830</ele>
        <time>2014-09-14T07:33:17.000Z</time>
      </trkpt>
      <trkpt lat="43.90301" lon="3.28077">
        <ele>830</ele>
        <time>2014-09-14T07:33:19.000Z</time>
      </trkpt>
      <trkpt lat="43.90298" lon="3.28064">
        <ele>830</ele>
        <time>2014-09-14T07:33:21.000Z</time>
      </trkpt>
      <trkpt lat="43.90298" lon="3.28064">
        <ele>830</ele>
        <time>2014-09-14T07:33:23.000Z</time>
      </trkpt>
      <trkpt lat="43.90297" lon="3.28051">
        <ele>832</ele>
        <time>2014-09-14T07:33:25.000Z</time>
      </trkpt>
      <trkpt lat="43.90297" lon="3.28051">
        <ele>832</ele>
        <time>2014-09-14T07:33:27.000Z</time>
      </trkpt>
      <trkpt lat="43.9029" lon="3.2804">
        <ele>831</ele>
        <time>2014-09-14T07:33:29.000Z</time>
      </trkpt>
      <trkpt lat="43.9029" lon="3.2804">
        <ele>831</ele>
        <time>2014-09-14T07:33:31.000Z</time>
      </trkpt>
      <trkpt lat="43.90284" lon="3.28032">
        <ele>832</ele>
        <time>2014-09-14T07:33:33.000Z</time>
      </trkpt>
      <trkpt lat="43.90284" lon="3.28032">
        <ele>832</ele>
        <time>2014-09-14T07:33:35.000Z</time>
      </trkpt>
      <trkpt lat="43.90277" lon="3.28021">
        <ele>831</ele>
        <time>2014-09-14T07:33:37.000Z</time>
      </trkpt>
      <trkpt lat="43.90271" lon="3.28008">
        <ele>831</ele>
        <time>2014-09-14T07:33:41.000Z</time>
      </trkpt>
      <trkpt lat="43.90265" lon="3.27995">
        <ele>832</ele>
        <time>2014-09-14T07:33:45.000Z</time>
      </trkpt>
      <trkpt lat="43.90263" lon="3.27988">
        <ele>832</ele>
        <time>2014-09-14T07:33:47.000Z</time>
      </trkpt>
      <trkpt lat="43.90259" lon="3.27979">
        <ele>834</ele>
        <time>2014-09-14T07:33:49.000Z</time>
      </trkpt>
      <trkpt lat="43.90255" lon="3.2797">
        <ele>833</ele>
        <time>2014-09-14T07:33:51.000Z</time>
      </trkpt>
      <trkpt lat="43.9025" lon="3.27961">
        <ele>834</ele>
        <time>2014-09-14T07:33:53.000Z</time>
      </trkpt>
      <trkpt lat="43.90246" lon="3.27953">
        <ele>834</ele>
        <time>2014-09-14T07:33:55.000Z</time>
      </trkpt>
      <trkpt lat="43.90242" lon="3.27944">
        <ele>834</ele>
        <time>2014-09-14T07:33:57.000Z</time>
      </trkpt>
      <trkpt lat="43.90237" lon="3.27936">
        <ele>833</ele>
        <time>2014-09-14T07:33:59.000Z</time>
      </trkpt>
      <trkpt lat="43.9023" lon="3.2793">
        <ele>833</ele>
        <time>2014-09-14T07:34:01.000Z</time>
      </trkpt>
      <trkpt lat="43.90222" lon="3.27926">
        <ele>832</ele>
        <time>2014-09-14T07:34:03.000Z</time>
      </trkpt>
      <trkpt lat="43.90215" lon="3.27921">
        <ele>832</ele>
        <time>2014-09-14T07:34:05.000Z</time>
      </trkpt>
      <trkpt lat="43.90209" lon="3.27917">
        <ele>831</ele>
        <time>2014-09-14T07:34:07.000Z</time>
      </trkpt>
      <trkpt lat="43.90209" lon="3.27917">
        <ele>831</ele>
        <time>2014-09-14T07:34:09.000Z</time>
      </trkpt>
      <trkpt lat="43.90204" lon="3.27907">
        <ele>827</ele>
        <time>2014-09-14T07:34:11.000Z</time>
      </trkpt>
      <trkpt lat="43.90206" lon="3.27898">
        <ele>827</ele>
        <time>2014-09-14T07:34:13.000Z</time>
      </trkpt>
      <trkpt lat="43.90215" lon="3.27874">
        <ele>825</ele>
        <time>2014-09-14T07:34:16.000Z</time>
      </trkpt>
      <trkpt lat="43.90224" lon="3.27862">
        <ele>824</ele>
        <time>2014-09-14T07:34:18.000Z</time>
      </trkpt>
      <trkpt lat="43.90235" lon="3.27852">
        <ele>821</ele>
        <time>2014-09-14T07:34:20.000Z</time>
      </trkpt>
      <trkpt lat="43.90248" lon="3.27847">
        <ele>819</ele>
        <time>2014-09-14T07:34:22.000Z</time>
      </trkpt>
      <trkpt lat="43.9026" lon="3.27844">
        <ele>819</ele>
        <time>2014-09-14T07:34:24.000Z</time>
      </trkpt>
      <trkpt lat="43.90267" lon="3.27841">
        <ele>819</ele>
        <time>2014-09-14T07:34:26.000Z</time>
      </trkpt>
      <trkpt lat="43.9027" lon="3.27834">
        <ele>818</ele>
        <time>2014-09-14T07:34:28.000Z</time>
      </trkpt>
      <trkpt lat="43.9027" lon="3.27823">
        <ele>822</ele>
        <time>2014-09-14T07:34:30.000Z</time>
      </trkpt>
      <trkpt lat="43.90267" lon="3.27815">
        <ele>824</ele>
        <time>2014-09-14T07:34:32.000Z</time>
      </trkpt>
      <trkpt lat="43.90261" lon="3.27807">
        <ele>825</ele>
        <time>2014-09-14T07:34:34.000Z</time>
      </trkpt>
      <trkpt lat="43.90257" lon="3.27801">
        <ele>824</ele>
        <time>2014-09-14T07:34:36.000Z</time>
      </trkpt>
      <trkpt lat="43.90257" lon="3.27801">
        <ele>824</ele>
        <time>2014-09-14T07:34:38.000Z</time>
      </trkpt>
      <trkpt lat="43.90251" lon="3.27789">
        <ele>825</ele>
        <time>2014-09-14T07:34:40.000Z</time>
      </trkpt>
      <trkpt lat="43.90251" lon="3.27789">
        <ele>825</ele>
        <time>2014-09-14T07:34:42.000Z</time>
      </trkpt>
      <trkpt lat="43.90248" lon="3.27775">
        <ele>823</ele>
        <time>2014-09-14T07:34:44.000Z</time>
      </trkpt>
      <trkpt lat="43.9025" lon="3.27768">
        <ele>822</ele>
        <time>2014-09-14T07:34:46.000Z</time>
      </trkpt>
      <trkpt lat="43.90256" lon="3.27761">
        <ele>822</ele>
        <time>2014-09-14T07:34:48.000Z</time>
      </trkpt>
      <trkpt lat="43.90265" lon="3.27754">
        <ele>821</ele>
        <time>2014-09-14T07:34:50.000Z</time>
      </trkpt>
      <trkpt lat="43.90273" lon="3.27745">
        <ele>820</ele>
        <time>2014-09-14T07:34:52.000Z</time>
      </trkpt>
      <trkpt lat="43.90282" lon="3.27736">
        <ele>819</ele>
        <time>2014-09-14T07:34:54.000Z</time>
      </trkpt>
      <trkpt lat="43.9029" lon="3.27727">
        <ele>818</ele>
        <time>2014-09-14T07:34:56.000Z</time>
      </trkpt>
      <trkpt lat="43.90299" lon="3.27716">
        <ele>817</ele>
        <time>2014-09-14T07:34:58.000Z</time>
      </trkpt>
      <trkpt lat="43.90306" lon="3.27704">
        <ele>817</ele>
        <time>2014-09-14T07:35:00.000Z</time>
      </trkpt>
      <trkpt lat="43.9031" lon="3.27694">
        <ele>817</ele>
        <time>2014-09-14T07:35:02.000Z</time>
      </trkpt>
      <trkpt lat="43.90313" lon="3.27687">
        <ele>820</ele>
        <time>2014-09-14T07:35:04.000Z</time>
      </trkpt>
      <trkpt lat="43.9031" lon="3.27677">
        <ele>822</ele>
        <time>2014-09-14T07:35:06.000Z</time>
      </trkpt>
      <trkpt lat="43.90305" lon="3.27666">
        <ele>824</ele>
        <time>2014-09-14T07:35:08.000Z</time>
      </trkpt>
      <trkpt lat="43.90297" lon="3.27653">
        <ele>825</ele>
        <time>2014-09-14T07:35:10.000Z</time>
      </trkpt>
      <trkpt lat="43.90291" lon="3.2764">
        <ele>824</ele>
        <time>2014-09-14T07:35:12.000Z</time>
      </trkpt>
      <trkpt lat="43.90277" lon="3.27632">
        <ele>823</ele>
        <time>2014-09-14T07:35:14.000Z</time>
      </trkpt>
      <trkpt lat="43.90265" lon="3.27643">
        <ele>825</ele>
        <time>2014-09-14T07:35:16.000Z</time>
      </trkpt>
      <trkpt lat="43.90255" lon="3.27646">
        <ele>826</ele>
        <time>2014-09-14T07:35:18.000Z</time>
      </trkpt>
      <trkpt lat="43.90243" lon="3.27647">
        <ele>821</ele>
        <time>2014-09-14T07:35:20.000Z</time>
      </trkpt>
      <trkpt lat="43.90232" lon="3.2765">
        <ele>821</ele>
        <time>2014-09-14T07:35:23.000Z</time>
      </trkpt>
      <trkpt lat="43.90229" lon="3.27658">
        <ele>823</ele>
        <time>2014-09-14T07:35:25.000Z</time>
      </trkpt>
      <trkpt lat="43.90224" lon="3.27664">
        <ele>822</ele>
        <time>2014-09-14T07:35:27.000Z</time>
      </trkpt>
      <trkpt lat="43.9022" lon="3.27672">
        <ele>820</ele>
        <time>2014-09-14T07:35:29.000Z</time>
      </trkpt>
      <trkpt lat="43.90216" lon="3.27679">
        <ele>821</ele>
        <time>2014-09-14T07:35:31.000Z</time>
      </trkpt>
      <trkpt lat="43.90216" lon="3.27679">
        <ele>821</ele>
        <time>2014-09-14T07:35:33.000Z</time>
      </trkpt>
      <trkpt lat="43.90208" lon="3.27689">
        <ele>822</ele>
        <time>2014-09-14T07:35:35.000Z</time>
      </trkpt>
      <trkpt lat="43.90208" lon="3.27689">
        <ele>822</ele>
        <time>2014-09-14T07:35:37.000Z</time>
      </trkpt>
      <trkpt lat="43.90201" lon="3.27699">
        <ele>826</ele>
        <time>2014-09-14T07:35:39.000Z</time>
      </trkpt>
      <trkpt lat="43.90201" lon="3.27699">
        <ele>826</ele>
        <time>2014-09-14T07:35:41.000Z</time>
      </trkpt>
      <trkpt lat="43.90195" lon="3.27709">
        <ele>827</ele>
        <time>2014-09-14T07:35:43.000Z</time>
      </trkpt>
      <trkpt lat="43.90195" lon="3.27709">
        <ele>827</ele>
        <time>2014-09-14T07:35:45.000Z</time>
      </trkpt>
      <trkpt lat="43.90188" lon="3.27719">
        <ele>827</ele>
        <time>2014-09-14T07:35:47.000Z</time>
      </trkpt>
      <trkpt lat="43.90188" lon="3.27719">
        <ele>827</ele>
        <time>2014-09-14T07:35:49.000Z</time>
      </trkpt>
      <trkpt lat="43.90184" lon="3.27723">
        <ele>828</ele>
        <time>2014-09-14T07:35:51.000Z</time>
      </trkpt>
      <trkpt lat="43.9018" lon="3.27727">
        <ele>830</ele>
        <time>2014-09-14T07:35:53.000Z</time>
      </trkpt>
      <trkpt lat="43.90176" lon="3.27731">
        <ele>830</ele>
        <time>2014-09-14T07:35:55.000Z</time>
      </trkpt>
      <trkpt lat="43.90171" lon="3.27735">
        <ele>829</ele>
        <time>2014-09-14T07:35:57.000Z</time>
      </trkpt>
      <trkpt lat="43.90167" lon="3.2774">
        <ele>830</ele>
        <time>2014-09-14T07:35:59.000Z</time>
      </trkpt>
      <trkpt lat="43.90158" lon="3.27749">
        <ele>829</ele>
        <time>2014-09-14T07:36:01.000Z</time>
      </trkpt>
      <trkpt lat="43.90149" lon="3.27757">
        <ele>833</ele>
        <time>2014-09-14T07:36:05.000Z</time>
      </trkpt>
      <trkpt lat="43.90149" lon="3.27757">
        <ele>833</ele>
        <time>2014-09-14T07:36:07.000Z</time>
      </trkpt>
      <trkpt lat="43.90141" lon="3.27765">
        <ele>835</ele>
        <time>2014-09-14T07:36:09.000Z</time>
      </trkpt>
      <trkpt lat="43.90141" lon="3.27765">
        <ele>835</ele>
        <time>2014-09-14T07:36:11.000Z</time>
      </trkpt>
      <trkpt lat="43.90133" lon="3.27774">
        <ele>835</ele>
        <time>2014-09-14T07:36:13.000Z</time>
      </trkpt>
      <trkpt lat="43.90133" lon="3.27774">
        <ele>835</ele>
        <time>2014-09-14T07:36:15.000Z</time>
      </trkpt>
      <trkpt lat="43.90126" lon="3.27781">
        <ele>837</ele>
        <time>2014-09-14T07:36:17.000Z</time>
      </trkpt>
      <trkpt lat="43.90126" lon="3.27781">
        <ele>837</ele>
        <time>2014-09-14T07:36:19.000Z</time>
      </trkpt>
      <trkpt lat="43.90118" lon="3.27788">
        <ele>837</ele>
        <time>2014-09-14T07:36:21.000Z</time>
      </trkpt>
      <trkpt lat="43.90109" lon="3.27795">
        <ele>838</ele>
        <time>2014-09-14T07:36:25.000Z</time>
      </trkpt>
      <trkpt lat="43.901" lon="3.27802">
        <ele>837</ele>
        <time>2014-09-14T07:36:29.000Z</time>
      </trkpt>
      <trkpt lat="43.9009" lon="3.27805">
        <ele>838</ele>
        <time>2014-09-14T07:36:33.000Z</time>
      </trkpt>
      <trkpt lat="43.90084" lon="3.27795">
        <ele>843</ele>
        <time>2014-09-14T07:36:37.000Z</time>
      </trkpt>
      <trkpt lat="43.90084" lon="3.27795">
        <ele>843</ele>
        <time>2014-09-14T07:36:39.000Z</time>
      </trkpt>
      <trkpt lat="43.90078" lon="3.27786">
        <ele>840</ele>
        <time>2014-09-14T07:36:41.000Z</time>
      </trkpt>
      <trkpt lat="43.90078" lon="3.27786">
        <ele>840</ele>
        <time>2014-09-14T07:36:43.000Z</time>
      </trkpt>
      <trkpt lat="43.90071" lon="3.27776">
        <ele>838</ele>
        <time>2014-09-14T07:36:45.000Z</time>
      </trkpt>
      <trkpt lat="43.90071" lon="3.27776">
        <ele>838</ele>
        <time>2014-09-14T07:36:47.000Z</time>
      </trkpt>
      <trkpt lat="43.90065" lon="3.27766">
        <ele>841</ele>
        <time>2014-09-14T07:36:49.000Z</time>
      </trkpt>
      <trkpt lat="43.90065" lon="3.27766">
        <ele>841</ele>
        <time>2014-09-14T07:36:51.000Z</time>
      </trkpt>
      <trkpt lat="43.90058" lon="3.27757">
        <ele>841</ele>
        <time>2014-09-14T07:36:53.000Z</time>
      </trkpt>
      <trkpt lat="43.90058" lon="3.27757">
        <ele>841</ele>
        <time>2014-09-14T07:36:55.000Z</time>
      </trkpt>
      <trkpt lat="43.90052" lon="3.27747">
        <ele>843</ele>
        <time>2014-09-14T07:36:57.000Z</time>
      </trkpt>
      <trkpt lat="43.90052" lon="3.27747">
        <ele>843</ele>
        <time>2014-09-14T07:36:59.000Z</time>
      </trkpt>
      <trkpt lat="43.90046" lon="3.2774">
        <ele>844</ele>
        <time>2014-09-14T07:37:01.000Z</time>
      </trkpt>
      <trkpt lat="43.90046" lon="3.2774">
        <ele>844</ele>
        <time>2014-09-14T07:37:03.000Z</time>
      </trkpt>
      <trkpt lat="43.90039" lon="3.27732">
        <ele>845</ele>
        <time>2014-09-14T07:37:05.000Z</time>
      </trkpt>
      <trkpt lat="43.90039" lon="3.27732">
        <ele>845</ele>
        <time>2014-09-14T07:37:07.000Z</time>
      </trkpt>
      <trkpt lat="43.90031" lon="3.27724">
        <ele>845</ele>
        <time>2014-09-14T07:37:09.000Z</time>
      </trkpt>
      <trkpt lat="43.90031" lon="3.27724">
        <ele>845</ele>
        <time>2014-09-14T07:37:11.000Z</time>
      </trkpt>
      <trkpt lat="43.90025" lon="3.27717">
        <ele>846</ele>
        <time>2014-09-14T07:37:13.000Z</time>
      </trkpt>
      <trkpt lat="43.90025" lon="3.27717">
        <ele>846</ele>
        <time>2014-09-14T07:37:15.000Z</time>
      </trkpt>
      <trkpt lat="43.90018" lon="3.27709">
        <ele>847</ele>
        <time>2014-09-14T07:37:17.000Z</time>
      </trkpt>
      <trkpt lat="43.90018" lon="3.27709">
        <ele>847</ele>
        <time>2014-09-14T07:37:19.000Z</time>
      </trkpt>
      <trkpt lat="43.9001" lon="3.27702">
        <ele>847</ele>
        <time>2014-09-14T07:37:21.000Z</time>
      </trkpt>
      <trkpt lat="43.90002" lon="3.27695">
        <ele>848</ele>
        <time>2014-09-14T07:37:25.000Z</time>
      </trkpt>
      <trkpt lat="43.89996" lon="3.27687">
        <ele>852</ele>
        <time>2014-09-14T07:37:29.000Z</time>
      </trkpt>
      <trkpt lat="43.89992" lon="3.27678">
        <ele>858</ele>
        <time>2014-09-14T07:37:33.000Z</time>
      </trkpt>
      <trkpt lat="43.8999" lon="3.27669">
        <ele>862</ele>
        <time>2014-09-14T07:37:37.000Z</time>
      </trkpt>
      <trkpt lat="43.8999" lon="3.27669">
        <ele>862</ele>
        <time>2014-09-14T07:37:39.000Z</time>
      </trkpt>
      <trkpt lat="43.89988" lon="3.27659">
        <ele>860</ele>
        <time>2014-09-14T07:37:41.000Z</time>
      </trkpt>
      <trkpt lat="43.89982" lon="3.27647">
        <ele>856</ele>
        <time>2014-09-14T07:37:45.000Z</time>
      </trkpt>
      <trkpt lat="43.89978" lon="3.27641">
        <ele>858</ele>
        <time>2014-09-14T07:37:47.000Z</time>
      </trkpt>
      <trkpt lat="43.89973" lon="3.27634">
        <ele>859</ele>
        <time>2014-09-14T07:37:49.000Z</time>
      </trkpt>
      <trkpt lat="43.89968" lon="3.27626">
        <ele>859</ele>
        <time>2014-09-14T07:37:51.000Z</time>
      </trkpt>
      <trkpt lat="43.89965" lon="3.27617">
        <ele>857</ele>
        <time>2014-09-14T07:37:53.000Z</time>
      </trkpt>
      <trkpt lat="43.89961" lon="3.27607">
        <ele>854</ele>
        <time>2014-09-14T07:37:55.000Z</time>
      </trkpt>
      <trkpt lat="43.89937" lon="3.27575">
        <ele>848</ele>
        <time>2014-09-14T07:37:59.000Z</time>
      </trkpt>
      <trkpt lat="43.89934" lon="3.27556">
        <ele>849</ele>
        <time>2014-09-14T07:38:04.000Z</time>
      </trkpt>
      <trkpt lat="43.8993" lon="3.27547">
        <ele>847</ele>
        <time>2014-09-14T07:38:06.000Z</time>
      </trkpt>
      <trkpt lat="43.8993" lon="3.27547">
        <ele>847</ele>
        <time>2014-09-14T07:38:08.000Z</time>
      </trkpt>
      <trkpt lat="43.89925" lon="3.27539">
        <ele>846</ele>
        <time>2014-09-14T07:38:10.000Z</time>
      </trkpt>
      <trkpt lat="43.89925" lon="3.27539">
        <ele>846</ele>
        <time>2014-09-14T07:38:12.000Z</time>
      </trkpt>
      <trkpt lat="43.89917" lon="3.27526">
        <ele>842</ele>
        <time>2014-09-14T07:38:14.000Z</time>
      </trkpt>
      <trkpt lat="43.8991" lon="3.27512">
        <ele>837</ele>
        <time>2014-09-14T07:38:18.000Z</time>
      </trkpt>
      <trkpt lat="43.89904" lon="3.27497">
        <ele>836</ele>
        <time>2014-09-14T07:38:20.000Z</time>
      </trkpt>
      <trkpt lat="43.89891" lon="3.27468">
        <ele>837</ele>
        <time>2014-09-14T07:38:23.000Z</time>
      </trkpt>
      <trkpt lat="43.8988" lon="3.27447">
        <ele>830</ele>
        <time>2014-09-14T07:38:25.000Z</time>
      </trkpt>
      <trkpt lat="43.89876" lon="3.27425">
        <ele>828</ele>
        <time>2014-09-14T07:38:27.000Z</time>
      </trkpt>
      <trkpt lat="43.89876" lon="3.27402">
        <ele>826</ele>
        <time>2014-09-14T07:38:29.000Z</time>
      </trkpt>
      <trkpt lat="43.89873" lon="3.27379">
        <ele>825</ele>
        <time>2014-09-14T07:38:31.000Z</time>
      </trkpt>
      <trkpt lat="43.89872" lon="3.27349">
        <ele>823</ele>
        <time>2014-09-14T07:38:33.000Z</time>
      </trkpt>
      <trkpt lat="43.89867" lon="3.27324">
        <ele>822</ele>
        <time>2014-09-14T07:38:35.000Z</time>
      </trkpt>
      <trkpt lat="43.89865" lon="3.27301">
        <ele>821</ele>
        <time>2014-09-14T07:38:37.000Z</time>
      </trkpt>
      <trkpt lat="43.89862" lon="3.27279">
        <ele>820</ele>
        <time>2014-09-14T07:38:39.000Z</time>
      </trkpt>
      <trkpt lat="43.89856" lon="3.2726">
        <ele>818</ele>
        <time>2014-09-14T07:38:41.000Z</time>
      </trkpt>
      <trkpt lat="43.89843" lon="3.27244">
        <ele>816</ele>
        <time>2014-09-14T07:38:43.000Z</time>
      </trkpt>
      <trkpt lat="43.8983" lon="3.27234">
        <ele>816</ele>
        <time>2014-09-14T07:38:45.000Z</time>
      </trkpt>
      <trkpt lat="43.8982" lon="3.27222">
        <ele>814</ele>
        <time>2014-09-14T07:38:47.000Z</time>
      </trkpt>
      <trkpt lat="43.89816" lon="3.27206">
        <ele>817</ele>
        <time>2014-09-14T07:38:49.000Z</time>
      </trkpt>
      <trkpt lat="43.89801" lon="3.27175">
        <ele>815</ele>
        <time>2014-09-14T07:38:52.000Z</time>
      </trkpt>
      <trkpt lat="43.89798" lon="3.27154">
        <ele>815</ele>
        <time>2014-09-14T07:38:54.000Z</time>
      </trkpt>
      <trkpt lat="43.89789" lon="3.27135">
        <ele>817</ele>
        <time>2014-09-14T07:38:56.000Z</time>
      </trkpt>
      <trkpt lat="43.89787" lon="3.27118">
        <ele>817</ele>
        <time>2014-09-14T07:38:58.000Z</time>
      </trkpt>
      <trkpt lat="43.89777" lon="3.27099">
        <ele>815</ele>
        <time>2014-09-14T07:39:00.000Z</time>
      </trkpt>
      <trkpt lat="43.89774" lon="3.27081">
        <ele>815</ele>
        <time>2014-09-14T07:39:02.000Z</time>
      </trkpt>
      <trkpt lat="43.89769" lon="3.27064">
        <ele>815</ele>
        <time>2014-09-14T07:39:04.000Z</time>
      </trkpt>
      <trkpt lat="43.89767" lon="3.27049">
        <ele>815</ele>
        <time>2014-09-14T07:39:06.000Z</time>
      </trkpt>
      <trkpt lat="43.89766" lon="3.27039">
        <ele>818</ele>
        <time>2014-09-14T07:39:08.000Z</time>
      </trkpt>
      <trkpt lat="43.89768" lon="3.27031">
        <ele>818</ele>
        <time>2014-09-14T07:39:10.000Z</time>
      </trkpt>
      <trkpt lat="43.89765" lon="3.27021">
        <ele>817</ele>
        <time>2014-09-14T07:39:12.000Z</time>
      </trkpt>
      <trkpt lat="43.89765" lon="3.27021">
        <ele>817</ele>
        <time>2014-09-14T07:39:15.000Z</time>
      </trkpt>
      <trkpt lat="43.89766" lon="3.27017">
        <ele>821</ele>
        <time>2014-09-14T07:39:17.000Z</time>
      </trkpt>
      <trkpt lat="43.89766" lon="3.27017">
        <ele>821</ele>
        <time>2014-09-14T07:39:19.000Z</time>
      </trkpt>
      <trkpt lat="43.89769" lon="3.27013">
        <ele>820</ele>
        <time>2014-09-14T07:39:21.000Z</time>
      </trkpt>
      <trkpt lat="43.89771" lon="3.27009">
        <ele>822</ele>
        <time>2014-09-14T07:39:23.000Z</time>
      </trkpt>
      <trkpt lat="43.89773" lon="3.27006">
        <ele>822</ele>
        <time>2014-09-14T07:39:25.000Z</time>
      </trkpt>
      <trkpt lat="43.89775" lon="3.27001">
        <ele>823</ele>
        <time>2014-09-14T07:39:27.000Z</time>
      </trkpt>
      <trkpt lat="43.89777" lon="3.26995">
        <ele>824</ele>
        <time>2014-09-14T07:39:29.000Z</time>
      </trkpt>
      <trkpt lat="43.89781" lon="3.26984">
        <ele>822</ele>
        <time>2014-09-14T07:39:31.000Z</time>
      </trkpt>
      <trkpt lat="43.89783" lon="3.26973">
        <ele>819</ele>
        <time>2014-09-14T07:39:35.000Z</time>
      </trkpt>
      <trkpt lat="43.89783" lon="3.26973">
        <ele>819</ele>
        <time>2014-09-14T07:39:37.000Z</time>
      </trkpt>
      <trkpt lat="43.89785" lon="3.26961">
        <ele>824</ele>
        <time>2014-09-14T07:39:39.000Z</time>
      </trkpt>
      <trkpt lat="43.8979" lon="3.26949">
        <ele>825</ele>
        <time>2014-09-14T07:39:43.000Z</time>
      </trkpt>
      <trkpt lat="43.8979" lon="3.26949">
        <ele>825</ele>
        <time>2014-09-14T07:39:45.000Z</time>
      </trkpt>
      <trkpt lat="43.8979" lon="3.26938">
        <ele>824</ele>
        <time>2014-09-14T07:39:47.000Z</time>
      </trkpt>
      <trkpt lat="43.8979" lon="3.26938">
        <ele>824</ele>
        <time>2014-09-14T07:39:49.000Z</time>
      </trkpt>
      <trkpt lat="43.89788" lon="3.26928">
        <ele>826</ele>
        <time>2014-09-14T07:39:51.000Z</time>
      </trkpt>
      <trkpt lat="43.89788" lon="3.26928">
        <ele>826</ele>
        <time>2014-09-14T07:39:53.000Z</time>
      </trkpt>
      <trkpt lat="43.89788" lon="3.26928">
        <ele>826</ele>
        <time>2014-09-14T07:39:55.000Z</time>
      </trkpt>
      <trkpt lat="43.89786" lon="3.26918">
        <ele>830</ele>
        <time>2014-09-14T07:39:59.000Z</time>
      </trkpt>
      <trkpt lat="43.89786" lon="3.26918">
        <ele>830</ele>
        <time>2014-09-14T07:40:01.000Z</time>
      </trkpt>
      <trkpt lat="43.89786" lon="3.26918">
        <ele>830</ele>
        <time>2014-09-14T07:40:03.000Z</time>
      </trkpt>
      <trkpt lat="43.89774" lon="3.269">
        <ele>830</ele>
        <time>2014-09-14T07:40:11.000Z</time>
      </trkpt>
      <trkpt lat="43.89765" lon="3.26891">
        <ele>830</ele>
        <time>2014-09-14T07:40:15.000Z</time>
      </trkpt>
      <trkpt lat="43.89761" lon="3.26886">
        <ele>830</ele>
        <time>2014-09-14T07:40:17.000Z</time>
      </trkpt>
      <trkpt lat="43.89755" lon="3.2688">
        <ele>830</ele>
        <time>2014-09-14T07:40:19.000Z</time>
      </trkpt>
      <trkpt lat="43.89751" lon="3.26873">
        <ele>831</ele>
        <time>2014-09-14T07:40:21.000Z</time>
      </trkpt>
      <trkpt lat="43.89749" lon="3.26862">
        <ele>833</ele>
        <time>2014-09-14T07:40:25.000Z</time>
      </trkpt>
      <trkpt lat="43.89749" lon="3.26862">
        <ele>833</ele>
        <time>2014-09-14T07:40:27.000Z</time>
      </trkpt>
      <trkpt lat="43.89745" lon="3.26852">
        <ele>833</ele>
        <time>2014-09-14T07:40:29.000Z</time>
      </trkpt>
      <trkpt lat="43.89745" lon="3.26852">
        <ele>833</ele>
        <time>2014-09-14T07:40:31.000Z</time>
      </trkpt>
      <trkpt lat="43.89745" lon="3.26842">
        <ele>834</ele>
        <time>2014-09-14T07:40:33.000Z</time>
      </trkpt>
      <trkpt lat="43.89745" lon="3.26842">
        <ele>834</ele>
        <time>2014-09-14T07:40:35.000Z</time>
      </trkpt>
      <trkpt lat="43.89745" lon="3.26832">
        <ele>835</ele>
        <time>2014-09-14T07:40:37.000Z</time>
      </trkpt>
      <trkpt lat="43.89745" lon="3.26832">
        <ele>835</ele>
        <time>2014-09-14T07:40:39.000Z</time>
      </trkpt>
      <trkpt lat="43.89745" lon="3.26821">
        <ele>833</ele>
        <time>2014-09-14T07:40:41.000Z</time>
      </trkpt>
      <trkpt lat="43.89745" lon="3.26821">
        <ele>833</ele>
        <time>2014-09-14T07:40:43.000Z</time>
      </trkpt>
      <trkpt lat="43.89743" lon="3.2681">
        <ele>833</ele>
        <time>2014-09-14T07:40:45.000Z</time>
      </trkpt>
      <trkpt lat="43.89743" lon="3.2681">
        <ele>833</ele>
        <time>2014-09-14T07:40:47.000Z</time>
      </trkpt>
      <trkpt lat="43.89744" lon="3.26798">
        <ele>836</ele>
        <time>2014-09-14T07:40:49.000Z</time>
      </trkpt>
      <trkpt lat="43.89744" lon="3.26798">
        <ele>836</ele>
        <time>2014-09-14T07:40:51.000Z</time>
      </trkpt>
      <trkpt lat="43.89744" lon="3.26788">
        <ele>835</ele>
        <time>2014-09-14T07:40:53.000Z</time>
      </trkpt>
      <trkpt lat="43.89744" lon="3.26788">
        <ele>835</ele>
        <time>2014-09-14T07:40:55.000Z</time>
      </trkpt>
      <trkpt lat="43.89744" lon="3.26778">
        <ele>836</ele>
        <time>2014-09-14T07:40:57.000Z</time>
      </trkpt>
      <trkpt lat="43.89744" lon="3.26778">
        <ele>836</ele>
        <time>2014-09-14T07:40:59.000Z</time>
      </trkpt>
      <trkpt lat="43.89744" lon="3.26767">
        <ele>840</ele>
        <time>2014-09-14T07:41:01.000Z</time>
      </trkpt>
      <trkpt lat="43.89744" lon="3.26767">
        <ele>840</ele>
        <time>2014-09-14T07:41:03.000Z</time>
      </trkpt>
      <trkpt lat="43.89743" lon="3.26757">
        <ele>841</ele>
        <time>2014-09-14T07:41:05.000Z</time>
      </trkpt>
      <trkpt lat="43.89743" lon="3.26757">
        <ele>841</ele>
        <time>2014-09-14T07:41:07.000Z</time>
      </trkpt>
      <trkpt lat="43.89742" lon="3.26747">
        <ele>840</ele>
        <time>2014-09-14T07:41:09.000Z</time>
      </trkpt>
      <trkpt lat="43.89743" lon="3.26738">
        <ele>843</ele>
        <time>2014-09-14T07:41:13.000Z</time>
      </trkpt>
      <trkpt lat="43.89742" lon="3.26726">
        <ele>844</ele>
        <time>2014-09-14T07:41:17.000Z</time>
      </trkpt>
      <trkpt lat="43.8974" lon="3.26713">
        <ele>847</ele>
        <time>2014-09-14T07:41:21.000Z</time>
      </trkpt>
      <trkpt lat="43.8974" lon="3.26707">
        <ele>852</ele>
        <time>2014-09-14T07:41:25.000Z</time>
      </trkpt>
      <trkpt lat="43.8974" lon="3.267">
        <ele>852</ele>
        <time>2014-09-14T07:41:27.000Z</time>
      </trkpt>
      <trkpt lat="43.8974" lon="3.26694">
        <ele>853</ele>
        <time>2014-09-14T07:41:29.000Z</time>
      </trkpt>
      <trkpt lat="43.8974" lon="3.26687">
        <ele>854</ele>
        <time>2014-09-14T07:41:31.000Z</time>
      </trkpt>
      <trkpt lat="43.89739" lon="3.2668">
        <ele>853</ele>
        <time>2014-09-14T07:41:33.000Z</time>
      </trkpt>
      <trkpt lat="43.89735" lon="3.26663">
        <ele>852</ele>
        <time>2014-09-14T07:41:35.000Z</time>
      </trkpt>
      <trkpt lat="43.89733" lon="3.26654">
        <ele>850</ele>
        <time>2014-09-14T07:41:37.000Z</time>
      </trkpt>
      <trkpt lat="43.8973" lon="3.26645">
        <ele>848</ele>
        <time>2014-09-14T07:41:39.000Z</time>
      </trkpt>
      <trkpt lat="43.89727" lon="3.26637">
        <ele>849</ele>
        <time>2014-09-14T07:41:41.000Z</time>
      </trkpt>
      <trkpt lat="43.89725" lon="3.26629">
        <ele>850</ele>
        <time>2014-09-14T07:41:43.000Z</time>
      </trkpt>
      <trkpt lat="43.89722" lon="3.2662">
        <ele>851</ele>
        <time>2014-09-14T07:41:45.000Z</time>
      </trkpt>
      <trkpt lat="43.89718" lon="3.26613">
        <ele>850</ele>
        <time>2014-09-14T07:41:47.000Z</time>
      </trkpt>
      <trkpt lat="43.89718" lon="3.26613">
        <ele>850</ele>
        <time>2014-09-14T07:41:49.000Z</time>
      </trkpt>
      <trkpt lat="43.89716" lon="3.26601">
        <ele>853</ele>
        <time>2014-09-14T07:41:51.000Z</time>
      </trkpt>
      <trkpt lat="43.89716" lon="3.26601">
        <ele>853</ele>
        <time>2014-09-14T07:41:53.000Z</time>
      </trkpt>
      <trkpt lat="43.89713" lon="3.26587">
        <ele>852</ele>
        <time>2014-09-14T07:41:55.000Z</time>
      </trkpt>
      <trkpt lat="43.8971" lon="3.26577">
        <ele>853</ele>
        <time>2014-09-14T07:41:57.000Z</time>
      </trkpt>
      <trkpt lat="43.89708" lon="3.26565">
        <ele>853</ele>
        <time>2014-09-14T07:41:59.000Z</time>
      </trkpt>
      <trkpt lat="43.89705" lon="3.26552">
        <ele>854</ele>
        <time>2014-09-14T07:42:01.000Z</time>
      </trkpt>
      <trkpt lat="43.89702" lon="3.26541">
        <ele>854</ele>
        <time>2014-09-14T07:42:03.000Z</time>
      </trkpt>
      <trkpt lat="43.89701" lon="3.26529">
        <ele>857</ele>
        <time>2014-09-14T07:42:05.000Z</time>
      </trkpt>
      <trkpt lat="43.89696" lon="3.26514">
        <ele>856</ele>
        <time>2014-09-14T07:42:07.000Z</time>
      </trkpt>
      <trkpt lat="43.89693" lon="3.26502">
        <ele>857</ele>
        <time>2014-09-14T07:42:09.000Z</time>
      </trkpt>
      <trkpt lat="43.89693" lon="3.26489">
        <ele>857</ele>
        <time>2014-09-14T07:42:11.000Z</time>
      </trkpt>
      <trkpt lat="43.8969" lon="3.26479">
        <ele>857</ele>
        <time>2014-09-14T07:42:13.000Z</time>
      </trkpt>
      <trkpt lat="43.89688" lon="3.26469">
        <ele>859</ele>
        <time>2014-09-14T07:42:15.000Z</time>
      </trkpt>
      <trkpt lat="43.89683" lon="3.26459">
        <ele>856</ele>
        <time>2014-09-14T07:42:17.000Z</time>
      </trkpt>
      <trkpt lat="43.89679" lon="3.26452">
        <ele>856</ele>
        <time>2014-09-14T07:42:19.000Z</time>
      </trkpt>
      <trkpt lat="43.89679" lon="3.26452">
        <ele>856</ele>
        <time>2014-09-14T07:42:21.000Z</time>
      </trkpt>
      <trkpt lat="43.89676" lon="3.26436">
        <ele>855</ele>
        <time>2014-09-14T07:42:23.000Z</time>
      </trkpt>
      <trkpt lat="43.89674" lon="3.26426">
        <ele>857</ele>
        <time>2014-09-14T07:42:25.000Z</time>
      </trkpt>
      <trkpt lat="43.89672" lon="3.26414">
        <ele>856</ele>
        <time>2014-09-14T07:42:27.000Z</time>
      </trkpt>
      <trkpt lat="43.8967" lon="3.264">
        <ele>856</ele>
        <time>2014-09-14T07:42:29.000Z</time>
      </trkpt>
      <trkpt lat="43.89668" lon="3.26387">
        <ele>857</ele>
        <time>2014-09-14T07:42:31.000Z</time>
      </trkpt>
      <trkpt lat="43.89665" lon="3.26372">
        <ele>856</ele>
        <time>2014-09-14T07:42:33.000Z</time>
      </trkpt>
      <trkpt lat="43.89663" lon="3.26358">
        <ele>856</ele>
        <time>2014-09-14T07:42:35.000Z</time>
      </trkpt>
      <trkpt lat="43.8966" lon="3.26344">
        <ele>858</ele>
        <time>2014-09-14T07:42:37.000Z</time>
      </trkpt>
      <trkpt lat="43.89658" lon="3.2633">
        <ele>859</ele>
        <time>2014-09-14T07:42:39.000Z</time>
      </trkpt>
      <trkpt lat="43.89656" lon="3.26317">
        <ele>860</ele>
        <time>2014-09-14T07:42:41.000Z</time>
      </trkpt>
      <trkpt lat="43.89654" lon="3.26303">
        <ele>860</ele>
        <time>2014-09-14T07:42:43.000Z</time>
      </trkpt>
      <trkpt lat="43.89653" lon="3.2629">
        <ele>861</ele>
        <time>2014-09-14T07:42:45.000Z</time>
      </trkpt>
      <trkpt lat="43.89643" lon="3.26277">
        <ele>855</ele>
        <time>2014-09-14T07:42:47.000Z</time>
      </trkpt>
      <trkpt lat="43.89639" lon="3.26261">
        <ele>855</ele>
        <time>2014-09-14T07:42:50.000Z</time>
      </trkpt>
      <trkpt lat="43.89637" lon="3.2625">
        <ele>856</ele>
        <time>2014-09-14T07:42:52.000Z</time>
      </trkpt>
      <trkpt lat="43.89636" lon="3.2624">
        <ele>856</ele>
        <time>2014-09-14T07:42:54.000Z</time>
      </trkpt>
      <trkpt lat="43.89634" lon="3.26231">
        <ele>856</ele>
        <time>2014-09-14T07:42:56.000Z</time>
      </trkpt>
      <trkpt lat="43.89633" lon="3.26223">
        <ele>855</ele>
        <time>2014-09-14T07:42:58.000Z</time>
      </trkpt>
      <trkpt lat="43.89632" lon="3.26215">
        <ele>855</ele>
        <time>2014-09-14T07:43:00.000Z</time>
      </trkpt>
      <trkpt lat="43.89631" lon="3.26207">
        <ele>855</ele>
        <time>2014-09-14T07:43:02.000Z</time>
      </trkpt>
      <trkpt lat="43.8963" lon="3.26198">
        <ele>857</ele>
        <time>2014-09-14T07:43:04.000Z</time>
      </trkpt>
      <trkpt lat="43.89629" lon="3.26188">
        <ele>857</ele>
        <time>2014-09-14T07:43:06.000Z</time>
      </trkpt>
      <trkpt lat="43.89626" lon="3.26177">
        <ele>859</ele>
        <time>2014-09-14T07:43:08.000Z</time>
      </trkpt>
      <trkpt lat="43.89623" lon="3.26167">
        <ele>859</ele>
        <time>2014-09-14T07:43:10.000Z</time>
      </trkpt>
      <trkpt lat="43.8962" lon="3.26157">
        <ele>857</ele>
        <time>2014-09-14T07:43:12.000Z</time>
      </trkpt>
      <trkpt lat="43.89617" lon="3.26147">
        <ele>854</ele>
        <time>2014-09-14T07:43:14.000Z</time>
      </trkpt>
      <trkpt lat="43.89613" lon="3.26138">
        <ele>855</ele>
        <time>2014-09-14T07:43:16.000Z</time>
      </trkpt>
      <trkpt lat="43.8961" lon="3.2613">
        <ele>854</ele>
        <time>2014-09-14T07:43:18.000Z</time>
      </trkpt>
      <trkpt lat="43.89605" lon="3.26122">
        <ele>852</ele>
        <time>2014-09-14T07:43:20.000Z</time>
      </trkpt>
      <trkpt lat="43.89601" lon="3.26114">
        <ele>853</ele>
        <time>2014-09-14T07:43:22.000Z</time>
      </trkpt>
      <trkpt lat="43.89598" lon="3.26106">
        <ele>853</ele>
        <time>2014-09-14T07:43:24.000Z</time>
      </trkpt>
      <trkpt lat="43.89595" lon="3.26098">
        <ele>854</ele>
        <time>2014-09-14T07:43:26.000Z</time>
      </trkpt>
      <trkpt lat="43.89592" lon="3.2609">
        <ele>855</ele>
        <time>2014-09-14T07:43:28.000Z</time>
      </trkpt>
      <trkpt lat="43.89588" lon="3.26082">
        <ele>857</ele>
        <time>2014-09-14T07:43:30.000Z</time>
      </trkpt>
      <trkpt lat="43.89585" lon="3.26073">
        <ele>857</ele>
        <time>2014-09-14T07:43:32.000Z</time>
      </trkpt>
      <trkpt lat="43.89584" lon="3.26064">
        <ele>858</ele>
        <time>2014-09-14T07:43:34.000Z</time>
      </trkpt>
      <trkpt lat="43.8958" lon="3.26056">
        <ele>856</ele>
        <time>2014-09-14T07:43:36.000Z</time>
      </trkpt>
      <trkpt lat="43.89578" lon="3.26048">
        <ele>858</ele>
        <time>2014-09-14T07:43:38.000Z</time>
      </trkpt>
      <trkpt lat="43.89576" lon="3.26039">
        <ele>857</ele>
        <time>2014-09-14T07:43:40.000Z</time>
      </trkpt>
      <trkpt lat="43.89573" lon="3.26031">
        <ele>854</ele>
        <time>2014-09-14T07:43:42.000Z</time>
      </trkpt>
      <trkpt lat="43.89569" lon="3.2602">
        <ele>853</ele>
        <time>2014-09-14T07:43:44.000Z</time>
      </trkpt>
      <trkpt lat="43.89563" lon="3.26009">
        <ele>852</ele>
        <time>2014-09-14T07:43:46.000Z</time>
      </trkpt>
      <trkpt lat="43.89558" lon="3.25997">
        <ele>851</ele>
        <time>2014-09-14T07:43:48.000Z</time>
      </trkpt>
      <trkpt lat="43.89552" lon="3.25985">
        <ele>852</ele>
        <time>2014-09-14T07:43:50.000Z</time>
      </trkpt>
      <trkpt lat="43.89544" lon="3.25975">
        <ele>851</ele>
        <time>2014-09-14T07:43:52.000Z</time>
      </trkpt>
      <trkpt lat="43.89534" lon="3.25969">
        <ele>851</ele>
        <time>2014-09-14T07:43:54.000Z</time>
      </trkpt>
      <trkpt lat="43.89525" lon="3.25965">
        <ele>851</ele>
        <time>2014-09-14T07:43:56.000Z</time>
      </trkpt>
      <trkpt lat="43.89507" lon="3.2595">
        <ele>847</ele>
        <time>2014-09-14T07:43:59.000Z</time>
      </trkpt>
      <trkpt lat="43.89502" lon="3.25937">
        <ele>845</ele>
        <time>2014-09-14T07:44:01.000Z</time>
      </trkpt>
      <trkpt lat="43.89504" lon="3.25921">
        <ele>845</ele>
        <time>2014-09-14T07:44:03.000Z</time>
      </trkpt>
      <trkpt lat="43.89506" lon="3.25906">
        <ele>847</ele>
        <time>2014-09-14T07:44:05.000Z</time>
      </trkpt>
      <trkpt lat="43.89507" lon="3.2589">
        <ele>846</ele>
        <time>2014-09-14T07:44:07.000Z</time>
      </trkpt>
      <trkpt lat="43.89506" lon="3.25873">
        <ele>846</ele>
        <time>2014-09-14T07:44:09.000Z</time>
      </trkpt>
      <trkpt lat="43.89504" lon="3.25854">
        <ele>847</ele>
        <time>2014-09-14T07:44:11.000Z</time>
      </trkpt>
      <trkpt lat="43.89505" lon="3.25836">
        <ele>846</ele>
        <time>2014-09-14T07:44:13.000Z</time>
      </trkpt>
      <trkpt lat="43.89507" lon="3.2582">
        <ele>846</ele>
        <time>2014-09-14T07:44:15.000Z</time>
      </trkpt>
      <trkpt lat="43.89508" lon="3.25802">
        <ele>846</ele>
        <time>2014-09-14T07:44:17.000Z</time>
      </trkpt>
      <trkpt lat="43.8951" lon="3.25783">
        <ele>845</ele>
        <time>2014-09-14T07:44:19.000Z</time>
      </trkpt>
      <trkpt lat="43.89513" lon="3.25767">
        <ele>846</ele>
        <time>2014-09-14T07:44:21.000Z</time>
      </trkpt>
      <trkpt lat="43.89514" lon="3.25751">
        <ele>848</ele>
        <time>2014-09-14T07:44:23.000Z</time>
      </trkpt>
      <trkpt lat="43.89513" lon="3.25736">
        <ele>847</ele>
        <time>2014-09-14T07:44:25.000Z</time>
      </trkpt>
      <trkpt lat="43.89511" lon="3.25721">
        <ele>847</ele>
        <time>2014-09-14T07:44:27.000Z</time>
      </trkpt>
      <trkpt lat="43.89512" lon="3.25706">
        <ele>846</ele>
        <time>2014-09-14T07:44:29.000Z</time>
      </trkpt>
      <trkpt lat="43.89514" lon="3.25691">
        <ele>846</ele>
        <time>2014-09-14T07:44:31.000Z</time>
      </trkpt>
      <trkpt lat="43.89517" lon="3.25679">
        <ele>847</ele>
        <time>2014-09-14T07:44:33.000Z</time>
      </trkpt>
      <trkpt lat="43.89518" lon="3.25669">
        <ele>847</ele>
        <time>2014-09-14T07:44:35.000Z</time>
      </trkpt>
      <trkpt lat="43.89518" lon="3.25669">
        <ele>847</ele>
        <time>2014-09-14T07:44:37.000Z</time>
      </trkpt>
      <trkpt lat="43.89515" lon="3.25656">
        <ele>847</ele>
        <time>2014-09-14T07:44:39.000Z</time>
      </trkpt>
      <trkpt lat="43.89515" lon="3.25656">
        <ele>847</ele>
        <time>2014-09-14T07:44:41.000Z</time>
      </trkpt>
      <trkpt lat="43.89513" lon="3.25639">
        <ele>849</ele>
        <time>2014-09-14T07:44:43.000Z</time>
      </trkpt>
      <trkpt lat="43.89511" lon="3.25631">
        <ele>850</ele>
        <time>2014-09-14T07:44:45.000Z</time>
      </trkpt>
      <trkpt lat="43.89509" lon="3.25623">
        <ele>850</ele>
        <time>2014-09-14T07:44:47.000Z</time>
      </trkpt>
      <trkpt lat="43.89507" lon="3.25615">
        <ele>851</ele>
        <time>2014-09-14T07:44:49.000Z</time>
      </trkpt>
      <trkpt lat="43.89504" lon="3.25607">
        <ele>852</ele>
        <time>2014-09-14T07:44:51.000Z</time>
      </trkpt>
      <trkpt lat="43.89502" lon="3.25599">
        <ele>853</ele>
        <time>2014-09-14T07:44:53.000Z</time>
      </trkpt>
      <trkpt lat="43.89502" lon="3.25599">
        <ele>853</ele>
        <time>2014-09-14T07:44:55.000Z</time>
      </trkpt>
      <trkpt lat="43.89501" lon="3.25591">
        <ele>852</ele>
        <time>2014-09-14T07:44:57.000Z</time>
      </trkpt>
      <trkpt lat="43.89501" lon="3.25591">
        <ele>852</ele>
        <time>2014-09-14T07:44:59.000Z</time>
      </trkpt>
      <trkpt lat="43.89498" lon="3.25579">
        <ele>849</ele>
        <time>2014-09-14T07:45:01.000Z</time>
      </trkpt>
      <trkpt lat="43.89497" lon="3.25571">
        <ele>850</ele>
        <time>2014-09-14T07:45:03.000Z</time>
      </trkpt>
      <trkpt lat="43.89494" lon="3.25556">
        <ele>851</ele>
        <time>2014-09-14T07:45:07.000Z</time>
      </trkpt>
      <trkpt lat="43.89493" lon="3.2554">
        <ele>851</ele>
        <time>2014-09-14T07:45:11.000Z</time>
      </trkpt>
      <trkpt lat="43.8949" lon="3.25531">
        <ele>849</ele>
        <time>2014-09-14T07:45:13.000Z</time>
      </trkpt>
      <trkpt lat="43.89487" lon="3.25522">
        <ele>849</ele>
        <time>2014-09-14T07:45:15.000Z</time>
      </trkpt>
      <trkpt lat="43.89485" lon="3.25513">
        <ele>848</ele>
        <time>2014-09-14T07:45:17.000Z</time>
      </trkpt>
      <trkpt lat="43.89482" lon="3.25505">
        <ele>849</ele>
        <time>2014-09-14T07:45:19.000Z</time>
      </trkpt>
      <trkpt lat="43.89479" lon="3.25497">
        <ele>849</ele>
        <time>2014-09-14T07:45:21.000Z</time>
      </trkpt>
      <trkpt lat="43.89476" lon="3.2549">
        <ele>850</ele>
        <time>2014-09-14T07:45:23.000Z</time>
      </trkpt>
      <trkpt lat="43.89472" lon="3.25483">
        <ele>851</ele>
        <time>2014-09-14T07:45:25.000Z</time>
      </trkpt>
      <trkpt lat="43.89467" lon="3.25473">
        <ele>851</ele>
        <time>2014-09-14T07:45:27.000Z</time>
      </trkpt>
      <trkpt lat="43.89463" lon="3.25462">
        <ele>852</ele>
        <time>2014-09-14T07:45:29.000Z</time>
      </trkpt>
      <trkpt lat="43.89463" lon="3.25451">
        <ele>854</ele>
        <time>2014-09-14T07:45:31.000Z</time>
      </trkpt>
      <trkpt lat="43.89463" lon="3.25439">
        <ele>855</ele>
        <time>2014-09-14T07:45:33.000Z</time>
      </trkpt>
      <trkpt lat="43.89461" lon="3.25425">
        <ele>856</ele>
        <time>2014-09-14T07:45:35.000Z</time>
      </trkpt>
      <trkpt lat="43.8946" lon="3.25413">
        <ele>855</ele>
        <time>2014-09-14T07:45:37.000Z</time>
      </trkpt>
      <trkpt lat="43.89458" lon="3.254">
        <ele>853</ele>
        <time>2014-09-14T07:45:39.000Z</time>
      </trkpt>
      <trkpt lat="43.8946" lon="3.25388">
        <ele>853</ele>
        <time>2014-09-14T07:45:41.000Z</time>
      </trkpt>
      <trkpt lat="43.89463" lon="3.25372">
        <ele>852</ele>
        <time>2014-09-14T07:45:43.000Z</time>
      </trkpt>
      <trkpt lat="43.89467" lon="3.25359">
        <ele>851</ele>
        <time>2014-09-14T07:45:45.000Z</time>
      </trkpt>
      <trkpt lat="43.89468" lon="3.25346">
        <ele>850</ele>
        <time>2014-09-14T07:45:47.000Z</time>
      </trkpt>
      <trkpt lat="43.89469" lon="3.25335">
        <ele>851</ele>
        <time>2014-09-14T07:45:49.000Z</time>
      </trkpt>
      <trkpt lat="43.8947" lon="3.25325">
        <ele>850</ele>
        <time>2014-09-14T07:45:51.000Z</time>
      </trkpt>
      <trkpt lat="43.89469" lon="3.25313">
        <ele>849</ele>
        <time>2014-09-14T07:45:53.000Z</time>
      </trkpt>
      <trkpt lat="43.8947" lon="3.25303">
        <ele>850</ele>
        <time>2014-09-14T07:45:55.000Z</time>
      </trkpt>
      <trkpt lat="43.89471" lon="3.25292">
        <ele>850</ele>
        <time>2014-09-14T07:45:57.000Z</time>
      </trkpt>
      <trkpt lat="43.89472" lon="3.25281">
        <ele>849</ele>
        <time>2014-09-14T07:45:59.000Z</time>
      </trkpt>
      <trkpt lat="43.89473" lon="3.2527">
        <ele>851</ele>
        <time>2014-09-14T07:46:01.000Z</time>
      </trkpt>
      <trkpt lat="43.89473" lon="3.25258">
        <ele>852</ele>
        <time>2014-09-14T07:46:03.000Z</time>
      </trkpt>
      <trkpt lat="43.89473" lon="3.25247">
        <ele>851</ele>
        <time>2014-09-14T07:46:05.000Z</time>
      </trkpt>
      <trkpt lat="43.89473" lon="3.25236">
        <ele>853</ele>
        <time>2014-09-14T07:46:07.000Z</time>
      </trkpt>
      <trkpt lat="43.89471" lon="3.25226">
        <ele>853</ele>
        <time>2014-09-14T07:46:09.000Z</time>
      </trkpt>
      <trkpt lat="43.89469" lon="3.25218">
        <ele>852</ele>
        <time>2014-09-14T07:46:11.000Z</time>
      </trkpt>
      <trkpt lat="43.89469" lon="3.25218">
        <ele>852</ele>
        <time>2014-09-14T07:46:13.000Z</time>
      </trkpt>
      <trkpt lat="43.89466" lon="3.25206">
        <ele>854</ele>
        <time>2014-09-14T07:46:15.000Z</time>
      </trkpt>
      <trkpt lat="43.89466" lon="3.25206">
        <ele>854</ele>
        <time>2014-09-14T07:46:17.000Z</time>
      </trkpt>
      <trkpt lat="43.89465" lon="3.25191">
        <ele>856</ele>
        <time>2014-09-14T07:46:19.000Z</time>
      </trkpt>
      <trkpt lat="43.89465" lon="3.25182">
        <ele>858</ele>
        <time>2014-09-14T07:46:21.000Z</time>
      </trkpt>
      <trkpt lat="43.89465" lon="3.25172">
        <ele>861</ele>
        <time>2014-09-14T07:46:23.000Z</time>
      </trkpt>
      <trkpt lat="43.89464" lon="3.25164">
        <ele>862</ele>
        <time>2014-09-14T07:46:25.000Z</time>
      </trkpt>
      <trkpt lat="43.89463" lon="3.25156">
        <ele>863</ele>
        <time>2014-09-14T07:46:27.000Z</time>
      </trkpt>
      <trkpt lat="43.89463" lon="3.25156">
        <ele>863</ele>
        <time>2014-09-14T07:46:29.000Z</time>
      </trkpt>
      <trkpt lat="43.89462" lon="3.2514">
        <ele>865</ele>
        <time>2014-09-14T07:46:31.000Z</time>
      </trkpt>
      <trkpt lat="43.89462" lon="3.2514">
        <ele>865</ele>
        <time>2014-09-14T07:46:33.000Z</time>
      </trkpt>
      <trkpt lat="43.8946" lon="3.25126">
        <ele>868</ele>
        <time>2014-09-14T07:46:35.000Z</time>
      </trkpt>
      <trkpt lat="43.89456" lon="3.25111">
        <ele>868</ele>
        <time>2014-09-14T07:46:39.000Z</time>
      </trkpt>
      <trkpt lat="43.89454" lon="3.25103">
        <ele>869</ele>
        <time>2014-09-14T07:46:41.000Z</time>
      </trkpt>
      <trkpt lat="43.89453" lon="3.25095">
        <ele>867</ele>
        <time>2014-09-14T07:46:43.000Z</time>
      </trkpt>
      <trkpt lat="43.8945" lon="3.25084">
        <ele>862</ele>
        <time>2014-09-14T07:46:45.000Z</time>
      </trkpt>
      <trkpt lat="43.89447" lon="3.25072">
        <ele>862</ele>
        <time>2014-09-14T07:46:47.000Z</time>
      </trkpt>
      <trkpt lat="43.89444" lon="3.25058">
        <ele>861</ele>
        <time>2014-09-14T07:46:49.000Z</time>
      </trkpt>
      <trkpt lat="43.89441" lon="3.25044">
        <ele>858</ele>
        <time>2014-09-14T07:46:51.000Z</time>
      </trkpt>
      <trkpt lat="43.8944" lon="3.25031">
        <ele>858</ele>
        <time>2014-09-14T07:46:53.000Z</time>
      </trkpt>
      <trkpt lat="43.89439" lon="3.25018">
        <ele>859</ele>
        <time>2014-09-14T07:46:55.000Z</time>
      </trkpt>
      <trkpt lat="43.89439" lon="3.25005">
        <ele>859</ele>
        <time>2014-09-14T07:46:57.000Z</time>
      </trkpt>
      <trkpt lat="43.89436" lon="3.24991">
        <ele>857</ele>
        <time>2014-09-14T07:46:59.000Z</time>
      </trkpt>
      <trkpt lat="43.89435" lon="3.24979">
        <ele>857</ele>
        <time>2014-09-14T07:47:01.000Z</time>
      </trkpt>
      <trkpt lat="43.89435" lon="3.24979">
        <ele>857</ele>
        <time>2014-09-14T07:47:03.000Z</time>
      </trkpt>
      <trkpt lat="43.89434" lon="3.24963">
        <ele>856</ele>
        <time>2014-09-14T07:47:05.000Z</time>
      </trkpt>
      <trkpt lat="43.89433" lon="3.24955">
        <ele>858</ele>
        <time>2014-09-14T07:47:07.000Z</time>
      </trkpt>
      <trkpt lat="43.89433" lon="3.24955">
        <ele>858</ele>
        <time>2014-09-14T07:47:09.000Z</time>
      </trkpt>
      <trkpt lat="43.89431" lon="3.24942">
        <ele>858</ele>
        <time>2014-09-14T07:47:11.000Z</time>
      </trkpt>
      <trkpt lat="43.89431" lon="3.24942">
        <ele>858</ele>
        <time>2014-09-14T07:47:13.000Z</time>
      </trkpt>
      <trkpt lat="43.89427" lon="3.2493">
        <ele>861</ele>
        <time>2014-09-14T07:47:15.000Z</time>
      </trkpt>
      <trkpt lat="43.89427" lon="3.2493">
        <ele>861</ele>
        <time>2014-09-14T07:47:17.000Z</time>
      </trkpt>
      <trkpt lat="43.89419" lon="3.24916">
        <ele>858</ele>
        <time>2014-09-14T07:47:19.000Z</time>
      </trkpt>
      <trkpt lat="43.89413" lon="3.24907">
        <ele>857</ele>
        <time>2014-09-14T07:47:21.000Z</time>
      </trkpt>
      <trkpt lat="43.89412" lon="3.24898">
        <ele>858</ele>
        <time>2014-09-14T07:47:23.000Z</time>
      </trkpt>
      <trkpt lat="43.89412" lon="3.24887">
        <ele>858</ele>
        <time>2014-09-14T07:47:25.000Z</time>
      </trkpt>
      <trkpt lat="43.89412" lon="3.24874">
        <ele>858</ele>
        <time>2014-09-14T07:47:27.000Z</time>
      </trkpt>
      <trkpt lat="43.89409" lon="3.24863">
        <ele>858</ele>
        <time>2014-09-14T07:47:29.000Z</time>
      </trkpt>
      <trkpt lat="43.89405" lon="3.24853">
        <ele>857</ele>
        <time>2014-09-14T07:47:31.000Z</time>
      </trkpt>
      <trkpt lat="43.89399" lon="3.2484">
        <ele>855</ele>
        <time>2014-09-14T07:47:33.000Z</time>
      </trkpt>
      <trkpt lat="43.89394" lon="3.24829">
        <ele>855</ele>
        <time>2014-09-14T07:47:35.000Z</time>
      </trkpt>
      <trkpt lat="43.89392" lon="3.24818">
        <ele>855</ele>
        <time>2014-09-14T07:47:37.000Z</time>
      </trkpt>
      <trkpt lat="43.89387" lon="3.24805">
        <ele>855</ele>
        <time>2014-09-14T07:47:39.000Z</time>
      </trkpt>
      <trkpt lat="43.89383" lon="3.24792">
        <ele>855</ele>
        <time>2014-09-14T07:47:41.000Z</time>
      </trkpt>
      <trkpt lat="43.8938" lon="3.24779">
        <ele>854</ele>
        <time>2014-09-14T07:47:43.000Z</time>
      </trkpt>
      <trkpt lat="43.89373" lon="3.24764">
        <ele>850</ele>
        <time>2014-09-14T07:47:45.000Z</time>
      </trkpt>
      <trkpt lat="43.8937" lon="3.24749">
        <ele>851</ele>
        <time>2014-09-14T07:47:47.000Z</time>
      </trkpt>
      <trkpt lat="43.89365" lon="3.24735">
        <ele>851</ele>
        <time>2014-09-14T07:47:49.000Z</time>
      </trkpt>
      <trkpt lat="43.8936" lon="3.24722">
        <ele>851</ele>
        <time>2014-09-14T07:47:51.000Z</time>
      </trkpt>
      <trkpt lat="43.89359" lon="3.24709">
        <ele>852</ele>
        <time>2014-09-14T07:47:53.000Z</time>
      </trkpt>
      <trkpt lat="43.89356" lon="3.24696">
        <ele>854</ele>
        <time>2014-09-14T07:47:55.000Z</time>
      </trkpt>
      <trkpt lat="43.89339" lon="3.24659">
        <ele>845</ele>
        <time>2014-09-14T07:47:59.000Z</time>
      </trkpt>
      <trkpt lat="43.89332" lon="3.24645">
        <ele>845</ele>
        <time>2014-09-14T07:48:01.000Z</time>
      </trkpt>
      <trkpt lat="43.89327" lon="3.24633">
        <ele>844</ele>
        <time>2014-09-14T07:48:03.000Z</time>
      </trkpt>
      <trkpt lat="43.89318" lon="3.24617">
        <ele>841</ele>
        <time>2014-09-14T07:48:05.000Z</time>
      </trkpt>
      <trkpt lat="43.89314" lon="3.246">
        <ele>841</ele>
        <time>2014-09-14T07:48:08.000Z</time>
      </trkpt>
      <trkpt lat="43.8931" lon="3.24588">
        <ele>840</ele>
        <time>2014-09-14T07:48:10.000Z</time>
      </trkpt>
      <trkpt lat="43.89305" lon="3.24576">
        <ele>840</ele>
        <time>2014-09-14T07:48:12.000Z</time>
      </trkpt>
      <trkpt lat="43.89298" lon="3.24565">
        <ele>841</ele>
        <time>2014-09-14T07:48:14.000Z</time>
      </trkpt>
      <trkpt lat="43.89292" lon="3.24557">
        <ele>842</ele>
        <time>2014-09-14T07:48:16.000Z</time>
      </trkpt>
      <trkpt lat="43.89283" lon="3.24548">
        <ele>842</ele>
        <time>2014-09-14T07:48:18.000Z</time>
      </trkpt>
      <trkpt lat="43.89275" lon="3.24537">
        <ele>842</ele>
        <time>2014-09-14T07:48:20.000Z</time>
      </trkpt>
      <trkpt lat="43.89266" lon="3.24528">
        <ele>841</ele>
        <time>2014-09-14T07:48:22.000Z</time>
      </trkpt>
      <trkpt lat="43.89257" lon="3.2452">
        <ele>841</ele>
        <time>2014-09-14T07:48:24.000Z</time>
      </trkpt>
      <trkpt lat="43.89247" lon="3.24512">
        <ele>839</ele>
        <time>2014-09-14T07:48:26.000Z</time>
      </trkpt>
      <trkpt lat="43.89226" lon="3.24487">
        <ele>832</ele>
        <time>2014-09-14T07:48:29.000Z</time>
      </trkpt>
      <trkpt lat="43.89208" lon="3.24466">
        <ele>828</ele>
        <time>2014-09-14T07:48:33.000Z</time>
      </trkpt>
      <trkpt lat="43.89195" lon="3.24461">
        <ele>826</ele>
        <time>2014-09-14T07:48:35.000Z</time>
      </trkpt>
      <trkpt lat="43.89185" lon="3.24458">
        <ele>825</ele>
        <time>2014-09-14T07:48:37.000Z</time>
      </trkpt>
      <trkpt lat="43.89174" lon="3.24462">
        <ele>822</ele>
        <time>2014-09-14T07:48:39.000Z</time>
      </trkpt>
      <trkpt lat="43.89167" lon="3.24469">
        <ele>820</ele>
        <time>2014-09-14T07:48:41.000Z</time>
      </trkpt>
      <trkpt lat="43.89161" lon="3.24477">
        <ele>820</ele>
        <time>2014-09-14T07:48:43.000Z</time>
      </trkpt>
      <trkpt lat="43.89154" lon="3.24486">
        <ele>820</ele>
        <time>2014-09-14T07:48:45.000Z</time>
      </trkpt>
      <trkpt lat="43.89148" lon="3.24493">
        <ele>820</ele>
        <time>2014-09-14T07:48:47.000Z</time>
      </trkpt>
      <trkpt lat="43.89141" lon="3.24508">
        <ele>824</ele>
        <time>2014-09-14T07:48:49.000Z</time>
      </trkpt>
      <trkpt lat="43.89132" lon="3.24517">
        <ele>823</ele>
        <time>2014-09-14T07:48:51.000Z</time>
      </trkpt>
      <trkpt lat="43.89127" lon="3.24527">
        <ele>824</ele>
        <time>2014-09-14T07:48:53.000Z</time>
      </trkpt>
      <trkpt lat="43.8912" lon="3.24541">
        <ele>821</ele>
        <time>2014-09-14T07:48:55.000Z</time>
      </trkpt>
      <trkpt lat="43.89113" lon="3.24551">
        <ele>822</ele>
        <time>2014-09-14T07:48:57.000Z</time>
      </trkpt>
      <trkpt lat="43.89103" lon="3.24563">
        <ele>821</ele>
        <time>2014-09-14T07:48:59.000Z</time>
      </trkpt>
      <trkpt lat="43.89092" lon="3.2457">
        <ele>818</ele>
        <time>2014-09-14T07:49:01.000Z</time>
      </trkpt>
      <trkpt lat="43.89082" lon="3.2458">
        <ele>812</ele>
        <time>2014-09-14T07:49:03.000Z</time>
      </trkpt>
      <trkpt lat="43.89072" lon="3.24582">
        <ele>809</ele>
        <time>2014-09-14T07:49:05.000Z</time>
      </trkpt>
      <trkpt lat="43.89064" lon="3.24583">
        <ele>807</ele>
        <time>2014-09-14T07:49:07.000Z</time>
      </trkpt>
      <trkpt lat="43.8906" lon="3.24575">
        <ele>806</ele>
        <time>2014-09-14T07:49:09.000Z</time>
      </trkpt>
      <trkpt lat="43.89059" lon="3.24565">
        <ele>806</ele>
        <time>2014-09-14T07:49:11.000Z</time>
      </trkpt>
      <trkpt lat="43.89059" lon="3.24565">
        <ele>806</ele>
        <time>2014-09-14T07:49:13.000Z</time>
      </trkpt>
      <trkpt lat="43.89051" lon="3.24554">
        <ele>803</ele>
        <time>2014-09-14T07:49:15.000Z</time>
      </trkpt>
      <trkpt lat="43.89044" lon="3.24556">
        <ele>802</ele>
        <time>2014-09-14T07:49:17.000Z</time>
      </trkpt>
      <trkpt lat="43.89039" lon="3.24565">
        <ele>801</ele>
        <time>2014-09-14T07:49:19.000Z</time>
      </trkpt>
      <trkpt lat="43.89032" lon="3.24573">
        <ele>801</ele>
        <time>2014-09-14T07:49:21.000Z</time>
      </trkpt>
      <trkpt lat="43.89032" lon="3.24573">
        <ele>801</ele>
        <time>2014-09-14T07:49:23.000Z</time>
      </trkpt>
      <trkpt lat="43.89024" lon="3.2457">
        <ele>799</ele>
        <time>2014-09-14T07:49:25.000Z</time>
      </trkpt>
      <trkpt lat="43.89024" lon="3.2457">
        <ele>799</ele>
        <time>2014-09-14T07:49:27.000Z</time>
      </trkpt>
      <trkpt lat="43.89028" lon="3.24552">
        <ele>800</ele>
        <time>2014-09-14T07:49:29.000Z</time>
      </trkpt>
      <trkpt lat="43.89029" lon="3.24542">
        <ele>800</ele>
        <time>2014-09-14T07:49:31.000Z</time>
      </trkpt>
      <trkpt lat="43.89029" lon="3.24531">
        <ele>802</ele>
        <time>2014-09-14T07:49:33.000Z</time>
      </trkpt>
      <trkpt lat="43.89028" lon="3.2452">
        <ele>802</ele>
        <time>2014-09-14T07:49:35.000Z</time>
      </trkpt>
      <trkpt lat="43.89015" lon="3.24504">
        <ele>800</ele>
        <time>2014-09-14T07:49:38.000Z</time>
      </trkpt>
      <trkpt lat="43.89008" lon="3.24492">
        <ele>799</ele>
        <time>2014-09-14T07:49:40.000Z</time>
      </trkpt>
      <trkpt lat="43.89001" lon="3.24484">
        <ele>796</ele>
        <time>2014-09-14T07:49:42.000Z</time>
      </trkpt>
      <trkpt lat="43.88992" lon="3.24475">
        <ele>794</ele>
        <time>2014-09-14T07:49:44.000Z</time>
      </trkpt>
      <trkpt lat="43.8898" lon="3.24465">
        <ele>793</ele>
        <time>2014-09-14T07:49:46.000Z</time>
      </trkpt>
      <trkpt lat="43.88973" lon="3.24459">
        <ele>793</ele>
        <time>2014-09-14T07:49:48.000Z</time>
      </trkpt>
      <trkpt lat="43.88964" lon="3.24455">
        <ele>791</ele>
        <time>2014-09-14T07:49:50.000Z</time>
      </trkpt>
      <trkpt lat="43.88958" lon="3.24452">
        <ele>790</ele>
        <time>2014-09-14T07:49:52.000Z</time>
      </trkpt>
      <trkpt lat="43.88952" lon="3.24449">
        <ele>793</ele>
        <time>2014-09-14T07:49:54.000Z</time>
      </trkpt>
      <trkpt lat="43.88952" lon="3.24449">
        <ele>793</ele>
        <time>2014-09-14T07:49:56.000Z</time>
      </trkpt>
      <trkpt lat="43.88941" lon="3.24445">
        <ele>794</ele>
        <time>2014-09-14T07:49:58.000Z</time>
      </trkpt>
      <trkpt lat="43.88941" lon="3.24445">
        <ele>794</ele>
        <time>2014-09-14T07:50:00.000Z</time>
      </trkpt>
      <trkpt lat="43.88931" lon="3.24444">
        <ele>798</ele>
        <time>2014-09-14T07:50:02.000Z</time>
      </trkpt>
      <trkpt lat="43.88931" lon="3.24444">
        <ele>798</ele>
        <time>2014-09-14T07:50:04.000Z</time>
      </trkpt>
      <trkpt lat="43.88924" lon="3.24444">
        <ele>799</ele>
        <time>2014-09-14T07:50:06.000Z</time>
      </trkpt>
      <trkpt lat="43.88924" lon="3.24444">
        <ele>799</ele>
        <time>2014-09-14T07:50:08.000Z</time>
      </trkpt>
      <trkpt lat="43.88916" lon="3.24448">
        <ele>799</ele>
        <time>2014-09-14T07:50:10.000Z</time>
      </trkpt>
      <trkpt lat="43.88908" lon="3.24446">
        <ele>799</ele>
        <time>2014-09-14T07:50:14.000Z</time>
      </trkpt>
      <trkpt lat="43.88898" lon="3.24449">
        <ele>797</ele>
        <time>2014-09-14T07:50:18.000Z</time>
      </trkpt>
      <trkpt lat="43.88892" lon="3.2445">
        <ele>799</ele>
        <time>2014-09-14T07:50:20.000Z</time>
      </trkpt>
      <trkpt lat="43.88885" lon="3.2445">
        <ele>800</ele>
        <time>2014-09-14T07:50:22.000Z</time>
      </trkpt>
      <trkpt lat="43.88877" lon="3.24449">
        <ele>799</ele>
        <time>2014-09-14T07:50:24.000Z</time>
      </trkpt>
      <trkpt lat="43.88868" lon="3.2445">
        <ele>798</ele>
        <time>2014-09-14T07:50:26.000Z</time>
      </trkpt>
      <trkpt lat="43.88859" lon="3.2445">
        <ele>796</ele>
        <time>2014-09-14T07:50:28.000Z</time>
      </trkpt>
      <trkpt lat="43.8885" lon="3.24451">
        <ele>797</ele>
        <time>2014-09-14T07:50:30.000Z</time>
      </trkpt>
      <trkpt lat="43.8884" lon="3.24453">
        <ele>795</ele>
        <time>2014-09-14T07:50:32.000Z</time>
      </trkpt>
      <trkpt lat="43.88831" lon="3.24456">
        <ele>796</ele>
        <time>2014-09-14T07:50:34.000Z</time>
      </trkpt>
      <trkpt lat="43.88824" lon="3.24457">
        <ele>795</ele>
        <time>2014-09-14T07:50:36.000Z</time>
      </trkpt>
      <trkpt lat="43.88816" lon="3.24455">
        <ele>795</ele>
        <time>2014-09-14T07:50:38.000Z</time>
      </trkpt>
      <trkpt lat="43.88809" lon="3.24451">
        <ele>795</ele>
        <time>2014-09-14T07:50:40.000Z</time>
      </trkpt>
      <trkpt lat="43.88801" lon="3.24446">
        <ele>794</ele>
        <time>2014-09-14T07:50:42.000Z</time>
      </trkpt>
      <trkpt lat="43.88792" lon="3.24443">
        <ele>794</ele>
        <time>2014-09-14T07:50:44.000Z</time>
      </trkpt>
      <trkpt lat="43.88784" lon="3.2444">
        <ele>797</ele>
        <time>2014-09-14T07:50:46.000Z</time>
      </trkpt>
      <trkpt lat="43.88778" lon="3.24436">
        <ele>797</ele>
        <time>2014-09-14T07:50:48.000Z</time>
      </trkpt>
      <trkpt lat="43.88771" lon="3.24432">
        <ele>797</ele>
        <time>2014-09-14T07:50:50.000Z</time>
      </trkpt>
      <trkpt lat="43.88763" lon="3.2443">
        <ele>795</ele>
        <time>2014-09-14T07:50:52.000Z</time>
      </trkpt>
      <trkpt lat="43.88756" lon="3.24428">
        <ele>795</ele>
        <time>2014-09-14T07:50:54.000Z</time>
      </trkpt>
      <trkpt lat="43.88748" lon="3.24428">
        <ele>795</ele>
        <time>2014-09-14T07:50:56.000Z</time>
      </trkpt>
      <trkpt lat="43.88737" lon="3.24427">
        <ele>794</ele>
        <time>2014-09-14T07:50:58.000Z</time>
      </trkpt>
      <trkpt lat="43.88725" lon="3.24429">
        <ele>795</ele>
        <time>2014-09-14T07:51:00.000Z</time>
      </trkpt>
      <trkpt lat="43.88715" lon="3.24417">
        <ele>795</ele>
        <time>2014-09-14T07:51:03.000Z</time>
      </trkpt>
      <trkpt lat="43.88715" lon="3.24417">
        <ele>795</ele>
        <time>2014-09-14T07:51:05.000Z</time>
      </trkpt>
      <trkpt lat="43.88705" lon="3.24415">
        <ele>797</ele>
        <time>2014-09-14T07:51:07.000Z</time>
      </trkpt>
      <trkpt lat="43.88706" lon="3.24425">
        <ele>793</ele>
        <time>2014-09-14T07:51:09.000Z</time>
      </trkpt>
      <trkpt lat="43.88706" lon="3.24438">
        <ele>791</ele>
        <time>2014-09-14T07:51:11.000Z</time>
      </trkpt>
      <trkpt lat="43.88702" lon="3.24454">
        <ele>791</ele>
        <time>2014-09-14T07:51:13.000Z</time>
      </trkpt>
      <trkpt lat="43.88696" lon="3.24475">
        <ele>789</ele>
        <time>2014-09-14T07:51:15.000Z</time>
      </trkpt>
      <trkpt lat="43.88691" lon="3.24493">
        <ele>789</ele>
        <time>2014-09-14T07:51:17.000Z</time>
      </trkpt>
      <trkpt lat="43.88696" lon="3.24512">
        <ele>787</ele>
        <time>2014-09-14T07:51:19.000Z</time>
      </trkpt>
      <trkpt lat="43.88689" lon="3.24529">
        <ele>787</ele>
        <time>2014-09-14T07:51:21.000Z</time>
      </trkpt>
      <trkpt lat="43.88681" lon="3.24545">
        <ele>786</ele>
        <time>2014-09-14T07:51:23.000Z</time>
      </trkpt>
      <trkpt lat="43.88671" lon="3.24558">
        <ele>789</ele>
        <time>2014-09-14T07:51:25.000Z</time>
      </trkpt>
      <trkpt lat="43.88659" lon="3.24567">
        <ele>789</ele>
        <time>2014-09-14T07:51:27.000Z</time>
      </trkpt>
      <trkpt lat="43.88647" lon="3.24569">
        <ele>791</ele>
        <time>2014-09-14T07:51:29.000Z</time>
      </trkpt>
      <trkpt lat="43.88634" lon="3.24567">
        <ele>790</ele>
        <time>2014-09-14T07:51:31.000Z</time>
      </trkpt>
      <trkpt lat="43.88622" lon="3.24566">
        <ele>790</ele>
        <time>2014-09-14T07:51:33.000Z</time>
      </trkpt>
      <trkpt lat="43.8861" lon="3.24565">
        <ele>788</ele>
        <time>2014-09-14T07:51:35.000Z</time>
      </trkpt>
      <trkpt lat="43.886" lon="3.24565">
        <ele>789</ele>
        <time>2014-09-14T07:51:37.000Z</time>
      </trkpt>
      <trkpt lat="43.88589" lon="3.24565">
        <ele>789</ele>
        <time>2014-09-14T07:51:39.000Z</time>
      </trkpt>
      <trkpt lat="43.88579" lon="3.24563">
        <ele>790</ele>
        <time>2014-09-14T07:51:41.000Z</time>
      </trkpt>
      <trkpt lat="43.8857" lon="3.24562">
        <ele>790</ele>
        <time>2014-09-14T07:51:43.000Z</time>
      </trkpt>
      <trkpt lat="43.8856" lon="3.2456">
        <ele>791</ele>
        <time>2014-09-14T07:51:45.000Z</time>
      </trkpt>
      <trkpt lat="43.88552" lon="3.24559">
        <ele>792</ele>
        <time>2014-09-14T07:51:47.000Z</time>
      </trkpt>
      <trkpt lat="43.88546" lon="3.24554">
        <ele>794</ele>
        <time>2014-09-14T07:51:49.000Z</time>
      </trkpt>
      <trkpt lat="43.88538" lon="3.24551">
        <ele>794</ele>
        <time>2014-09-14T07:51:51.000Z</time>
      </trkpt>
      <trkpt lat="43.88538" lon="3.24551">
        <ele>794</ele>
        <time>2014-09-14T07:51:53.000Z</time>
      </trkpt>
      <trkpt lat="43.88529" lon="3.24542">
        <ele>794</ele>
        <time>2014-09-14T07:51:55.000Z</time>
      </trkpt>
      <trkpt lat="43.88522" lon="3.24538">
        <ele>793</ele>
        <time>2014-09-14T07:51:57.000Z</time>
      </trkpt>
      <trkpt lat="43.88517" lon="3.24533">
        <ele>794</ele>
        <time>2014-09-14T07:51:59.000Z</time>
      </trkpt>
      <trkpt lat="43.88512" lon="3.2453">
        <ele>794</ele>
        <time>2014-09-14T07:52:01.000Z</time>
      </trkpt>
      <trkpt lat="43.88506" lon="3.24524">
        <ele>791</ele>
        <time>2014-09-14T07:52:03.000Z</time>
      </trkpt>
      <trkpt lat="43.88503" lon="3.24519">
        <ele>796</ele>
        <time>2014-09-14T07:52:07.000Z</time>
      </trkpt>
      <trkpt lat="43.88499" lon="3.24515">
        <ele>795</ele>
        <time>2014-09-14T07:52:09.000Z</time>
      </trkpt>
      <trkpt lat="43.88496" lon="3.24512">
        <ele>796</ele>
        <time>2014-09-14T07:52:11.000Z</time>
      </trkpt>
      <trkpt lat="43.88493" lon="3.24508">
        <ele>796</ele>
        <time>2014-09-14T07:52:13.000Z</time>
      </trkpt>
      <trkpt lat="43.88489" lon="3.24503">
        <ele>795</ele>
        <time>2014-09-14T07:52:15.000Z</time>
      </trkpt>
      <trkpt lat="43.88481" lon="3.24494">
        <ele>797</ele>
        <time>2014-09-14T07:52:17.000Z</time>
      </trkpt>
      <trkpt lat="43.88475" lon="3.24483">
        <ele>800</ele>
        <time>2014-09-14T07:52:21.000Z</time>
      </trkpt>
      <trkpt lat="43.8847" lon="3.2447">
        <ele>802</ele>
        <time>2014-09-14T07:52:25.000Z</time>
      </trkpt>
      <trkpt lat="43.88468" lon="3.24462">
        <ele>804</ele>
        <time>2014-09-14T07:52:27.000Z</time>
      </trkpt>
      <trkpt lat="43.88469" lon="3.24447">
        <ele>807</ele>
        <time>2014-09-14T07:52:31.000Z</time>
      </trkpt>
      <trkpt lat="43.88467" lon="3.24431">
        <ele>808</ele>
        <time>2014-09-14T07:52:35.000Z</time>
      </trkpt>
      <trkpt lat="43.88465" lon="3.24421">
        <ele>810</ele>
        <time>2014-09-14T07:52:37.000Z</time>
      </trkpt>
      <trkpt lat="43.88464" lon="3.24412">
        <ele>808</ele>
        <time>2014-09-14T07:52:39.000Z</time>
      </trkpt>
      <trkpt lat="43.88462" lon="3.24402">
        <ele>810</ele>
        <time>2014-09-14T07:52:41.000Z</time>
      </trkpt>
      <trkpt lat="43.8846" lon="3.24394">
        <ele>811</ele>
        <time>2014-09-14T07:52:43.000Z</time>
      </trkpt>
      <trkpt lat="43.8846" lon="3.24394">
        <ele>811</ele>
        <time>2014-09-14T07:52:45.000Z</time>
      </trkpt>
      <trkpt lat="43.88456" lon="3.24382">
        <ele>807</ele>
        <time>2014-09-14T07:52:47.000Z</time>
      </trkpt>
      <trkpt lat="43.88456" lon="3.24382">
        <ele>807</ele>
        <time>2014-09-14T07:52:49.000Z</time>
      </trkpt>
      <trkpt lat="43.88451" lon="3.24368">
        <ele>801</ele>
        <time>2014-09-14T07:52:51.000Z</time>
      </trkpt>
      <trkpt lat="43.88445" lon="3.24354">
        <ele>800</ele>
        <time>2014-09-14T07:52:55.000Z</time>
      </trkpt>
      <trkpt lat="43.88442" lon="3.24346">
        <ele>802</ele>
        <time>2014-09-14T07:52:57.000Z</time>
      </trkpt>
      <trkpt lat="43.8844" lon="3.24336">
        <ele>803</ele>
        <time>2014-09-14T07:52:59.000Z</time>
      </trkpt>
      <trkpt lat="43.88438" lon="3.24327">
        <ele>802</ele>
        <time>2014-09-14T07:53:01.000Z</time>
      </trkpt>
      <trkpt lat="43.88437" lon="3.24317">
        <ele>806</ele>
        <time>2014-09-14T07:53:03.000Z</time>
      </trkpt>
      <trkpt lat="43.88436" lon="3.24308">
        <ele>808</ele>
        <time>2014-09-14T07:53:05.000Z</time>
      </trkpt>
      <trkpt lat="43.88435" lon="3.24298">
        <ele>810</ele>
        <time>2014-09-14T07:53:07.000Z</time>
      </trkpt>
      <trkpt lat="43.88434" lon="3.24289">
        <ele>811</ele>
        <time>2014-09-14T07:53:09.000Z</time>
      </trkpt>
      <trkpt lat="43.88433" lon="3.2428">
        <ele>810</ele>
        <time>2014-09-14T07:53:11.000Z</time>
      </trkpt>
      <trkpt lat="43.88431" lon="3.2427">
        <ele>809</ele>
        <time>2014-09-14T07:53:13.000Z</time>
      </trkpt>
      <trkpt lat="43.88429" lon="3.24261">
        <ele>810</ele>
        <time>2014-09-14T07:53:15.000Z</time>
      </trkpt>
      <trkpt lat="43.88427" lon="3.24251">
        <ele>811</ele>
        <time>2014-09-14T07:53:17.000Z</time>
      </trkpt>
      <trkpt lat="43.88424" lon="3.24243">
        <ele>812</ele>
        <time>2014-09-14T07:53:19.000Z</time>
      </trkpt>
      <trkpt lat="43.88424" lon="3.24234">
        <ele>814</ele>
        <time>2014-09-14T07:53:21.000Z</time>
      </trkpt>
      <trkpt lat="43.88424" lon="3.24225">
        <ele>815</ele>
        <time>2014-09-14T07:53:23.000Z</time>
      </trkpt>
      <trkpt lat="43.88425" lon="3.24217">
        <ele>817</ele>
        <time>2014-09-14T07:53:25.000Z</time>
      </trkpt>
      <trkpt lat="43.88425" lon="3.24217">
        <ele>817</ele>
        <time>2014-09-14T07:53:27.000Z</time>
      </trkpt>
      <trkpt lat="43.88425" lon="3.24202">
        <ele>812</ele>
        <time>2014-09-14T07:53:29.000Z</time>
      </trkpt>
      <trkpt lat="43.88424" lon="3.24194">
        <ele>812</ele>
        <time>2014-09-14T07:53:31.000Z</time>
      </trkpt>
      <trkpt lat="43.88422" lon="3.24186">
        <ele>811</ele>
        <time>2014-09-14T07:53:33.000Z</time>
      </trkpt>
      <trkpt lat="43.8842" lon="3.24178">
        <ele>811</ele>
        <time>2014-09-14T07:53:35.000Z</time>
      </trkpt>
      <trkpt lat="43.8842" lon="3.24178">
        <ele>811</ele>
        <time>2014-09-14T07:53:37.000Z</time>
      </trkpt>
      <trkpt lat="43.88418" lon="3.24165">
        <ele>813</ele>
        <time>2014-09-14T07:53:39.000Z</time>
      </trkpt>
      <trkpt lat="43.88418" lon="3.24165">
        <ele>813</ele>
        <time>2014-09-14T07:53:41.000Z</time>
      </trkpt>
      <trkpt lat="43.88414" lon="3.24154">
        <ele>818</ele>
        <time>2014-09-14T07:53:43.000Z</time>
      </trkpt>
      <trkpt lat="43.88414" lon="3.24154">
        <ele>818</ele>
        <time>2014-09-14T07:53:45.000Z</time>
      </trkpt>
      <trkpt lat="43.88409" lon="3.24143">
        <ele>818</ele>
        <time>2014-09-14T07:53:47.000Z</time>
      </trkpt>
      <trkpt lat="43.88409" lon="3.24143">
        <ele>818</ele>
        <time>2014-09-14T07:53:49.000Z</time>
      </trkpt>
      <trkpt lat="43.88404" lon="3.24133">
        <ele>821</ele>
        <time>2014-09-14T07:53:51.000Z</time>
      </trkpt>
      <trkpt lat="43.88404" lon="3.24133">
        <ele>821</ele>
        <time>2014-09-14T07:53:53.000Z</time>
      </trkpt>
      <trkpt lat="43.88394" lon="3.24124">
        <ele>818</ele>
        <time>2014-09-14T07:53:55.000Z</time>
      </trkpt>
      <trkpt lat="43.88388" lon="3.24119">
        <ele>818</ele>
        <time>2014-09-14T07:53:57.000Z</time>
      </trkpt>
      <trkpt lat="43.88378" lon="3.24109">
        <ele>819</ele>
        <time>2014-09-14T07:54:01.000Z</time>
      </trkpt>
      <trkpt lat="43.88378" lon="3.24109">
        <ele>819</ele>
        <time>2014-09-14T07:54:03.000Z</time>
      </trkpt>
      <trkpt lat="43.88375" lon="3.24098">
        <ele>821</ele>
        <time>2014-09-14T07:54:05.000Z</time>
      </trkpt>
      <trkpt lat="43.88375" lon="3.24098">
        <ele>821</ele>
        <time>2014-09-14T07:54:07.000Z</time>
      </trkpt>
      <trkpt lat="43.88373" lon="3.24086">
        <ele>821</ele>
        <time>2014-09-14T07:54:09.000Z</time>
      </trkpt>
      <trkpt lat="43.88373" lon="3.24086">
        <ele>821</ele>
        <time>2014-09-14T07:54:11.000Z</time>
      </trkpt>
      <trkpt lat="43.8837" lon="3.24075">
        <ele>820</ele>
        <time>2014-09-14T07:54:13.000Z</time>
      </trkpt>
      <trkpt lat="43.8837" lon="3.24075">
        <ele>820</ele>
        <time>2014-09-14T07:54:15.000Z</time>
      </trkpt>
      <trkpt lat="43.88368" lon="3.24062">
        <ele>819</ele>
        <time>2014-09-14T07:54:17.000Z</time>
      </trkpt>
      <trkpt lat="43.88368" lon="3.24062">
        <ele>819</ele>
        <time>2014-09-14T07:54:19.000Z</time>
      </trkpt>
      <trkpt lat="43.88366" lon="3.24051">
        <ele>820</ele>
        <time>2014-09-14T07:54:21.000Z</time>
      </trkpt>
      <trkpt lat="43.88366" lon="3.24051">
        <ele>820</ele>
        <time>2014-09-14T07:54:23.000Z</time>
      </trkpt>
      <trkpt lat="43.88366" lon="3.24051">
        <ele>820</ele>
        <time>2014-09-14T07:54:25.000Z</time>
      </trkpt>
      <trkpt lat="43.88362" lon="3.24041">
        <ele>818</ele>
        <time>2014-09-14T07:54:27.000Z</time>
      </trkpt>
      <trkpt lat="43.88362" lon="3.24041">
        <ele>818</ele>
        <time>2014-09-14T07:54:29.000Z</time>
      </trkpt>
      <trkpt lat="43.8836" lon="3.24027">
        <ele>822</ele>
        <time>2014-09-14T07:54:31.000Z</time>
      </trkpt>
      <trkpt lat="43.88356" lon="3.24014">
        <ele>823</ele>
        <time>2014-09-14T07:54:35.000Z</time>
      </trkpt>
      <trkpt lat="43.88353" lon="3.24001">
        <ele>824</ele>
        <time>2014-09-14T07:54:39.000Z</time>
      </trkpt>
      <trkpt lat="43.88352" lon="3.23989">
        <ele>826</ele>
        <time>2014-09-14T07:54:43.000Z</time>
      </trkpt>
      <trkpt lat="43.88351" lon="3.23976">
        <ele>827</ele>
        <time>2014-09-14T07:54:47.000Z</time>
      </trkpt>
      <trkpt lat="43.88347" lon="3.23963">
        <ele>828</ele>
        <time>2014-09-14T07:54:51.000Z</time>
      </trkpt>
      <trkpt lat="43.88345" lon="3.23952">
        <ele>832</ele>
        <time>2014-09-14T07:54:55.000Z</time>
      </trkpt>
      <trkpt lat="43.88345" lon="3.23952">
        <ele>832</ele>
        <time>2014-09-14T07:54:57.000Z</time>
      </trkpt>
      <trkpt lat="43.88343" lon="3.23939">
        <ele>828</ele>
        <time>2014-09-14T07:54:59.000Z</time>
      </trkpt>
      <trkpt lat="43.88343" lon="3.23939">
        <ele>828</ele>
        <time>2014-09-14T07:55:01.000Z</time>
      </trkpt>
      <trkpt lat="43.8834" lon="3.23933">
        <ele>825</ele>
        <time>2014-09-14T07:55:03.000Z</time>
      </trkpt>
      <trkpt lat="43.88337" lon="3.23926">
        <ele>826</ele>
        <time>2014-09-14T07:55:05.000Z</time>
      </trkpt>
      <trkpt lat="43.88335" lon="3.23921">
        <ele>829</ele>
        <time>2014-09-14T07:55:07.000Z</time>
      </trkpt>
      <trkpt lat="43.88334" lon="3.23915">
        <ele>830</ele>
        <time>2014-09-14T07:55:09.000Z</time>
      </trkpt>
      <trkpt lat="43.88333" lon="3.23911">
        <ele>830</ele>
        <time>2014-09-14T07:55:11.000Z</time>
      </trkpt>
      <trkpt lat="43.8833" lon="3.23902">
        <ele>829</ele>
        <time>2014-09-14T07:55:13.000Z</time>
      </trkpt>
      <trkpt lat="43.8833" lon="3.23902">
        <ele>829</ele>
        <time>2014-09-14T07:55:15.000Z</time>
      </trkpt>
      <trkpt lat="43.8833" lon="3.23893">
        <ele>830</ele>
        <time>2014-09-14T07:55:17.000Z</time>
      </trkpt>
      <trkpt lat="43.8833" lon="3.23893">
        <ele>830</ele>
        <time>2014-09-14T07:55:19.000Z</time>
      </trkpt>
      <trkpt lat="43.88329" lon="3.23883">
        <ele>831</ele>
        <time>2014-09-14T07:55:21.000Z</time>
      </trkpt>
      <trkpt lat="43.88325" lon="3.23871">
        <ele>834</ele>
        <time>2014-09-14T07:55:25.000Z</time>
      </trkpt>
      <trkpt lat="43.88325" lon="3.2386">
        <ele>835</ele>
        <time>2014-09-14T07:55:29.000Z</time>
      </trkpt>
      <trkpt lat="43.88322" lon="3.23849">
        <ele>836</ele>
        <time>2014-09-14T07:55:33.000Z</time>
      </trkpt>
      <trkpt lat="43.88322" lon="3.23837">
        <ele>837</ele>
        <time>2014-09-14T07:55:37.000Z</time>
      </trkpt>
      <trkpt lat="43.88322" lon="3.23826">
        <ele>837</ele>
        <time>2014-09-14T07:55:41.000Z</time>
      </trkpt>
      <trkpt lat="43.88324" lon="3.23815">
        <ele>839</ele>
        <time>2014-09-14T07:55:45.000Z</time>
      </trkpt>
      <trkpt lat="43.88324" lon="3.23804">
        <ele>838</ele>
        <time>2014-09-14T07:55:49.000Z</time>
      </trkpt>
      <trkpt lat="43.88325" lon="3.23793">
        <ele>840</ele>
        <time>2014-09-14T07:55:53.000Z</time>
      </trkpt>
      <trkpt lat="43.88326" lon="3.23785">
        <ele>839</ele>
        <time>2014-09-14T07:55:57.000Z</time>
      </trkpt>
      <trkpt lat="43.88328" lon="3.23775">
        <ele>839</ele>
        <time>2014-09-14T07:56:01.000Z</time>
      </trkpt>
      <trkpt lat="43.88329" lon="3.23761">
        <ele>835</ele>
        <time>2014-09-14T07:56:05.000Z</time>
      </trkpt>
      <trkpt lat="43.88332" lon="3.23747">
        <ele>835</ele>
        <time>2014-09-14T07:56:09.000Z</time>
      </trkpt>
      <trkpt lat="43.88338" lon="3.23736">
        <ele>839</ele>
        <time>2014-09-14T07:56:13.000Z</time>
      </trkpt>
      <trkpt lat="43.88338" lon="3.23736">
        <ele>839</ele>
        <time>2014-09-14T07:56:15.000Z</time>
      </trkpt>
      <trkpt lat="43.88345" lon="3.23728">
        <ele>838</ele>
        <time>2014-09-14T07:56:17.000Z</time>
      </trkpt>
      <trkpt lat="43.88345" lon="3.23728">
        <ele>838</ele>
        <time>2014-09-14T07:56:19.000Z</time>
      </trkpt>
      <trkpt lat="43.8835" lon="3.23718">
        <ele>838</ele>
        <time>2014-09-14T07:56:21.000Z</time>
      </trkpt>
      <trkpt lat="43.8835" lon="3.23718">
        <ele>838</ele>
        <time>2014-09-14T07:56:23.000Z</time>
      </trkpt>
      <trkpt lat="43.88354" lon="3.23709">
        <ele>837</ele>
        <time>2014-09-14T07:56:25.000Z</time>
      </trkpt>
      <trkpt lat="43.88354" lon="3.23709">
        <ele>837</ele>
        <time>2014-09-14T07:56:27.000Z</time>
      </trkpt>
      <trkpt lat="43.88354" lon="3.23696">
        <ele>840</ele>
        <time>2014-09-14T07:56:29.000Z</time>
      </trkpt>
      <trkpt lat="43.88354" lon="3.2368">
        <ele>839</ele>
        <time>2014-09-14T07:56:33.000Z</time>
      </trkpt>
      <trkpt lat="43.88354" lon="3.23671">
        <ele>838</ele>
        <time>2014-09-14T07:56:35.000Z</time>
      </trkpt>
      <trkpt lat="43.88354" lon="3.23671">
        <ele>838</ele>
        <time>2014-09-14T07:56:37.000Z</time>
      </trkpt>
      <trkpt lat="43.88355" lon="3.23659">
        <ele>842</ele>
        <time>2014-09-14T07:56:39.000Z</time>
      </trkpt>
      <trkpt lat="43.88355" lon="3.23659">
        <ele>842</ele>
        <time>2014-09-14T07:56:41.000Z</time>
      </trkpt>
      <trkpt lat="43.88356" lon="3.23646">
        <ele>843</ele>
        <time>2014-09-14T07:56:43.000Z</time>
      </trkpt>
      <trkpt lat="43.88356" lon="3.23646">
        <ele>843</ele>
        <time>2014-09-14T07:56:45.000Z</time>
      </trkpt>
      <trkpt lat="43.88355" lon="3.23632">
        <ele>844</ele>
        <time>2014-09-14T07:56:47.000Z</time>
      </trkpt>
      <trkpt lat="43.88355" lon="3.23632">
        <ele>844</ele>
        <time>2014-09-14T07:56:49.000Z</time>
      </trkpt>
      <trkpt lat="43.88351" lon="3.23619">
        <ele>845</ele>
        <time>2014-09-14T07:56:51.000Z</time>
      </trkpt>
      <trkpt lat="43.88348" lon="3.23606">
        <ele>846</ele>
        <time>2014-09-14T07:56:55.000Z</time>
      </trkpt>
      <trkpt lat="43.88343" lon="3.23593">
        <ele>845</ele>
        <time>2014-09-14T07:56:59.000Z</time>
      </trkpt>
      <trkpt lat="43.8834" lon="3.23586">
        <ele>845</ele>
        <time>2014-09-14T07:57:01.000Z</time>
      </trkpt>
      <trkpt lat="43.88337" lon="3.23579">
        <ele>845</ele>
        <time>2014-09-14T07:57:03.000Z</time>
      </trkpt>
      <trkpt lat="43.88332" lon="3.23572">
        <ele>844</ele>
        <time>2014-09-14T07:57:05.000Z</time>
      </trkpt>
      <trkpt lat="43.88326" lon="3.23565">
        <ele>843</ele>
        <time>2014-09-14T07:57:07.000Z</time>
      </trkpt>
      <trkpt lat="43.88321" lon="3.23559">
        <ele>845</ele>
        <time>2014-09-14T07:57:09.000Z</time>
      </trkpt>
      <trkpt lat="43.88315" lon="3.2355">
        <ele>846</ele>
        <time>2014-09-14T07:57:11.000Z</time>
      </trkpt>
      <trkpt lat="43.8831" lon="3.23539">
        <ele>846</ele>
        <time>2014-09-14T07:57:13.000Z</time>
      </trkpt>
      <trkpt lat="43.88305" lon="3.23525">
        <ele>846</ele>
        <time>2014-09-14T07:57:15.000Z</time>
      </trkpt>
      <trkpt lat="43.88303" lon="3.23512">
        <ele>845</ele>
        <time>2014-09-14T07:57:17.000Z</time>
      </trkpt>
      <trkpt lat="43.88298" lon="3.23496">
        <ele>846</ele>
        <time>2014-09-14T07:57:19.000Z</time>
      </trkpt>
      <trkpt lat="43.88295" lon="3.23476">
        <ele>846</ele>
        <time>2014-09-14T07:57:21.000Z</time>
      </trkpt>
      <trkpt lat="43.88291" lon="3.23458">
        <ele>846</ele>
        <time>2014-09-14T07:57:23.000Z</time>
      </trkpt>
      <trkpt lat="43.88286" lon="3.23437">
        <ele>846</ele>
        <time>2014-09-14T07:57:25.000Z</time>
      </trkpt>
      <trkpt lat="43.8828" lon="3.23415">
        <ele>845</ele>
        <time>2014-09-14T07:57:27.000Z</time>
      </trkpt>
      <trkpt lat="43.88275" lon="3.23391">
        <ele>845</ele>
        <time>2014-09-14T07:57:29.000Z</time>
      </trkpt>
      <trkpt lat="43.88266" lon="3.23369">
        <ele>844</ele>
        <time>2014-09-14T07:57:31.000Z</time>
      </trkpt>
      <trkpt lat="43.88258" lon="3.23347">
        <ele>844</ele>
        <time>2014-09-14T07:57:33.000Z</time>
      </trkpt>
      <trkpt lat="43.88248" lon="3.23322">
        <ele>843</ele>
        <time>2014-09-14T07:57:35.000Z</time>
      </trkpt>
      <trkpt lat="43.88239" lon="3.23298">
        <ele>842</ele>
        <time>2014-09-14T07:57:37.000Z</time>
      </trkpt>
      <trkpt lat="43.88229" lon="3.23276">
        <ele>840</ele>
        <time>2014-09-14T07:57:39.000Z</time>
      </trkpt>
      <trkpt lat="43.88216" lon="3.23256">
        <ele>839</ele>
        <time>2014-09-14T07:57:41.000Z</time>
      </trkpt>
      <trkpt lat="43.882" lon="3.23242">
        <ele>836</ele>
        <time>2014-09-14T07:57:43.000Z</time>
      </trkpt>
      <trkpt lat="43.88176" lon="3.23229">
        <ele>831</ele>
        <time>2014-09-14T07:57:46.000Z</time>
      </trkpt>
      <trkpt lat="43.88163" lon="3.23215">
        <ele>830</ele>
        <time>2014-09-14T07:57:49.000Z</time>
      </trkpt>
      <trkpt lat="43.88162" lon="3.23203">
        <ele>829</ele>
        <time>2014-09-14T07:57:51.000Z</time>
      </trkpt>
      <trkpt lat="43.88161" lon="3.23189">
        <ele>828</ele>
        <time>2014-09-14T07:57:53.000Z</time>
      </trkpt>
      <trkpt lat="43.88155" lon="3.23173">
        <ele>828</ele>
        <time>2014-09-14T07:57:55.000Z</time>
      </trkpt>
      <trkpt lat="43.88148" lon="3.23158">
        <ele>829</ele>
        <time>2014-09-14T07:57:57.000Z</time>
      </trkpt>
      <trkpt lat="43.88142" lon="3.2314">
        <ele>828</ele>
        <time>2014-09-14T07:57:59.000Z</time>
      </trkpt>
      <trkpt lat="43.88134" lon="3.23122">
        <ele>826</ele>
        <time>2014-09-14T07:58:01.000Z</time>
      </trkpt>
      <trkpt lat="43.88129" lon="3.23103">
        <ele>825</ele>
        <time>2014-09-14T07:58:03.000Z</time>
      </trkpt>
      <trkpt lat="43.88126" lon="3.23087">
        <ele>823</ele>
        <time>2014-09-14T07:58:05.000Z</time>
      </trkpt>
      <trkpt lat="43.88123" lon="3.23072">
        <ele>822</ele>
        <time>2014-09-14T07:58:07.000Z</time>
      </trkpt>
      <trkpt lat="43.88122" lon="3.23059">
        <ele>826</ele>
        <time>2014-09-14T07:58:09.000Z</time>
      </trkpt>
      <trkpt lat="43.88119" lon="3.23043">
        <ele>823</ele>
        <time>2014-09-14T07:58:11.000Z</time>
      </trkpt>
      <trkpt lat="43.88114" lon="3.2303">
        <ele>822</ele>
        <time>2014-09-14T07:58:13.000Z</time>
      </trkpt>
      <trkpt lat="43.8811" lon="3.23016">
        <ele>821</ele>
        <time>2014-09-14T07:58:15.000Z</time>
      </trkpt>
      <trkpt lat="43.88105" lon="3.23002">
        <ele>818</ele>
        <time>2014-09-14T07:58:17.000Z</time>
      </trkpt>
      <trkpt lat="43.88102" lon="3.22984">
        <ele>818</ele>
        <time>2014-09-14T07:58:19.000Z</time>
      </trkpt>
      <trkpt lat="43.88099" lon="3.22965">
        <ele>816</ele>
        <time>2014-09-14T07:58:21.000Z</time>
      </trkpt>
      <trkpt lat="43.881" lon="3.2295">
        <ele>817</ele>
        <time>2014-09-14T07:58:23.000Z</time>
      </trkpt>
      <trkpt lat="43.88103" lon="3.22936">
        <ele>815</ele>
        <time>2014-09-14T07:58:25.000Z</time>
      </trkpt>
      <trkpt lat="43.88107" lon="3.22928">
        <ele>815</ele>
        <time>2014-09-14T07:58:27.000Z</time>
      </trkpt>
      <trkpt lat="43.88115" lon="3.22922">
        <ele>815</ele>
        <time>2014-09-14T07:58:29.000Z</time>
      </trkpt>
      <trkpt lat="43.88128" lon="3.22902">
        <ele>820</ele>
        <time>2014-09-14T07:58:32.000Z</time>
      </trkpt>
      <trkpt lat="43.88138" lon="3.22905">
        <ele>818</ele>
        <time>2014-09-14T07:58:35.000Z</time>
      </trkpt>
      <trkpt lat="43.88144" lon="3.22906">
        <ele>817</ele>
        <time>2014-09-14T07:58:37.000Z</time>
      </trkpt>
      <trkpt lat="43.88152" lon="3.22906">
        <ele>814</ele>
        <time>2014-09-14T07:58:39.000Z</time>
      </trkpt>
      <trkpt lat="43.88158" lon="3.22907">
        <ele>812</ele>
        <time>2014-09-14T07:58:41.000Z</time>
      </trkpt>
      <trkpt lat="43.88158" lon="3.22907">
        <ele>812</ele>
        <time>2014-09-14T07:58:43.000Z</time>
      </trkpt>
      <trkpt lat="43.88168" lon="3.229">
        <ele>812</ele>
        <time>2014-09-14T07:58:45.000Z</time>
      </trkpt>
      <trkpt lat="43.88179" lon="3.2288">
        <ele>809</ele>
        <time>2014-09-14T07:58:48.000Z</time>
      </trkpt>
      <trkpt lat="43.88179" lon="3.22866">
        <ele>807</ele>
        <time>2014-09-14T07:58:50.000Z</time>
      </trkpt>
      <trkpt lat="43.88175" lon="3.22856">
        <ele>804</ele>
        <time>2014-09-14T07:58:52.000Z</time>
      </trkpt>
      <trkpt lat="43.88176" lon="3.22846">
        <ele>805</ele>
        <time>2014-09-14T07:58:54.000Z</time>
      </trkpt>
      <trkpt lat="43.88177" lon="3.22832">
        <ele>805</ele>
        <time>2014-09-14T07:58:56.000Z</time>
      </trkpt>
      <trkpt lat="43.88178" lon="3.22817">
        <ele>805</ele>
        <time>2014-09-14T07:58:58.000Z</time>
      </trkpt>
      <trkpt lat="43.88182" lon="3.22802">
        <ele>804</ele>
        <time>2014-09-14T07:59:00.000Z</time>
      </trkpt>
      <trkpt lat="43.8818" lon="3.22786">
        <ele>803</ele>
        <time>2014-09-14T07:59:02.000Z</time>
      </trkpt>
      <trkpt lat="43.88183" lon="3.2277">
        <ele>802</ele>
        <time>2014-09-14T07:59:04.000Z</time>
      </trkpt>
      <trkpt lat="43.88189" lon="3.22756">
        <ele>802</ele>
        <time>2014-09-14T07:59:06.000Z</time>
      </trkpt>
      <trkpt lat="43.88191" lon="3.22742">
        <ele>801</ele>
        <time>2014-09-14T07:59:08.000Z</time>
      </trkpt>
      <trkpt lat="43.88188" lon="3.22726">
        <ele>802</ele>
        <time>2014-09-14T07:59:10.000Z</time>
      </trkpt>
      <trkpt lat="43.88187" lon="3.22713">
        <ele>802</ele>
        <time>2014-09-14T07:59:12.000Z</time>
      </trkpt>
      <trkpt lat="43.8819" lon="3.22697">
        <ele>800</ele>
        <time>2014-09-14T07:59:14.000Z</time>
      </trkpt>
      <trkpt lat="43.88192" lon="3.22682">
        <ele>799</ele>
        <time>2014-09-14T07:59:16.000Z</time>
      </trkpt>
      <trkpt lat="43.88195" lon="3.22671">
        <ele>797</ele>
        <time>2014-09-14T07:59:18.000Z</time>
      </trkpt>
      <trkpt lat="43.88197" lon="3.22662">
        <ele>796</ele>
        <time>2014-09-14T07:59:20.000Z</time>
      </trkpt>
      <trkpt lat="43.88197" lon="3.22662">
        <ele>796</ele>
        <time>2014-09-14T07:59:22.000Z</time>
      </trkpt>
      <trkpt lat="43.88193" lon="3.22645">
        <ele>797</ele>
        <time>2014-09-14T07:59:24.000Z</time>
      </trkpt>
      <trkpt lat="43.88188" lon="3.22637">
        <ele>798</ele>
        <time>2014-09-14T07:59:26.000Z</time>
      </trkpt>
      <trkpt lat="43.88182" lon="3.22628">
        <ele>798</ele>
        <time>2014-09-14T07:59:28.000Z</time>
      </trkpt>
      <trkpt lat="43.88177" lon="3.22618">
        <ele>799</ele>
        <time>2014-09-14T07:59:30.000Z</time>
      </trkpt>
      <trkpt lat="43.88173" lon="3.22608">
        <ele>799</ele>
        <time>2014-09-14T07:59:32.000Z</time>
      </trkpt>
      <trkpt lat="43.88168" lon="3.22599">
        <ele>797</ele>
        <time>2014-09-14T07:59:34.000Z</time>
      </trkpt>
      <trkpt lat="43.88164" lon="3.2259">
        <ele>798</ele>
        <time>2014-09-14T07:59:36.000Z</time>
      </trkpt>
      <trkpt lat="43.88158" lon="3.22581">
        <ele>796</ele>
        <time>2014-09-14T07:59:38.000Z</time>
      </trkpt>
      <trkpt lat="43.88152" lon="3.22573">
        <ele>794</ele>
        <time>2014-09-14T07:59:40.000Z</time>
      </trkpt>
      <trkpt lat="43.88149" lon="3.22562">
        <ele>793</ele>
        <time>2014-09-14T07:59:42.000Z</time>
      </trkpt>
      <trkpt lat="43.88146" lon="3.22551">
        <ele>790</ele>
        <time>2014-09-14T07:59:44.000Z</time>
      </trkpt>
      <trkpt lat="43.88145" lon="3.22539">
        <ele>788</ele>
        <time>2014-09-14T07:59:46.000Z</time>
      </trkpt>
      <trkpt lat="43.88145" lon="3.22529">
        <ele>789</ele>
        <time>2014-09-14T07:59:48.000Z</time>
      </trkpt>
      <trkpt lat="43.88146" lon="3.22518">
        <ele>787</ele>
        <time>2014-09-14T07:59:50.000Z</time>
      </trkpt>
      <trkpt lat="43.88144" lon="3.22507">
        <ele>786</ele>
        <time>2014-09-14T07:59:52.000Z</time>
      </trkpt>
      <trkpt lat="43.88136" lon="3.22493">
        <ele>784</ele>
        <time>2014-09-14T07:59:54.000Z</time>
      </trkpt>
      <trkpt lat="43.88132" lon="3.22483">
        <ele>785</ele>
        <time>2014-09-14T07:59:56.000Z</time>
      </trkpt>
      <trkpt lat="43.88128" lon="3.2247">
        <ele>784</ele>
        <time>2014-09-14T07:59:58.000Z</time>
      </trkpt>
      <trkpt lat="43.88124" lon="3.22455">
        <ele>784</ele>
        <time>2014-09-14T08:00:00.000Z</time>
      </trkpt>
      <trkpt lat="43.88124" lon="3.22445">
        <ele>783</ele>
        <time>2014-09-14T08:00:02.000Z</time>
      </trkpt>
      <trkpt lat="43.88124" lon="3.22431">
        <ele>783</ele>
        <time>2014-09-14T08:00:04.000Z</time>
      </trkpt>
      <trkpt lat="43.88121" lon="3.22416">
        <ele>782</ele>
        <time>2014-09-14T08:00:06.000Z</time>
      </trkpt>
      <trkpt lat="43.88116" lon="3.22401">
        <ele>782</ele>
        <time>2014-09-14T08:00:08.000Z</time>
      </trkpt>
      <trkpt lat="43.8811" lon="3.22383">
        <ele>781</ele>
        <time>2014-09-14T08:00:10.000Z</time>
      </trkpt>
      <trkpt lat="43.88107" lon="3.22365">
        <ele>782</ele>
        <time>2014-09-14T08:00:12.000Z</time>
      </trkpt>
      <trkpt lat="43.88103" lon="3.22346">
        <ele>782</ele>
        <time>2014-09-14T08:00:14.000Z</time>
      </trkpt>
      <trkpt lat="43.88101" lon="3.22328">
        <ele>781</ele>
        <time>2014-09-14T08:00:16.000Z</time>
      </trkpt>
      <trkpt lat="43.88101" lon="3.22309">
        <ele>782</ele>
        <time>2014-09-14T08:00:18.000Z</time>
      </trkpt>
      <trkpt lat="43.881" lon="3.2229">
        <ele>781</ele>
        <time>2014-09-14T08:00:20.000Z</time>
      </trkpt>
      <trkpt lat="43.881" lon="3.22271">
        <ele>781</ele>
        <time>2014-09-14T08:00:22.000Z</time>
      </trkpt>
      <trkpt lat="43.88097" lon="3.22256">
        <ele>781</ele>
        <time>2014-09-14T08:00:24.000Z</time>
      </trkpt>
      <trkpt lat="43.88096" lon="3.22245">
        <ele>781</ele>
        <time>2014-09-14T08:00:26.000Z</time>
      </trkpt>
      <trkpt lat="43.88095" lon="3.22237">
        <ele>779</ele>
        <time>2014-09-14T08:00:28.000Z</time>
      </trkpt>
      <trkpt lat="43.88095" lon="3.22237">
        <ele>779</ele>
        <time>2014-09-14T08:00:30.000Z</time>
      </trkpt>
      <trkpt lat="43.88095" lon="3.22237">
        <ele>779</ele>
        <time>2014-09-14T08:00:32.000Z</time>
      </trkpt>
      <trkpt lat="43.88095" lon="3.22237">
        <ele>779</ele>
        <time>2014-09-14T08:00:34.000Z</time>
      </trkpt>
      <trkpt lat="43.88095" lon="3.22237">
        <ele>779</ele>
        <time>2014-09-14T08:00:36.000Z</time>
      </trkpt>
      <trkpt lat="43.88095" lon="3.22237">
        <ele>779</ele>
        <time>2014-09-14T08:00:38.000Z</time>
      </trkpt>
      <trkpt lat="43.88092" lon="3.22236">
        <ele>774</ele>
        <time>2014-09-14T08:00:40.000Z</time>
      </trkpt>
      <trkpt lat="43.88092" lon="3.22236">
        <ele>774</ele>
        <time>2014-09-14T08:00:42.000Z</time>
      </trkpt>
      <trkpt lat="43.88092" lon="3.22236">
        <ele>774</ele>
        <time>2014-09-14T08:00:44.000Z</time>
      </trkpt>
      <trkpt lat="43.88092" lon="3.22236">
        <ele>774</ele>
        <time>2014-09-14T08:00:46.000Z</time>
      </trkpt>
      <trkpt lat="43.88092" lon="3.22248">
        <ele>776</ele>
        <time>2014-09-14T08:01:16.000Z</time>
      </trkpt>
      <trkpt lat="43.88091" lon="3.22259">
        <ele>772</ele>
        <time>2014-09-14T08:01:18.000Z</time>
      </trkpt>
      <trkpt lat="43.88089" lon="3.22268">
        <ele>772</ele>
        <time>2014-09-14T08:01:20.000Z</time>
      </trkpt>
      <trkpt lat="43.88087" lon="3.22277">
        <ele>769</ele>
        <time>2014-09-14T08:01:22.000Z</time>
      </trkpt>
      <trkpt lat="43.88085" lon="3.22285">
        <ele>770</ele>
        <time>2014-09-14T08:01:24.000Z</time>
      </trkpt>
      <trkpt lat="43.88081" lon="3.223">
        <ele>771</ele>
        <time>2014-09-14T08:01:26.000Z</time>
      </trkpt>
      <trkpt lat="43.88083" lon="3.22315">
        <ele>774</ele>
        <time>2014-09-14T08:01:30.000Z</time>
      </trkpt>
      <trkpt lat="43.88085" lon="3.22331">
        <ele>775</ele>
        <time>2014-09-14T08:01:34.000Z</time>
      </trkpt>
      <trkpt lat="43.88086" lon="3.2234">
        <ele>773</ele>
        <time>2014-09-14T08:01:36.000Z</time>
      </trkpt>
      <trkpt lat="43.88088" lon="3.22348">
        <ele>776</ele>
        <time>2014-09-14T08:01:38.000Z</time>
      </trkpt>
      <trkpt lat="43.88089" lon="3.22357">
        <ele>777</ele>
        <time>2014-09-14T08:01:40.000Z</time>
      </trkpt>
      <trkpt lat="43.88087" lon="3.22371">
        <ele>780</ele>
        <time>2014-09-14T08:01:44.000Z</time>
      </trkpt>
      <trkpt lat="43.88087" lon="3.22371">
        <ele>780</ele>
        <time>2014-09-14T08:01:46.000Z</time>
      </trkpt>
      <trkpt lat="43.88078" lon="3.22376">
        <ele>785</ele>
        <time>2014-09-14T08:01:48.000Z</time>
      </trkpt>
      <trkpt lat="43.88078" lon="3.22376">
        <ele>785</ele>
        <time>2014-09-14T08:01:50.000Z</time>
      </trkpt>
      <trkpt lat="43.88071" lon="3.22377">
        <ele>788</ele>
        <time>2014-09-14T08:01:52.000Z</time>
      </trkpt>
      <trkpt lat="43.88071" lon="3.22377">
        <ele>788</ele>
        <time>2014-09-14T08:01:54.000Z</time>
      </trkpt>
      <trkpt lat="43.88071" lon="3.22377">
        <ele>788</ele>
        <time>2014-09-14T08:01:56.000Z</time>
      </trkpt>
      <trkpt lat="43.88064" lon="3.22379">
        <ele>790</ele>
        <time>2014-09-14T08:01:58.000Z</time>
      </trkpt>
      <trkpt lat="43.88064" lon="3.22379">
        <ele>790</ele>
        <time>2014-09-14T08:02:00.000Z</time>
      </trkpt>
      <trkpt lat="43.88058" lon="3.22383">
        <ele>789</ele>
        <time>2014-09-14T08:02:02.000Z</time>
      </trkpt>
      <trkpt lat="43.88053" lon="3.2239">
        <ele>793</ele>
        <time>2014-09-14T08:02:06.000Z</time>
      </trkpt>
      <trkpt lat="43.88047" lon="3.22395">
        <ele>794</ele>
        <time>2014-09-14T08:02:10.000Z</time>
      </trkpt>
      <trkpt lat="43.88041" lon="3.22399">
        <ele>793</ele>
        <time>2014-09-14T08:02:14.000Z</time>
      </trkpt>
      <trkpt lat="43.88041" lon="3.22399">
        <ele>793</ele>
        <time>2014-09-14T08:02:18.000Z</time>
      </trkpt>
      <trkpt lat="43.88034" lon="3.22403">
        <ele>798</ele>
        <time>2014-09-14T08:02:20.000Z</time>
      </trkpt>
      <trkpt lat="43.88034" lon="3.22403">
        <ele>798</ele>
        <time>2014-09-14T08:02:22.000Z</time>
      </trkpt>
      <trkpt lat="43.88034" lon="3.22403">
        <ele>798</ele>
        <time>2014-09-14T08:02:24.000Z</time>
      </trkpt>
      <trkpt lat="43.88028" lon="3.22409">
        <ele>800</ele>
        <time>2014-09-14T08:02:26.000Z</time>
      </trkpt>
      <trkpt lat="43.88022" lon="3.22417">
        <ele>797</ele>
        <time>2014-09-14T08:02:30.000Z</time>
      </trkpt>
      <trkpt lat="43.88017" lon="3.2242">
        <ele>798</ele>
        <time>2014-09-14T08:02:34.000Z</time>
      </trkpt>
      <trkpt lat="43.88017" lon="3.2242">
        <ele>798</ele>
        <time>2014-09-14T08:02:36.000Z</time>
      </trkpt>
      <trkpt lat="43.88017" lon="3.2242">
        <ele>798</ele>
        <time>2014-09-14T08:02:38.000Z</time>
      </trkpt>
      <trkpt lat="43.8801" lon="3.22426">
        <ele>801</ele>
        <time>2014-09-14T08:02:40.000Z</time>
      </trkpt>
      <trkpt lat="43.8801" lon="3.22426">
        <ele>801</ele>
        <time>2014-09-14T08:02:42.000Z</time>
      </trkpt>
      <trkpt lat="43.88002" lon="3.22431">
        <ele>803</ele>
        <time>2014-09-14T08:02:44.000Z</time>
      </trkpt>
      <trkpt lat="43.87996" lon="3.22434">
        <ele>803</ele>
        <time>2014-09-14T08:02:46.000Z</time>
      </trkpt>
      <trkpt lat="43.87989" lon="3.22437">
        <ele>804</ele>
        <time>2014-09-14T08:02:48.000Z</time>
      </trkpt>
      <trkpt lat="43.87984" lon="3.22442">
        <ele>804</ele>
        <time>2014-09-14T08:02:50.000Z</time>
      </trkpt>
      <trkpt lat="43.87977" lon="3.22445">
        <ele>806</ele>
        <time>2014-09-14T08:02:54.000Z</time>
      </trkpt>
      <trkpt lat="43.87977" lon="3.22445">
        <ele>806</ele>
        <time>2014-09-14T08:02:56.000Z</time>
      </trkpt>
      <trkpt lat="43.87977" lon="3.22445">
        <ele>806</ele>
        <time>2014-09-14T08:02:58.000Z</time>
      </trkpt>
      <trkpt lat="43.87977" lon="3.22445">
        <ele>806</ele>
        <time>2014-09-14T08:03:00.000Z</time>
      </trkpt>
      <trkpt lat="43.87971" lon="3.22449">
        <ele>804</ele>
        <time>2014-09-14T08:03:02.000Z</time>
      </trkpt>
      <trkpt lat="43.87971" lon="3.22449">
        <ele>804</ele>
        <time>2014-09-14T08:03:04.000Z</time>
      </trkpt>
      <trkpt lat="43.87966" lon="3.22453">
        <ele>801</ele>
        <time>2014-09-14T08:03:06.000Z</time>
      </trkpt>
      <trkpt lat="43.87963" lon="3.22461">
        <ele>804</ele>
        <time>2014-09-14T08:03:10.000Z</time>
      </trkpt>
      <trkpt lat="43.87957" lon="3.22464">
        <ele>806</ele>
        <time>2014-09-14T08:03:16.000Z</time>
      </trkpt>
      <trkpt lat="43.87957" lon="3.22464">
        <ele>806</ele>
        <time>2014-09-14T08:03:18.000Z</time>
      </trkpt>
      <trkpt lat="43.87957" lon="3.22464">
        <ele>806</ele>
        <time>2014-09-14T08:03:20.000Z</time>
      </trkpt>
      <trkpt lat="43.87957" lon="3.22464">
        <ele>806</ele>
        <time>2014-09-14T08:03:22.000Z</time>
      </trkpt>
      <trkpt lat="43.87954" lon="3.22464">
        <ele>805</ele>
        <time>2014-09-14T08:03:26.000Z</time>
      </trkpt>
      <trkpt lat="43.8795" lon="3.22465">
        <ele>806</ele>
        <time>2014-09-14T08:03:28.000Z</time>
      </trkpt>
      <trkpt lat="43.87946" lon="3.22464">
        <ele>807</ele>
        <time>2014-09-14T08:03:30.000Z</time>
      </trkpt>
      <trkpt lat="43.87941" lon="3.22463">
        <ele>808</ele>
        <time>2014-09-14T08:03:32.000Z</time>
      </trkpt>
      <trkpt lat="43.87936" lon="3.22464">
        <ele>810</ele>
        <time>2014-09-14T08:03:34.000Z</time>
      </trkpt>
      <trkpt lat="43.87928" lon="3.22465">
        <ele>807</ele>
        <time>2014-09-14T08:03:36.000Z</time>
      </trkpt>
      <trkpt lat="43.87928" lon="3.22465">
        <ele>807</ele>
        <time>2014-09-14T08:03:38.000Z</time>
      </trkpt>
      <trkpt lat="43.87928" lon="3.22465">
        <ele>807</ele>
        <time>2014-09-14T08:03:40.000Z</time>
      </trkpt>
      <trkpt lat="43.87922" lon="3.22457">
        <ele>807</ele>
        <time>2014-09-14T08:03:42.000Z</time>
      </trkpt>
      <trkpt lat="43.87915" lon="3.22448">
        <ele>808</ele>
        <time>2014-09-14T08:03:46.000Z</time>
      </trkpt>
      <trkpt lat="43.8791" lon="3.22439">
        <ele>808</ele>
        <time>2014-09-14T08:03:50.000Z</time>
      </trkpt>
      <trkpt lat="43.8791" lon="3.22439">
        <ele>808</ele>
        <time>2014-09-14T08:03:52.000Z</time>
      </trkpt>
      <trkpt lat="43.87906" lon="3.22429">
        <ele>808</ele>
        <time>2014-09-14T08:03:54.000Z</time>
      </trkpt>
      <trkpt lat="43.87906" lon="3.22429">
        <ele>808</ele>
        <time>2014-09-14T08:03:56.000Z</time>
      </trkpt>
      <trkpt lat="43.87899" lon="3.22421">
        <ele>806</ele>
        <time>2014-09-14T08:03:58.000Z</time>
      </trkpt>
      <trkpt lat="43.87899" lon="3.22421">
        <ele>806</ele>
        <time>2014-09-14T08:04:00.000Z</time>
      </trkpt>
      <trkpt lat="43.87893" lon="3.22416">
        <ele>805</ele>
        <time>2014-09-14T08:04:02.000Z</time>
      </trkpt>
      <trkpt lat="43.87893" lon="3.22416">
        <ele>805</ele>
        <time>2014-09-14T08:04:04.000Z</time>
      </trkpt>
      <trkpt lat="43.87886" lon="3.22412">
        <ele>805</ele>
        <time>2014-09-14T08:04:06.000Z</time>
      </trkpt>
      <trkpt lat="43.87877" lon="3.22411">
        <ele>805</ele>
        <time>2014-09-14T08:04:10.000Z</time>
      </trkpt>
      <trkpt lat="43.87872" lon="3.22408">
        <ele>806</ele>
        <time>2014-09-14T08:04:14.000Z</time>
      </trkpt>
      <trkpt lat="43.87872" lon="3.22408">
        <ele>806</ele>
        <time>2014-09-14T08:04:16.000Z</time>
      </trkpt>
      <trkpt lat="43.87872" lon="3.22408">
        <ele>806</ele>
        <time>2014-09-14T08:04:18.000Z</time>
      </trkpt>
      <trkpt lat="43.87864" lon="3.22406">
        <ele>810</ele>
        <time>2014-09-14T08:04:20.000Z</time>
      </trkpt>
      <trkpt lat="43.87864" lon="3.22406">
        <ele>810</ele>
        <time>2014-09-14T08:04:22.000Z</time>
      </trkpt>
      <trkpt lat="43.87864" lon="3.22406">
        <ele>810</ele>
        <time>2014-09-14T08:04:24.000Z</time>
      </trkpt>
      <trkpt lat="43.87859" lon="3.22399">
        <ele>806</ele>
        <time>2014-09-14T08:04:26.000Z</time>
      </trkpt>
      <trkpt lat="43.87859" lon="3.22399">
        <ele>806</ele>
        <time>2014-09-14T08:04:28.000Z</time>
      </trkpt>
      <trkpt lat="43.87859" lon="3.22399">
        <ele>806</ele>
        <time>2014-09-14T08:04:30.000Z</time>
      </trkpt>
      <trkpt lat="43.87859" lon="3.22399">
        <ele>806</ele>
        <time>2014-09-14T08:04:32.000Z</time>
      </trkpt>
      <trkpt lat="43.87855" lon="3.22391">
        <ele>807</ele>
        <time>2014-09-14T08:04:34.000Z</time>
      </trkpt>
      <trkpt lat="43.87855" lon="3.22391">
        <ele>807</ele>
        <time>2014-09-14T08:04:36.000Z</time>
      </trkpt>
      <trkpt lat="43.87855" lon="3.22391">
        <ele>807</ele>
        <time>2014-09-14T08:04:38.000Z</time>
      </trkpt>
      <trkpt lat="43.87855" lon="3.22391">
        <ele>807</ele>
        <time>2014-09-14T08:04:40.000Z</time>
      </trkpt>
      <trkpt lat="43.87854" lon="3.22382">
        <ele>812</ele>
        <time>2014-09-14T08:04:42.000Z</time>
      </trkpt>
      <trkpt lat="43.87854" lon="3.22382">
        <ele>812</ele>
        <time>2014-09-14T08:04:48.000Z</time>
      </trkpt>
      <trkpt lat="43.87854" lon="3.22382">
        <ele>812</ele>
        <time>2014-09-14T08:04:58.000Z</time>
      </trkpt>
      <trkpt lat="43.87854" lon="3.22382">
        <ele>812</ele>
        <time>2014-09-14T08:05:02.000Z</time>
      </trkpt>
      <trkpt lat="43.87841" lon="3.22366">
        <ele>818</ele>
        <time>2014-09-14T08:05:20.000Z</time>
      </trkpt>
      <trkpt lat="43.87834" lon="3.22355">
        <ele>819</ele>
        <time>2014-09-14T08:05:22.000Z</time>
      </trkpt>
      <trkpt lat="43.87828" lon="3.22346">
        <ele>819</ele>
        <time>2014-09-14T08:05:24.000Z</time>
      </trkpt>
      <trkpt lat="43.87822" lon="3.22339">
        <ele>820</ele>
        <time>2014-09-14T08:05:26.000Z</time>
      </trkpt>
      <trkpt lat="43.87815" lon="3.22331">
        <ele>820</ele>
        <time>2014-09-14T08:05:28.000Z</time>
      </trkpt>
      <trkpt lat="43.87799" lon="3.22311">
        <ele>818</ele>
        <time>2014-09-14T08:05:30.000Z</time>
      </trkpt>
      <trkpt lat="43.8779" lon="3.22303">
        <ele>819</ele>
        <time>2014-09-14T08:05:32.000Z</time>
      </trkpt>
      <trkpt lat="43.87782" lon="3.22299">
        <ele>818</ele>
        <time>2014-09-14T08:05:34.000Z</time>
      </trkpt>
      <trkpt lat="43.87782" lon="3.22299">
        <ele>818</ele>
        <time>2014-09-14T08:05:37.000Z</time>
      </trkpt>
      <trkpt lat="43.87777" lon="3.22295">
        <ele>819</ele>
        <time>2014-09-14T08:05:39.000Z</time>
      </trkpt>
      <trkpt lat="43.87777" lon="3.22295">
        <ele>819</ele>
        <time>2014-09-14T08:05:41.000Z</time>
      </trkpt>
      <trkpt lat="43.87767" lon="3.22291">
        <ele>816</ele>
        <time>2014-09-14T08:05:43.000Z</time>
      </trkpt>
      <trkpt lat="43.87757" lon="3.22293">
        <ele>815</ele>
        <time>2014-09-14T08:05:47.000Z</time>
      </trkpt>
      <trkpt lat="43.87745" lon="3.22298">
        <ele>815</ele>
        <time>2014-09-14T08:05:51.000Z</time>
      </trkpt>
      <trkpt lat="43.87738" lon="3.22303">
        <ele>814</ele>
        <time>2014-09-14T08:05:53.000Z</time>
      </trkpt>
      <trkpt lat="43.87731" lon="3.22306">
        <ele>813</ele>
        <time>2014-09-14T08:05:55.000Z</time>
      </trkpt>
      <trkpt lat="43.87725" lon="3.22309">
        <ele>813</ele>
        <time>2014-09-14T08:05:57.000Z</time>
      </trkpt>
      <trkpt lat="43.8772" lon="3.22314">
        <ele>813</ele>
        <time>2014-09-14T08:05:59.000Z</time>
      </trkpt>
      <trkpt lat="43.87715" lon="3.22319">
        <ele>813</ele>
        <time>2014-09-14T08:06:01.000Z</time>
      </trkpt>
      <trkpt lat="43.8771" lon="3.22326">
        <ele>809</ele>
        <time>2014-09-14T08:06:03.000Z</time>
      </trkpt>
      <trkpt lat="43.87705" lon="3.22335">
        <ele>807</ele>
        <time>2014-09-14T08:06:05.000Z</time>
      </trkpt>
      <trkpt lat="43.87698" lon="3.22342">
        <ele>807</ele>
        <time>2014-09-14T08:06:07.000Z</time>
      </trkpt>
      <trkpt lat="43.8769" lon="3.22347">
        <ele>808</ele>
        <time>2014-09-14T08:06:09.000Z</time>
      </trkpt>
      <trkpt lat="43.87681" lon="3.22349">
        <ele>805</ele>
        <time>2014-09-14T08:06:11.000Z</time>
      </trkpt>
      <trkpt lat="43.87672" lon="3.22351">
        <ele>803</ele>
        <time>2014-09-14T08:06:13.000Z</time>
      </trkpt>
      <trkpt lat="43.87659" lon="3.22353">
        <ele>803</ele>
        <time>2014-09-14T08:06:15.000Z</time>
      </trkpt>
      <trkpt lat="43.87645" lon="3.22353">
        <ele>802</ele>
        <time>2014-09-14T08:06:17.000Z</time>
      </trkpt>
      <trkpt lat="43.87632" lon="3.22353">
        <ele>803</ele>
        <time>2014-09-14T08:06:19.000Z</time>
      </trkpt>
      <trkpt lat="43.87621" lon="3.22351">
        <ele>802</ele>
        <time>2014-09-14T08:06:22.000Z</time>
      </trkpt>
      <trkpt lat="43.87602" lon="3.22353">
        <ele>804</ele>
        <time>2014-09-14T08:06:25.000Z</time>
      </trkpt>
      <trkpt lat="43.87593" lon="3.22364">
        <ele>804</ele>
        <time>2014-09-14T08:06:27.000Z</time>
      </trkpt>
      <trkpt lat="43.87585" lon="3.2236">
        <ele>803</ele>
        <time>2014-09-14T08:06:29.000Z</time>
      </trkpt>
      <trkpt lat="43.87585" lon="3.2236">
        <ele>803</ele>
        <time>2014-09-14T08:06:31.000Z</time>
      </trkpt>
      <trkpt lat="43.87578" lon="3.22367">
        <ele>803</ele>
        <time>2014-09-14T08:06:33.000Z</time>
      </trkpt>
      <trkpt lat="43.87572" lon="3.22371">
        <ele>803</ele>
        <time>2014-09-14T08:06:35.000Z</time>
      </trkpt>
      <trkpt lat="43.87564" lon="3.22373">
        <ele>801</ele>
        <time>2014-09-14T08:06:37.000Z</time>
      </trkpt>
      <trkpt lat="43.87556" lon="3.22373">
        <ele>801</ele>
        <time>2014-09-14T08:06:39.000Z</time>
      </trkpt>
      <trkpt lat="43.87548" lon="3.22372">
        <ele>800</ele>
        <time>2014-09-14T08:06:41.000Z</time>
      </trkpt>
      <trkpt lat="43.8754" lon="3.22375">
        <ele>800</ele>
        <time>2014-09-14T08:06:43.000Z</time>
      </trkpt>
      <trkpt lat="43.87532" lon="3.22376">
        <ele>801</ele>
        <time>2014-09-14T08:06:45.000Z</time>
      </trkpt>
      <trkpt lat="43.87524" lon="3.22375">
        <ele>800</ele>
        <time>2014-09-14T08:06:47.000Z</time>
      </trkpt>
      <trkpt lat="43.87517" lon="3.22375">
        <ele>800</ele>
        <time>2014-09-14T08:06:49.000Z</time>
      </trkpt>
      <trkpt lat="43.87517" lon="3.22375">
        <ele>800</ele>
        <time>2014-09-14T08:06:51.000Z</time>
      </trkpt>
      <trkpt lat="43.87513" lon="3.22366">
        <ele>801</ele>
        <time>2014-09-14T08:06:53.000Z</time>
      </trkpt>
      <trkpt lat="43.87513" lon="3.22366">
        <ele>801</ele>
        <time>2014-09-14T08:06:55.000Z</time>
      </trkpt>
      <trkpt lat="43.87513" lon="3.22366">
        <ele>801</ele>
        <time>2014-09-14T08:06:57.000Z</time>
      </trkpt>
      <trkpt lat="43.87513" lon="3.22366">
        <ele>801</ele>
        <time>2014-09-14T08:06:59.000Z</time>
      </trkpt>
      <trkpt lat="43.87513" lon="3.22366">
        <ele>801</ele>
        <time>2014-09-14T08:07:01.000Z</time>
      </trkpt>
      <trkpt lat="43.87513" lon="3.22366">
        <ele>801</ele>
        <time>2014-09-14T08:07:03.000Z</time>
      </trkpt>
      <trkpt lat="43.87517" lon="3.22356">
        <ele>796</ele>
        <time>2014-09-14T08:07:07.000Z</time>
      </trkpt>
      <trkpt lat="43.87517" lon="3.22356">
        <ele>796</ele>
        <time>2014-09-14T08:07:13.000Z</time>
      </trkpt>
      <trkpt lat="43.87517" lon="3.22356">
        <ele>796</ele>
        <time>2014-09-14T08:07:15.000Z</time>
      </trkpt>
      <trkpt lat="43.87526" lon="3.22348">
        <ele>793</ele>
        <time>2014-09-14T08:12:57.000Z</time>
      </trkpt>
      <trkpt lat="43.87532" lon="3.22343">
        <ele>793</ele>
        <time>2014-09-14T08:12:59.000Z</time>
      </trkpt>
      <trkpt lat="43.87535" lon="3.22339">
        <ele>793</ele>
        <time>2014-09-14T08:13:01.000Z</time>
      </trkpt>
      <trkpt lat="43.87539" lon="3.22335">
        <ele>793</ele>
        <time>2014-09-14T08:13:03.000Z</time>
      </trkpt>
      <trkpt lat="43.87541" lon="3.22332">
        <ele>793</ele>
        <time>2014-09-14T08:13:05.000Z</time>
      </trkpt>
      <trkpt lat="43.87546" lon="3.22326">
        <ele>792</ele>
        <time>2014-09-14T08:13:07.000Z</time>
      </trkpt>
      <trkpt lat="43.87546" lon="3.22326">
        <ele>792</ele>
        <time>2014-09-14T08:13:09.000Z</time>
      </trkpt>
      <trkpt lat="43.87546" lon="3.22326">
        <ele>792</ele>
        <time>2014-09-14T08:13:11.000Z</time>
      </trkpt>
      <trkpt lat="43.87546" lon="3.22326">
        <ele>792</ele>
        <time>2014-09-14T08:13:13.000Z</time>
      </trkpt>
      <trkpt lat="43.87546" lon="3.22326">
        <ele>792</ele>
        <time>2014-09-14T08:13:15.000Z</time>
      </trkpt>
      <trkpt lat="43.87531" lon="3.22337">
        <ele>799</ele>
        <time>2014-09-14T08:13:47.000Z</time>
      </trkpt>
      <trkpt lat="43.87526" lon="3.22343">
        <ele>800</ele>
        <time>2014-09-14T08:13:51.000Z</time>
      </trkpt>
      <trkpt lat="43.87526" lon="3.22343">
        <ele>800</ele>
        <time>2014-09-14T08:13:55.000Z</time>
      </trkpt>
      <trkpt lat="43.87521" lon="3.2235">
        <ele>800</ele>
        <time>2014-09-14T08:13:57.000Z</time>
      </trkpt>
      <trkpt lat="43.87521" lon="3.2235">
        <ele>800</ele>
        <time>2014-09-14T08:13:59.000Z</time>
      </trkpt>
      <trkpt lat="43.87521" lon="3.2235">
        <ele>800</ele>
        <time>2014-09-14T08:14:01.000Z</time>
      </trkpt>
      <trkpt lat="43.87521" lon="3.2235">
        <ele>800</ele>
        <time>2014-09-14T08:14:03.000Z</time>
      </trkpt>
      <trkpt lat="43.87521" lon="3.2235">
        <ele>800</ele>
        <time>2014-09-14T08:14:05.000Z</time>
      </trkpt>
      <trkpt lat="43.87521" lon="3.2235">
        <ele>800</ele>
        <time>2014-09-14T08:14:13.000Z</time>
      </trkpt>
      <trkpt lat="43.87521" lon="3.2235">
        <ele>800</ele>
        <time>2014-09-14T08:14:15.000Z</time>
      </trkpt>
      <trkpt lat="43.87524" lon="3.22346">
        <ele>798</ele>
        <time>2014-09-14T08:16:12.000Z</time>
      </trkpt>
      <trkpt lat="43.87524" lon="3.22346">
        <ele>798</ele>
        <time>2014-09-14T08:16:14.000Z</time>
      </trkpt>
      <trkpt lat="43.87524" lon="3.22346">
        <ele>798</ele>
        <time>2014-09-14T08:16:16.000Z</time>
      </trkpt>
      <trkpt lat="43.87524" lon="3.22346">
        <ele>798</ele>
        <time>2014-09-14T08:16:18.000Z</time>
      </trkpt>
      <trkpt lat="43.87531" lon="3.22332">
        <ele>797</ele>
        <time>2014-09-14T08:17:22.000Z</time>
      </trkpt>
      <trkpt lat="43.87535" lon="3.22321">
        <ele>797</ele>
        <time>2014-09-14T08:17:24.000Z</time>
      </trkpt>
      <trkpt lat="43.87537" lon="3.22312">
        <ele>797</ele>
        <time>2014-09-14T08:17:26.000Z</time>
      </trkpt>
      <trkpt lat="43.87539" lon="3.22304">
        <ele>795</ele>
        <time>2014-09-14T08:17:28.000Z</time>
      </trkpt>
      <trkpt lat="43.8754" lon="3.22297">
        <ele>797</ele>
        <time>2014-09-14T08:17:30.000Z</time>
      </trkpt>
      <trkpt lat="43.87542" lon="3.22283">
        <ele>797</ele>
        <time>2014-09-14T08:17:32.000Z</time>
      </trkpt>
      <trkpt lat="43.87543" lon="3.22274">
        <ele>798</ele>
        <time>2014-09-14T08:17:36.000Z</time>
      </trkpt>
      <trkpt lat="43.87545" lon="3.22262">
        <ele>800</ele>
        <time>2014-09-14T08:17:39.000Z</time>
      </trkpt>
      <trkpt lat="43.87549" lon="3.22251">
        <ele>799</ele>
        <time>2014-09-14T08:17:43.000Z</time>
      </trkpt>
      <trkpt lat="43.87553" lon="3.22237">
        <ele>800</ele>
        <time>2014-09-14T08:17:47.000Z</time>
      </trkpt>
      <trkpt lat="43.87555" lon="3.22223">
        <ele>799</ele>
        <time>2014-09-14T08:17:51.000Z</time>
      </trkpt>
      <trkpt lat="43.87554" lon="3.22205">
        <ele>800</ele>
        <time>2014-09-14T08:17:55.000Z</time>
      </trkpt>
      <trkpt lat="43.87551" lon="3.22193">
        <ele>799</ele>
        <time>2014-09-14T08:17:57.000Z</time>
      </trkpt>
      <trkpt lat="43.87548" lon="3.22179">
        <ele>799</ele>
        <time>2014-09-14T08:17:59.000Z</time>
      </trkpt>
      <trkpt lat="43.87547" lon="3.22164">
        <ele>799</ele>
        <time>2014-09-14T08:18:01.000Z</time>
      </trkpt>
      <trkpt lat="43.87545" lon="3.22149">
        <ele>800</ele>
        <time>2014-09-14T08:18:03.000Z</time>
      </trkpt>
      <trkpt lat="43.87541" lon="3.22132">
        <ele>798</ele>
        <time>2014-09-14T08:18:05.000Z</time>
      </trkpt>
      <trkpt lat="43.87542" lon="3.22118">
        <ele>798</ele>
        <time>2014-09-14T08:18:07.000Z</time>
      </trkpt>
      <trkpt lat="43.87547" lon="3.22105">
        <ele>799</ele>
        <time>2014-09-14T08:18:09.000Z</time>
      </trkpt>
      <trkpt lat="43.87548" lon="3.2209">
        <ele>795</ele>
        <time>2014-09-14T08:18:11.000Z</time>
      </trkpt>
      <trkpt lat="43.87552" lon="3.22072">
        <ele>796</ele>
        <time>2014-09-14T08:18:13.000Z</time>
      </trkpt>
      <trkpt lat="43.87552" lon="3.22054">
        <ele>796</ele>
        <time>2014-09-14T08:18:15.000Z</time>
      </trkpt>
      <trkpt lat="43.87551" lon="3.22034">
        <ele>797</ele>
        <time>2014-09-14T08:18:17.000Z</time>
      </trkpt>
      <trkpt lat="43.87543" lon="3.22017">
        <ele>795</ele>
        <time>2014-09-14T08:18:19.000Z</time>
      </trkpt>
      <trkpt lat="43.87535" lon="3.22002">
        <ele>793</ele>
        <time>2014-09-14T08:18:21.000Z</time>
      </trkpt>
      <trkpt lat="43.87531" lon="3.21983">
        <ele>793</ele>
        <time>2014-09-14T08:18:23.000Z</time>
      </trkpt>
      <trkpt lat="43.87528" lon="3.21967">
        <ele>792</ele>
        <time>2014-09-14T08:18:25.000Z</time>
      </trkpt>
      <trkpt lat="43.87524" lon="3.2195">
        <ele>792</ele>
        <time>2014-09-14T08:18:27.000Z</time>
      </trkpt>
      <trkpt lat="43.87522" lon="3.21933">
        <ele>792</ele>
        <time>2014-09-14T08:18:29.000Z</time>
      </trkpt>
      <trkpt lat="43.87521" lon="3.21917">
        <ele>792</ele>
        <time>2014-09-14T08:18:31.000Z</time>
      </trkpt>
      <trkpt lat="43.87521" lon="3.21902">
        <ele>792</ele>
        <time>2014-09-14T08:18:33.000Z</time>
      </trkpt>
      <trkpt lat="43.87512" lon="3.21886">
        <ele>789</ele>
        <time>2014-09-14T08:18:35.000Z</time>
      </trkpt>
      <trkpt lat="43.8751" lon="3.21874">
        <ele>789</ele>
        <time>2014-09-14T08:18:37.000Z</time>
      </trkpt>
      <trkpt lat="43.87507" lon="3.21855">
        <ele>787</ele>
        <time>2014-09-14T08:18:39.000Z</time>
      </trkpt>
      <trkpt lat="43.87502" lon="3.21842">
        <ele>789</ele>
        <time>2014-09-14T08:18:41.000Z</time>
      </trkpt>
      <trkpt lat="43.87502" lon="3.21827">
        <ele>788</ele>
        <time>2014-09-14T08:18:43.000Z</time>
      </trkpt>
      <trkpt lat="43.87507" lon="3.21813">
        <ele>790</ele>
        <time>2014-09-14T08:18:45.000Z</time>
      </trkpt>
      <trkpt lat="43.87515" lon="3.21807">
        <ele>791</ele>
        <time>2014-09-14T08:18:47.000Z</time>
      </trkpt>
      <trkpt lat="43.87525" lon="3.21797">
        <ele>793</ele>
        <time>2014-09-14T08:18:49.000Z</time>
      </trkpt>
      <trkpt lat="43.87536" lon="3.21781">
        <ele>794</ele>
        <time>2014-09-14T08:18:51.000Z</time>
      </trkpt>
      <trkpt lat="43.8755" lon="3.21771">
        <ele>795</ele>
        <time>2014-09-14T08:18:54.000Z</time>
      </trkpt>
      <trkpt lat="43.87562" lon="3.21762">
        <ele>794</ele>
        <time>2014-09-14T08:18:56.000Z</time>
      </trkpt>
      <trkpt lat="43.87572" lon="3.21756">
        <ele>794</ele>
        <time>2014-09-14T08:18:58.000Z</time>
      </trkpt>
      <trkpt lat="43.8758" lon="3.21748">
        <ele>794</ele>
        <time>2014-09-14T08:19:00.000Z</time>
      </trkpt>
      <trkpt lat="43.87586" lon="3.21738">
        <ele>795</ele>
        <time>2014-09-14T08:19:02.000Z</time>
      </trkpt>
      <trkpt lat="43.87586" lon="3.21725">
        <ele>797</ele>
        <time>2014-09-14T08:19:04.000Z</time>
      </trkpt>
      <trkpt lat="43.87586" lon="3.21713">
        <ele>798</ele>
        <time>2014-09-14T08:19:06.000Z</time>
      </trkpt>
      <trkpt lat="43.87585" lon="3.21699">
        <ele>797</ele>
        <time>2014-09-14T08:19:08.000Z</time>
      </trkpt>
      <trkpt lat="43.87587" lon="3.21687">
        <ele>797</ele>
        <time>2014-09-14T08:19:10.000Z</time>
      </trkpt>
      <trkpt lat="43.87591" lon="3.21676">
        <ele>798</ele>
        <time>2014-09-14T08:19:12.000Z</time>
      </trkpt>
      <trkpt lat="43.8759" lon="3.21665">
        <ele>798</ele>
        <time>2014-09-14T08:19:14.000Z</time>
      </trkpt>
      <trkpt lat="43.87587" lon="3.21652">
        <ele>799</ele>
        <time>2014-09-14T08:19:16.000Z</time>
      </trkpt>
      <trkpt lat="43.87577" lon="3.21636">
        <ele>800</ele>
        <time>2014-09-14T08:19:18.000Z</time>
      </trkpt>
      <trkpt lat="43.8757" lon="3.21625">
        <ele>801</ele>
        <time>2014-09-14T08:19:20.000Z</time>
      </trkpt>
      <trkpt lat="43.87561" lon="3.2162">
        <ele>801</ele>
        <time>2014-09-14T08:19:22.000Z</time>
      </trkpt>
      <trkpt lat="43.87553" lon="3.21618">
        <ele>801</ele>
        <time>2014-09-14T08:19:24.000Z</time>
      </trkpt>
      <trkpt lat="43.87542" lon="3.21618">
        <ele>800</ele>
        <time>2014-09-14T08:19:26.000Z</time>
      </trkpt>
      <trkpt lat="43.87529" lon="3.21624">
        <ele>801</ele>
        <time>2014-09-14T08:19:28.000Z</time>
      </trkpt>
      <trkpt lat="43.87516" lon="3.21625">
        <ele>801</ele>
        <time>2014-09-14T08:19:30.000Z</time>
      </trkpt>
      <trkpt lat="43.87506" lon="3.21629">
        <ele>800</ele>
        <time>2014-09-14T08:19:32.000Z</time>
      </trkpt>
      <trkpt lat="43.87494" lon="3.21634">
        <ele>803</ele>
        <time>2014-09-14T08:19:34.000Z</time>
      </trkpt>
      <trkpt lat="43.87489" lon="3.21644">
        <ele>801</ele>
        <time>2014-09-14T08:19:36.000Z</time>
      </trkpt>
      <trkpt lat="43.87481" lon="3.21655">
        <ele>801</ele>
        <time>2014-09-14T08:19:38.000Z</time>
      </trkpt>
      <trkpt lat="43.87471" lon="3.21662">
        <ele>800</ele>
        <time>2014-09-14T08:19:40.000Z</time>
      </trkpt>
      <trkpt lat="43.87464" lon="3.21653">
        <ele>799</ele>
        <time>2014-09-14T08:19:42.000Z</time>
      </trkpt>
      <trkpt lat="43.87458" lon="3.21645">
        <ele>798</ele>
        <time>2014-09-14T08:19:44.000Z</time>
      </trkpt>
      <trkpt lat="43.87449" lon="3.21637">
        <ele>798</ele>
        <time>2014-09-14T08:19:46.000Z</time>
      </trkpt>
      <trkpt lat="43.87445" lon="3.21625">
        <ele>798</ele>
        <time>2014-09-14T08:19:48.000Z</time>
      </trkpt>
      <trkpt lat="43.87442" lon="3.21613">
        <ele>799</ele>
        <time>2014-09-14T08:19:50.000Z</time>
      </trkpt>
      <trkpt lat="43.87439" lon="3.21601">
        <ele>799</ele>
        <time>2014-09-14T08:19:52.000Z</time>
      </trkpt>
      <trkpt lat="43.87431" lon="3.21594">
        <ele>800</ele>
        <time>2014-09-14T08:19:54.000Z</time>
      </trkpt>
      <trkpt lat="43.87418" lon="3.21586">
        <ele>797</ele>
        <time>2014-09-14T08:19:56.000Z</time>
      </trkpt>
      <trkpt lat="43.87406" lon="3.21584">
        <ele>797</ele>
        <time>2014-09-14T08:19:58.000Z</time>
      </trkpt>
      <trkpt lat="43.87397" lon="3.21587">
        <ele>798</ele>
        <time>2014-09-14T08:20:00.000Z</time>
      </trkpt>
      <trkpt lat="43.8739" lon="3.21588">
        <ele>798</ele>
        <time>2014-09-14T08:20:02.000Z</time>
      </trkpt>
      <trkpt lat="43.8739" lon="3.21588">
        <ele>798</ele>
        <time>2014-09-14T08:20:04.000Z</time>
      </trkpt>
      <trkpt lat="43.87378" lon="3.21584">
        <ele>798</ele>
        <time>2014-09-14T08:20:06.000Z</time>
      </trkpt>
      <trkpt lat="43.8737" lon="3.21584">
        <ele>802</ele>
        <time>2014-09-14T08:20:08.000Z</time>
      </trkpt>
      <trkpt lat="43.8737" lon="3.21584">
        <ele>802</ele>
        <time>2014-09-14T08:20:10.000Z</time>
      </trkpt>
      <trkpt lat="43.87362" lon="3.21585">
        <ele>803</ele>
        <time>2014-09-14T08:20:12.000Z</time>
      </trkpt>
      <trkpt lat="43.87362" lon="3.21585">
        <ele>803</ele>
        <time>2014-09-14T08:20:14.000Z</time>
      </trkpt>
      <trkpt lat="43.87352" lon="3.21587">
        <ele>805</ele>
        <time>2014-09-14T08:20:16.000Z</time>
      </trkpt>
      <trkpt lat="43.87352" lon="3.21587">
        <ele>805</ele>
        <time>2014-09-14T08:20:18.000Z</time>
      </trkpt>
      <trkpt lat="43.87354" lon="3.21576">
        <ele>807</ele>
        <time>2014-09-14T08:20:20.000Z</time>
      </trkpt>
      <trkpt lat="43.8736" lon="3.21571">
        <ele>808</ele>
        <time>2014-09-14T08:20:22.000Z</time>
      </trkpt>
      <trkpt lat="43.87366" lon="3.21566">
        <ele>809</ele>
        <time>2014-09-14T08:20:24.000Z</time>
      </trkpt>
      <trkpt lat="43.87371" lon="3.2156">
        <ele>809</ele>
        <time>2014-09-14T08:20:26.000Z</time>
      </trkpt>
      <trkpt lat="43.87376" lon="3.21552">
        <ele>810</ele>
        <time>2014-09-14T08:20:28.000Z</time>
      </trkpt>
      <trkpt lat="43.87379" lon="3.21544">
        <ele>811</ele>
        <time>2014-09-14T08:20:30.000Z</time>
      </trkpt>
      <trkpt lat="43.87383" lon="3.21536">
        <ele>810</ele>
        <time>2014-09-14T08:20:32.000Z</time>
      </trkpt>
      <trkpt lat="43.87386" lon="3.21527">
        <ele>811</ele>
        <time>2014-09-14T08:20:34.000Z</time>
      </trkpt>
      <trkpt lat="43.87388" lon="3.21513">
        <ele>811</ele>
        <time>2014-09-14T08:20:36.000Z</time>
      </trkpt>
      <trkpt lat="43.87387" lon="3.21495">
        <ele>812</ele>
        <time>2014-09-14T08:20:38.000Z</time>
      </trkpt>
      <trkpt lat="43.87387" lon="3.21477">
        <ele>811</ele>
        <time>2014-09-14T08:20:41.000Z</time>
      </trkpt>
      <trkpt lat="43.87383" lon="3.21469">
        <ele>811</ele>
        <time>2014-09-14T08:20:43.000Z</time>
      </trkpt>
      <trkpt lat="43.87377" lon="3.21462">
        <ele>809</ele>
        <time>2014-09-14T08:20:45.000Z</time>
      </trkpt>
      <trkpt lat="43.87366" lon="3.21458">
        <ele>809</ele>
        <time>2014-09-14T08:20:47.000Z</time>
      </trkpt>
      <trkpt lat="43.87357" lon="3.21451">
        <ele>808</ele>
        <time>2014-09-14T08:20:49.000Z</time>
      </trkpt>
      <trkpt lat="43.87347" lon="3.21446">
        <ele>808</ele>
        <time>2014-09-14T08:20:51.000Z</time>
      </trkpt>
      <trkpt lat="43.87335" lon="3.2144">
        <ele>809</ele>
        <time>2014-09-14T08:20:53.000Z</time>
      </trkpt>
      <trkpt lat="43.87324" lon="3.21433">
        <ele>810</ele>
        <time>2014-09-14T08:20:56.000Z</time>
      </trkpt>
      <trkpt lat="43.87317" lon="3.21424">
        <ele>808</ele>
        <time>2014-09-14T08:20:58.000Z</time>
      </trkpt>
      <trkpt lat="43.87312" lon="3.21413">
        <ele>807</ele>
        <time>2014-09-14T08:21:00.000Z</time>
      </trkpt>
      <trkpt lat="43.87309" lon="3.21401">
        <ele>807</ele>
        <time>2014-09-14T08:21:02.000Z</time>
      </trkpt>
      <trkpt lat="43.87307" lon="3.21394">
        <ele>808</ele>
        <time>2014-09-14T08:21:04.000Z</time>
      </trkpt>
      <trkpt lat="43.87299" lon="3.21385">
        <ele>807</ele>
        <time>2014-09-14T08:21:06.000Z</time>
      </trkpt>
      <trkpt lat="43.87292" lon="3.2138">
        <ele>807</ele>
        <time>2014-09-14T08:21:09.000Z</time>
      </trkpt>
      <trkpt lat="43.87285" lon="3.2138">
        <ele>802</ele>
        <time>2014-09-14T08:21:11.000Z</time>
      </trkpt>
      <trkpt lat="43.87285" lon="3.2138">
        <ele>802</ele>
        <time>2014-09-14T08:21:13.000Z</time>
      </trkpt>
      <trkpt lat="43.87281" lon="3.21369">
        <ele>801</ele>
        <time>2014-09-14T08:21:15.000Z</time>
      </trkpt>
      <trkpt lat="43.87281" lon="3.21369">
        <ele>801</ele>
        <time>2014-09-14T08:21:17.000Z</time>
      </trkpt>
      <trkpt lat="43.87276" lon="3.21359">
        <ele>800</ele>
        <time>2014-09-14T08:21:19.000Z</time>
      </trkpt>
      <trkpt lat="43.87276" lon="3.21359">
        <ele>800</ele>
        <time>2014-09-14T08:21:21.000Z</time>
      </trkpt>
      <trkpt lat="43.8727" lon="3.21352">
        <ele>800</ele>
        <time>2014-09-14T08:21:23.000Z</time>
      </trkpt>
      <trkpt lat="43.8727" lon="3.21352">
        <ele>800</ele>
        <time>2014-09-14T08:21:25.000Z</time>
      </trkpt>
      <trkpt lat="43.87265" lon="3.21344">
        <ele>801</ele>
        <time>2014-09-14T08:21:27.000Z</time>
      </trkpt>
      <trkpt lat="43.87265" lon="3.21344">
        <ele>801</ele>
        <time>2014-09-14T08:21:29.000Z</time>
      </trkpt>
      <trkpt lat="43.87259" lon="3.21337">
        <ele>801</ele>
        <time>2014-09-14T08:21:31.000Z</time>
      </trkpt>
      <trkpt lat="43.87259" lon="3.21337">
        <ele>801</ele>
        <time>2014-09-14T08:21:33.000Z</time>
      </trkpt>
      <trkpt lat="43.87258" lon="3.21326">
        <ele>804</ele>
        <time>2014-09-14T08:21:35.000Z</time>
      </trkpt>
      <trkpt lat="43.8726" lon="3.21316">
        <ele>810</ele>
        <time>2014-09-14T08:21:39.000Z</time>
      </trkpt>
      <trkpt lat="43.8726" lon="3.21316">
        <ele>810</ele>
        <time>2014-09-14T08:21:41.000Z</time>
      </trkpt>
      <trkpt lat="43.8726" lon="3.21306">
        <ele>813</ele>
        <time>2014-09-14T08:21:43.000Z</time>
      </trkpt>
      <trkpt lat="43.8726" lon="3.21306">
        <ele>813</ele>
        <time>2014-09-14T08:21:45.000Z</time>
      </trkpt>
      <trkpt lat="43.8726" lon="3.21295">
        <ele>814</ele>
        <time>2014-09-14T08:21:47.000Z</time>
      </trkpt>
      <trkpt lat="43.8726" lon="3.21295">
        <ele>814</ele>
        <time>2014-09-14T08:21:49.000Z</time>
      </trkpt>
      <trkpt lat="43.87259" lon="3.21284">
        <ele>815</ele>
        <time>2014-09-14T08:21:51.000Z</time>
      </trkpt>
      <trkpt lat="43.87257" lon="3.21271">
        <ele>816</ele>
        <time>2014-09-14T08:21:55.000Z</time>
      </trkpt>
      <trkpt lat="43.87255" lon="3.21259">
        <ele>820</ele>
        <time>2014-09-14T08:21:59.000Z</time>
      </trkpt>
      <trkpt lat="43.87254" lon="3.21247">
        <ele>821</ele>
        <time>2014-09-14T08:22:03.000Z</time>
      </trkpt>
      <trkpt lat="43.87255" lon="3.21233">
        <ele>818</ele>
        <time>2014-09-14T08:22:07.000Z</time>
      </trkpt>
      <trkpt lat="43.87258" lon="3.21217">
        <ele>823</ele>
        <time>2014-09-14T08:22:11.000Z</time>
      </trkpt>
      <trkpt lat="43.8726" lon="3.21209">
        <ele>825</ele>
        <time>2014-09-14T08:22:13.000Z</time>
      </trkpt>
      <trkpt lat="43.8726" lon="3.21201">
        <ele>826</ele>
        <time>2014-09-14T08:22:15.000Z</time>
      </trkpt>
      <trkpt lat="43.87261" lon="3.21192">
        <ele>825</ele>
        <time>2014-09-14T08:22:17.000Z</time>
      </trkpt>
      <trkpt lat="43.87262" lon="3.21184">
        <ele>825</ele>
        <time>2014-09-14T08:22:19.000Z</time>
      </trkpt>
      <trkpt lat="43.87262" lon="3.21169">
        <ele>818</ele>
        <time>2014-09-14T08:22:23.000Z</time>
      </trkpt>
      <trkpt lat="43.87262" lon="3.21169">
        <ele>818</ele>
        <time>2014-09-14T08:22:25.000Z</time>
      </trkpt>
      <trkpt lat="43.87262" lon="3.21169">
        <ele>818</ele>
        <time>2014-09-14T08:22:27.000Z</time>
      </trkpt>
      <trkpt lat="43.87263" lon="3.21159">
        <ele>820</ele>
        <time>2014-09-14T08:22:29.000Z</time>
      </trkpt>
      <trkpt lat="43.87263" lon="3.21159">
        <ele>820</ele>
        <time>2014-09-14T08:22:31.000Z</time>
      </trkpt>
      <trkpt lat="43.87265" lon="3.21148">
        <ele>821</ele>
        <time>2014-09-14T08:22:33.000Z</time>
      </trkpt>
      <trkpt lat="43.87268" lon="3.21137">
        <ele>824</ele>
        <time>2014-09-14T08:22:37.000Z</time>
      </trkpt>
      <trkpt lat="43.87269" lon="3.21132">
        <ele>823</ele>
        <time>2014-09-14T08:22:41.000Z</time>
      </trkpt>
      <trkpt lat="43.8727" lon="3.21127">
        <ele>824</ele>
        <time>2014-09-14T08:22:43.000Z</time>
      </trkpt>
      <trkpt lat="43.87271" lon="3.21122">
        <ele>824</ele>
        <time>2014-09-14T08:22:45.000Z</time>
      </trkpt>
      <trkpt lat="43.87272" lon="3.21116">
        <ele>823</ele>
        <time>2014-09-14T08:22:47.000Z</time>
      </trkpt>
      <trkpt lat="43.87273" lon="3.21111">
        <ele>823</ele>
        <time>2014-09-14T08:22:49.000Z</time>
      </trkpt>
      <trkpt lat="43.87274" lon="3.21098">
        <ele>824</ele>
        <time>2014-09-14T08:22:51.000Z</time>
      </trkpt>
      <trkpt lat="43.87275" lon="3.21084">
        <ele>822</ele>
        <time>2014-09-14T08:22:55.000Z</time>
      </trkpt>
      <trkpt lat="43.87277" lon="3.2107">
        <ele>816</ele>
        <time>2014-09-14T08:22:59.000Z</time>
      </trkpt>
      <trkpt lat="43.87283" lon="3.21058">
        <ele>820</ele>
        <time>2014-09-14T08:23:03.000Z</time>
      </trkpt>
      <trkpt lat="43.87286" lon="3.21051">
        <ele>819</ele>
        <time>2014-09-14T08:23:05.000Z</time>
      </trkpt>
      <trkpt lat="43.87288" lon="3.21043">
        <ele>817</ele>
        <time>2014-09-14T08:23:07.000Z</time>
      </trkpt>
      <trkpt lat="43.87289" lon="3.21034">
        <ele>818</ele>
        <time>2014-09-14T08:23:09.000Z</time>
      </trkpt>
      <trkpt lat="43.8729" lon="3.21024">
        <ele>820</ele>
        <time>2014-09-14T08:23:11.000Z</time>
      </trkpt>
      <trkpt lat="43.87291" lon="3.21015">
        <ele>823</ele>
        <time>2014-09-14T08:23:13.000Z</time>
      </trkpt>
      <trkpt lat="43.87289" lon="3.21">
        <ele>826</ele>
        <time>2014-09-14T08:23:17.000Z</time>
      </trkpt>
      <trkpt lat="43.87287" lon="3.20991">
        <ele>827</ele>
        <time>2014-09-14T08:23:19.000Z</time>
      </trkpt>
      <trkpt lat="43.87284" lon="3.20982">
        <ele>828</ele>
        <time>2014-09-14T08:23:21.000Z</time>
      </trkpt>
      <trkpt lat="43.87282" lon="3.20973">
        <ele>825</ele>
        <time>2014-09-14T08:23:23.000Z</time>
      </trkpt>
      <trkpt lat="43.8728" lon="3.20963">
        <ele>827</ele>
        <time>2014-09-14T08:23:25.000Z</time>
      </trkpt>
      <trkpt lat="43.87278" lon="3.20954">
        <ele>826</ele>
        <time>2014-09-14T08:23:27.000Z</time>
      </trkpt>
      <trkpt lat="43.87278" lon="3.20945">
        <ele>824</ele>
        <time>2014-09-14T08:23:29.000Z</time>
      </trkpt>
      <trkpt lat="43.8728" lon="3.20937">
        <ele>824</ele>
        <time>2014-09-14T08:23:31.000Z</time>
      </trkpt>
      <trkpt lat="43.87282" lon="3.20929">
        <ele>823</ele>
        <time>2014-09-14T08:23:33.000Z</time>
      </trkpt>
      <trkpt lat="43.87285" lon="3.20922">
        <ele>824</ele>
        <time>2014-09-14T08:23:35.000Z</time>
      </trkpt>
      <trkpt lat="43.87288" lon="3.20915">
        <ele>825</ele>
        <time>2014-09-14T08:23:37.000Z</time>
      </trkpt>
      <trkpt lat="43.87288" lon="3.20915">
        <ele>825</ele>
        <time>2014-09-14T08:23:39.000Z</time>
      </trkpt>
      <trkpt lat="43.87292" lon="3.20902">
        <ele>826</ele>
        <time>2014-09-14T08:23:41.000Z</time>
      </trkpt>
      <trkpt lat="43.87292" lon="3.20902">
        <ele>826</ele>
        <time>2014-09-14T08:23:43.000Z</time>
      </trkpt>
      <trkpt lat="43.87294" lon="3.20889">
        <ele>830</ele>
        <time>2014-09-14T08:23:45.000Z</time>
      </trkpt>
      <trkpt lat="43.87294" lon="3.20889">
        <ele>830</ele>
        <time>2014-09-14T08:23:47.000Z</time>
      </trkpt>
      <trkpt lat="43.87296" lon="3.20876">
        <ele>832</ele>
        <time>2014-09-14T08:23:49.000Z</time>
      </trkpt>
      <trkpt lat="43.87296" lon="3.20876">
        <ele>832</ele>
        <time>2014-09-14T08:23:51.000Z</time>
      </trkpt>
      <trkpt lat="43.87296" lon="3.20864">
        <ele>832</ele>
        <time>2014-09-14T08:23:53.000Z</time>
      </trkpt>
      <trkpt lat="43.87296" lon="3.20864">
        <ele>832</ele>
        <time>2014-09-14T08:23:55.000Z</time>
      </trkpt>
      <trkpt lat="43.87297" lon="3.20852">
        <ele>836</ele>
        <time>2014-09-14T08:23:57.000Z</time>
      </trkpt>
      <trkpt lat="43.87297" lon="3.20852">
        <ele>836</ele>
        <time>2014-09-14T08:23:59.000Z</time>
      </trkpt>
      <trkpt lat="43.87297" lon="3.20843">
        <ele>837</ele>
        <time>2014-09-14T08:24:01.000Z</time>
      </trkpt>
      <trkpt lat="43.87297" lon="3.20843">
        <ele>837</ele>
        <time>2014-09-14T08:24:03.000Z</time>
      </trkpt>
      <trkpt lat="43.87297" lon="3.20843">
        <ele>837</ele>
        <time>2014-09-14T08:24:05.000Z</time>
      </trkpt>
      <trkpt lat="43.87297" lon="3.20843">
        <ele>837</ele>
        <time>2014-09-14T08:24:07.000Z</time>
      </trkpt>
      <trkpt lat="43.87297" lon="3.20843">
        <ele>837</ele>
        <time>2014-09-14T08:24:09.000Z</time>
      </trkpt>
      <trkpt lat="43.87295" lon="3.20835">
        <ele>836</ele>
        <time>2014-09-14T08:24:13.000Z</time>
      </trkpt>
      <trkpt lat="43.87295" lon="3.20835">
        <ele>836</ele>
        <time>2014-09-14T08:24:15.000Z</time>
      </trkpt>
      <trkpt lat="43.87295" lon="3.20835">
        <ele>836</ele>
        <time>2014-09-14T08:24:17.000Z</time>
      </trkpt>
      <trkpt lat="43.87295" lon="3.20835">
        <ele>836</ele>
        <time>2014-09-14T08:24:19.000Z</time>
      </trkpt>
      <trkpt lat="43.87295" lon="3.20835">
        <ele>836</ele>
        <time>2014-09-14T08:24:21.000Z</time>
      </trkpt>
      <trkpt lat="43.87291" lon="3.20816">
        <ele>839</ele>
        <time>2014-09-14T08:24:27.000Z</time>
      </trkpt>
      <trkpt lat="43.87285" lon="3.20804">
        <ele>839</ele>
        <time>2014-09-14T08:24:31.000Z</time>
      </trkpt>
      <trkpt lat="43.87281" lon="3.20792">
        <ele>837</ele>
        <time>2014-09-14T08:24:35.000Z</time>
      </trkpt>
      <trkpt lat="43.87277" lon="3.20782">
        <ele>839</ele>
        <time>2014-09-14T08:24:39.000Z</time>
      </trkpt>
      <trkpt lat="43.87272" lon="3.20771">
        <ele>843</ele>
        <time>2014-09-14T08:24:43.000Z</time>
      </trkpt>
      <trkpt lat="43.87268" lon="3.20761">
        <ele>842</ele>
        <time>2014-09-14T08:24:47.000Z</time>
      </trkpt>
      <trkpt lat="43.87263" lon="3.2075">
        <ele>840</ele>
        <time>2014-09-14T08:24:51.000Z</time>
      </trkpt>
      <trkpt lat="43.87258" lon="3.2074">
        <ele>840</ele>
        <time>2014-09-14T08:24:55.000Z</time>
      </trkpt>
      <trkpt lat="43.87252" lon="3.20727">
        <ele>839</ele>
        <time>2014-09-14T08:24:59.000Z</time>
      </trkpt>
      <trkpt lat="43.8725" lon="3.20721">
        <ele>845</ele>
        <time>2014-09-14T08:25:03.000Z</time>
      </trkpt>
      <trkpt lat="43.87247" lon="3.20714">
        <ele>845</ele>
        <time>2014-09-14T08:25:05.000Z</time>
      </trkpt>
      <trkpt lat="43.87244" lon="3.20707">
        <ele>846</ele>
        <time>2014-09-14T08:25:07.000Z</time>
      </trkpt>
      <trkpt lat="43.87241" lon="3.20699">
        <ele>845</ele>
        <time>2014-09-14T08:25:09.000Z</time>
      </trkpt>
      <trkpt lat="43.87239" lon="3.20692">
        <ele>848</ele>
        <time>2014-09-14T08:25:11.000Z</time>
      </trkpt>
      <trkpt lat="43.87233" lon="3.20677">
        <ele>848</ele>
        <time>2014-09-14T08:25:13.000Z</time>
      </trkpt>
      <trkpt lat="43.87229" lon="3.2067">
        <ele>846</ele>
        <time>2014-09-14T08:25:15.000Z</time>
      </trkpt>
      <trkpt lat="43.87225" lon="3.20665">
        <ele>845</ele>
        <time>2014-09-14T08:25:17.000Z</time>
      </trkpt>
      <trkpt lat="43.87221" lon="3.20659">
        <ele>844</ele>
        <time>2014-09-14T08:25:19.000Z</time>
      </trkpt>
      <trkpt lat="43.87221" lon="3.20659">
        <ele>844</ele>
        <time>2014-09-14T08:25:21.000Z</time>
      </trkpt>
      <trkpt lat="43.87214" lon="3.20646">
        <ele>841</ele>
        <time>2014-09-14T08:25:23.000Z</time>
      </trkpt>
      <trkpt lat="43.8721" lon="3.20639">
        <ele>839</ele>
        <time>2014-09-14T08:25:25.000Z</time>
      </trkpt>
      <trkpt lat="43.8721" lon="3.20639">
        <ele>839</ele>
        <time>2014-09-14T08:25:27.000Z</time>
      </trkpt>
      <trkpt lat="43.87206" lon="3.20626">
        <ele>837</ele>
        <time>2014-09-14T08:25:29.000Z</time>
      </trkpt>
      <trkpt lat="43.87205" lon="3.20618">
        <ele>837</ele>
        <time>2014-09-14T08:25:31.000Z</time>
      </trkpt>
      <trkpt lat="43.87202" lon="3.20611">
        <ele>839</ele>
        <time>2014-09-14T08:25:33.000Z</time>
      </trkpt>
      <trkpt lat="43.87198" lon="3.20604">
        <ele>836</ele>
        <time>2014-09-14T08:25:35.000Z</time>
      </trkpt>
      <trkpt lat="43.87193" lon="3.20596">
        <ele>834</ele>
        <time>2014-09-14T08:25:37.000Z</time>
      </trkpt>
      <trkpt lat="43.87189" lon="3.20586">
        <ele>832</ele>
        <time>2014-09-14T08:25:39.000Z</time>
      </trkpt>
      <trkpt lat="43.87186" lon="3.20577">
        <ele>832</ele>
        <time>2014-09-14T08:25:41.000Z</time>
      </trkpt>
      <trkpt lat="43.87183" lon="3.20567">
        <ele>831</ele>
        <time>2014-09-14T08:25:43.000Z</time>
      </trkpt>
      <trkpt lat="43.8718" lon="3.20558">
        <ele>830</ele>
        <time>2014-09-14T08:25:45.000Z</time>
      </trkpt>
      <trkpt lat="43.87177" lon="3.20549">
        <ele>835</ele>
        <time>2014-09-14T08:25:47.000Z</time>
      </trkpt>
      <trkpt lat="43.87174" lon="3.20541">
        <ele>834</ele>
        <time>2014-09-14T08:25:49.000Z</time>
      </trkpt>
      <trkpt lat="43.87172" lon="3.20533">
        <ele>835</ele>
        <time>2014-09-14T08:25:51.000Z</time>
      </trkpt>
      <trkpt lat="43.87167" lon="3.20525">
        <ele>834</ele>
        <time>2014-09-14T08:25:53.000Z</time>
      </trkpt>
      <trkpt lat="43.87162" lon="3.20519">
        <ele>835</ele>
        <time>2014-09-14T08:25:55.000Z</time>
      </trkpt>
      <trkpt lat="43.87156" lon="3.20514">
        <ele>834</ele>
        <time>2014-09-14T08:25:57.000Z</time>
      </trkpt>
      <trkpt lat="43.87149" lon="3.20509">
        <ele>836</ele>
        <time>2014-09-14T08:25:59.000Z</time>
      </trkpt>
      <trkpt lat="43.87142" lon="3.20505">
        <ele>836</ele>
        <time>2014-09-14T08:26:01.000Z</time>
      </trkpt>
      <trkpt lat="43.87133" lon="3.205">
        <ele>836</ele>
        <time>2014-09-14T08:26:03.000Z</time>
      </trkpt>
      <trkpt lat="43.87123" lon="3.20497">
        <ele>837</ele>
        <time>2014-09-14T08:26:05.000Z</time>
      </trkpt>
      <trkpt lat="43.87115" lon="3.20493">
        <ele>838</ele>
        <time>2014-09-14T08:26:07.000Z</time>
      </trkpt>
      <trkpt lat="43.87108" lon="3.20486">
        <ele>838</ele>
        <time>2014-09-14T08:26:09.000Z</time>
      </trkpt>
      <trkpt lat="43.87102" lon="3.20475">
        <ele>839</ele>
        <time>2014-09-14T08:26:11.000Z</time>
      </trkpt>
      <trkpt lat="43.87097" lon="3.20466">
        <ele>838</ele>
        <time>2014-09-14T08:26:13.000Z</time>
      </trkpt>
      <trkpt lat="43.87093" lon="3.20457">
        <ele>837</ele>
        <time>2014-09-14T08:26:15.000Z</time>
      </trkpt>
      <trkpt lat="43.8709" lon="3.20448">
        <ele>837</ele>
        <time>2014-09-14T08:26:17.000Z</time>
      </trkpt>
      <trkpt lat="43.8709" lon="3.20448">
        <ele>837</ele>
        <time>2014-09-14T08:26:19.000Z</time>
      </trkpt>
      <trkpt lat="43.87087" lon="3.20431">
        <ele>836</ele>
        <time>2014-09-14T08:26:21.000Z</time>
      </trkpt>
      <trkpt lat="43.87088" lon="3.2042">
        <ele>836</ele>
        <time>2014-09-14T08:26:23.000Z</time>
      </trkpt>
      <trkpt lat="43.8709" lon="3.20409">
        <ele>836</ele>
        <time>2014-09-14T08:26:25.000Z</time>
      </trkpt>
      <trkpt lat="43.87092" lon="3.20397">
        <ele>835</ele>
        <time>2014-09-14T08:26:27.000Z</time>
      </trkpt>
      <trkpt lat="43.8709" lon="3.20373">
        <ele>837</ele>
        <time>2014-09-14T08:26:30.000Z</time>
      </trkpt>
      <trkpt lat="43.8709" lon="3.2036">
        <ele>837</ele>
        <time>2014-09-14T08:26:32.000Z</time>
      </trkpt>
      <trkpt lat="43.87085" lon="3.20332">
        <ele>833</ele>
        <time>2014-09-14T08:26:35.000Z</time>
      </trkpt>
      <trkpt lat="43.87083" lon="3.20317">
        <ele>833</ele>
        <time>2014-09-14T08:26:37.000Z</time>
      </trkpt>
      <trkpt lat="43.87078" lon="3.20302">
        <ele>832</ele>
        <time>2014-09-14T08:26:39.000Z</time>
      </trkpt>
      <trkpt lat="43.87075" lon="3.20288">
        <ele>835</ele>
        <time>2014-09-14T08:26:41.000Z</time>
      </trkpt>
      <trkpt lat="43.87067" lon="3.20274">
        <ele>834</ele>
        <time>2014-09-14T08:26:43.000Z</time>
      </trkpt>
      <trkpt lat="43.8706" lon="3.20264">
        <ele>836</ele>
        <time>2014-09-14T08:26:45.000Z</time>
      </trkpt>
      <trkpt lat="43.87054" lon="3.20255">
        <ele>837</ele>
        <time>2014-09-14T08:26:47.000Z</time>
      </trkpt>
      <trkpt lat="43.87048" lon="3.2025">
        <ele>838</ele>
        <time>2014-09-14T08:26:49.000Z</time>
      </trkpt>
      <trkpt lat="43.87046" lon="3.20241">
        <ele>841</ele>
        <time>2014-09-14T08:26:51.000Z</time>
      </trkpt>
      <trkpt lat="43.87042" lon="3.20228">
        <ele>840</ele>
        <time>2014-09-14T08:26:53.000Z</time>
      </trkpt>
      <trkpt lat="43.87043" lon="3.20213">
        <ele>840</ele>
        <time>2014-09-14T08:26:55.000Z</time>
      </trkpt>
      <trkpt lat="43.87038" lon="3.20196">
        <ele>839</ele>
        <time>2014-09-14T08:26:57.000Z</time>
      </trkpt>
      <trkpt lat="43.87037" lon="3.20182">
        <ele>841</ele>
        <time>2014-09-14T08:27:01.000Z</time>
      </trkpt>
      <trkpt lat="43.87037" lon="3.20182">
        <ele>841</ele>
        <time>2014-09-14T08:27:03.000Z</time>
      </trkpt>
      <trkpt lat="43.87035" lon="3.2017">
        <ele>844</ele>
        <time>2014-09-14T08:27:05.000Z</time>
      </trkpt>
      <trkpt lat="43.87035" lon="3.2017">
        <ele>844</ele>
        <time>2014-09-14T08:27:07.000Z</time>
      </trkpt>
      <trkpt lat="43.87028" lon="3.20163">
        <ele>845</ele>
        <time>2014-09-14T08:27:09.000Z</time>
      </trkpt>
      <trkpt lat="43.87028" lon="3.20163">
        <ele>845</ele>
        <time>2014-09-14T08:27:11.000Z</time>
      </trkpt>
      <trkpt lat="43.87024" lon="3.20155">
        <ele>844</ele>
        <time>2014-09-14T08:27:13.000Z</time>
      </trkpt>
      <trkpt lat="43.87024" lon="3.20155">
        <ele>844</ele>
        <time>2014-09-14T08:27:15.000Z</time>
      </trkpt>
      <trkpt lat="43.87016" lon="3.20143">
        <ele>843</ele>
        <time>2014-09-14T08:27:17.000Z</time>
      </trkpt>
      <trkpt lat="43.87012" lon="3.20135">
        <ele>845</ele>
        <time>2014-09-14T08:27:19.000Z</time>
      </trkpt>
      <trkpt lat="43.87005" lon="3.20124">
        <ele>843</ele>
        <time>2014-09-14T08:27:23.000Z</time>
      </trkpt>
      <trkpt lat="43.87001" lon="3.20118">
        <ele>842</ele>
        <time>2014-09-14T08:27:25.000Z</time>
      </trkpt>
      <trkpt lat="43.86996" lon="3.20112">
        <ele>842</ele>
        <time>2014-09-14T08:27:27.000Z</time>
      </trkpt>
      <trkpt lat="43.86991" lon="3.20106">
        <ele>842</ele>
        <time>2014-09-14T08:27:29.000Z</time>
      </trkpt>
      <trkpt lat="43.86987" lon="3.20101">
        <ele>845</ele>
        <time>2014-09-14T08:27:31.000Z</time>
      </trkpt>
      <trkpt lat="43.86979" lon="3.20091">
        <ele>847</ele>
        <time>2014-09-14T08:27:35.000Z</time>
      </trkpt>
      <trkpt lat="43.86979" lon="3.20091">
        <ele>847</ele>
        <time>2014-09-14T08:27:37.000Z</time>
      </trkpt>
      <trkpt lat="43.86974" lon="3.20079">
        <ele>850</ele>
        <time>2014-09-14T08:27:39.000Z</time>
      </trkpt>
      <trkpt lat="43.86974" lon="3.20079">
        <ele>850</ele>
        <time>2014-09-14T08:27:41.000Z</time>
      </trkpt>
      <trkpt lat="43.86971" lon="3.20066">
        <ele>848</ele>
        <time>2014-09-14T08:27:43.000Z</time>
      </trkpt>
      <trkpt lat="43.86971" lon="3.20066">
        <ele>848</ele>
        <time>2014-09-14T08:27:45.000Z</time>
      </trkpt>
      <trkpt lat="43.86969" lon="3.20051">
        <ele>851</ele>
        <time>2014-09-14T08:27:47.000Z</time>
      </trkpt>
      <trkpt lat="43.86968" lon="3.20043">
        <ele>849</ele>
        <time>2014-09-14T08:27:49.000Z</time>
      </trkpt>
      <trkpt lat="43.86966" lon="3.20035">
        <ele>848</ele>
        <time>2014-09-14T08:27:51.000Z</time>
      </trkpt>
      <trkpt lat="43.86964" lon="3.20027">
        <ele>845</ele>
        <time>2014-09-14T08:27:53.000Z</time>
      </trkpt>
      <trkpt lat="43.86961" lon="3.20019">
        <ele>844</ele>
        <time>2014-09-14T08:27:55.000Z</time>
      </trkpt>
      <trkpt lat="43.86959" lon="3.20011">
        <ele>846</ele>
        <time>2014-09-14T08:27:57.000Z</time>
      </trkpt>
      <trkpt lat="43.86956" lon="3.20003">
        <ele>845</ele>
        <time>2014-09-14T08:27:59.000Z</time>
      </trkpt>
      <trkpt lat="43.86952" lon="3.1999">
        <ele>847</ele>
        <time>2014-09-14T08:28:03.000Z</time>
      </trkpt>
      <trkpt lat="43.86949" lon="3.19982">
        <ele>846</ele>
        <time>2014-09-14T08:28:05.000Z</time>
      </trkpt>
      <trkpt lat="43.86946" lon="3.19971">
        <ele>847</ele>
        <time>2014-09-14T08:28:07.000Z</time>
      </trkpt>
      <trkpt lat="43.86942" lon="3.1996">
        <ele>848</ele>
        <time>2014-09-14T08:28:09.000Z</time>
      </trkpt>
      <trkpt lat="43.8694" lon="3.1995">
        <ele>847</ele>
        <time>2014-09-14T08:28:11.000Z</time>
      </trkpt>
      <trkpt lat="43.86937" lon="3.19943">
        <ele>844</ele>
        <time>2014-09-14T08:28:13.000Z</time>
      </trkpt>
      <trkpt lat="43.86937" lon="3.19943">
        <ele>844</ele>
        <time>2014-09-14T08:28:15.000Z</time>
      </trkpt>
      <trkpt lat="43.8693" lon="3.1993">
        <ele>845</ele>
        <time>2014-09-14T08:28:17.000Z</time>
      </trkpt>
      <trkpt lat="43.8693" lon="3.1993">
        <ele>845</ele>
        <time>2014-09-14T08:28:19.000Z</time>
      </trkpt>
      <trkpt lat="43.86923" lon="3.19921">
        <ele>845</ele>
        <time>2014-09-14T08:28:21.000Z</time>
      </trkpt>
      <trkpt lat="43.86923" lon="3.19921">
        <ele>845</ele>
        <time>2014-09-14T08:28:23.000Z</time>
      </trkpt>
      <trkpt lat="43.86919" lon="3.19915">
        <ele>845</ele>
        <time>2014-09-14T08:28:25.000Z</time>
      </trkpt>
      <trkpt lat="43.86919" lon="3.19915">
        <ele>845</ele>
        <time>2014-09-14T08:28:27.000Z</time>
      </trkpt>
      <trkpt lat="43.86915" lon="3.19905">
        <ele>847</ele>
        <time>2014-09-14T08:28:29.000Z</time>
      </trkpt>
      <trkpt lat="43.86913" lon="3.19897">
        <ele>845</ele>
        <time>2014-09-14T08:28:31.000Z</time>
      </trkpt>
      <trkpt lat="43.86912" lon="3.19888">
        <ele>846</ele>
        <time>2014-09-14T08:28:33.000Z</time>
      </trkpt>
      <trkpt lat="43.8691" lon="3.19878">
        <ele>846</ele>
        <time>2014-09-14T08:28:35.000Z</time>
      </trkpt>
      <trkpt lat="43.86909" lon="3.19863">
        <ele>845</ele>
        <time>2014-09-14T08:28:37.000Z</time>
      </trkpt>
      <trkpt lat="43.86912" lon="3.19844">
        <ele>847</ele>
        <time>2014-09-14T08:28:39.000Z</time>
      </trkpt>
      <trkpt lat="43.86909" lon="3.1983">
        <ele>847</ele>
        <time>2014-09-14T08:28:41.000Z</time>
      </trkpt>
      <trkpt lat="43.86893" lon="3.19805">
        <ele>844</ele>
        <time>2014-09-14T08:28:44.000Z</time>
      </trkpt>
      <trkpt lat="43.86882" lon="3.19786">
        <ele>843</ele>
        <time>2014-09-14T08:28:47.000Z</time>
      </trkpt>
      <trkpt lat="43.86876" lon="3.19775">
        <ele>843</ele>
        <time>2014-09-14T08:28:49.000Z</time>
      </trkpt>
      <trkpt lat="43.86869" lon="3.19759">
        <ele>843</ele>
        <time>2014-09-14T08:28:51.000Z</time>
      </trkpt>
      <trkpt lat="43.86862" lon="3.19744">
        <ele>846</ele>
        <time>2014-09-14T08:28:53.000Z</time>
      </trkpt>
      <trkpt lat="43.86848" lon="3.19742">
        <ele>844</ele>
        <time>2014-09-14T08:28:56.000Z</time>
      </trkpt>
      <trkpt lat="43.86834" lon="3.19741">
        <ele>840</ele>
        <time>2014-09-14T08:28:58.000Z</time>
      </trkpt>
      <trkpt lat="43.86824" lon="3.19744">
        <ele>840</ele>
        <time>2014-09-14T08:29:01.000Z</time>
      </trkpt>
      <trkpt lat="43.86824" lon="3.19744">
        <ele>840</ele>
        <time>2014-09-14T08:29:03.000Z</time>
      </trkpt>
      <trkpt lat="43.86811" lon="3.19728">
        <ele>838</ele>
        <time>2014-09-14T08:29:06.000Z</time>
      </trkpt>
      <trkpt lat="43.86803" lon="3.19721">
        <ele>837</ele>
        <time>2014-09-14T08:29:08.000Z</time>
      </trkpt>
      <trkpt lat="43.86798" lon="3.19716">
        <ele>838</ele>
        <time>2014-09-14T08:29:10.000Z</time>
      </trkpt>
      <trkpt lat="43.86789" lon="3.19713">
        <ele>834</ele>
        <time>2014-09-14T08:29:12.000Z</time>
      </trkpt>
      <trkpt lat="43.86779" lon="3.19711">
        <ele>836</ele>
        <time>2014-09-14T08:29:14.000Z</time>
      </trkpt>
      <trkpt lat="43.86771" lon="3.19699">
        <ele>837</ele>
        <time>2014-09-14T08:29:16.000Z</time>
      </trkpt>
      <trkpt lat="43.86765" lon="3.19684">
        <ele>838</ele>
        <time>2014-09-14T08:29:18.000Z</time>
      </trkpt>
      <trkpt lat="43.86757" lon="3.19675">
        <ele>837</ele>
        <time>2014-09-14T08:29:20.000Z</time>
      </trkpt>
      <trkpt lat="43.86748" lon="3.19666">
        <ele>836</ele>
        <time>2014-09-14T08:29:22.000Z</time>
      </trkpt>
      <trkpt lat="43.86737" lon="3.19656">
        <ele>834</ele>
        <time>2014-09-14T08:29:24.000Z</time>
      </trkpt>
      <trkpt lat="43.8673" lon="3.1964">
        <ele>834</ele>
        <time>2014-09-14T08:29:28.000Z</time>
      </trkpt>
      <trkpt lat="43.86728" lon="3.19628">
        <ele>833</ele>
        <time>2014-09-14T08:29:30.000Z</time>
      </trkpt>
      <trkpt lat="43.86724" lon="3.19603">
        <ele>831</ele>
        <time>2014-09-14T08:29:33.000Z</time>
      </trkpt>
      <trkpt lat="43.86723" lon="3.19587">
        <ele>830</ele>
        <time>2014-09-14T08:29:35.000Z</time>
      </trkpt>
      <trkpt lat="43.86731" lon="3.19573">
        <ele>830</ele>
        <time>2014-09-14T08:29:37.000Z</time>
      </trkpt>
      <trkpt lat="43.86732" lon="3.1955">
        <ele>829</ele>
        <time>2014-09-14T08:29:39.000Z</time>
      </trkpt>
      <trkpt lat="43.86729" lon="3.19532">
        <ele>828</ele>
        <time>2014-09-14T08:29:41.000Z</time>
      </trkpt>
      <trkpt lat="43.86727" lon="3.19515">
        <ele>826</ele>
        <time>2014-09-14T08:29:43.000Z</time>
      </trkpt>
      <trkpt lat="43.86731" lon="3.19505">
        <ele>828</ele>
        <time>2014-09-14T08:29:46.000Z</time>
      </trkpt>
      <trkpt lat="43.86731" lon="3.19505">
        <ele>828</ele>
        <time>2014-09-14T08:29:48.000Z</time>
      </trkpt>
      <trkpt lat="43.86736" lon="3.19491">
        <ele>831</ele>
        <time>2014-09-14T08:29:50.000Z</time>
      </trkpt>
      <trkpt lat="43.8674" lon="3.19484">
        <ele>830</ele>
        <time>2014-09-14T08:29:52.000Z</time>
      </trkpt>
      <trkpt lat="43.86745" lon="3.19478">
        <ele>834</ele>
        <time>2014-09-14T08:29:54.000Z</time>
      </trkpt>
      <trkpt lat="43.8675" lon="3.19472">
        <ele>833</ele>
        <time>2014-09-14T08:29:56.000Z</time>
      </trkpt>
      <trkpt lat="43.86756" lon="3.19468">
        <ele>835</ele>
        <time>2014-09-14T08:29:58.000Z</time>
      </trkpt>
      <trkpt lat="43.86761" lon="3.19463">
        <ele>835</ele>
        <time>2014-09-14T08:30:00.000Z</time>
      </trkpt>
      <trkpt lat="43.86766" lon="3.19458">
        <ele>835</ele>
        <time>2014-09-14T08:30:02.000Z</time>
      </trkpt>
      <trkpt lat="43.86771" lon="3.19454">
        <ele>835</ele>
        <time>2014-09-14T08:30:04.000Z</time>
      </trkpt>
      <trkpt lat="43.86777" lon="3.1945">
        <ele>835</ele>
        <time>2014-09-14T08:30:06.000Z</time>
      </trkpt>
      <trkpt lat="43.86782" lon="3.19446">
        <ele>837</ele>
        <time>2014-09-14T08:30:08.000Z</time>
      </trkpt>
      <trkpt lat="43.86788" lon="3.19442">
        <ele>838</ele>
        <time>2014-09-14T08:30:10.000Z</time>
      </trkpt>
      <trkpt lat="43.86797" lon="3.19437">
        <ele>837</ele>
        <time>2014-09-14T08:30:12.000Z</time>
      </trkpt>
      <trkpt lat="43.86805" lon="3.19432">
        <ele>837</ele>
        <time>2014-09-14T08:30:14.000Z</time>
      </trkpt>
      <trkpt lat="43.86812" lon="3.19423">
        <ele>835</ele>
        <time>2014-09-14T08:30:16.000Z</time>
      </trkpt>
      <trkpt lat="43.86816" lon="3.19406">
        <ele>834</ele>
        <time>2014-09-14T08:30:18.000Z</time>
      </trkpt>
      <trkpt lat="43.86818" lon="3.19392">
        <ele>834</ele>
        <time>2014-09-14T08:30:20.000Z</time>
      </trkpt>
      <trkpt lat="43.86824" lon="3.19382">
        <ele>834</ele>
        <time>2014-09-14T08:30:22.000Z</time>
      </trkpt>
      <trkpt lat="43.86824" lon="3.19382">
        <ele>834</ele>
        <time>2014-09-14T08:30:24.000Z</time>
      </trkpt>
      <trkpt lat="43.86827" lon="3.19369">
        <ele>834</ele>
        <time>2014-09-14T08:30:26.000Z</time>
      </trkpt>
      <trkpt lat="43.86827" lon="3.1936">
        <ele>834</ele>
        <time>2014-09-14T08:30:28.000Z</time>
      </trkpt>
      <trkpt lat="43.86827" lon="3.19352">
        <ele>834</ele>
        <time>2014-09-14T08:30:30.000Z</time>
      </trkpt>
      <trkpt lat="43.8682" lon="3.19317">
        <ele>832</ele>
        <time>2014-09-14T08:30:34.000Z</time>
      </trkpt>
      <trkpt lat="43.86819" lon="3.193">
        <ele>832</ele>
        <time>2014-09-14T08:30:37.000Z</time>
      </trkpt>
      <trkpt lat="43.86819" lon="3.193">
        <ele>832</ele>
        <time>2014-09-14T08:30:39.000Z</time>
      </trkpt>
      <trkpt lat="43.86821" lon="3.19289">
        <ele>839</ele>
        <time>2014-09-14T08:30:41.000Z</time>
      </trkpt>
      <trkpt lat="43.86819" lon="3.19281">
        <ele>840</ele>
        <time>2014-09-14T08:30:43.000Z</time>
      </trkpt>
      <trkpt lat="43.86819" lon="3.19281">
        <ele>840</ele>
        <time>2014-09-14T08:30:45.000Z</time>
      </trkpt>
      <trkpt lat="43.86818" lon="3.19264">
        <ele>836</ele>
        <time>2014-09-14T08:30:47.000Z</time>
      </trkpt>
      <trkpt lat="43.86818" lon="3.19256">
        <ele>836</ele>
        <time>2014-09-14T08:30:49.000Z</time>
      </trkpt>
      <trkpt lat="43.86818" lon="3.19248">
        <ele>838</ele>
        <time>2014-09-14T08:30:51.000Z</time>
      </trkpt>
      <trkpt lat="43.86816" lon="3.1924">
        <ele>836</ele>
        <time>2014-09-14T08:30:53.000Z</time>
      </trkpt>
      <trkpt lat="43.86814" lon="3.19232">
        <ele>837</ele>
        <time>2014-09-14T08:30:55.000Z</time>
      </trkpt>
      <trkpt lat="43.8681" lon="3.19225">
        <ele>837</ele>
        <time>2014-09-14T08:30:57.000Z</time>
      </trkpt>
      <trkpt lat="43.8681" lon="3.19225">
        <ele>837</ele>
        <time>2014-09-14T08:30:59.000Z</time>
      </trkpt>
      <trkpt lat="43.86802" lon="3.19216">
        <ele>837</ele>
        <time>2014-09-14T08:31:01.000Z</time>
      </trkpt>
      <trkpt lat="43.86802" lon="3.19216">
        <ele>837</ele>
        <time>2014-09-14T08:31:03.000Z</time>
      </trkpt>
      <trkpt lat="43.86794" lon="3.19207">
        <ele>843</ele>
        <time>2014-09-14T08:31:05.000Z</time>
      </trkpt>
      <trkpt lat="43.86794" lon="3.19207">
        <ele>843</ele>
        <time>2014-09-14T08:31:07.000Z</time>
      </trkpt>
      <trkpt lat="43.86787" lon="3.19202">
        <ele>844</ele>
        <time>2014-09-14T08:31:09.000Z</time>
      </trkpt>
      <trkpt lat="43.86787" lon="3.19202">
        <ele>844</ele>
        <time>2014-09-14T08:31:11.000Z</time>
      </trkpt>
      <trkpt lat="43.86781" lon="3.19195">
        <ele>847</ele>
        <time>2014-09-14T08:31:13.000Z</time>
      </trkpt>
      <trkpt lat="43.86781" lon="3.19195">
        <ele>847</ele>
        <time>2014-09-14T08:31:15.000Z</time>
      </trkpt>
      <trkpt lat="43.86776" lon="3.19186">
        <ele>850</ele>
        <time>2014-09-14T08:31:17.000Z</time>
      </trkpt>
      <trkpt lat="43.86773" lon="3.19172">
        <ele>847</ele>
        <time>2014-09-14T08:31:21.000Z</time>
      </trkpt>
      <trkpt lat="43.86772" lon="3.19164">
        <ele>847</ele>
        <time>2014-09-14T08:31:23.000Z</time>
      </trkpt>
      <trkpt lat="43.8677" lon="3.19156">
        <ele>846</ele>
        <time>2014-09-14T08:31:25.000Z</time>
      </trkpt>
      <trkpt lat="43.86767" lon="3.19142">
        <ele>843</ele>
        <time>2014-09-14T08:31:29.000Z</time>
      </trkpt>
      <trkpt lat="43.86767" lon="3.19142">
        <ele>843</ele>
        <time>2014-09-14T08:31:31.000Z</time>
      </trkpt>
      <trkpt lat="43.86765" lon="3.19134">
        <ele>842</ele>
        <time>2014-09-14T08:31:33.000Z</time>
      </trkpt>
      <trkpt lat="43.86764" lon="3.19127">
        <ele>845</ele>
        <time>2014-09-14T08:31:35.000Z</time>
      </trkpt>
      <trkpt lat="43.86763" lon="3.1912">
        <ele>846</ele>
        <time>2014-09-14T08:31:37.000Z</time>
      </trkpt>
      <trkpt lat="43.86762" lon="3.19113">
        <ele>847</ele>
        <time>2014-09-14T08:31:39.000Z</time>
      </trkpt>
      <trkpt lat="43.86761" lon="3.19106">
        <ele>845</ele>
        <time>2014-09-14T08:31:41.000Z</time>
      </trkpt>
      <trkpt lat="43.86756" lon="3.1909">
        <ele>844</ele>
        <time>2014-09-14T08:31:43.000Z</time>
      </trkpt>
      <trkpt lat="43.86752" lon="3.19082">
        <ele>845</ele>
        <time>2014-09-14T08:31:45.000Z</time>
      </trkpt>
      <trkpt lat="43.86748" lon="3.19076">
        <ele>845</ele>
        <time>2014-09-14T08:31:47.000Z</time>
      </trkpt>
      <trkpt lat="43.86743" lon="3.1907">
        <ele>848</ele>
        <time>2014-09-14T08:31:49.000Z</time>
      </trkpt>
      <trkpt lat="43.86743" lon="3.1907">
        <ele>848</ele>
        <time>2014-09-14T08:31:51.000Z</time>
      </trkpt>
      <trkpt lat="43.86734" lon="3.19064">
        <ele>849</ele>
        <time>2014-09-14T08:31:53.000Z</time>
      </trkpt>
      <trkpt lat="43.86734" lon="3.19064">
        <ele>849</ele>
        <time>2014-09-14T08:31:55.000Z</time>
      </trkpt>
      <trkpt lat="43.86723" lon="3.19061">
        <ele>851</ele>
        <time>2014-09-14T08:31:57.000Z</time>
      </trkpt>
      <trkpt lat="43.86723" lon="3.19061">
        <ele>851</ele>
        <time>2014-09-14T08:31:59.000Z</time>
      </trkpt>
      <trkpt lat="43.86712" lon="3.19059">
        <ele>851</ele>
        <time>2014-09-14T08:32:01.000Z</time>
      </trkpt>
      <trkpt lat="43.86712" lon="3.19059">
        <ele>851</ele>
        <time>2014-09-14T08:32:03.000Z</time>
      </trkpt>
      <trkpt lat="43.86702" lon="3.19056">
        <ele>850</ele>
        <time>2014-09-14T08:32:05.000Z</time>
      </trkpt>
      <trkpt lat="43.86695" lon="3.19055">
        <ele>850</ele>
        <time>2014-09-14T08:32:07.000Z</time>
      </trkpt>
      <trkpt lat="43.86689" lon="3.19053">
        <ele>853</ele>
        <time>2014-09-14T08:32:09.000Z</time>
      </trkpt>
      <trkpt lat="43.86681" lon="3.19052">
        <ele>852</ele>
        <time>2014-09-14T08:32:11.000Z</time>
      </trkpt>
      <trkpt lat="43.86672" lon="3.19051">
        <ele>854</ele>
        <time>2014-09-14T08:32:13.000Z</time>
      </trkpt>
      <trkpt lat="43.86666" lon="3.1905">
        <ele>853</ele>
        <time>2014-09-14T08:32:15.000Z</time>
      </trkpt>
      <trkpt lat="43.86666" lon="3.1905">
        <ele>853</ele>
        <time>2014-09-14T08:32:17.000Z</time>
      </trkpt>
      <trkpt lat="43.86657" lon="3.19046">
        <ele>853</ele>
        <time>2014-09-14T08:32:19.000Z</time>
      </trkpt>
      <trkpt lat="43.86657" lon="3.19046">
        <ele>853</ele>
        <time>2014-09-14T08:32:21.000Z</time>
      </trkpt>
      <trkpt lat="43.86647" lon="3.19043">
        <ele>853</ele>
        <time>2014-09-14T08:32:23.000Z</time>
      </trkpt>
      <trkpt lat="43.86647" lon="3.19043">
        <ele>853</ele>
        <time>2014-09-14T08:32:25.000Z</time>
      </trkpt>
      <trkpt lat="43.8664" lon="3.19037">
        <ele>853</ele>
        <time>2014-09-14T08:32:27.000Z</time>
      </trkpt>
      <trkpt lat="43.8664" lon="3.19037">
        <ele>853</ele>
        <time>2014-09-14T08:32:29.000Z</time>
      </trkpt>
      <trkpt lat="43.86633" lon="3.19031">
        <ele>853</ele>
        <time>2014-09-14T08:32:31.000Z</time>
      </trkpt>
      <trkpt lat="43.86633" lon="3.19031">
        <ele>853</ele>
        <time>2014-09-14T08:32:33.000Z</time>
      </trkpt>
      <trkpt lat="43.86626" lon="3.19026">
        <ele>856</ele>
        <time>2014-09-14T08:32:35.000Z</time>
      </trkpt>
      <trkpt lat="43.86626" lon="3.19026">
        <ele>856</ele>
        <time>2014-09-14T08:32:37.000Z</time>
      </trkpt>
      <trkpt lat="43.86618" lon="3.19023">
        <ele>856</ele>
        <time>2014-09-14T08:32:39.000Z</time>
      </trkpt>
      <trkpt lat="43.86618" lon="3.19023">
        <ele>856</ele>
        <time>2014-09-14T08:32:41.000Z</time>
      </trkpt>
      <trkpt lat="43.8661" lon="3.19019">
        <ele>854</ele>
        <time>2014-09-14T08:32:43.000Z</time>
      </trkpt>
      <trkpt lat="43.86602" lon="3.19013">
        <ele>856</ele>
        <time>2014-09-14T08:32:47.000Z</time>
      </trkpt>
      <trkpt lat="43.86602" lon="3.19013">
        <ele>856</ele>
        <time>2014-09-14T08:32:49.000Z</time>
      </trkpt>
      <trkpt lat="43.86598" lon="3.19002">
        <ele>854</ele>
        <time>2014-09-14T08:32:51.000Z</time>
      </trkpt>
      <trkpt lat="43.86598" lon="3.19002">
        <ele>854</ele>
        <time>2014-09-14T08:32:53.000Z</time>
      </trkpt>
      <trkpt lat="43.86595" lon="3.18991">
        <ele>860</ele>
        <time>2014-09-14T08:32:55.000Z</time>
      </trkpt>
      <trkpt lat="43.86595" lon="3.18991">
        <ele>860</ele>
        <time>2014-09-14T08:32:57.000Z</time>
      </trkpt>
      <trkpt lat="43.86592" lon="3.18983">
        <ele>860</ele>
        <time>2014-09-14T08:32:59.000Z</time>
      </trkpt>
      <trkpt lat="43.86592" lon="3.18983">
        <ele>860</ele>
        <time>2014-09-14T08:33:01.000Z</time>
      </trkpt>
      <trkpt lat="43.86592" lon="3.18983">
        <ele>860</ele>
        <time>2014-09-14T08:33:03.000Z</time>
      </trkpt>
      <trkpt lat="43.86591" lon="3.18973">
        <ele>862</ele>
        <time>2014-09-14T08:33:07.000Z</time>
      </trkpt>
      <trkpt lat="43.8659" lon="3.18964">
        <ele>862</ele>
        <time>2014-09-14T08:33:09.000Z</time>
      </trkpt>
      <trkpt lat="43.86589" lon="3.18954">
        <ele>863</ele>
        <time>2014-09-14T08:33:11.000Z</time>
      </trkpt>
      <trkpt lat="43.8659" lon="3.18944">
        <ele>863</ele>
        <time>2014-09-14T08:33:13.000Z</time>
      </trkpt>
      <trkpt lat="43.86592" lon="3.18933">
        <ele>863</ele>
        <time>2014-09-14T08:33:15.000Z</time>
      </trkpt>
      <trkpt lat="43.86596" lon="3.18923">
        <ele>864</ele>
        <time>2014-09-14T08:33:17.000Z</time>
      </trkpt>
      <trkpt lat="43.86599" lon="3.18913">
        <ele>860</ele>
        <time>2014-09-14T08:33:19.000Z</time>
      </trkpt>
      <trkpt lat="43.86602" lon="3.18901">
        <ele>860</ele>
        <time>2014-09-14T08:33:21.000Z</time>
      </trkpt>
      <trkpt lat="43.866" lon="3.18887">
        <ele>860</ele>
        <time>2014-09-14T08:33:23.000Z</time>
      </trkpt>
      <trkpt lat="43.86591" lon="3.1887">
        <ele>860</ele>
        <time>2014-09-14T08:33:25.000Z</time>
      </trkpt>
      <trkpt lat="43.86582" lon="3.1886">
        <ele>864</ele>
        <time>2014-09-14T08:33:29.000Z</time>
      </trkpt>
      <trkpt lat="43.86582" lon="3.1886">
        <ele>864</ele>
        <time>2014-09-14T08:33:31.000Z</time>
      </trkpt>
      <trkpt lat="43.86573" lon="3.18851">
        <ele>862</ele>
        <time>2014-09-14T08:33:33.000Z</time>
      </trkpt>
      <trkpt lat="43.86564" lon="3.18841">
        <ele>865</ele>
        <time>2014-09-14T08:33:37.000Z</time>
      </trkpt>
      <trkpt lat="43.86561" lon="3.18834">
        <ele>865</ele>
        <time>2014-09-14T08:33:39.000Z</time>
      </trkpt>
      <trkpt lat="43.86554" lon="3.18822">
        <ele>867</ele>
        <time>2014-09-14T08:33:43.000Z</time>
      </trkpt>
      <trkpt lat="43.86547" lon="3.18815">
        <ele>866</ele>
        <time>2014-09-14T08:33:47.000Z</time>
      </trkpt>
      <trkpt lat="43.86547" lon="3.18815">
        <ele>866</ele>
        <time>2014-09-14T08:33:49.000Z</time>
      </trkpt>
      <trkpt lat="43.8654" lon="3.18811">
        <ele>862</ele>
        <time>2014-09-14T08:33:51.000Z</time>
      </trkpt>
      <trkpt lat="43.8654" lon="3.18811">
        <ele>862</ele>
        <time>2014-09-14T08:33:53.000Z</time>
      </trkpt>
      <trkpt lat="43.86534" lon="3.18808">
        <ele>864</ele>
        <time>2014-09-14T08:33:55.000Z</time>
      </trkpt>
      <trkpt lat="43.86534" lon="3.18808">
        <ele>864</ele>
        <time>2014-09-14T08:33:57.000Z</time>
      </trkpt>
      <trkpt lat="43.86528" lon="3.18804">
        <ele>864</ele>
        <time>2014-09-14T08:33:59.000Z</time>
      </trkpt>
      <trkpt lat="43.86528" lon="3.18804">
        <ele>864</ele>
        <time>2014-09-14T08:34:01.000Z</time>
      </trkpt>
      <trkpt lat="43.86523" lon="3.18799">
        <ele>866</ele>
        <time>2014-09-14T08:34:03.000Z</time>
      </trkpt>
      <trkpt lat="43.86523" lon="3.18799">
        <ele>866</ele>
        <time>2014-09-14T08:34:05.000Z</time>
      </trkpt>
      <trkpt lat="43.86517" lon="3.18795">
        <ele>867</ele>
        <time>2014-09-14T08:34:07.000Z</time>
      </trkpt>
      <trkpt lat="43.86517" lon="3.18795">
        <ele>867</ele>
        <time>2014-09-14T08:34:09.000Z</time>
      </trkpt>
      <trkpt lat="43.86512" lon="3.18789">
        <ele>868</ele>
        <time>2014-09-14T08:34:11.000Z</time>
      </trkpt>
      <trkpt lat="43.86512" lon="3.18789">
        <ele>868</ele>
        <time>2014-09-14T08:34:13.000Z</time>
      </trkpt>
      <trkpt lat="43.86512" lon="3.18789">
        <ele>868</ele>
        <time>2014-09-14T08:34:15.000Z</time>
      </trkpt>
      <trkpt lat="43.86512" lon="3.18789">
        <ele>868</ele>
        <time>2014-09-14T08:34:17.000Z</time>
      </trkpt>
      <trkpt lat="43.86512" lon="3.18789">
        <ele>868</ele>
        <time>2014-09-14T08:34:19.000Z</time>
      </trkpt>
      <trkpt lat="43.86512" lon="3.18789">
        <ele>868</ele>
        <time>2014-09-14T08:34:21.000Z</time>
      </trkpt>
      <trkpt lat="43.86507" lon="3.18772">
        <ele>873</ele>
        <time>2014-09-14T08:34:33.000Z</time>
      </trkpt>
      <trkpt lat="43.86503" lon="3.18759">
        <ele>872</ele>
        <time>2014-09-14T08:34:35.000Z</time>
      </trkpt>
      <trkpt lat="43.865" lon="3.18749">
        <ele>871</ele>
        <time>2014-09-14T08:34:37.000Z</time>
      </trkpt>
      <trkpt lat="43.86497" lon="3.1874">
        <ele>870</ele>
        <time>2014-09-14T08:34:39.000Z</time>
      </trkpt>
      <trkpt lat="43.86493" lon="3.18733">
        <ele>871</ele>
        <time>2014-09-14T08:34:41.000Z</time>
      </trkpt>
      <trkpt lat="43.86487" lon="3.18717">
        <ele>873</ele>
        <time>2014-09-14T08:34:43.000Z</time>
      </trkpt>
      <trkpt lat="43.86483" lon="3.18709">
        <ele>876</ele>
        <time>2014-09-14T08:34:45.000Z</time>
      </trkpt>
      <trkpt lat="43.8648" lon="3.18701">
        <ele>878</ele>
        <time>2014-09-14T08:34:47.000Z</time>
      </trkpt>
      <trkpt lat="43.86475" lon="3.18691">
        <ele>878</ele>
        <time>2014-09-14T08:34:49.000Z</time>
      </trkpt>
      <trkpt lat="43.86472" lon="3.18682">
        <ele>877</ele>
        <time>2014-09-14T08:34:51.000Z</time>
      </trkpt>
      <trkpt lat="43.86467" lon="3.18672">
        <ele>874</ele>
        <time>2014-09-14T08:34:53.000Z</time>
      </trkpt>
      <trkpt lat="43.86464" lon="3.18662">
        <ele>874</ele>
        <time>2014-09-14T08:34:55.000Z</time>
      </trkpt>
      <trkpt lat="43.86463" lon="3.18654">
        <ele>878</ele>
        <time>2014-09-14T08:34:57.000Z</time>
      </trkpt>
      <trkpt lat="43.86463" lon="3.18654">
        <ele>878</ele>
        <time>2014-09-14T08:35:00.000Z</time>
      </trkpt>
      <trkpt lat="43.86463" lon="3.18654">
        <ele>878</ele>
        <time>2014-09-14T08:35:02.000Z</time>
      </trkpt>
      <trkpt lat="43.86463" lon="3.18654">
        <ele>878</ele>
        <time>2014-09-14T08:35:04.000Z</time>
      </trkpt>
      <trkpt lat="43.86463" lon="3.18654">
        <ele>878</ele>
        <time>2014-09-14T08:35:06.000Z</time>
      </trkpt>
      <trkpt lat="43.86452" lon="3.18639">
        <ele>881</ele>
        <time>2014-09-14T08:35:26.000Z</time>
      </trkpt>
      <trkpt lat="43.8645" lon="3.1863">
        <ele>881</ele>
        <time>2014-09-14T08:35:34.000Z</time>
      </trkpt>
      <trkpt lat="43.86446" lon="3.18622">
        <ele>881</ele>
        <time>2014-09-14T08:35:40.000Z</time>
      </trkpt>
      <trkpt lat="43.86446" lon="3.18622">
        <ele>881</ele>
        <time>2014-09-14T08:35:42.000Z</time>
      </trkpt>
      <trkpt lat="43.86446" lon="3.18622">
        <ele>881</ele>
        <time>2014-09-14T08:35:44.000Z</time>
      </trkpt>
      <trkpt lat="43.86438" lon="3.18596">
        <ele>882</ele>
        <time>2014-09-14T08:35:54.000Z</time>
      </trkpt>
      <trkpt lat="43.86435" lon="3.18588">
        <ele>884</ele>
        <time>2014-09-14T08:35:56.000Z</time>
      </trkpt>
      <trkpt lat="43.86432" lon="3.18577">
        <ele>882</ele>
        <time>2014-09-14T08:35:58.000Z</time>
      </trkpt>
      <trkpt lat="43.86428" lon="3.18568">
        <ele>884</ele>
        <time>2014-09-14T08:36:00.000Z</time>
      </trkpt>
      <trkpt lat="43.86425" lon="3.18558">
        <ele>882</ele>
        <time>2014-09-14T08:36:02.000Z</time>
      </trkpt>
      <trkpt lat="43.8642" lon="3.18549">
        <ele>880</ele>
        <time>2014-09-14T08:36:04.000Z</time>
      </trkpt>
      <trkpt lat="43.86407" lon="3.18528">
        <ele>878</ele>
        <time>2014-09-14T08:36:07.000Z</time>
      </trkpt>
      <trkpt lat="43.86403" lon="3.18521">
        <ele>880</ele>
        <time>2014-09-14T08:36:12.000Z</time>
      </trkpt>
      <trkpt lat="43.86403" lon="3.18521">
        <ele>880</ele>
        <time>2014-09-14T08:36:14.000Z</time>
      </trkpt>
      <trkpt lat="43.86398" lon="3.1851">
        <ele>885</ele>
        <time>2014-09-14T08:36:18.000Z</time>
      </trkpt>
      <trkpt lat="43.8639" lon="3.18499">
        <ele>883</ele>
        <time>2014-09-14T08:36:22.000Z</time>
      </trkpt>
      <trkpt lat="43.86385" lon="3.18493">
        <ele>883</ele>
        <time>2014-09-14T08:36:24.000Z</time>
      </trkpt>
      <trkpt lat="43.8638" lon="3.18486">
        <ele>884</ele>
        <time>2014-09-14T08:36:26.000Z</time>
      </trkpt>
      <trkpt lat="43.86374" lon="3.18478">
        <ele>883</ele>
        <time>2014-09-14T08:36:28.000Z</time>
      </trkpt>
      <trkpt lat="43.86369" lon="3.18469">
        <ele>883</ele>
        <time>2014-09-14T08:36:30.000Z</time>
      </trkpt>
      <trkpt lat="43.86365" lon="3.18459">
        <ele>883</ele>
        <time>2014-09-14T08:36:32.000Z</time>
      </trkpt>
      <trkpt lat="43.86363" lon="3.18448">
        <ele>883</ele>
        <time>2014-09-14T08:36:34.000Z</time>
      </trkpt>
      <trkpt lat="43.86362" lon="3.18436">
        <ele>885</ele>
        <time>2014-09-14T08:36:36.000Z</time>
      </trkpt>
      <trkpt lat="43.86361" lon="3.18408">
        <ele>885</ele>
        <time>2014-09-14T08:36:39.000Z</time>
      </trkpt>
      <trkpt lat="43.86357" lon="3.18397">
        <ele>885</ele>
        <time>2014-09-14T08:36:41.000Z</time>
      </trkpt>
      <trkpt lat="43.86339" lon="3.18358">
        <ele>878</ele>
        <time>2014-09-14T08:36:45.000Z</time>
      </trkpt>
      <trkpt lat="43.86332" lon="3.18333">
        <ele>881</ele>
        <time>2014-09-14T08:36:49.000Z</time>
      </trkpt>
      <trkpt lat="43.86329" lon="3.18321">
        <ele>881</ele>
        <time>2014-09-14T08:36:51.000Z</time>
      </trkpt>
      <trkpt lat="43.8633" lon="3.18309">
        <ele>881</ele>
        <time>2014-09-14T08:36:53.000Z</time>
      </trkpt>
      <trkpt lat="43.86332" lon="3.18297">
        <ele>879</ele>
        <time>2014-09-14T08:36:55.000Z</time>
      </trkpt>
      <trkpt lat="43.86332" lon="3.18286">
        <ele>876</ele>
        <time>2014-09-14T08:36:57.000Z</time>
      </trkpt>
      <trkpt lat="43.86333" lon="3.18277">
        <ele>876</ele>
        <time>2014-09-14T08:36:59.000Z</time>
      </trkpt>
      <trkpt lat="43.86335" lon="3.18269">
        <ele>876</ele>
        <time>2014-09-14T08:37:01.000Z</time>
      </trkpt>
      <trkpt lat="43.86335" lon="3.1826">
        <ele>877</ele>
        <time>2014-09-14T08:37:03.000Z</time>
      </trkpt>
      <trkpt lat="43.86336" lon="3.18251">
        <ele>878</ele>
        <time>2014-09-14T08:37:05.000Z</time>
      </trkpt>
      <trkpt lat="43.86336" lon="3.18242">
        <ele>879</ele>
        <time>2014-09-14T08:37:07.000Z</time>
      </trkpt>
      <trkpt lat="43.86341" lon="3.18216">
        <ele>878</ele>
        <time>2014-09-14T08:37:10.000Z</time>
      </trkpt>
      <trkpt lat="43.86346" lon="3.18207">
        <ele>880</ele>
        <time>2014-09-14T08:37:12.000Z</time>
      </trkpt>
      <trkpt lat="43.86358" lon="3.18189">
        <ele>880</ele>
        <time>2014-09-14T08:37:15.000Z</time>
      </trkpt>
      <trkpt lat="43.86366" lon="3.18186">
        <ele>881</ele>
        <time>2014-09-14T08:37:17.000Z</time>
      </trkpt>
      <trkpt lat="43.86372" lon="3.1818">
        <ele>881</ele>
        <time>2014-09-14T08:37:19.000Z</time>
      </trkpt>
      <trkpt lat="43.8638" lon="3.18172">
        <ele>881</ele>
        <time>2014-09-14T08:37:21.000Z</time>
      </trkpt>
      <trkpt lat="43.86387" lon="3.18162">
        <ele>883</ele>
        <time>2014-09-14T08:37:23.000Z</time>
      </trkpt>
      <trkpt lat="43.86394" lon="3.18135">
        <ele>882</ele>
        <time>2014-09-14T08:37:26.000Z</time>
      </trkpt>
      <trkpt lat="43.86405" lon="3.18116">
        <ele>881</ele>
        <time>2014-09-14T08:37:29.000Z</time>
      </trkpt>
      <trkpt lat="43.86407" lon="3.18102">
        <ele>879</ele>
        <time>2014-09-14T08:37:31.000Z</time>
      </trkpt>
      <trkpt lat="43.86409" lon="3.18087">
        <ele>877</ele>
        <time>2014-09-14T08:37:33.000Z</time>
      </trkpt>
      <trkpt lat="43.8641" lon="3.18071">
        <ele>877</ele>
        <time>2014-09-14T08:37:35.000Z</time>
      </trkpt>
      <trkpt lat="43.86415" lon="3.18055">
        <ele>876</ele>
        <time>2014-09-14T08:37:37.000Z</time>
      </trkpt>
      <trkpt lat="43.86421" lon="3.18042">
        <ele>874</ele>
        <time>2014-09-14T08:37:39.000Z</time>
      </trkpt>
      <trkpt lat="43.86427" lon="3.18028">
        <ele>873</ele>
        <time>2014-09-14T08:37:41.000Z</time>
      </trkpt>
      <trkpt lat="43.86435" lon="3.18014">
        <ele>872</ele>
        <time>2014-09-14T08:37:43.000Z</time>
      </trkpt>
      <trkpt lat="43.86451" lon="3.17968">
        <ele>865</ele>
        <time>2014-09-14T08:37:47.000Z</time>
      </trkpt>
      <trkpt lat="43.8646" lon="3.17952">
        <ele>864</ele>
        <time>2014-09-14T08:37:49.000Z</time>
      </trkpt>
      <trkpt lat="43.86469" lon="3.17935">
        <ele>865</ele>
        <time>2014-09-14T08:37:51.000Z</time>
      </trkpt>
      <trkpt lat="43.8648" lon="3.17918">
        <ele>865</ele>
        <time>2014-09-14T08:37:53.000Z</time>
      </trkpt>
      <trkpt lat="43.86486" lon="3.179">
        <ele>865</ele>
        <time>2014-09-14T08:37:55.000Z</time>
      </trkpt>
      <trkpt lat="43.86487" lon="3.17877">
        <ele>865</ele>
        <time>2014-09-14T08:37:57.000Z</time>
      </trkpt>
      <trkpt lat="43.86481" lon="3.17861">
        <ele>864</ele>
        <time>2014-09-14T08:37:59.000Z</time>
      </trkpt>
      <trkpt lat="43.86472" lon="3.17828">
        <ele>860</ele>
        <time>2014-09-14T08:38:02.000Z</time>
      </trkpt>
      <trkpt lat="43.8647" lon="3.17805">
        <ele>861</ele>
        <time>2014-09-14T08:38:04.000Z</time>
      </trkpt>
      <trkpt lat="43.8647" lon="3.1778">
        <ele>860</ele>
        <time>2014-09-14T08:38:06.000Z</time>
      </trkpt>
      <trkpt lat="43.86468" lon="3.17763">
        <ele>860</ele>
        <time>2014-09-14T08:38:08.000Z</time>
      </trkpt>
      <trkpt lat="43.86466" lon="3.17741">
        <ele>858</ele>
        <time>2014-09-14T08:38:10.000Z</time>
      </trkpt>
      <trkpt lat="43.86466" lon="3.17721">
        <ele>858</ele>
        <time>2014-09-14T08:38:12.000Z</time>
      </trkpt>
      <trkpt lat="43.86467" lon="3.17703">
        <ele>857</ele>
        <time>2014-09-14T08:38:14.000Z</time>
      </trkpt>
      <trkpt lat="43.86464" lon="3.17683">
        <ele>855</ele>
        <time>2014-09-14T08:38:16.000Z</time>
      </trkpt>
      <trkpt lat="43.86457" lon="3.17669">
        <ele>856</ele>
        <time>2014-09-14T08:38:18.000Z</time>
      </trkpt>
      <trkpt lat="43.86452" lon="3.1765">
        <ele>853</ele>
        <time>2014-09-14T08:38:20.000Z</time>
      </trkpt>
      <trkpt lat="43.86446" lon="3.1763">
        <ele>852</ele>
        <time>2014-09-14T08:38:23.000Z</time>
      </trkpt>
      <trkpt lat="43.86443" lon="3.17615">
        <ele>852</ele>
        <time>2014-09-14T08:38:25.000Z</time>
      </trkpt>
      <trkpt lat="43.86441" lon="3.17597">
        <ele>853</ele>
        <time>2014-09-14T08:38:27.000Z</time>
      </trkpt>
      <trkpt lat="43.8644" lon="3.1758">
        <ele>854</ele>
        <time>2014-09-14T08:38:29.000Z</time>
      </trkpt>
      <trkpt lat="43.86436" lon="3.17565">
        <ele>854</ele>
        <time>2014-09-14T08:38:31.000Z</time>
      </trkpt>
      <trkpt lat="43.86434" lon="3.17556">
        <ele>853</ele>
        <time>2014-09-14T08:38:33.000Z</time>
      </trkpt>
      <trkpt lat="43.86434" lon="3.17556">
        <ele>853</ele>
        <time>2014-09-14T08:38:35.000Z</time>
      </trkpt>
      <trkpt lat="43.86436" lon="3.17548">
        <ele>852</ele>
        <time>2014-09-14T08:38:37.000Z</time>
      </trkpt>
      <trkpt lat="43.86436" lon="3.17548">
        <ele>852</ele>
        <time>2014-09-14T08:38:39.000Z</time>
      </trkpt>
      <trkpt lat="43.86436" lon="3.17548">
        <ele>852</ele>
        <time>2014-09-14T08:38:41.000Z</time>
      </trkpt>
      <trkpt lat="43.86437" lon="3.17544">
        <ele>856</ele>
        <time>2014-09-14T08:38:43.000Z</time>
      </trkpt>
      <trkpt lat="43.86437" lon="3.17544">
        <ele>856</ele>
        <time>2014-09-14T08:38:45.000Z</time>
      </trkpt>
      <trkpt lat="43.86438" lon="3.17539">
        <ele>859</ele>
        <time>2014-09-14T08:38:47.000Z</time>
      </trkpt>
      <trkpt lat="43.86438" lon="3.17535">
        <ele>861</ele>
        <time>2014-09-14T08:38:49.000Z</time>
      </trkpt>
      <trkpt lat="43.8644" lon="3.1753">
        <ele>863</ele>
        <time>2014-09-14T08:38:53.000Z</time>
      </trkpt>
      <trkpt lat="43.86441" lon="3.17525">
        <ele>862</ele>
        <time>2014-09-14T08:38:55.000Z</time>
      </trkpt>
      <trkpt lat="43.86442" lon="3.17521">
        <ele>863</ele>
        <time>2014-09-14T08:38:57.000Z</time>
      </trkpt>
      <trkpt lat="43.86443" lon="3.17517">
        <ele>862</ele>
        <time>2014-09-14T08:38:59.000Z</time>
      </trkpt>
      <trkpt lat="43.86443" lon="3.17512">
        <ele>863</ele>
        <time>2014-09-14T08:39:01.000Z</time>
      </trkpt>
      <trkpt lat="43.86444" lon="3.17503">
        <ele>864</ele>
        <time>2014-09-14T08:39:03.000Z</time>
      </trkpt>
      <trkpt lat="43.86443" lon="3.17494">
        <ele>862</ele>
        <time>2014-09-14T08:39:07.000Z</time>
      </trkpt>
      <trkpt lat="43.86443" lon="3.17484">
        <ele>860</ele>
        <time>2014-09-14T08:39:11.000Z</time>
      </trkpt>
      <trkpt lat="43.86441" lon="3.17474">
        <ele>862</ele>
        <time>2014-09-14T08:39:15.000Z</time>
      </trkpt>
      <trkpt lat="43.8644" lon="3.17466">
        <ele>862</ele>
        <time>2014-09-14T08:39:19.000Z</time>
      </trkpt>
      <trkpt lat="43.86443" lon="3.17458">
        <ele>860</ele>
        <time>2014-09-14T08:39:23.000Z</time>
      </trkpt>
      <trkpt lat="43.86443" lon="3.17458">
        <ele>860</ele>
        <time>2014-09-14T08:39:27.000Z</time>
      </trkpt>
      <trkpt lat="43.86443" lon="3.17458">
        <ele>860</ele>
        <time>2014-09-14T08:39:29.000Z</time>
      </trkpt>
      <trkpt lat="43.86443" lon="3.17458">
        <ele>860</ele>
        <time>2014-09-14T08:39:31.000Z</time>
      </trkpt>
      <trkpt lat="43.86443" lon="3.17458">
        <ele>860</ele>
        <time>2014-09-14T08:39:37.000Z</time>
      </trkpt>
      <trkpt lat="43.86443" lon="3.17458">
        <ele>860</ele>
        <time>2014-09-14T08:39:39.000Z</time>
      </trkpt>
      <trkpt lat="43.86423" lon="3.17442">
        <ele>875</ele>
        <time>2014-09-14T08:40:27.000Z</time>
      </trkpt>
      <trkpt lat="43.8641" lon="3.17434">
        <ele>872</ele>
        <time>2014-09-14T08:40:29.000Z</time>
      </trkpt>
      <trkpt lat="43.86398" lon="3.17429">
        <ele>872</ele>
        <time>2014-09-14T08:40:31.000Z</time>
      </trkpt>
      <trkpt lat="43.8639" lon="3.17425">
        <ele>875</ele>
        <time>2014-09-14T08:40:33.000Z</time>
      </trkpt>
      <trkpt lat="43.86384" lon="3.17422">
        <ele>878</ele>
        <time>2014-09-14T08:40:35.000Z</time>
      </trkpt>
      <trkpt lat="43.86375" lon="3.17417">
        <ele>876</ele>
        <time>2014-09-14T08:40:37.000Z</time>
      </trkpt>
      <trkpt lat="43.86375" lon="3.17417">
        <ele>876</ele>
        <time>2014-09-14T08:40:39.000Z</time>
      </trkpt>
      <trkpt lat="43.86375" lon="3.17417">
        <ele>876</ele>
        <time>2014-09-14T08:40:41.000Z</time>
      </trkpt>
      <trkpt lat="43.86369" lon="3.17412">
        <ele>880</ele>
        <time>2014-09-14T08:40:43.000Z</time>
      </trkpt>
      <trkpt lat="43.86369" lon="3.17412">
        <ele>880</ele>
        <time>2014-09-14T08:40:45.000Z</time>
      </trkpt>
      <trkpt lat="43.86369" lon="3.17412">
        <ele>880</ele>
        <time>2014-09-14T08:40:47.000Z</time>
      </trkpt>
      <trkpt lat="43.86366" lon="3.17404">
        <ele>884</ele>
        <time>2014-09-14T08:40:49.000Z</time>
      </trkpt>
      <trkpt lat="43.86366" lon="3.17404">
        <ele>884</ele>
        <time>2014-09-14T08:40:51.000Z</time>
      </trkpt>
      <trkpt lat="43.86363" lon="3.17397">
        <ele>884</ele>
        <time>2014-09-14T08:40:53.000Z</time>
      </trkpt>
      <trkpt lat="43.86358" lon="3.17388">
        <ele>884</ele>
        <time>2014-09-14T08:40:57.000Z</time>
      </trkpt>
      <trkpt lat="43.8635" lon="3.17381">
        <ele>885</ele>
        <time>2014-09-14T08:41:01.000Z</time>
      </trkpt>
      <trkpt lat="43.86345" lon="3.17372">
        <ele>888</ele>
        <time>2014-09-14T08:41:05.000Z</time>
      </trkpt>
      <trkpt lat="43.86341" lon="3.1736">
        <ele>884</ele>
        <time>2014-09-14T08:41:09.000Z</time>
      </trkpt>
      <trkpt lat="43.8634" lon="3.17352">
        <ele>883</ele>
        <time>2014-09-14T08:41:11.000Z</time>
      </trkpt>
      <trkpt lat="43.86339" lon="3.17337">
        <ele>884</ele>
        <time>2014-09-14T08:41:15.000Z</time>
      </trkpt>
      <trkpt lat="43.86341" lon="3.17324">
        <ele>884</ele>
        <time>2014-09-14T08:41:19.000Z</time>
      </trkpt>
      <trkpt lat="43.86341" lon="3.17315">
        <ele>882</ele>
        <time>2014-09-14T08:41:21.000Z</time>
      </trkpt>
      <trkpt lat="43.86341" lon="3.17305">
        <ele>883</ele>
        <time>2014-09-14T08:41:23.000Z</time>
      </trkpt>
      <trkpt lat="43.86341" lon="3.17296">
        <ele>884</ele>
        <time>2014-09-14T08:41:25.000Z</time>
      </trkpt>
      <trkpt lat="43.8634" lon="3.17287">
        <ele>884</ele>
        <time>2014-09-14T08:41:27.000Z</time>
      </trkpt>
      <trkpt lat="43.86338" lon="3.17278">
        <ele>885</ele>
        <time>2014-09-14T08:41:29.000Z</time>
      </trkpt>
      <trkpt lat="43.86334" lon="3.17266">
        <ele>883</ele>
        <time>2014-09-14T08:41:31.000Z</time>
      </trkpt>
      <trkpt lat="43.8633" lon="3.17254">
        <ele>883</ele>
        <time>2014-09-14T08:41:33.000Z</time>
      </trkpt>
      <trkpt lat="43.86327" lon="3.17243">
        <ele>884</ele>
        <time>2014-09-14T08:41:35.000Z</time>
      </trkpt>
      <trkpt lat="43.86324" lon="3.17233">
        <ele>883</ele>
        <time>2014-09-14T08:41:37.000Z</time>
      </trkpt>
      <trkpt lat="43.86322" lon="3.17226">
        <ele>883</ele>
        <time>2014-09-14T08:41:39.000Z</time>
      </trkpt>
      <trkpt lat="43.8632" lon="3.17218">
        <ele>882</ele>
        <time>2014-09-14T08:41:41.000Z</time>
      </trkpt>
      <trkpt lat="43.86319" lon="3.17209">
        <ele>879</ele>
        <time>2014-09-14T08:41:43.000Z</time>
      </trkpt>
      <trkpt lat="43.86317" lon="3.17199">
        <ele>879</ele>
        <time>2014-09-14T08:41:45.000Z</time>
      </trkpt>
      <trkpt lat="43.86315" lon="3.1719">
        <ele>878</ele>
        <time>2014-09-14T08:41:47.000Z</time>
      </trkpt>
      <trkpt lat="43.86312" lon="3.1718">
        <ele>876</ele>
        <time>2014-09-14T08:41:49.000Z</time>
      </trkpt>
      <trkpt lat="43.8631" lon="3.1717">
        <ele>878</ele>
        <time>2014-09-14T08:41:51.000Z</time>
      </trkpt>
      <trkpt lat="43.86308" lon="3.17161">
        <ele>881</ele>
        <time>2014-09-14T08:41:53.000Z</time>
      </trkpt>
      <trkpt lat="43.86299" lon="3.17139">
        <ele>878</ele>
        <time>2014-09-14T08:41:56.000Z</time>
      </trkpt>
      <trkpt lat="43.86292" lon="3.17131">
        <ele>879</ele>
        <time>2014-09-14T08:41:58.000Z</time>
      </trkpt>
      <trkpt lat="43.86287" lon="3.17122">
        <ele>880</ele>
        <time>2014-09-14T08:42:00.000Z</time>
      </trkpt>
      <trkpt lat="43.86279" lon="3.1711">
        <ele>879</ele>
        <time>2014-09-14T08:42:02.000Z</time>
      </trkpt>
      <trkpt lat="43.86271" lon="3.171">
        <ele>880</ele>
        <time>2014-09-14T08:42:04.000Z</time>
      </trkpt>
      <trkpt lat="43.8625" lon="3.1708">
        <ele>878</ele>
        <time>2014-09-14T08:42:07.000Z</time>
      </trkpt>
      <trkpt lat="43.86236" lon="3.17076">
        <ele>876</ele>
        <time>2014-09-14T08:42:11.000Z</time>
      </trkpt>
      <trkpt lat="43.86231" lon="3.17067">
        <ele>876</ele>
        <time>2014-09-14T08:42:13.000Z</time>
      </trkpt>
      <trkpt lat="43.86219" lon="3.17062">
        <ele>876</ele>
        <time>2014-09-14T08:42:15.000Z</time>
      </trkpt>
      <trkpt lat="43.86206" lon="3.17052">
        <ele>871</ele>
        <time>2014-09-14T08:42:17.000Z</time>
      </trkpt>
      <trkpt lat="43.86193" lon="3.17048">
        <ele>871</ele>
        <time>2014-09-14T08:42:19.000Z</time>
      </trkpt>
      <trkpt lat="43.86184" lon="3.17048">
        <ele>872</ele>
        <time>2014-09-14T08:42:21.000Z</time>
      </trkpt>
      <trkpt lat="43.86176" lon="3.17047">
        <ele>875</ele>
        <time>2014-09-14T08:42:23.000Z</time>
      </trkpt>
      <trkpt lat="43.86176" lon="3.17047">
        <ele>875</ele>
        <time>2014-09-14T08:42:25.000Z</time>
      </trkpt>
      <trkpt lat="43.86169" lon="3.17044">
        <ele>874</ele>
        <time>2014-09-14T08:42:27.000Z</time>
      </trkpt>
      <trkpt lat="43.86169" lon="3.17044">
        <ele>874</ele>
        <time>2014-09-14T08:42:29.000Z</time>
      </trkpt>
      <trkpt lat="43.86169" lon="3.17044">
        <ele>874</ele>
        <time>2014-09-14T08:42:31.000Z</time>
      </trkpt>
      <trkpt lat="43.86169" lon="3.17044">
        <ele>874</ele>
        <time>2014-09-14T08:42:33.000Z</time>
      </trkpt>
      <trkpt lat="43.86169" lon="3.17044">
        <ele>874</ele>
        <time>2014-09-14T08:42:35.000Z</time>
      </trkpt>
      <trkpt lat="43.86149" lon="3.17042">
        <ele>872</ele>
        <time>2014-09-14T08:42:45.000Z</time>
      </trkpt>
      <trkpt lat="43.86129" lon="3.17036">
        <ele>870</ele>
        <time>2014-09-14T08:42:48.000Z</time>
      </trkpt>
      <trkpt lat="43.86113" lon="3.1703">
        <ele>866</ele>
        <time>2014-09-14T08:42:50.000Z</time>
      </trkpt>
      <trkpt lat="43.86099" lon="3.17027">
        <ele>865</ele>
        <time>2014-09-14T08:42:52.000Z</time>
      </trkpt>
      <trkpt lat="43.86085" lon="3.17022">
        <ele>863</ele>
        <time>2014-09-14T08:42:54.000Z</time>
      </trkpt>
      <trkpt lat="43.86071" lon="3.17012">
        <ele>863</ele>
        <time>2014-09-14T08:42:56.000Z</time>
      </trkpt>
      <trkpt lat="43.86056" lon="3.17003">
        <ele>863</ele>
        <time>2014-09-14T08:42:58.000Z</time>
      </trkpt>
      <trkpt lat="43.86045" lon="3.16996">
        <ele>863</ele>
        <time>2014-09-14T08:43:00.000Z</time>
      </trkpt>
      <trkpt lat="43.86031" lon="3.16988">
        <ele>863</ele>
        <time>2014-09-14T08:43:02.000Z</time>
      </trkpt>
      <trkpt lat="43.86022" lon="3.16979">
        <ele>862</ele>
        <time>2014-09-14T08:43:04.000Z</time>
      </trkpt>
      <trkpt lat="43.8601" lon="3.1698">
        <ele>862</ele>
        <time>2014-09-14T08:43:06.000Z</time>
      </trkpt>
      <trkpt lat="43.85999" lon="3.16983">
        <ele>862</ele>
        <time>2014-09-14T08:43:08.000Z</time>
      </trkpt>
      <trkpt lat="43.85986" lon="3.1698">
        <ele>862</ele>
        <time>2014-09-14T08:43:10.000Z</time>
      </trkpt>
      <trkpt lat="43.85973" lon="3.16975">
        <ele>862</ele>
        <time>2014-09-14T08:43:12.000Z</time>
      </trkpt>
      <trkpt lat="43.85966" lon="3.16965">
        <ele>863</ele>
        <time>2014-09-14T08:43:14.000Z</time>
      </trkpt>
      <trkpt lat="43.85954" lon="3.16953">
        <ele>861</ele>
        <time>2014-09-14T08:43:16.000Z</time>
      </trkpt>
      <trkpt lat="43.85946" lon="3.16944">
        <ele>859</ele>
        <time>2014-09-14T08:43:18.000Z</time>
      </trkpt>
      <trkpt lat="43.85939" lon="3.16933">
        <ele>858</ele>
        <time>2014-09-14T08:43:20.000Z</time>
      </trkpt>
      <trkpt lat="43.85933" lon="3.16925">
        <ele>858</ele>
        <time>2014-09-14T08:43:22.000Z</time>
      </trkpt>
      <trkpt lat="43.85933" lon="3.16925">
        <ele>858</ele>
        <time>2014-09-14T08:43:24.000Z</time>
      </trkpt>
      <trkpt lat="43.85923" lon="3.16922">
        <ele>859</ele>
        <time>2014-09-14T08:43:26.000Z</time>
      </trkpt>
      <trkpt lat="43.85914" lon="3.16922">
        <ele>858</ele>
        <time>2014-09-14T08:43:28.000Z</time>
      </trkpt>
      <trkpt lat="43.85902" lon="3.16919">
        <ele>858</ele>
        <time>2014-09-14T08:43:30.000Z</time>
      </trkpt>
      <trkpt lat="43.85896" lon="3.1691">
        <ele>856</ele>
        <time>2014-09-14T08:43:32.000Z</time>
      </trkpt>
      <trkpt lat="43.85886" lon="3.16906">
        <ele>854</ele>
        <time>2014-09-14T08:43:34.000Z</time>
      </trkpt>
      <trkpt lat="43.85874" lon="3.16903">
        <ele>853</ele>
        <time>2014-09-14T08:43:36.000Z</time>
      </trkpt>
      <trkpt lat="43.85864" lon="3.16896">
        <ele>851</ele>
        <time>2014-09-14T08:43:38.000Z</time>
      </trkpt>
      <trkpt lat="43.85854" lon="3.16894">
        <ele>851</ele>
        <time>2014-09-14T08:43:40.000Z</time>
      </trkpt>
      <trkpt lat="43.85846" lon="3.16896">
        <ele>850</ele>
        <time>2014-09-14T08:43:42.000Z</time>
      </trkpt>
      <trkpt lat="43.85846" lon="3.16896">
        <ele>850</ele>
        <time>2014-09-14T08:43:44.000Z</time>
      </trkpt>
      <trkpt lat="43.85835" lon="3.16887">
        <ele>847</ele>
        <time>2014-09-14T08:43:46.000Z</time>
      </trkpt>
      <trkpt lat="43.85829" lon="3.16889">
        <ele>846</ele>
        <time>2014-09-14T08:43:48.000Z</time>
      </trkpt>
      <trkpt lat="43.85823" lon="3.16896">
        <ele>846</ele>
        <time>2014-09-14T08:43:50.000Z</time>
      </trkpt>
      <trkpt lat="43.85823" lon="3.16896">
        <ele>846</ele>
        <time>2014-09-14T08:43:52.000Z</time>
      </trkpt>
      <trkpt lat="43.85815" lon="3.16896">
        <ele>845</ele>
        <time>2014-09-14T08:43:54.000Z</time>
      </trkpt>
      <trkpt lat="43.85815" lon="3.16896">
        <ele>845</ele>
        <time>2014-09-14T08:43:56.000Z</time>
      </trkpt>
      <trkpt lat="43.85811" lon="3.16885">
        <ele>844</ele>
        <time>2014-09-14T08:43:58.000Z</time>
      </trkpt>
      <trkpt lat="43.85812" lon="3.16871">
        <ele>844</ele>
        <time>2014-09-14T08:44:00.000Z</time>
      </trkpt>
      <trkpt lat="43.85814" lon="3.16857">
        <ele>842</ele>
        <time>2014-09-14T08:44:02.000Z</time>
      </trkpt>
      <trkpt lat="43.85816" lon="3.16844">
        <ele>839</ele>
        <time>2014-09-14T08:44:04.000Z</time>
      </trkpt>
      <trkpt lat="43.85817" lon="3.16831">
        <ele>840</ele>
        <time>2014-09-14T08:44:06.000Z</time>
      </trkpt>
      <trkpt lat="43.85818" lon="3.16818">
        <ele>840</ele>
        <time>2014-09-14T08:44:08.000Z</time>
      </trkpt>
      <trkpt lat="43.8582" lon="3.16807">
        <ele>839</ele>
        <time>2014-09-14T08:44:10.000Z</time>
      </trkpt>
      <trkpt lat="43.85827" lon="3.16795">
        <ele>839</ele>
        <time>2014-09-14T08:44:12.000Z</time>
      </trkpt>
      <trkpt lat="43.85829" lon="3.1678">
        <ele>840</ele>
        <time>2014-09-14T08:44:14.000Z</time>
      </trkpt>
      <trkpt lat="43.8583" lon="3.16771">
        <ele>840</ele>
        <time>2014-09-14T08:44:16.000Z</time>
      </trkpt>
      <trkpt lat="43.85835" lon="3.16749">
        <ele>841</ele>
        <time>2014-09-14T08:44:19.000Z</time>
      </trkpt>
      <trkpt lat="43.85835" lon="3.16732">
        <ele>841</ele>
        <time>2014-09-14T08:44:21.000Z</time>
      </trkpt>
      <trkpt lat="43.85838" lon="3.16718">
        <ele>840</ele>
        <time>2014-09-14T08:44:23.000Z</time>
      </trkpt>
      <trkpt lat="43.85839" lon="3.16699">
        <ele>839</ele>
        <time>2014-09-14T08:44:25.000Z</time>
      </trkpt>
      <trkpt lat="43.85842" lon="3.16684">
        <ele>838</ele>
        <time>2014-09-14T08:44:27.000Z</time>
      </trkpt>
      <trkpt lat="43.85845" lon="3.16664">
        <ele>837</ele>
        <time>2014-09-14T08:44:29.000Z</time>
      </trkpt>
      <trkpt lat="43.85852" lon="3.16654">
        <ele>837</ele>
        <time>2014-09-14T08:44:31.000Z</time>
      </trkpt>
      <trkpt lat="43.85857" lon="3.16644">
        <ele>837</ele>
        <time>2014-09-14T08:44:33.000Z</time>
      </trkpt>
      <trkpt lat="43.85861" lon="3.16617">
        <ele>836</ele>
        <time>2014-09-14T08:44:36.000Z</time>
      </trkpt>
      <trkpt lat="43.85867" lon="3.16594">
        <ele>837</ele>
        <time>2014-09-14T08:44:39.000Z</time>
      </trkpt>
      <trkpt lat="43.85872" lon="3.16576">
        <ele>836</ele>
        <time>2014-09-14T08:44:41.000Z</time>
      </trkpt>
      <trkpt lat="43.85876" lon="3.16565">
        <ele>836</ele>
        <time>2014-09-14T08:44:43.000Z</time>
      </trkpt>
      <trkpt lat="43.85876" lon="3.16547">
        <ele>836</ele>
        <time>2014-09-14T08:44:45.000Z</time>
      </trkpt>
      <trkpt lat="43.85877" lon="3.16532">
        <ele>836</ele>
        <time>2014-09-14T08:44:47.000Z</time>
      </trkpt>
      <trkpt lat="43.85878" lon="3.16517">
        <ele>835</ele>
        <time>2014-09-14T08:44:49.000Z</time>
      </trkpt>
      <trkpt lat="43.85877" lon="3.16505">
        <ele>839</ele>
        <time>2014-09-14T08:44:51.000Z</time>
      </trkpt>
      <trkpt lat="43.85878" lon="3.16495">
        <ele>841</ele>
        <time>2014-09-14T08:44:53.000Z</time>
      </trkpt>
      <trkpt lat="43.85881" lon="3.16488">
        <ele>843</ele>
        <time>2014-09-14T08:44:55.000Z</time>
      </trkpt>
      <trkpt lat="43.85881" lon="3.16488">
        <ele>843</ele>
        <time>2014-09-14T08:44:57.000Z</time>
      </trkpt>
      <trkpt lat="43.85881" lon="3.16473">
        <ele>842</ele>
        <time>2014-09-14T08:44:59.000Z</time>
      </trkpt>
      <trkpt lat="43.85879" lon="3.16464">
        <ele>844</ele>
        <time>2014-09-14T08:45:01.000Z</time>
      </trkpt>
      <trkpt lat="43.85877" lon="3.16455">
        <ele>844</ele>
        <time>2014-09-14T08:45:03.000Z</time>
      </trkpt>
      <trkpt lat="43.85877" lon="3.16455">
        <ele>844</ele>
        <time>2014-09-14T08:45:05.000Z</time>
      </trkpt>
      <trkpt lat="43.85878" lon="3.16446">
        <ele>843</ele>
        <time>2014-09-14T08:45:07.000Z</time>
      </trkpt>
      <trkpt lat="43.85878" lon="3.16446">
        <ele>843</ele>
        <time>2014-09-14T08:45:09.000Z</time>
      </trkpt>
      <trkpt lat="43.85878" lon="3.16446">
        <ele>843</ele>
        <time>2014-09-14T08:45:11.000Z</time>
      </trkpt>
      <trkpt lat="43.8588" lon="3.16435">
        <ele>844</ele>
        <time>2014-09-14T08:45:13.000Z</time>
      </trkpt>
      <trkpt lat="43.8588" lon="3.16435">
        <ele>844</ele>
        <time>2014-09-14T08:45:15.000Z</time>
      </trkpt>
      <trkpt lat="43.85878" lon="3.16426">
        <ele>844</ele>
        <time>2014-09-14T08:45:17.000Z</time>
      </trkpt>
      <trkpt lat="43.85877" lon="3.16421">
        <ele>844</ele>
        <time>2014-09-14T08:45:21.000Z</time>
      </trkpt>
      <trkpt lat="43.85876" lon="3.16416">
        <ele>843</ele>
        <time>2014-09-14T08:45:23.000Z</time>
      </trkpt>
      <trkpt lat="43.85874" lon="3.16408">
        <ele>842</ele>
        <time>2014-09-14T08:45:25.000Z</time>
      </trkpt>
      <trkpt lat="43.85871" lon="3.16399">
        <ele>841</ele>
        <time>2014-09-14T08:45:27.000Z</time>
      </trkpt>
      <trkpt lat="43.85869" lon="3.16389">
        <ele>842</ele>
        <time>2014-09-14T08:45:29.000Z</time>
      </trkpt>
      <trkpt lat="43.85866" lon="3.16369">
        <ele>842</ele>
        <time>2014-09-14T08:45:31.000Z</time>
      </trkpt>
      <trkpt lat="43.85865" lon="3.16359">
        <ele>842</ele>
        <time>2014-09-14T08:45:33.000Z</time>
      </trkpt>
      <trkpt lat="43.85866" lon="3.16351">
        <ele>844</ele>
        <time>2014-09-14T08:45:35.000Z</time>
      </trkpt>
      <trkpt lat="43.85865" lon="3.16341">
        <ele>841</ele>
        <time>2014-09-14T08:45:37.000Z</time>
      </trkpt>
      <trkpt lat="43.85865" lon="3.16333">
        <ele>846</ele>
        <time>2014-09-14T08:45:39.000Z</time>
      </trkpt>
      <trkpt lat="43.85865" lon="3.16323">
        <ele>845</ele>
        <time>2014-09-14T08:45:41.000Z</time>
      </trkpt>
      <trkpt lat="43.85865" lon="3.16313">
        <ele>845</ele>
        <time>2014-09-14T08:45:43.000Z</time>
      </trkpt>
      <trkpt lat="43.85867" lon="3.16302">
        <ele>845</ele>
        <time>2014-09-14T08:45:45.000Z</time>
      </trkpt>
      <trkpt lat="43.85869" lon="3.16291">
        <ele>845</ele>
        <time>2014-09-14T08:45:47.000Z</time>
      </trkpt>
      <trkpt lat="43.85872" lon="3.16279">
        <ele>845</ele>
        <time>2014-09-14T08:45:49.000Z</time>
      </trkpt>
      <trkpt lat="43.85876" lon="3.16267">
        <ele>844</ele>
        <time>2014-09-14T08:45:51.000Z</time>
      </trkpt>
      <trkpt lat="43.85879" lon="3.16256">
        <ele>846</ele>
        <time>2014-09-14T08:45:53.000Z</time>
      </trkpt>
      <trkpt lat="43.85882" lon="3.16243">
        <ele>843</ele>
        <time>2014-09-14T08:45:55.000Z</time>
      </trkpt>
      <trkpt lat="43.85883" lon="3.16224">
        <ele>842</ele>
        <time>2014-09-14T08:45:57.000Z</time>
      </trkpt>
      <trkpt lat="43.85882" lon="3.16208">
        <ele>839</ele>
        <time>2014-09-14T08:45:59.000Z</time>
      </trkpt>
      <trkpt lat="43.85886" lon="3.162">
        <ele>839</ele>
        <time>2014-09-14T08:46:01.000Z</time>
      </trkpt>
      <trkpt lat="43.85889" lon="3.16191">
        <ele>839</ele>
        <time>2014-09-14T08:46:03.000Z</time>
      </trkpt>
      <trkpt lat="43.85894" lon="3.16179">
        <ele>838</ele>
        <time>2014-09-14T08:46:05.000Z</time>
      </trkpt>
      <trkpt lat="43.85899" lon="3.1617">
        <ele>838</ele>
        <time>2014-09-14T08:46:07.000Z</time>
      </trkpt>
      <trkpt lat="43.85906" lon="3.16163">
        <ele>838</ele>
        <time>2014-09-14T08:46:09.000Z</time>
      </trkpt>
      <trkpt lat="43.85912" lon="3.16157">
        <ele>839</ele>
        <time>2014-09-14T08:46:11.000Z</time>
      </trkpt>
      <trkpt lat="43.85918" lon="3.1615">
        <ele>840</ele>
        <time>2014-09-14T08:46:13.000Z</time>
      </trkpt>
      <trkpt lat="43.85924" lon="3.16142">
        <ele>841</ele>
        <time>2014-09-14T08:46:15.000Z</time>
      </trkpt>
      <trkpt lat="43.85928" lon="3.16136">
        <ele>843</ele>
        <time>2014-09-14T08:46:17.000Z</time>
      </trkpt>
      <trkpt lat="43.85933" lon="3.16129">
        <ele>844</ele>
        <time>2014-09-14T08:46:19.000Z</time>
      </trkpt>
      <trkpt lat="43.85938" lon="3.1612">
        <ele>842</ele>
        <time>2014-09-14T08:46:21.000Z</time>
      </trkpt>
      <trkpt lat="43.85941" lon="3.16094">
        <ele>840</ele>
        <time>2014-09-14T08:46:24.000Z</time>
      </trkpt>
      <trkpt lat="43.85946" lon="3.16085">
        <ele>841</ele>
        <time>2014-09-14T08:46:27.000Z</time>
      </trkpt>
      <trkpt lat="43.85949" lon="3.16078">
        <ele>841</ele>
        <time>2014-09-14T08:46:29.000Z</time>
      </trkpt>
      <trkpt lat="43.85949" lon="3.16078">
        <ele>841</ele>
        <time>2014-09-14T08:46:31.000Z</time>
      </trkpt>
      <trkpt lat="43.85958" lon="3.16071">
        <ele>844</ele>
        <time>2014-09-14T08:46:33.000Z</time>
      </trkpt>
      <trkpt lat="43.85963" lon="3.16064">
        <ele>845</ele>
        <time>2014-09-14T08:46:35.000Z</time>
      </trkpt>
      <trkpt lat="43.85965" lon="3.16056">
        <ele>847</ele>
        <time>2014-09-14T08:46:37.000Z</time>
      </trkpt>
      <trkpt lat="43.85965" lon="3.16045">
        <ele>847</ele>
        <time>2014-09-14T08:46:39.000Z</time>
      </trkpt>
      <trkpt lat="43.85963" lon="3.16035">
        <ele>847</ele>
        <time>2014-09-14T08:46:41.000Z</time>
      </trkpt>
      <trkpt lat="43.85961" lon="3.16025">
        <ele>846</ele>
        <time>2014-09-14T08:46:43.000Z</time>
      </trkpt>
      <trkpt lat="43.85961" lon="3.16015">
        <ele>841</ele>
        <time>2014-09-14T08:46:45.000Z</time>
      </trkpt>
      <trkpt lat="43.85958" lon="3.16004">
        <ele>841</ele>
        <time>2014-09-14T08:46:47.000Z</time>
      </trkpt>
      <trkpt lat="43.85954" lon="3.15995">
        <ele>841</ele>
        <time>2014-09-14T08:46:49.000Z</time>
      </trkpt>
      <trkpt lat="43.85954" lon="3.15995">
        <ele>841</ele>
        <time>2014-09-14T08:46:51.000Z</time>
      </trkpt>
      <trkpt lat="43.85945" lon="3.15986">
        <ele>838</ele>
        <time>2014-09-14T08:46:53.000Z</time>
      </trkpt>
      <trkpt lat="43.85939" lon="3.15985">
        <ele>837</ele>
        <time>2014-09-14T08:46:55.000Z</time>
      </trkpt>
      <trkpt lat="43.85931" lon="3.15984">
        <ele>837</ele>
        <time>2014-09-14T08:46:57.000Z</time>
      </trkpt>
      <trkpt lat="43.85923" lon="3.1598">
        <ele>837</ele>
        <time>2014-09-14T08:46:59.000Z</time>
      </trkpt>
      <trkpt lat="43.85917" lon="3.15972">
        <ele>838</ele>
        <time>2014-09-14T08:47:01.000Z</time>
      </trkpt>
      <trkpt lat="43.85917" lon="3.15961">
        <ele>836</ele>
        <time>2014-09-14T08:47:03.000Z</time>
      </trkpt>
      <trkpt lat="43.85917" lon="3.15949">
        <ele>838</ele>
        <time>2014-09-14T08:47:05.000Z</time>
      </trkpt>
      <trkpt lat="43.85916" lon="3.15939">
        <ele>839</ele>
        <time>2014-09-14T08:47:07.000Z</time>
      </trkpt>
      <trkpt lat="43.85916" lon="3.15939">
        <ele>839</ele>
        <time>2014-09-14T08:47:09.000Z</time>
      </trkpt>
      <trkpt lat="43.85905" lon="3.15933">
        <ele>839</ele>
        <time>2014-09-14T08:47:11.000Z</time>
      </trkpt>
      <trkpt lat="43.85899" lon="3.1593">
        <ele>841</ele>
        <time>2014-09-14T08:47:13.000Z</time>
      </trkpt>
      <trkpt lat="43.85893" lon="3.15923">
        <ele>842</ele>
        <time>2014-09-14T08:47:15.000Z</time>
      </trkpt>
      <trkpt lat="43.85888" lon="3.1592">
        <ele>845</ele>
        <time>2014-09-14T08:47:17.000Z</time>
      </trkpt>
      <trkpt lat="43.85881" lon="3.15919">
        <ele>842</ele>
        <time>2014-09-14T08:47:19.000Z</time>
      </trkpt>
      <trkpt lat="43.85875" lon="3.15918">
        <ele>840</ele>
        <time>2014-09-14T08:47:21.000Z</time>
      </trkpt>
      <trkpt lat="43.85875" lon="3.15918">
        <ele>840</ele>
        <time>2014-09-14T08:47:23.000Z</time>
      </trkpt>
      <trkpt lat="43.85869" lon="3.15913">
        <ele>847</ele>
        <time>2014-09-14T08:47:25.000Z</time>
      </trkpt>
      <trkpt lat="43.85869" lon="3.15913">
        <ele>847</ele>
        <time>2014-09-14T08:47:27.000Z</time>
      </trkpt>
      <trkpt lat="43.85862" lon="3.159">
        <ele>845</ele>
        <time>2014-09-14T08:47:29.000Z</time>
      </trkpt>
      <trkpt lat="43.85858" lon="3.15891">
        <ele>846</ele>
        <time>2014-09-14T08:47:31.000Z</time>
      </trkpt>
      <trkpt lat="43.85855" lon="3.15881">
        <ele>843</ele>
        <time>2014-09-14T08:47:33.000Z</time>
      </trkpt>
      <trkpt lat="43.85855" lon="3.15868">
        <ele>844</ele>
        <time>2014-09-14T08:47:35.000Z</time>
      </trkpt>
      <trkpt lat="43.85863" lon="3.15853">
        <ele>844</ele>
        <time>2014-09-14T08:47:37.000Z</time>
      </trkpt>
      <trkpt lat="43.85871" lon="3.15845">
        <ele>847</ele>
        <time>2014-09-14T08:47:40.000Z</time>
      </trkpt>
      <trkpt lat="43.85875" lon="3.15833">
        <ele>848</ele>
        <time>2014-09-14T08:47:42.000Z</time>
      </trkpt>
      <trkpt lat="43.85876" lon="3.15821">
        <ele>848</ele>
        <time>2014-09-14T08:47:44.000Z</time>
      </trkpt>
      <trkpt lat="43.85874" lon="3.15806">
        <ele>848</ele>
        <time>2014-09-14T08:47:46.000Z</time>
      </trkpt>
      <trkpt lat="43.85873" lon="3.15794">
        <ele>848</ele>
        <time>2014-09-14T08:47:48.000Z</time>
      </trkpt>
      <trkpt lat="43.85874" lon="3.15786">
        <ele>846</ele>
        <time>2014-09-14T08:47:50.000Z</time>
      </trkpt>
      <trkpt lat="43.85875" lon="3.15778">
        <ele>847</ele>
        <time>2014-09-14T08:47:52.000Z</time>
      </trkpt>
      <trkpt lat="43.85876" lon="3.15768">
        <ele>847</ele>
        <time>2014-09-14T08:47:54.000Z</time>
      </trkpt>
      <trkpt lat="43.85878" lon="3.1576">
        <ele>848</ele>
        <time>2014-09-14T08:47:56.000Z</time>
      </trkpt>
      <trkpt lat="43.85879" lon="3.15752">
        <ele>847</ele>
        <time>2014-09-14T08:47:58.000Z</time>
      </trkpt>
      <trkpt lat="43.8588" lon="3.15744">
        <ele>848</ele>
        <time>2014-09-14T08:48:00.000Z</time>
      </trkpt>
      <trkpt lat="43.85882" lon="3.15736">
        <ele>848</ele>
        <time>2014-09-14T08:48:02.000Z</time>
      </trkpt>
      <trkpt lat="43.85882" lon="3.15736">
        <ele>848</ele>
        <time>2014-09-14T08:48:04.000Z</time>
      </trkpt>
      <trkpt lat="43.85886" lon="3.15719">
        <ele>848</ele>
        <time>2014-09-14T08:48:06.000Z</time>
      </trkpt>
      <trkpt lat="43.85885" lon="3.15708">
        <ele>849</ele>
        <time>2014-09-14T08:48:08.000Z</time>
      </trkpt>
      <trkpt lat="43.85883" lon="3.15696">
        <ele>849</ele>
        <time>2014-09-14T08:48:10.000Z</time>
      </trkpt>
      <trkpt lat="43.85881" lon="3.15685">
        <ele>848</ele>
        <time>2014-09-14T08:48:12.000Z</time>
      </trkpt>
      <trkpt lat="43.8588" lon="3.15675">
        <ele>850</ele>
        <time>2014-09-14T08:48:14.000Z</time>
      </trkpt>
      <trkpt lat="43.85879" lon="3.15665">
        <ele>851</ele>
        <time>2014-09-14T08:48:16.000Z</time>
      </trkpt>
      <trkpt lat="43.85879" lon="3.15665">
        <ele>851</ele>
        <time>2014-09-14T08:48:18.000Z</time>
      </trkpt>
      <trkpt lat="43.85878" lon="3.15655">
        <ele>851</ele>
        <time>2014-09-14T08:48:20.000Z</time>
      </trkpt>
      <trkpt lat="43.85878" lon="3.15655">
        <ele>851</ele>
        <time>2014-09-14T08:48:22.000Z</time>
      </trkpt>
      <trkpt lat="43.85872" lon="3.15635">
        <ele>850</ele>
        <time>2014-09-14T08:48:24.000Z</time>
      </trkpt>
      <trkpt lat="43.85863" lon="3.15609">
        <ele>849</ele>
        <time>2014-09-14T08:48:27.000Z</time>
      </trkpt>
      <trkpt lat="43.85859" lon="3.15587">
        <ele>844</ele>
        <time>2014-09-14T08:48:29.000Z</time>
      </trkpt>
      <trkpt lat="43.85853" lon="3.15572">
        <ele>844</ele>
        <time>2014-09-14T08:48:34.000Z</time>
      </trkpt>
      <trkpt lat="43.85849" lon="3.15565">
        <ele>842</ele>
        <time>2014-09-14T08:48:36.000Z</time>
      </trkpt>
      <trkpt lat="43.85845" lon="3.15559">
        <ele>844</ele>
        <time>2014-09-14T08:48:38.000Z</time>
      </trkpt>
      <trkpt lat="43.85842" lon="3.15548">
        <ele>845</ele>
        <time>2014-09-14T08:48:40.000Z</time>
      </trkpt>
      <trkpt lat="43.85838" lon="3.15538">
        <ele>845</ele>
        <time>2014-09-14T08:48:42.000Z</time>
      </trkpt>
      <trkpt lat="43.85834" lon="3.15528">
        <ele>843</ele>
        <time>2014-09-14T08:48:44.000Z</time>
      </trkpt>
      <trkpt lat="43.8583" lon="3.15516">
        <ele>844</ele>
        <time>2014-09-14T08:48:46.000Z</time>
      </trkpt>
      <trkpt lat="43.8583" lon="3.15516">
        <ele>844</ele>
        <time>2014-09-14T08:48:48.000Z</time>
      </trkpt>
      <trkpt lat="43.85829" lon="3.155">
        <ele>842</ele>
        <time>2014-09-14T08:48:50.000Z</time>
      </trkpt>
      <trkpt lat="43.85829" lon="3.155">
        <ele>842</ele>
        <time>2014-09-14T08:48:52.000Z</time>
      </trkpt>
      <trkpt lat="43.85825" lon="3.15481">
        <ele>843</ele>
        <time>2014-09-14T08:48:54.000Z</time>
      </trkpt>
      <trkpt lat="43.85825" lon="3.15481">
        <ele>843</ele>
        <time>2014-09-14T08:48:57.000Z</time>
      </trkpt>
      <trkpt lat="43.85825" lon="3.15481">
        <ele>843</ele>
        <time>2014-09-14T08:48:59.000Z</time>
      </trkpt>
      <trkpt lat="43.85825" lon="3.15481">
        <ele>843</ele>
        <time>2014-09-14T08:49:01.000Z</time>
      </trkpt>
      <trkpt lat="43.85825" lon="3.15481">
        <ele>843</ele>
        <time>2014-09-14T08:49:03.000Z</time>
      </trkpt>
      <trkpt lat="43.85825" lon="3.15481">
        <ele>843</ele>
        <time>2014-09-14T08:49:05.000Z</time>
      </trkpt>
      <trkpt lat="43.85815" lon="3.1546">
        <ele>845</ele>
        <time>2014-09-14T08:49:27.000Z</time>
      </trkpt>
      <trkpt lat="43.85808" lon="3.15452">
        <ele>843</ele>
        <time>2014-09-14T08:49:29.000Z</time>
      </trkpt>
      <trkpt lat="43.858" lon="3.15446">
        <ele>843</ele>
        <time>2014-09-14T08:49:31.000Z</time>
      </trkpt>
      <trkpt lat="43.85778" lon="3.15431">
        <ele>842</ele>
        <time>2014-09-14T08:49:34.000Z</time>
      </trkpt>
      <trkpt lat="43.85766" lon="3.15418">
        <ele>842</ele>
        <time>2014-09-14T08:49:37.000Z</time>
      </trkpt>
      <trkpt lat="43.85761" lon="3.15404">
        <ele>841</ele>
        <time>2014-09-14T08:49:39.000Z</time>
      </trkpt>
      <trkpt lat="43.85756" lon="3.15396">
        <ele>842</ele>
        <time>2014-09-14T08:49:41.000Z</time>
      </trkpt>
      <trkpt lat="43.85752" lon="3.15382">
        <ele>842</ele>
        <time>2014-09-14T08:49:43.000Z</time>
      </trkpt>
      <trkpt lat="43.85747" lon="3.15372">
        <ele>843</ele>
        <time>2014-09-14T08:49:45.000Z</time>
      </trkpt>
      <trkpt lat="43.85747" lon="3.15372">
        <ele>843</ele>
        <time>2014-09-14T08:49:47.000Z</time>
      </trkpt>
      <trkpt lat="43.8574" lon="3.15353">
        <ele>843</ele>
        <time>2014-09-14T08:49:49.000Z</time>
      </trkpt>
      <trkpt lat="43.85735" lon="3.15338">
        <ele>841</ele>
        <time>2014-09-14T08:49:51.000Z</time>
      </trkpt>
      <trkpt lat="43.8573" lon="3.15322">
        <ele>840</ele>
        <time>2014-09-14T08:49:53.000Z</time>
      </trkpt>
      <trkpt lat="43.85727" lon="3.1531">
        <ele>841</ele>
        <time>2014-09-14T08:49:55.000Z</time>
      </trkpt>
      <trkpt lat="43.85721" lon="3.15299">
        <ele>841</ele>
        <time>2014-09-14T08:49:57.000Z</time>
      </trkpt>
      <trkpt lat="43.85717" lon="3.15289">
        <ele>842</ele>
        <time>2014-09-14T08:49:59.000Z</time>
      </trkpt>
      <trkpt lat="43.85712" lon="3.15281">
        <ele>844</ele>
        <time>2014-09-14T08:50:01.000Z</time>
      </trkpt>
      <trkpt lat="43.85712" lon="3.15281">
        <ele>844</ele>
        <time>2014-09-14T08:50:04.000Z</time>
      </trkpt>
      <trkpt lat="43.85707" lon="3.15268">
        <ele>846</ele>
        <time>2014-09-14T08:50:05.000Z</time>
      </trkpt>
      <trkpt lat="43.85704" lon="3.15261">
        <ele>847</ele>
        <time>2014-09-14T08:50:07.000Z</time>
      </trkpt>
      <trkpt lat="43.85704" lon="3.15261">
        <ele>847</ele>
        <time>2014-09-14T08:50:09.000Z</time>
      </trkpt>
      <trkpt lat="43.85699" lon="3.15246">
        <ele>846</ele>
        <time>2014-09-14T08:50:11.000Z</time>
      </trkpt>
      <trkpt lat="43.85696" lon="3.15238">
        <ele>846</ele>
        <time>2014-09-14T08:50:13.000Z</time>
      </trkpt>
      <trkpt lat="43.85692" lon="3.1523">
        <ele>849</ele>
        <time>2014-09-14T08:50:15.000Z</time>
      </trkpt>
      <trkpt lat="43.85688" lon="3.15222">
        <ele>850</ele>
        <time>2014-09-14T08:50:17.000Z</time>
      </trkpt>
      <trkpt lat="43.85684" lon="3.15215">
        <ele>849</ele>
        <time>2014-09-14T08:50:19.000Z</time>
      </trkpt>
      <trkpt lat="43.85679" lon="3.15207">
        <ele>847</ele>
        <time>2014-09-14T08:50:21.000Z</time>
      </trkpt>
      <trkpt lat="43.85674" lon="3.15195">
        <ele>844</ele>
        <time>2014-09-14T08:50:23.000Z</time>
      </trkpt>
      <trkpt lat="43.85668" lon="3.1518">
        <ele>843</ele>
        <time>2014-09-14T08:50:25.000Z</time>
      </trkpt>
      <trkpt lat="43.8566" lon="3.15172">
        <ele>842</ele>
        <time>2014-09-14T08:50:27.000Z</time>
      </trkpt>
      <trkpt lat="43.85654" lon="3.15163">
        <ele>842</ele>
        <time>2014-09-14T08:50:29.000Z</time>
      </trkpt>
      <trkpt lat="43.85651" lon="3.15153">
        <ele>842</ele>
        <time>2014-09-14T08:50:31.000Z</time>
      </trkpt>
      <trkpt lat="43.85649" lon="3.15137">
        <ele>839</ele>
        <time>2014-09-14T08:50:33.000Z</time>
      </trkpt>
      <trkpt lat="43.85648" lon="3.15127">
        <ele>840</ele>
        <time>2014-09-14T08:50:35.000Z</time>
      </trkpt>
      <trkpt lat="43.85647" lon="3.15117">
        <ele>841</ele>
        <time>2014-09-14T08:50:37.000Z</time>
      </trkpt>
      <trkpt lat="43.85645" lon="3.15108">
        <ele>844</ele>
        <time>2014-09-14T08:50:39.000Z</time>
      </trkpt>
      <trkpt lat="43.85641" lon="3.151">
        <ele>845</ele>
        <time>2014-09-14T08:50:41.000Z</time>
      </trkpt>
      <trkpt lat="43.85638" lon="3.15092">
        <ele>846</ele>
        <time>2014-09-14T08:50:43.000Z</time>
      </trkpt>
      <trkpt lat="43.85635" lon="3.15084">
        <ele>847</ele>
        <time>2014-09-14T08:50:45.000Z</time>
      </trkpt>
      <trkpt lat="43.85631" lon="3.15077">
        <ele>846</ele>
        <time>2014-09-14T08:50:47.000Z</time>
      </trkpt>
      <trkpt lat="43.85625" lon="3.15071">
        <ele>845</ele>
        <time>2014-09-14T08:50:49.000Z</time>
      </trkpt>
      <trkpt lat="43.85618" lon="3.15069">
        <ele>846</ele>
        <time>2014-09-14T08:50:51.000Z</time>
      </trkpt>
      <trkpt lat="43.8561" lon="3.15069">
        <ele>848</ele>
        <time>2014-09-14T08:50:53.000Z</time>
      </trkpt>
      <trkpt lat="43.85602" lon="3.15072">
        <ele>848</ele>
        <time>2014-09-14T08:50:55.000Z</time>
      </trkpt>
      <trkpt lat="43.85592" lon="3.15075">
        <ele>847</ele>
        <time>2014-09-14T08:50:57.000Z</time>
      </trkpt>
      <trkpt lat="43.85583" lon="3.15082">
        <ele>847</ele>
        <time>2014-09-14T08:50:59.000Z</time>
      </trkpt>
      <trkpt lat="43.85574" lon="3.15087">
        <ele>848</ele>
        <time>2014-09-14T08:51:01.000Z</time>
      </trkpt>
      <trkpt lat="43.85564" lon="3.1509">
        <ele>848</ele>
        <time>2014-09-14T08:51:03.000Z</time>
      </trkpt>
      <trkpt lat="43.85556" lon="3.1509">
        <ele>848</ele>
        <time>2014-09-14T08:51:05.000Z</time>
      </trkpt>
      <trkpt lat="43.85548" lon="3.15091">
        <ele>848</ele>
        <time>2014-09-14T08:51:07.000Z</time>
      </trkpt>
      <trkpt lat="43.85539" lon="3.15094">
        <ele>849</ele>
        <time>2014-09-14T08:51:09.000Z</time>
      </trkpt>
      <trkpt lat="43.85532" lon="3.15098">
        <ele>848</ele>
        <time>2014-09-14T08:51:11.000Z</time>
      </trkpt>
      <trkpt lat="43.85524" lon="3.15099">
        <ele>848</ele>
        <time>2014-09-14T08:51:13.000Z</time>
      </trkpt>
      <trkpt lat="43.85518" lon="3.15096">
        <ele>848</ele>
        <time>2014-09-14T08:51:15.000Z</time>
      </trkpt>
      <trkpt lat="43.85511" lon="3.15089">
        <ele>848</ele>
        <time>2014-09-14T08:51:17.000Z</time>
      </trkpt>
      <trkpt lat="43.85511" lon="3.15089">
        <ele>848</ele>
        <time>2014-09-14T08:51:19.000Z</time>
      </trkpt>
      <trkpt lat="43.85501" lon="3.1508">
        <ele>846</ele>
        <time>2014-09-14T08:51:21.000Z</time>
      </trkpt>
      <trkpt lat="43.85493" lon="3.15078">
        <ele>846</ele>
        <time>2014-09-14T08:51:23.000Z</time>
      </trkpt>
      <trkpt lat="43.85483" lon="3.15074">
        <ele>843</ele>
        <time>2014-09-14T08:51:25.000Z</time>
      </trkpt>
      <trkpt lat="43.85472" lon="3.15072">
        <ele>843</ele>
        <time>2014-09-14T08:51:27.000Z</time>
      </trkpt>
      <trkpt lat="43.85463" lon="3.15068">
        <ele>841</ele>
        <time>2014-09-14T08:51:29.000Z</time>
      </trkpt>
      <trkpt lat="43.85453" lon="3.15066">
        <ele>841</ele>
        <time>2014-09-14T08:51:31.000Z</time>
      </trkpt>
      <trkpt lat="43.85447" lon="3.15061">
        <ele>839</ele>
        <time>2014-09-14T08:51:33.000Z</time>
      </trkpt>
      <trkpt lat="43.85439" lon="3.15056">
        <ele>840</ele>
        <time>2014-09-14T08:51:35.000Z</time>
      </trkpt>
      <trkpt lat="43.85432" lon="3.15053">
        <ele>841</ele>
        <time>2014-09-14T08:51:37.000Z</time>
      </trkpt>
      <trkpt lat="43.85424" lon="3.1505">
        <ele>838</ele>
        <time>2014-09-14T08:51:39.000Z</time>
      </trkpt>
      <trkpt lat="43.85418" lon="3.15048">
        <ele>838</ele>
        <time>2014-09-14T08:51:41.000Z</time>
      </trkpt>
      <trkpt lat="43.85412" lon="3.15042">
        <ele>838</ele>
        <time>2014-09-14T08:51:43.000Z</time>
      </trkpt>
      <trkpt lat="43.85403" lon="3.15034">
        <ele>837</ele>
        <time>2014-09-14T08:51:45.000Z</time>
      </trkpt>
      <trkpt lat="43.85393" lon="3.1503">
        <ele>836</ele>
        <time>2014-09-14T08:51:47.000Z</time>
      </trkpt>
      <trkpt lat="43.85382" lon="3.15029">
        <ele>835</ele>
        <time>2014-09-14T08:51:49.000Z</time>
      </trkpt>
      <trkpt lat="43.85371" lon="3.15025">
        <ele>835</ele>
        <time>2014-09-14T08:51:51.000Z</time>
      </trkpt>
      <trkpt lat="43.85361" lon="3.15019">
        <ele>834</ele>
        <time>2014-09-14T08:51:53.000Z</time>
      </trkpt>
      <trkpt lat="43.85348" lon="3.15017">
        <ele>834</ele>
        <time>2014-09-14T08:51:55.000Z</time>
      </trkpt>
      <trkpt lat="43.85335" lon="3.15017">
        <ele>832</ele>
        <time>2014-09-14T08:51:57.000Z</time>
      </trkpt>
      <trkpt lat="43.85327" lon="3.15007">
        <ele>829</ele>
        <time>2014-09-14T08:51:59.000Z</time>
      </trkpt>
      <trkpt lat="43.85319" lon="3.15013">
        <ele>832</ele>
        <time>2014-09-14T08:52:01.000Z</time>
      </trkpt>
      <trkpt lat="43.85312" lon="3.15015">
        <ele>831</ele>
        <time>2014-09-14T08:52:03.000Z</time>
      </trkpt>
      <trkpt lat="43.85304" lon="3.15017">
        <ele>832</ele>
        <time>2014-09-14T08:52:05.000Z</time>
      </trkpt>
      <trkpt lat="43.85299" lon="3.15018">
        <ele>830</ele>
        <time>2014-09-14T08:52:07.000Z</time>
      </trkpt>
      <trkpt lat="43.85292" lon="3.15017">
        <ele>828</ele>
        <time>2014-09-14T08:52:09.000Z</time>
      </trkpt>
      <trkpt lat="43.85292" lon="3.15017">
        <ele>828</ele>
        <time>2014-09-14T08:52:11.000Z</time>
      </trkpt>
      <trkpt lat="43.85287" lon="3.15016">
        <ele>826</ele>
        <time>2014-09-14T08:52:13.000Z</time>
      </trkpt>
      <trkpt lat="43.85283" lon="3.15014">
        <ele>830</ele>
        <time>2014-09-14T08:52:15.000Z</time>
      </trkpt>
      <trkpt lat="43.85278" lon="3.15012">
        <ele>830</ele>
        <time>2014-09-14T08:52:17.000Z</time>
      </trkpt>
      <trkpt lat="43.85274" lon="3.15012">
        <ele>831</ele>
        <time>2014-09-14T08:52:19.000Z</time>
      </trkpt>
      <trkpt lat="43.8527" lon="3.15013">
        <ele>833</ele>
        <time>2014-09-14T08:52:21.000Z</time>
      </trkpt>
      <trkpt lat="43.85261" lon="3.15016">
        <ele>831</ele>
        <time>2014-09-14T08:52:23.000Z</time>
      </trkpt>
      <trkpt lat="43.85261" lon="3.15016">
        <ele>831</ele>
        <time>2014-09-14T08:52:25.000Z</time>
      </trkpt>
      <trkpt lat="43.85251" lon="3.15015">
        <ele>830</ele>
        <time>2014-09-14T08:52:27.000Z</time>
      </trkpt>
      <trkpt lat="43.85242" lon="3.15012">
        <ele>828</ele>
        <time>2014-09-14T08:52:29.000Z</time>
      </trkpt>
      <trkpt lat="43.85231" lon="3.15008">
        <ele>822</ele>
        <time>2014-09-14T08:52:31.000Z</time>
      </trkpt>
      <trkpt lat="43.85222" lon="3.15004">
        <ele>822</ele>
        <time>2014-09-14T08:52:33.000Z</time>
      </trkpt>
      <trkpt lat="43.85213" lon="3.15002">
        <ele>820</ele>
        <time>2014-09-14T08:52:35.000Z</time>
      </trkpt>
      <trkpt lat="43.85204" lon="3.15">
        <ele>820</ele>
        <time>2014-09-14T08:52:37.000Z</time>
      </trkpt>
      <trkpt lat="43.85193" lon="3.15002">
        <ele>821</ele>
        <time>2014-09-14T08:52:39.000Z</time>
      </trkpt>
      <trkpt lat="43.85181" lon="3.15005">
        <ele>825</ele>
        <time>2014-09-14T08:52:41.000Z</time>
      </trkpt>
      <trkpt lat="43.85165" lon="3.15012">
        <ele>822</ele>
        <time>2014-09-14T08:52:43.000Z</time>
      </trkpt>
      <trkpt lat="43.85154" lon="3.15013">
        <ele>823</ele>
        <time>2014-09-14T08:52:45.000Z</time>
      </trkpt>
      <trkpt lat="43.85145" lon="3.15016">
        <ele>824</ele>
        <time>2014-09-14T08:52:47.000Z</time>
      </trkpt>
      <trkpt lat="43.85137" lon="3.15016">
        <ele>826</ele>
        <time>2014-09-14T08:52:49.000Z</time>
      </trkpt>
      <trkpt lat="43.8513" lon="3.15015">
        <ele>826</ele>
        <time>2014-09-14T08:52:51.000Z</time>
      </trkpt>
      <trkpt lat="43.85122" lon="3.15015">
        <ele>827</ele>
        <time>2014-09-14T08:52:53.000Z</time>
      </trkpt>
      <trkpt lat="43.85114" lon="3.15014">
        <ele>828</ele>
        <time>2014-09-14T08:52:55.000Z</time>
      </trkpt>
      <trkpt lat="43.85104" lon="3.15022">
        <ele>830</ele>
        <time>2014-09-14T08:52:57.000Z</time>
      </trkpt>
      <trkpt lat="43.85097" lon="3.15023">
        <ele>829</ele>
        <time>2014-09-14T08:52:59.000Z</time>
      </trkpt>
      <trkpt lat="43.85089" lon="3.15023">
        <ele>828</ele>
        <time>2014-09-14T08:53:01.000Z</time>
      </trkpt>
      <trkpt lat="43.85082" lon="3.1502">
        <ele>827</ele>
        <time>2014-09-14T08:53:03.000Z</time>
      </trkpt>
      <trkpt lat="43.85075" lon="3.15016">
        <ele>826</ele>
        <time>2014-09-14T08:53:05.000Z</time>
      </trkpt>
      <trkpt lat="43.85067" lon="3.15016">
        <ele>827</ele>
        <time>2014-09-14T08:53:07.000Z</time>
      </trkpt>
      <trkpt lat="43.85059" lon="3.15017">
        <ele>829</ele>
        <time>2014-09-14T08:53:09.000Z</time>
      </trkpt>
      <trkpt lat="43.85052" lon="3.15014">
        <ele>829</ele>
        <time>2014-09-14T08:53:11.000Z</time>
      </trkpt>
      <trkpt lat="43.85052" lon="3.15014">
        <ele>829</ele>
        <time>2014-09-14T08:53:13.000Z</time>
      </trkpt>
      <trkpt lat="43.85048" lon="3.1501">
        <ele>832</ele>
        <time>2014-09-14T08:53:15.000Z</time>
      </trkpt>
      <trkpt lat="43.85048" lon="3.1501">
        <ele>832</ele>
        <time>2014-09-14T08:53:17.000Z</time>
      </trkpt>
      <trkpt lat="43.8504" lon="3.15008">
        <ele>835</ele>
        <time>2014-09-14T08:53:19.000Z</time>
      </trkpt>
      <trkpt lat="43.85033" lon="3.15004">
        <ele>832</ele>
        <time>2014-09-14T08:53:21.000Z</time>
      </trkpt>
      <trkpt lat="43.85025" lon="3.14999">
        <ele>833</ele>
        <time>2014-09-14T08:53:23.000Z</time>
      </trkpt>
      <trkpt lat="43.85015" lon="3.14997">
        <ele>831</ele>
        <time>2014-09-14T08:53:25.000Z</time>
      </trkpt>
      <trkpt lat="43.85005" lon="3.14996">
        <ele>828</ele>
        <time>2014-09-14T08:53:27.000Z</time>
      </trkpt>
      <trkpt lat="43.84996" lon="3.14992">
        <ele>827</ele>
        <time>2014-09-14T08:53:29.000Z</time>
      </trkpt>
      <trkpt lat="43.8499" lon="3.14984">
        <ele>831</ele>
        <time>2014-09-14T08:53:31.000Z</time>
      </trkpt>
      <trkpt lat="43.84983" lon="3.14978">
        <ele>828</ele>
        <time>2014-09-14T08:53:33.000Z</time>
      </trkpt>
      <trkpt lat="43.84974" lon="3.14976">
        <ele>828</ele>
        <time>2014-09-14T08:53:35.000Z</time>
      </trkpt>
      <trkpt lat="43.84962" lon="3.14974">
        <ele>829</ele>
        <time>2014-09-14T08:53:37.000Z</time>
      </trkpt>
      <trkpt lat="43.84943" lon="3.14971">
        <ele>827</ele>
        <time>2014-09-14T08:53:40.000Z</time>
      </trkpt>
      <trkpt lat="43.84932" lon="3.1496">
        <ele>829</ele>
        <time>2014-09-14T08:53:43.000Z</time>
      </trkpt>
      <trkpt lat="43.84924" lon="3.14952">
        <ele>827</ele>
        <time>2014-09-14T08:53:45.000Z</time>
      </trkpt>
      <trkpt lat="43.84916" lon="3.14948">
        <ele>828</ele>
        <time>2014-09-14T08:53:47.000Z</time>
      </trkpt>
      <trkpt lat="43.84909" lon="3.14938">
        <ele>826</ele>
        <time>2014-09-14T08:53:49.000Z</time>
      </trkpt>
      <trkpt lat="43.84905" lon="3.14929">
        <ele>827</ele>
        <time>2014-09-14T08:53:51.000Z</time>
      </trkpt>
      <trkpt lat="43.849" lon="3.14922">
        <ele>827</ele>
        <time>2014-09-14T08:53:53.000Z</time>
      </trkpt>
      <trkpt lat="43.849" lon="3.14922">
        <ele>827</ele>
        <time>2014-09-14T08:53:55.000Z</time>
      </trkpt>
      <trkpt lat="43.84893" lon="3.14908">
        <ele>828</ele>
        <time>2014-09-14T08:53:57.000Z</time>
      </trkpt>
      <trkpt lat="43.84888" lon="3.14903">
        <ele>826</ele>
        <time>2014-09-14T08:53:59.000Z</time>
      </trkpt>
      <trkpt lat="43.84881" lon="3.149">
        <ele>827</ele>
        <time>2014-09-14T08:54:01.000Z</time>
      </trkpt>
      <trkpt lat="43.84875" lon="3.14898">
        <ele>827</ele>
        <time>2014-09-14T08:54:03.000Z</time>
      </trkpt>
      <trkpt lat="43.84869" lon="3.14897">
        <ele>829</ele>
        <time>2014-09-14T08:54:05.000Z</time>
      </trkpt>
      <trkpt lat="43.84864" lon="3.14895">
        <ele>827</ele>
        <time>2014-09-14T08:54:07.000Z</time>
      </trkpt>
      <trkpt lat="43.84864" lon="3.14895">
        <ele>827</ele>
        <time>2014-09-14T08:54:09.000Z</time>
      </trkpt>
      <trkpt lat="43.84854" lon="3.14885">
        <ele>828</ele>
        <time>2014-09-14T08:54:11.000Z</time>
      </trkpt>
      <trkpt lat="43.84847" lon="3.1488">
        <ele>825</ele>
        <time>2014-09-14T08:54:13.000Z</time>
      </trkpt>
      <trkpt lat="43.84841" lon="3.14874">
        <ele>824</ele>
        <time>2014-09-14T08:54:15.000Z</time>
      </trkpt>
      <trkpt lat="43.84835" lon="3.14869">
        <ele>825</ele>
        <time>2014-09-14T08:54:17.000Z</time>
      </trkpt>
      <trkpt lat="43.84829" lon="3.14865">
        <ele>827</ele>
        <time>2014-09-14T08:54:19.000Z</time>
      </trkpt>
      <trkpt lat="43.84823" lon="3.14861">
        <ele>828</ele>
        <time>2014-09-14T08:54:21.000Z</time>
      </trkpt>
      <trkpt lat="43.84823" lon="3.14861">
        <ele>828</ele>
        <time>2014-09-14T08:54:23.000Z</time>
      </trkpt>
      <trkpt lat="43.84815" lon="3.14852">
        <ele>826</ele>
        <time>2014-09-14T08:54:25.000Z</time>
      </trkpt>
      <trkpt lat="43.84815" lon="3.14852">
        <ele>826</ele>
        <time>2014-09-14T08:54:27.000Z</time>
      </trkpt>
      <trkpt lat="43.84806" lon="3.14842">
        <ele>825</ele>
        <time>2014-09-14T08:54:29.000Z</time>
      </trkpt>
      <trkpt lat="43.84801" lon="3.14838">
        <ele>824</ele>
        <time>2014-09-14T08:54:31.000Z</time>
      </trkpt>
      <trkpt lat="43.84795" lon="3.14832">
        <ele>824</ele>
        <time>2014-09-14T08:54:33.000Z</time>
      </trkpt>
      <trkpt lat="43.8479" lon="3.14826">
        <ele>822</ele>
        <time>2014-09-14T08:54:35.000Z</time>
      </trkpt>
      <trkpt lat="43.84785" lon="3.14821">
        <ele>823</ele>
        <time>2014-09-14T08:54:37.000Z</time>
      </trkpt>
      <trkpt lat="43.8478" lon="3.14815">
        <ele>823</ele>
        <time>2014-09-14T08:54:39.000Z</time>
      </trkpt>
      <trkpt lat="43.8478" lon="3.14815">
        <ele>823</ele>
        <time>2014-09-14T08:54:41.000Z</time>
      </trkpt>
      <trkpt lat="43.84773" lon="3.14818">
        <ele>826</ele>
        <time>2014-09-14T08:54:43.000Z</time>
      </trkpt>
      <trkpt lat="43.84769" lon="3.14826">
        <ele>825</ele>
        <time>2014-09-14T08:54:45.000Z</time>
      </trkpt>
      <trkpt lat="43.84763" lon="3.14863">
        <ele>827</ele>
        <time>2014-09-14T08:54:49.000Z</time>
      </trkpt>
      <trkpt lat="43.84758" lon="3.14876">
        <ele>829</ele>
        <time>2014-09-14T08:54:51.000Z</time>
      </trkpt>
      <trkpt lat="43.84755" lon="3.14885">
        <ele>829</ele>
        <time>2014-09-14T08:54:53.000Z</time>
      </trkpt>
      <trkpt lat="43.84751" lon="3.14896">
        <ele>830</ele>
        <time>2014-09-14T08:54:55.000Z</time>
      </trkpt>
      <trkpt lat="43.84749" lon="3.14908">
        <ele>831</ele>
        <time>2014-09-14T08:54:57.000Z</time>
      </trkpt>
      <trkpt lat="43.84743" lon="3.14917">
        <ele>832</ele>
        <time>2014-09-14T08:54:59.000Z</time>
      </trkpt>
      <trkpt lat="43.84739" lon="3.14928">
        <ele>832</ele>
        <time>2014-09-14T08:55:01.000Z</time>
      </trkpt>
      <trkpt lat="43.84734" lon="3.14941">
        <ele>832</ele>
        <time>2014-09-14T08:55:03.000Z</time>
      </trkpt>
      <trkpt lat="43.84731" lon="3.14951">
        <ele>830</ele>
        <time>2014-09-14T08:55:05.000Z</time>
      </trkpt>
      <trkpt lat="43.84726" lon="3.14965">
        <ele>829</ele>
        <time>2014-09-14T08:55:07.000Z</time>
      </trkpt>
      <trkpt lat="43.84719" lon="3.14976">
        <ele>834</ele>
        <time>2014-09-14T08:55:09.000Z</time>
      </trkpt>
      <trkpt lat="43.84715" lon="3.14988">
        <ele>832</ele>
        <time>2014-09-14T08:55:11.000Z</time>
      </trkpt>
      <trkpt lat="43.84712" lon="3.15005">
        <ele>834</ele>
        <time>2014-09-14T08:55:13.000Z</time>
      </trkpt>
      <trkpt lat="43.84712" lon="3.15026">
        <ele>833</ele>
        <time>2014-09-14T08:55:15.000Z</time>
      </trkpt>
      <trkpt lat="43.8471" lon="3.15044">
        <ele>832</ele>
        <time>2014-09-14T08:55:17.000Z</time>
      </trkpt>
      <trkpt lat="43.84707" lon="3.15062">
        <ele>832</ele>
        <time>2014-09-14T08:55:19.000Z</time>
      </trkpt>
      <trkpt lat="43.84706" lon="3.15078">
        <ele>832</ele>
        <time>2014-09-14T08:55:21.000Z</time>
      </trkpt>
      <trkpt lat="43.84705" lon="3.15095">
        <ele>832</ele>
        <time>2014-09-14T08:55:23.000Z</time>
      </trkpt>
      <trkpt lat="43.84705" lon="3.15114">
        <ele>832</ele>
        <time>2014-09-14T08:55:25.000Z</time>
      </trkpt>
      <trkpt lat="43.84704" lon="3.15132">
        <ele>832</ele>
        <time>2014-09-14T08:55:27.000Z</time>
      </trkpt>
      <trkpt lat="43.847" lon="3.15152">
        <ele>829</ele>
        <time>2014-09-14T08:55:29.000Z</time>
      </trkpt>
      <trkpt lat="43.84695" lon="3.1517">
        <ele>829</ele>
        <time>2014-09-14T08:55:31.000Z</time>
      </trkpt>
      <trkpt lat="43.84689" lon="3.15186">
        <ele>828</ele>
        <time>2014-09-14T08:55:33.000Z</time>
      </trkpt>
      <trkpt lat="43.84683" lon="3.15205">
        <ele>826</ele>
        <time>2014-09-14T08:55:35.000Z</time>
      </trkpt>
      <trkpt lat="43.84679" lon="3.15223">
        <ele>826</ele>
        <time>2014-09-14T08:55:37.000Z</time>
      </trkpt>
      <trkpt lat="43.84676" lon="3.15243">
        <ele>825</ele>
        <time>2014-09-14T08:55:39.000Z</time>
      </trkpt>
      <trkpt lat="43.84672" lon="3.15258">
        <ele>826</ele>
        <time>2014-09-14T08:55:41.000Z</time>
      </trkpt>
      <trkpt lat="43.84669" lon="3.15277">
        <ele>827</ele>
        <time>2014-09-14T08:55:43.000Z</time>
      </trkpt>
      <trkpt lat="43.84666" lon="3.15297">
        <ele>825</ele>
        <time>2014-09-14T08:55:45.000Z</time>
      </trkpt>
      <trkpt lat="43.84662" lon="3.15314">
        <ele>824</ele>
        <time>2014-09-14T08:55:47.000Z</time>
      </trkpt>
      <trkpt lat="43.84657" lon="3.15328">
        <ele>828</ele>
        <time>2014-09-14T08:55:49.000Z</time>
      </trkpt>
      <trkpt lat="43.8465" lon="3.15338">
        <ele>826</ele>
        <time>2014-09-14T08:55:51.000Z</time>
      </trkpt>
      <trkpt lat="43.84638" lon="3.15345">
        <ele>828</ele>
        <time>2014-09-14T08:55:53.000Z</time>
      </trkpt>
      <trkpt lat="43.84629" lon="3.15347">
        <ele>828</ele>
        <time>2014-09-14T08:55:55.000Z</time>
      </trkpt>
      <trkpt lat="43.8462" lon="3.15354">
        <ele>828</ele>
        <time>2014-09-14T08:55:57.000Z</time>
      </trkpt>
      <trkpt lat="43.84614" lon="3.15361">
        <ele>827</ele>
        <time>2014-09-14T08:55:59.000Z</time>
      </trkpt>
      <trkpt lat="43.84607" lon="3.15371">
        <ele>826</ele>
        <time>2014-09-14T08:56:01.000Z</time>
      </trkpt>
      <trkpt lat="43.84602" lon="3.1538">
        <ele>825</ele>
        <time>2014-09-14T08:56:03.000Z</time>
      </trkpt>
      <trkpt lat="43.84594" lon="3.15388">
        <ele>825</ele>
        <time>2014-09-14T08:56:05.000Z</time>
      </trkpt>
      <trkpt lat="43.84587" lon="3.15395">
        <ele>826</ele>
        <time>2014-09-14T08:56:07.000Z</time>
      </trkpt>
      <trkpt lat="43.84581" lon="3.15403">
        <ele>826</ele>
        <time>2014-09-14T08:56:09.000Z</time>
      </trkpt>
      <trkpt lat="43.84577" lon="3.15413">
        <ele>824</ele>
        <time>2014-09-14T08:56:11.000Z</time>
      </trkpt>
      <trkpt lat="43.84573" lon="3.15424">
        <ele>825</ele>
        <time>2014-09-14T08:56:13.000Z</time>
      </trkpt>
      <trkpt lat="43.84574" lon="3.15436">
        <ele>823</ele>
        <time>2014-09-14T08:56:15.000Z</time>
      </trkpt>
      <trkpt lat="43.84575" lon="3.15449">
        <ele>823</ele>
        <time>2014-09-14T08:56:17.000Z</time>
      </trkpt>
      <trkpt lat="43.84576" lon="3.1546">
        <ele>825</ele>
        <time>2014-09-14T08:56:19.000Z</time>
      </trkpt>
      <trkpt lat="43.84578" lon="3.15472">
        <ele>825</ele>
        <time>2014-09-14T08:56:21.000Z</time>
      </trkpt>
      <trkpt lat="43.84581" lon="3.15484">
        <ele>826</ele>
        <time>2014-09-14T08:56:23.000Z</time>
      </trkpt>
      <trkpt lat="43.84583" lon="3.15497">
        <ele>826</ele>
        <time>2014-09-14T08:56:25.000Z</time>
      </trkpt>
      <trkpt lat="43.84581" lon="3.15506">
        <ele>826</ele>
        <time>2014-09-14T08:56:27.000Z</time>
      </trkpt>
      <trkpt lat="43.84576" lon="3.15514">
        <ele>827</ele>
        <time>2014-09-14T08:56:29.000Z</time>
      </trkpt>
      <trkpt lat="43.84569" lon="3.1552">
        <ele>829</ele>
        <time>2014-09-14T08:56:31.000Z</time>
      </trkpt>
      <trkpt lat="43.84566" lon="3.15529">
        <ele>828</ele>
        <time>2014-09-14T08:56:33.000Z</time>
      </trkpt>
      <trkpt lat="43.84563" lon="3.15537">
        <ele>828</ele>
        <time>2014-09-14T08:56:35.000Z</time>
      </trkpt>
      <trkpt lat="43.84562" lon="3.15547">
        <ele>827</ele>
        <time>2014-09-14T08:56:37.000Z</time>
      </trkpt>
      <trkpt lat="43.84563" lon="3.15557">
        <ele>828</ele>
        <time>2014-09-14T08:56:39.000Z</time>
      </trkpt>
      <trkpt lat="43.84565" lon="3.15567">
        <ele>828</ele>
        <time>2014-09-14T08:56:41.000Z</time>
      </trkpt>
      <trkpt lat="43.84564" lon="3.15577">
        <ele>831</ele>
        <time>2014-09-14T08:56:43.000Z</time>
      </trkpt>
      <trkpt lat="43.84564" lon="3.15587">
        <ele>831</ele>
        <time>2014-09-14T08:56:45.000Z</time>
      </trkpt>
      <trkpt lat="43.84564" lon="3.15596">
        <ele>831</ele>
        <time>2014-09-14T08:56:47.000Z</time>
      </trkpt>
      <trkpt lat="43.84565" lon="3.15605">
        <ele>833</ele>
        <time>2014-09-14T08:56:49.000Z</time>
      </trkpt>
      <trkpt lat="43.84568" lon="3.15614">
        <ele>833</ele>
        <time>2014-09-14T08:56:51.000Z</time>
      </trkpt>
      <trkpt lat="43.84571" lon="3.15623">
        <ele>832</ele>
        <time>2014-09-14T08:56:53.000Z</time>
      </trkpt>
      <trkpt lat="43.84573" lon="3.15634">
        <ele>830</ele>
        <time>2014-09-14T08:56:55.000Z</time>
      </trkpt>
      <trkpt lat="43.84571" lon="3.15645">
        <ele>830</ele>
        <time>2014-09-14T08:56:57.000Z</time>
      </trkpt>
      <trkpt lat="43.8457" lon="3.15655">
        <ele>830</ele>
        <time>2014-09-14T08:56:59.000Z</time>
      </trkpt>
      <trkpt lat="43.84569" lon="3.15665">
        <ele>830</ele>
        <time>2014-09-14T08:57:01.000Z</time>
      </trkpt>
      <trkpt lat="43.84567" lon="3.15675">
        <ele>833</ele>
        <time>2014-09-14T08:57:03.000Z</time>
      </trkpt>
      <trkpt lat="43.84567" lon="3.15675">
        <ele>833</ele>
        <time>2014-09-14T08:57:05.000Z</time>
      </trkpt>
      <trkpt lat="43.84563" lon="3.15689">
        <ele>832</ele>
        <time>2014-09-14T08:57:07.000Z</time>
      </trkpt>
      <trkpt lat="43.84562" lon="3.15696">
        <ele>831</ele>
        <time>2014-09-14T08:57:09.000Z</time>
      </trkpt>
      <trkpt lat="43.84559" lon="3.15703">
        <ele>834</ele>
        <time>2014-09-14T08:57:11.000Z</time>
      </trkpt>
      <trkpt lat="43.84556" lon="3.15712">
        <ele>833</ele>
        <time>2014-09-14T08:57:13.000Z</time>
      </trkpt>
      <trkpt lat="43.84553" lon="3.15722">
        <ele>833</ele>
        <time>2014-09-14T08:57:15.000Z</time>
      </trkpt>
      <trkpt lat="43.84549" lon="3.15731">
        <ele>833</ele>
        <time>2014-09-14T08:57:17.000Z</time>
      </trkpt>
      <trkpt lat="43.84546" lon="3.15741">
        <ele>836</ele>
        <time>2014-09-14T08:57:19.000Z</time>
      </trkpt>
      <trkpt lat="43.84542" lon="3.15749">
        <ele>837</ele>
        <time>2014-09-14T08:57:21.000Z</time>
      </trkpt>
      <trkpt lat="43.84539" lon="3.15758">
        <ele>839</ele>
        <time>2014-09-14T08:57:23.000Z</time>
      </trkpt>
      <trkpt lat="43.84537" lon="3.15767">
        <ele>840</ele>
        <time>2014-09-14T08:57:25.000Z</time>
      </trkpt>
      <trkpt lat="43.84534" lon="3.15776">
        <ele>839</ele>
        <time>2014-09-14T08:57:27.000Z</time>
      </trkpt>
      <trkpt lat="43.84531" lon="3.15785">
        <ele>836</ele>
        <time>2014-09-14T08:57:29.000Z</time>
      </trkpt>
      <trkpt lat="43.84528" lon="3.15793">
        <ele>836</ele>
        <time>2014-09-14T08:57:31.000Z</time>
      </trkpt>
      <trkpt lat="43.84525" lon="3.15803">
        <ele>837</ele>
        <time>2014-09-14T08:57:33.000Z</time>
      </trkpt>
      <trkpt lat="43.8452" lon="3.15812">
        <ele>840</ele>
        <time>2014-09-14T08:57:35.000Z</time>
      </trkpt>
      <trkpt lat="43.84516" lon="3.15821">
        <ele>841</ele>
        <time>2014-09-14T08:57:37.000Z</time>
      </trkpt>
      <trkpt lat="43.84511" lon="3.15833">
        <ele>839</ele>
        <time>2014-09-14T08:57:39.000Z</time>
      </trkpt>
      <trkpt lat="43.84507" lon="3.15841">
        <ele>841</ele>
        <time>2014-09-14T08:57:41.000Z</time>
      </trkpt>
      <trkpt lat="43.84504" lon="3.15854">
        <ele>838</ele>
        <time>2014-09-14T08:57:43.000Z</time>
      </trkpt>
      <trkpt lat="43.84501" lon="3.15865">
        <ele>838</ele>
        <time>2014-09-14T08:57:45.000Z</time>
      </trkpt>
      <trkpt lat="43.84497" lon="3.15875">
        <ele>838</ele>
        <time>2014-09-14T08:57:47.000Z</time>
      </trkpt>
      <trkpt lat="43.84495" lon="3.15884">
        <ele>840</ele>
        <time>2014-09-14T08:57:49.000Z</time>
      </trkpt>
      <trkpt lat="43.84494" lon="3.15893">
        <ele>837</ele>
        <time>2014-09-14T08:57:51.000Z</time>
      </trkpt>
      <trkpt lat="43.84492" lon="3.15902">
        <ele>839</ele>
        <time>2014-09-14T08:57:53.000Z</time>
      </trkpt>
      <trkpt lat="43.8449" lon="3.1591">
        <ele>839</ele>
        <time>2014-09-14T08:57:55.000Z</time>
      </trkpt>
      <trkpt lat="43.84488" lon="3.15918">
        <ele>841</ele>
        <time>2014-09-14T08:57:57.000Z</time>
      </trkpt>
      <trkpt lat="43.84486" lon="3.15925">
        <ele>841</ele>
        <time>2014-09-14T08:57:59.000Z</time>
      </trkpt>
      <trkpt lat="43.84484" lon="3.15934">
        <ele>840</ele>
        <time>2014-09-14T08:58:01.000Z</time>
      </trkpt>
      <trkpt lat="43.84482" lon="3.15945">
        <ele>840</ele>
        <time>2014-09-14T08:58:03.000Z</time>
      </trkpt>
      <trkpt lat="43.8448" lon="3.15955">
        <ele>842</ele>
        <time>2014-09-14T08:58:05.000Z</time>
      </trkpt>
      <trkpt lat="43.84477" lon="3.15966">
        <ele>844</ele>
        <time>2014-09-14T08:58:07.000Z</time>
      </trkpt>
      <trkpt lat="43.84475" lon="3.15976">
        <ele>844</ele>
        <time>2014-09-14T08:58:09.000Z</time>
      </trkpt>
      <trkpt lat="43.84474" lon="3.15986">
        <ele>844</ele>
        <time>2014-09-14T08:58:11.000Z</time>
      </trkpt>
      <trkpt lat="43.84472" lon="3.15998">
        <ele>845</ele>
        <time>2014-09-14T08:58:13.000Z</time>
      </trkpt>
      <trkpt lat="43.84468" lon="3.16009">
        <ele>843</ele>
        <time>2014-09-14T08:58:15.000Z</time>
      </trkpt>
      <trkpt lat="43.84468" lon="3.16024">
        <ele>842</ele>
        <time>2014-09-14T08:58:17.000Z</time>
      </trkpt>
      <trkpt lat="43.84465" lon="3.16037">
        <ele>843</ele>
        <time>2014-09-14T08:58:19.000Z</time>
      </trkpt>
      <trkpt lat="43.84462" lon="3.16048">
        <ele>843</ele>
        <time>2014-09-14T08:58:21.000Z</time>
      </trkpt>
      <trkpt lat="43.8446" lon="3.1606">
        <ele>844</ele>
        <time>2014-09-14T08:58:23.000Z</time>
      </trkpt>
      <trkpt lat="43.8446" lon="3.16071">
        <ele>842</ele>
        <time>2014-09-14T08:58:25.000Z</time>
      </trkpt>
      <trkpt lat="43.84457" lon="3.16084">
        <ele>842</ele>
        <time>2014-09-14T08:58:27.000Z</time>
      </trkpt>
      <trkpt lat="43.84453" lon="3.16094">
        <ele>845</ele>
        <time>2014-09-14T08:58:29.000Z</time>
      </trkpt>
      <trkpt lat="43.8445" lon="3.16105">
        <ele>847</ele>
        <time>2014-09-14T08:58:31.000Z</time>
      </trkpt>
      <trkpt lat="43.84446" lon="3.16116">
        <ele>844</ele>
        <time>2014-09-14T08:58:33.000Z</time>
      </trkpt>
      <trkpt lat="43.84443" lon="3.16127">
        <ele>843</ele>
        <time>2014-09-14T08:58:35.000Z</time>
      </trkpt>
      <trkpt lat="43.84441" lon="3.16137">
        <ele>845</ele>
        <time>2014-09-14T08:58:37.000Z</time>
      </trkpt>
      <trkpt lat="43.84438" lon="3.16144">
        <ele>842</ele>
        <time>2014-09-14T08:58:39.000Z</time>
      </trkpt>
      <trkpt lat="43.84433" lon="3.16149">
        <ele>841</ele>
        <time>2014-09-14T08:58:41.000Z</time>
      </trkpt>
      <trkpt lat="43.84427" lon="3.16151">
        <ele>844</ele>
        <time>2014-09-14T08:58:43.000Z</time>
      </trkpt>
      <trkpt lat="43.84418" lon="3.16153">
        <ele>843</ele>
        <time>2014-09-14T08:58:45.000Z</time>
      </trkpt>
      <trkpt lat="43.8441" lon="3.16157">
        <ele>843</ele>
        <time>2014-09-14T08:58:47.000Z</time>
      </trkpt>
      <trkpt lat="43.84404" lon="3.16165">
        <ele>843</ele>
        <time>2014-09-14T08:58:49.000Z</time>
      </trkpt>
      <trkpt lat="43.84398" lon="3.16174">
        <ele>842</ele>
        <time>2014-09-14T08:58:51.000Z</time>
      </trkpt>
      <trkpt lat="43.84389" lon="3.16181">
        <ele>842</ele>
        <time>2014-09-14T08:58:53.000Z</time>
      </trkpt>
      <trkpt lat="43.8438" lon="3.16191">
        <ele>842</ele>
        <time>2014-09-14T08:58:55.000Z</time>
      </trkpt>
      <trkpt lat="43.84373" lon="3.16201">
        <ele>844</ele>
        <time>2014-09-14T08:58:57.000Z</time>
      </trkpt>
      <trkpt lat="43.84365" lon="3.16213">
        <ele>845</ele>
        <time>2014-09-14T08:58:59.000Z</time>
      </trkpt>
      <trkpt lat="43.84359" lon="3.16227">
        <ele>843</ele>
        <time>2014-09-14T08:59:01.000Z</time>
      </trkpt>
      <trkpt lat="43.8435" lon="3.1624">
        <ele>843</ele>
        <time>2014-09-14T08:59:03.000Z</time>
      </trkpt>
      <trkpt lat="43.84341" lon="3.16253">
        <ele>841</ele>
        <time>2014-09-14T08:59:05.000Z</time>
      </trkpt>
      <trkpt lat="43.84335" lon="3.16269">
        <ele>841</ele>
        <time>2014-09-14T08:59:07.000Z</time>
      </trkpt>
      <trkpt lat="43.84331" lon="3.16286">
        <ele>841</ele>
        <time>2014-09-14T08:59:09.000Z</time>
      </trkpt>
      <trkpt lat="43.84327" lon="3.163">
        <ele>841</ele>
        <time>2014-09-14T08:59:11.000Z</time>
      </trkpt>
      <trkpt lat="43.84318" lon="3.16312">
        <ele>839</ele>
        <time>2014-09-14T08:59:13.000Z</time>
      </trkpt>
      <trkpt lat="43.84308" lon="3.16327">
        <ele>838</ele>
        <time>2014-09-14T08:59:15.000Z</time>
      </trkpt>
      <trkpt lat="43.843" lon="3.16342">
        <ele>837</ele>
        <time>2014-09-14T08:59:17.000Z</time>
      </trkpt>
      <trkpt lat="43.84292" lon="3.16357">
        <ele>837</ele>
        <time>2014-09-14T08:59:19.000Z</time>
      </trkpt>
      <trkpt lat="43.8428" lon="3.16368">
        <ele>836</ele>
        <time>2014-09-14T08:59:21.000Z</time>
      </trkpt>
      <trkpt lat="43.84268" lon="3.16379">
        <ele>835</ele>
        <time>2014-09-14T08:59:23.000Z</time>
      </trkpt>
      <trkpt lat="43.84258" lon="3.16391">
        <ele>833</ele>
        <time>2014-09-14T08:59:25.000Z</time>
      </trkpt>
      <trkpt lat="43.84252" lon="3.16406">
        <ele>834</ele>
        <time>2014-09-14T08:59:27.000Z</time>
      </trkpt>
      <trkpt lat="43.84243" lon="3.16418">
        <ele>832</ele>
        <time>2014-09-14T08:59:29.000Z</time>
      </trkpt>
      <trkpt lat="43.84231" lon="3.16427">
        <ele>831</ele>
        <time>2014-09-14T08:59:31.000Z</time>
      </trkpt>
      <trkpt lat="43.84218" lon="3.16436">
        <ele>831</ele>
        <time>2014-09-14T08:59:33.000Z</time>
      </trkpt>
      <trkpt lat="43.84206" lon="3.16442">
        <ele>830</ele>
        <time>2014-09-14T08:59:35.000Z</time>
      </trkpt>
      <trkpt lat="43.84196" lon="3.16453">
        <ele>830</ele>
        <time>2014-09-14T08:59:37.000Z</time>
      </trkpt>
      <trkpt lat="43.84186" lon="3.16467">
        <ele>830</ele>
        <time>2014-09-14T08:59:39.000Z</time>
      </trkpt>
      <trkpt lat="43.84178" lon="3.16486">
        <ele>829</ele>
        <time>2014-09-14T08:59:41.000Z</time>
      </trkpt>
      <trkpt lat="43.84174" lon="3.16507">
        <ele>830</ele>
        <time>2014-09-14T08:59:43.000Z</time>
      </trkpt>
      <trkpt lat="43.84176" lon="3.16526">
        <ele>829</ele>
        <time>2014-09-14T08:59:45.000Z</time>
      </trkpt>
      <trkpt lat="43.84179" lon="3.16545">
        <ele>830</ele>
        <time>2014-09-14T08:59:47.000Z</time>
      </trkpt>
      <trkpt lat="43.84179" lon="3.16565">
        <ele>829</ele>
        <time>2014-09-14T08:59:49.000Z</time>
      </trkpt>
      <trkpt lat="43.8418" lon="3.16583">
        <ele>829</ele>
        <time>2014-09-14T08:59:51.000Z</time>
      </trkpt>
      <trkpt lat="43.84187" lon="3.166">
        <ele>828</ele>
        <time>2014-09-14T08:59:53.000Z</time>
      </trkpt>
      <trkpt lat="43.84196" lon="3.16616">
        <ele>827</ele>
        <time>2014-09-14T08:59:55.000Z</time>
      </trkpt>
      <trkpt lat="43.84212" lon="3.16624">
        <ele>826</ele>
        <time>2014-09-14T08:59:57.000Z</time>
      </trkpt>
      <trkpt lat="43.84219" lon="3.16642">
        <ele>825</ele>
        <time>2014-09-14T08:59:59.000Z</time>
      </trkpt>
      <trkpt lat="43.84223" lon="3.16663">
        <ele>823</ele>
        <time>2014-09-14T09:00:01.000Z</time>
      </trkpt>
      <trkpt lat="43.84227" lon="3.16682">
        <ele>822</ele>
        <time>2014-09-14T09:00:03.000Z</time>
      </trkpt>
      <trkpt lat="43.84233" lon="3.16699">
        <ele>824</ele>
        <time>2014-09-14T09:00:05.000Z</time>
      </trkpt>
      <trkpt lat="43.84244" lon="3.16711">
        <ele>823</ele>
        <time>2014-09-14T09:00:07.000Z</time>
      </trkpt>
      <trkpt lat="43.84252" lon="3.16719">
        <ele>821</ele>
        <time>2014-09-14T09:00:09.000Z</time>
      </trkpt>
      <trkpt lat="43.84258" lon="3.16724">
        <ele>821</ele>
        <time>2014-09-14T09:00:11.000Z</time>
      </trkpt>
      <trkpt lat="43.84246" lon="3.16745">
        <ele>821</ele>
        <time>2014-09-14T09:00:14.000Z</time>
      </trkpt>
      <trkpt lat="43.84238" lon="3.16758">
        <ele>821</ele>
        <time>2014-09-14T09:00:16.000Z</time>
      </trkpt>
      <trkpt lat="43.84224" lon="3.16764">
        <ele>819</ele>
        <time>2014-09-14T09:00:18.000Z</time>
      </trkpt>
      <trkpt lat="43.84209" lon="3.16768">
        <ele>818</ele>
        <time>2014-09-14T09:00:20.000Z</time>
      </trkpt>
      <trkpt lat="43.84198" lon="3.16765">
        <ele>818</ele>
        <time>2014-09-14T09:00:22.000Z</time>
      </trkpt>
      <trkpt lat="43.84188" lon="3.16771">
        <ele>818</ele>
        <time>2014-09-14T09:00:24.000Z</time>
      </trkpt>
      <trkpt lat="43.84178" lon="3.16781">
        <ele>818</ele>
        <time>2014-09-14T09:00:26.000Z</time>
      </trkpt>
      <trkpt lat="43.84168" lon="3.16794">
        <ele>818</ele>
        <time>2014-09-14T09:00:28.000Z</time>
      </trkpt>
      <trkpt lat="43.84164" lon="3.16813">
        <ele>819</ele>
        <time>2014-09-14T09:00:30.000Z</time>
      </trkpt>
      <trkpt lat="43.84158" lon="3.16829">
        <ele>819</ele>
        <time>2014-09-14T09:00:32.000Z</time>
      </trkpt>
      <trkpt lat="43.84153" lon="3.16845">
        <ele>819</ele>
        <time>2014-09-14T09:00:34.000Z</time>
      </trkpt>
      <trkpt lat="43.84147" lon="3.16859">
        <ele>817</ele>
        <time>2014-09-14T09:00:36.000Z</time>
      </trkpt>
      <trkpt lat="43.84137" lon="3.16866">
        <ele>818</ele>
        <time>2014-09-14T09:00:38.000Z</time>
      </trkpt>
      <trkpt lat="43.84126" lon="3.16878">
        <ele>821</ele>
        <time>2014-09-14T09:00:40.000Z</time>
      </trkpt>
      <trkpt lat="43.84119" lon="3.16891">
        <ele>822</ele>
        <time>2014-09-14T09:00:42.000Z</time>
      </trkpt>
      <trkpt lat="43.84113" lon="3.16907">
        <ele>820</ele>
        <time>2014-09-14T09:00:44.000Z</time>
      </trkpt>
      <trkpt lat="43.8411" lon="3.16925">
        <ele>819</ele>
        <time>2014-09-14T09:00:46.000Z</time>
      </trkpt>
      <trkpt lat="43.84107" lon="3.16944">
        <ele>816</ele>
        <time>2014-09-14T09:00:48.000Z</time>
      </trkpt>
      <trkpt lat="43.841" lon="3.16958">
        <ele>814</ele>
        <time>2014-09-14T09:00:50.000Z</time>
      </trkpt>
      <trkpt lat="43.84092" lon="3.16976">
        <ele>812</ele>
        <time>2014-09-14T09:00:52.000Z</time>
      </trkpt>
      <trkpt lat="43.84087" lon="3.16994">
        <ele>812</ele>
        <time>2014-09-14T09:00:54.000Z</time>
      </trkpt>
      <trkpt lat="43.84082" lon="3.17011">
        <ele>812</ele>
        <time>2014-09-14T09:00:56.000Z</time>
      </trkpt>
      <trkpt lat="43.84075" lon="3.17029">
        <ele>811</ele>
        <time>2014-09-14T09:00:58.000Z</time>
      </trkpt>
      <trkpt lat="43.84072" lon="3.17046">
        <ele>810</ele>
        <time>2014-09-14T09:01:00.000Z</time>
      </trkpt>
      <trkpt lat="43.84066" lon="3.17059">
        <ele>811</ele>
        <time>2014-09-14T09:01:02.000Z</time>
      </trkpt>
      <trkpt lat="43.8406" lon="3.17076">
        <ele>811</ele>
        <time>2014-09-14T09:01:04.000Z</time>
      </trkpt>
      <trkpt lat="43.84054" lon="3.17093">
        <ele>812</ele>
        <time>2014-09-14T09:01:06.000Z</time>
      </trkpt>
      <trkpt lat="43.8405" lon="3.17107">
        <ele>812</ele>
        <time>2014-09-14T09:01:08.000Z</time>
      </trkpt>
      <trkpt lat="43.84051" lon="3.17122">
        <ele>813</ele>
        <time>2014-09-14T09:01:10.000Z</time>
      </trkpt>
      <trkpt lat="43.84051" lon="3.17136">
        <ele>813</ele>
        <time>2014-09-14T09:01:12.000Z</time>
      </trkpt>
      <trkpt lat="43.8405" lon="3.17151">
        <ele>814</ele>
        <time>2014-09-14T09:01:14.000Z</time>
      </trkpt>
      <trkpt lat="43.8405" lon="3.17168">
        <ele>813</ele>
        <time>2014-09-14T09:01:16.000Z</time>
      </trkpt>
      <trkpt lat="43.84054" lon="3.17183">
        <ele>812</ele>
        <time>2014-09-14T09:01:18.000Z</time>
      </trkpt>
      <trkpt lat="43.84061" lon="3.17195">
        <ele>813</ele>
        <time>2014-09-14T09:01:20.000Z</time>
      </trkpt>
      <trkpt lat="43.84067" lon="3.17209">
        <ele>813</ele>
        <time>2014-09-14T09:01:22.000Z</time>
      </trkpt>
      <trkpt lat="43.84077" lon="3.17216">
        <ele>813</ele>
        <time>2014-09-14T09:01:24.000Z</time>
      </trkpt>
      <trkpt lat="43.84085" lon="3.17222">
        <ele>812</ele>
        <time>2014-09-14T09:01:26.000Z</time>
      </trkpt>
      <trkpt lat="43.84088" lon="3.17233">
        <ele>811</ele>
        <time>2014-09-14T09:01:28.000Z</time>
      </trkpt>
      <trkpt lat="43.84084" lon="3.17249">
        <ele>809</ele>
        <time>2014-09-14T09:01:30.000Z</time>
      </trkpt>
      <trkpt lat="43.84077" lon="3.17263">
        <ele>810</ele>
        <time>2014-09-14T09:01:32.000Z</time>
      </trkpt>
      <trkpt lat="43.84071" lon="3.17273">
        <ele>809</ele>
        <time>2014-09-14T09:01:34.000Z</time>
      </trkpt>
      <trkpt lat="43.84066" lon="3.17287">
        <ele>809</ele>
        <time>2014-09-14T09:01:36.000Z</time>
      </trkpt>
      <trkpt lat="43.84057" lon="3.17294">
        <ele>808</ele>
        <time>2014-09-14T09:01:38.000Z</time>
      </trkpt>
      <trkpt lat="43.84047" lon="3.17291">
        <ele>807</ele>
        <time>2014-09-14T09:01:40.000Z</time>
      </trkpt>
      <trkpt lat="43.84035" lon="3.17284">
        <ele>805</ele>
        <time>2014-09-14T09:01:42.000Z</time>
      </trkpt>
      <trkpt lat="43.84025" lon="3.17281">
        <ele>804</ele>
        <time>2014-09-14T09:01:44.000Z</time>
      </trkpt>
      <trkpt lat="43.84016" lon="3.17286">
        <ele>805</ele>
        <time>2014-09-14T09:01:46.000Z</time>
      </trkpt>
      <trkpt lat="43.84003" lon="3.17289">
        <ele>802</ele>
        <time>2014-09-14T09:01:48.000Z</time>
      </trkpt>
      <trkpt lat="43.8399" lon="3.17287">
        <ele>796</ele>
        <time>2014-09-14T09:01:50.000Z</time>
      </trkpt>
      <trkpt lat="43.83974" lon="3.17288">
        <ele>797</ele>
        <time>2014-09-14T09:01:52.000Z</time>
      </trkpt>
      <trkpt lat="43.8396" lon="3.17292">
        <ele>796</ele>
        <time>2014-09-14T09:01:54.000Z</time>
      </trkpt>
      <trkpt lat="43.83942" lon="3.17296">
        <ele>797</ele>
        <time>2014-09-14T09:01:56.000Z</time>
      </trkpt>
      <trkpt lat="43.83924" lon="3.17299">
        <ele>794</ele>
        <time>2014-09-14T09:01:58.000Z</time>
      </trkpt>
      <trkpt lat="43.83908" lon="3.17301">
        <ele>795</ele>
        <time>2014-09-14T09:02:01.000Z</time>
      </trkpt>
      <trkpt lat="43.83895" lon="3.17301">
        <ele>795</ele>
        <time>2014-09-14T09:02:03.000Z</time>
      </trkpt>
      <trkpt lat="43.83879" lon="3.17302">
        <ele>794</ele>
        <time>2014-09-14T09:02:05.000Z</time>
      </trkpt>
      <trkpt lat="43.83866" lon="3.17309">
        <ele>794</ele>
        <time>2014-09-14T09:02:08.000Z</time>
      </trkpt>
      <trkpt lat="43.83855" lon="3.17316">
        <ele>792</ele>
        <time>2014-09-14T09:02:09.000Z</time>
      </trkpt>
      <trkpt lat="43.83855" lon="3.17329">
        <ele>792</ele>
        <time>2014-09-14T09:02:12.000Z</time>
      </trkpt>
      <trkpt lat="43.83856" lon="3.17337">
        <ele>793</ele>
        <time>2014-09-14T09:02:14.000Z</time>
      </trkpt>
      <trkpt lat="43.83856" lon="3.17337">
        <ele>793</ele>
        <time>2014-09-14T09:02:16.000Z</time>
      </trkpt>
      <trkpt lat="43.83858" lon="3.17348">
        <ele>791</ele>
        <time>2014-09-14T09:02:18.000Z</time>
      </trkpt>
      <trkpt lat="43.83858" lon="3.17348">
        <ele>791</ele>
        <time>2014-09-14T09:02:20.000Z</time>
      </trkpt>
      <trkpt lat="43.83861" lon="3.17359">
        <ele>790</ele>
        <time>2014-09-14T09:02:22.000Z</time>
      </trkpt>
      <trkpt lat="43.83864" lon="3.17366">
        <ele>791</ele>
        <time>2014-09-14T09:02:24.000Z</time>
      </trkpt>
      <trkpt lat="43.83869" lon="3.17376">
        <ele>789</ele>
        <time>2014-09-14T09:02:26.000Z</time>
      </trkpt>
      <trkpt lat="43.83877" lon="3.17385">
        <ele>789</ele>
        <time>2014-09-14T09:02:28.000Z</time>
      </trkpt>
      <trkpt lat="43.83888" lon="3.17393">
        <ele>790</ele>
        <time>2014-09-14T09:02:30.000Z</time>
      </trkpt>
      <trkpt lat="43.83895" lon="3.174">
        <ele>792</ele>
        <time>2014-09-14T09:02:32.000Z</time>
      </trkpt>
      <trkpt lat="43.83899" lon="3.17409">
        <ele>794</ele>
        <time>2014-09-14T09:02:34.000Z</time>
      </trkpt>
      <trkpt lat="43.83905" lon="3.17418">
        <ele>797</ele>
        <time>2014-09-14T09:02:36.000Z</time>
      </trkpt>
      <trkpt lat="43.83908" lon="3.1743">
        <ele>796</ele>
        <time>2014-09-14T09:02:38.000Z</time>
      </trkpt>
      <trkpt lat="43.83912" lon="3.17443">
        <ele>796</ele>
        <time>2014-09-14T09:02:40.000Z</time>
      </trkpt>
      <trkpt lat="43.83919" lon="3.17461">
        <ele>796</ele>
        <time>2014-09-14T09:02:43.000Z</time>
      </trkpt>
      <trkpt lat="43.83925" lon="3.17472">
        <ele>796</ele>
        <time>2014-09-14T09:02:45.000Z</time>
      </trkpt>
      <trkpt lat="43.83933" lon="3.1748">
        <ele>797</ele>
        <time>2014-09-14T09:02:47.000Z</time>
      </trkpt>
      <trkpt lat="43.83941" lon="3.17488">
        <ele>796</ele>
        <time>2014-09-14T09:02:49.000Z</time>
      </trkpt>
      <trkpt lat="43.83947" lon="3.17494">
        <ele>796</ele>
        <time>2014-09-14T09:02:51.000Z</time>
      </trkpt>
      <trkpt lat="43.83953" lon="3.17498">
        <ele>796</ele>
        <time>2014-09-14T09:02:53.000Z</time>
      </trkpt>
      <trkpt lat="43.83953" lon="3.17498">
        <ele>796</ele>
        <time>2014-09-14T09:02:55.000Z</time>
      </trkpt>
      <trkpt lat="43.83963" lon="3.17509">
        <ele>796</ele>
        <time>2014-09-14T09:02:57.000Z</time>
      </trkpt>
      <trkpt lat="43.83968" lon="3.17517">
        <ele>796</ele>
        <time>2014-09-14T09:02:59.000Z</time>
      </trkpt>
      <trkpt lat="43.83973" lon="3.17527">
        <ele>797</ele>
        <time>2014-09-14T09:03:01.000Z</time>
      </trkpt>
      <trkpt lat="43.83971" lon="3.17542">
        <ele>796</ele>
        <time>2014-09-14T09:03:03.000Z</time>
      </trkpt>
      <trkpt lat="43.83963" lon="3.17552">
        <ele>798</ele>
        <time>2014-09-14T09:03:05.000Z</time>
      </trkpt>
      <trkpt lat="43.83954" lon="3.17555">
        <ele>798</ele>
        <time>2014-09-14T09:03:07.000Z</time>
      </trkpt>
      <trkpt lat="43.83942" lon="3.17564">
        <ele>800</ele>
        <time>2014-09-14T09:03:09.000Z</time>
      </trkpt>
      <trkpt lat="43.83933" lon="3.17575">
        <ele>800</ele>
        <time>2014-09-14T09:03:11.000Z</time>
      </trkpt>
      <trkpt lat="43.83927" lon="3.17587">
        <ele>800</ele>
        <time>2014-09-14T09:03:13.000Z</time>
      </trkpt>
      <trkpt lat="43.83922" lon="3.17603">
        <ele>799</ele>
        <time>2014-09-14T09:03:15.000Z</time>
      </trkpt>
      <trkpt lat="43.83919" lon="3.17617">
        <ele>799</ele>
        <time>2014-09-14T09:03:17.000Z</time>
      </trkpt>
      <trkpt lat="43.83917" lon="3.1763">
        <ele>799</ele>
        <time>2014-09-14T09:03:19.000Z</time>
      </trkpt>
      <trkpt lat="43.83915" lon="3.17645">
        <ele>798</ele>
        <time>2014-09-14T09:03:21.000Z</time>
      </trkpt>
      <trkpt lat="43.83912" lon="3.1766">
        <ele>798</ele>
        <time>2014-09-14T09:03:23.000Z</time>
      </trkpt>
      <trkpt lat="43.8391" lon="3.17679">
        <ele>797</ele>
        <time>2014-09-14T09:03:25.000Z</time>
      </trkpt>
      <trkpt lat="43.83909" lon="3.17698">
        <ele>797</ele>
        <time>2014-09-14T09:03:27.000Z</time>
      </trkpt>
      <trkpt lat="43.83907" lon="3.17714">
        <ele>797</ele>
        <time>2014-09-14T09:03:29.000Z</time>
      </trkpt>
      <trkpt lat="43.83905" lon="3.17733">
        <ele>796</ele>
        <time>2014-09-14T09:03:31.000Z</time>
      </trkpt>
      <trkpt lat="43.83901" lon="3.17753">
        <ele>795</ele>
        <time>2014-09-14T09:03:33.000Z</time>
      </trkpt>
      <trkpt lat="43.83893" lon="3.1777">
        <ele>795</ele>
        <time>2014-09-14T09:03:35.000Z</time>
      </trkpt>
      <trkpt lat="43.83885" lon="3.17786">
        <ele>793</ele>
        <time>2014-09-14T09:03:37.000Z</time>
      </trkpt>
      <trkpt lat="43.83876" lon="3.17801">
        <ele>792</ele>
        <time>2014-09-14T09:03:39.000Z</time>
      </trkpt>
      <trkpt lat="43.83866" lon="3.17821">
        <ele>794</ele>
        <time>2014-09-14T09:03:41.000Z</time>
      </trkpt>
      <trkpt lat="43.8386" lon="3.17839">
        <ele>795</ele>
        <time>2014-09-14T09:03:43.000Z</time>
      </trkpt>
      <trkpt lat="43.83861" lon="3.17862">
        <ele>794</ele>
        <time>2014-09-14T09:03:45.000Z</time>
      </trkpt>
      <trkpt lat="43.83868" lon="3.17884">
        <ele>792</ele>
        <time>2014-09-14T09:03:47.000Z</time>
      </trkpt>
      <trkpt lat="43.83876" lon="3.17909">
        <ele>791</ele>
        <time>2014-09-14T09:03:49.000Z</time>
      </trkpt>
      <trkpt lat="43.83884" lon="3.17932">
        <ele>790</ele>
        <time>2014-09-14T09:03:51.000Z</time>
      </trkpt>
      <trkpt lat="43.83892" lon="3.17955">
        <ele>790</ele>
        <time>2014-09-14T09:03:53.000Z</time>
      </trkpt>
      <trkpt lat="43.83899" lon="3.17976">
        <ele>790</ele>
        <time>2014-09-14T09:03:55.000Z</time>
      </trkpt>
      <trkpt lat="43.83906" lon="3.17996">
        <ele>789</ele>
        <time>2014-09-14T09:03:57.000Z</time>
      </trkpt>
      <trkpt lat="43.83912" lon="3.18017">
        <ele>789</ele>
        <time>2014-09-14T09:03:59.000Z</time>
      </trkpt>
      <trkpt lat="43.83918" lon="3.18035">
        <ele>790</ele>
        <time>2014-09-14T09:04:01.000Z</time>
      </trkpt>
      <trkpt lat="43.83923" lon="3.18053">
        <ele>790</ele>
        <time>2014-09-14T09:04:03.000Z</time>
      </trkpt>
      <trkpt lat="43.83928" lon="3.18072">
        <ele>790</ele>
        <time>2014-09-14T09:04:05.000Z</time>
      </trkpt>
      <trkpt lat="43.83934" lon="3.1809">
        <ele>791</ele>
        <time>2014-09-14T09:04:07.000Z</time>
      </trkpt>
      <trkpt lat="43.83939" lon="3.18106">
        <ele>792</ele>
        <time>2014-09-14T09:04:09.000Z</time>
      </trkpt>
      <trkpt lat="43.83948" lon="3.18123">
        <ele>792</ele>
        <time>2014-09-14T09:04:11.000Z</time>
      </trkpt>
      <trkpt lat="43.8396" lon="3.18139">
        <ele>791</ele>
        <time>2014-09-14T09:04:13.000Z</time>
      </trkpt>
      <trkpt lat="43.83973" lon="3.18151">
        <ele>791</ele>
        <time>2014-09-14T09:04:15.000Z</time>
      </trkpt>
      <trkpt lat="43.83986" lon="3.18163">
        <ele>792</ele>
        <time>2014-09-14T09:04:17.000Z</time>
      </trkpt>
      <trkpt lat="43.83997" lon="3.18177">
        <ele>791</ele>
        <time>2014-09-14T09:04:19.000Z</time>
      </trkpt>
      <trkpt lat="43.84008" lon="3.18189">
        <ele>792</ele>
        <time>2014-09-14T09:04:21.000Z</time>
      </trkpt>
      <trkpt lat="43.84017" lon="3.18206">
        <ele>793</ele>
        <time>2014-09-14T09:04:23.000Z</time>
      </trkpt>
      <trkpt lat="43.84024" lon="3.18223">
        <ele>794</ele>
        <time>2014-09-14T09:04:25.000Z</time>
      </trkpt>
      <trkpt lat="43.8403" lon="3.18241">
        <ele>795</ele>
        <time>2014-09-14T09:04:27.000Z</time>
      </trkpt>
      <trkpt lat="43.84037" lon="3.1826">
        <ele>796</ele>
        <time>2014-09-14T09:04:29.000Z</time>
      </trkpt>
      <trkpt lat="43.84045" lon="3.18278">
        <ele>796</ele>
        <time>2014-09-14T09:04:31.000Z</time>
      </trkpt>
      <trkpt lat="43.84051" lon="3.18296">
        <ele>795</ele>
        <time>2014-09-14T09:04:33.000Z</time>
      </trkpt>
      <trkpt lat="43.84059" lon="3.18315">
        <ele>795</ele>
        <time>2014-09-14T09:04:35.000Z</time>
      </trkpt>
      <trkpt lat="43.84067" lon="3.18333">
        <ele>796</ele>
        <time>2014-09-14T09:04:37.000Z</time>
      </trkpt>
      <trkpt lat="43.84075" lon="3.18352">
        <ele>795</ele>
        <time>2014-09-14T09:04:39.000Z</time>
      </trkpt>
      <trkpt lat="43.84082" lon="3.18372">
        <ele>794</ele>
        <time>2014-09-14T09:04:41.000Z</time>
      </trkpt>
      <trkpt lat="43.84089" lon="3.18389">
        <ele>795</ele>
        <time>2014-09-14T09:04:43.000Z</time>
      </trkpt>
      <trkpt lat="43.84097" lon="3.18408">
        <ele>793</ele>
        <time>2014-09-14T09:04:45.000Z</time>
      </trkpt>
      <trkpt lat="43.84104" lon="3.18427">
        <ele>791</ele>
        <time>2014-09-14T09:04:47.000Z</time>
      </trkpt>
      <trkpt lat="43.84115" lon="3.18443">
        <ele>790</ele>
        <time>2014-09-14T09:04:49.000Z</time>
      </trkpt>
      <trkpt lat="43.84129" lon="3.18458">
        <ele>791</ele>
        <time>2014-09-14T09:04:51.000Z</time>
      </trkpt>
      <trkpt lat="43.84142" lon="3.18474">
        <ele>793</ele>
        <time>2014-09-14T09:04:53.000Z</time>
      </trkpt>
      <trkpt lat="43.84158" lon="3.18487">
        <ele>793</ele>
        <time>2014-09-14T09:04:55.000Z</time>
      </trkpt>
      <trkpt lat="43.84172" lon="3.18505">
        <ele>793</ele>
        <time>2014-09-14T09:04:57.000Z</time>
      </trkpt>
      <trkpt lat="43.84185" lon="3.18526">
        <ele>793</ele>
        <time>2014-09-14T09:04:59.000Z</time>
      </trkpt>
      <trkpt lat="43.84196" lon="3.1855">
        <ele>793</ele>
        <time>2014-09-14T09:05:01.000Z</time>
      </trkpt>
      <trkpt lat="43.84208" lon="3.18572">
        <ele>788</ele>
        <time>2014-09-14T09:05:03.000Z</time>
      </trkpt>
      <trkpt lat="43.84221" lon="3.1859">
        <ele>789</ele>
        <time>2014-09-14T09:05:05.000Z</time>
      </trkpt>
      <trkpt lat="43.84235" lon="3.18603">
        <ele>788</ele>
        <time>2014-09-14T09:05:07.000Z</time>
      </trkpt>
      <trkpt lat="43.84251" lon="3.18614">
        <ele>787</ele>
        <time>2014-09-14T09:05:09.000Z</time>
      </trkpt>
      <trkpt lat="43.84267" lon="3.18625">
        <ele>787</ele>
        <time>2014-09-14T09:05:11.000Z</time>
      </trkpt>
      <trkpt lat="43.84283" lon="3.18634">
        <ele>786</ele>
        <time>2014-09-14T09:05:13.000Z</time>
      </trkpt>
      <trkpt lat="43.84293" lon="3.18653">
        <ele>785</ele>
        <time>2014-09-14T09:05:15.000Z</time>
      </trkpt>
      <trkpt lat="43.84302" lon="3.18674">
        <ele>786</ele>
        <time>2014-09-14T09:05:17.000Z</time>
      </trkpt>
      <trkpt lat="43.84309" lon="3.18699">
        <ele>784</ele>
        <time>2014-09-14T09:05:19.000Z</time>
      </trkpt>
      <trkpt lat="43.84312" lon="3.18727">
        <ele>783</ele>
        <time>2014-09-14T09:05:21.000Z</time>
      </trkpt>
      <trkpt lat="43.84319" lon="3.18753">
        <ele>784</ele>
        <time>2014-09-14T09:05:23.000Z</time>
      </trkpt>
      <trkpt lat="43.84323" lon="3.18778">
        <ele>784</ele>
        <time>2014-09-14T09:05:25.000Z</time>
      </trkpt>
      <trkpt lat="43.84319" lon="3.18806">
        <ele>786</ele>
        <time>2014-09-14T09:05:27.000Z</time>
      </trkpt>
      <trkpt lat="43.84315" lon="3.18833">
        <ele>788</ele>
        <time>2014-09-14T09:05:29.000Z</time>
      </trkpt>
      <trkpt lat="43.84309" lon="3.18856">
        <ele>788</ele>
        <time>2014-09-14T09:05:31.000Z</time>
      </trkpt>
      <trkpt lat="43.84303" lon="3.18877">
        <ele>786</ele>
        <time>2014-09-14T09:05:33.000Z</time>
      </trkpt>
      <trkpt lat="43.84295" lon="3.18893">
        <ele>784</ele>
        <time>2014-09-14T09:05:35.000Z</time>
      </trkpt>
      <trkpt lat="43.84283" lon="3.18905">
        <ele>785</ele>
        <time>2014-09-14T09:05:37.000Z</time>
      </trkpt>
      <trkpt lat="43.84272" lon="3.18913">
        <ele>784</ele>
        <time>2014-09-14T09:05:39.000Z</time>
      </trkpt>
      <trkpt lat="43.84262" lon="3.18928">
        <ele>786</ele>
        <time>2014-09-14T09:05:41.000Z</time>
      </trkpt>
      <trkpt lat="43.84255" lon="3.18945">
        <ele>786</ele>
        <time>2014-09-14T09:05:43.000Z</time>
      </trkpt>
      <trkpt lat="43.84249" lon="3.18965">
        <ele>786</ele>
        <time>2014-09-14T09:05:45.000Z</time>
      </trkpt>
      <trkpt lat="43.84246" lon="3.18985">
        <ele>783</ele>
        <time>2014-09-14T09:05:47.000Z</time>
      </trkpt>
      <trkpt lat="43.84241" lon="3.19003">
        <ele>783</ele>
        <time>2014-09-14T09:05:49.000Z</time>
      </trkpt>
      <trkpt lat="43.84241" lon="3.19022">
        <ele>784</ele>
        <time>2014-09-14T09:05:51.000Z</time>
      </trkpt>
      <trkpt lat="43.84245" lon="3.19041">
        <ele>785</ele>
        <time>2014-09-14T09:05:53.000Z</time>
      </trkpt>
      <trkpt lat="43.84251" lon="3.19059">
        <ele>785</ele>
        <time>2014-09-14T09:05:55.000Z</time>
      </trkpt>
      <trkpt lat="43.84258" lon="3.19074">
        <ele>785</ele>
        <time>2014-09-14T09:05:57.000Z</time>
      </trkpt>
      <trkpt lat="43.84266" lon="3.19089">
        <ele>785</ele>
        <time>2014-09-14T09:05:59.000Z</time>
      </trkpt>
      <trkpt lat="43.84272" lon="3.19103">
        <ele>785</ele>
        <time>2014-09-14T09:06:01.000Z</time>
      </trkpt>
      <trkpt lat="43.84279" lon="3.19116">
        <ele>785</ele>
        <time>2014-09-14T09:06:03.000Z</time>
      </trkpt>
      <trkpt lat="43.84285" lon="3.19128">
        <ele>785</ele>
        <time>2014-09-14T09:06:05.000Z</time>
      </trkpt>
      <trkpt lat="43.84291" lon="3.19139">
        <ele>784</ele>
        <time>2014-09-14T09:06:07.000Z</time>
      </trkpt>
      <trkpt lat="43.84301" lon="3.19147">
        <ele>785</ele>
        <time>2014-09-14T09:06:09.000Z</time>
      </trkpt>
      <trkpt lat="43.84309" lon="3.19157">
        <ele>785</ele>
        <time>2014-09-14T09:06:11.000Z</time>
      </trkpt>
      <trkpt lat="43.84318" lon="3.19165">
        <ele>785</ele>
        <time>2014-09-14T09:06:13.000Z</time>
      </trkpt>
      <trkpt lat="43.84327" lon="3.19175">
        <ele>784</ele>
        <time>2014-09-14T09:06:15.000Z</time>
      </trkpt>
      <trkpt lat="43.84336" lon="3.19185">
        <ele>783</ele>
        <time>2014-09-14T09:06:17.000Z</time>
      </trkpt>
      <trkpt lat="43.84344" lon="3.19195">
        <ele>782</ele>
        <time>2014-09-14T09:06:19.000Z</time>
      </trkpt>
      <trkpt lat="43.84352" lon="3.19204">
        <ele>782</ele>
        <time>2014-09-14T09:06:21.000Z</time>
      </trkpt>
      <trkpt lat="43.84362" lon="3.19211">
        <ele>785</ele>
        <time>2014-09-14T09:06:23.000Z</time>
      </trkpt>
      <trkpt lat="43.84372" lon="3.19216">
        <ele>785</ele>
        <time>2014-09-14T09:06:25.000Z</time>
      </trkpt>
      <trkpt lat="43.84382" lon="3.1922">
        <ele>785</ele>
        <time>2014-09-14T09:06:27.000Z</time>
      </trkpt>
      <trkpt lat="43.84394" lon="3.19225">
        <ele>785</ele>
        <time>2014-09-14T09:06:29.000Z</time>
      </trkpt>
      <trkpt lat="43.84405" lon="3.19231">
        <ele>785</ele>
        <time>2014-09-14T09:06:31.000Z</time>
      </trkpt>
      <trkpt lat="43.84417" lon="3.19234">
        <ele>784</ele>
        <time>2014-09-14T09:06:33.000Z</time>
      </trkpt>
      <trkpt lat="43.84429" lon="3.19241">
        <ele>784</ele>
        <time>2014-09-14T09:06:35.000Z</time>
      </trkpt>
      <trkpt lat="43.84442" lon="3.19246">
        <ele>784</ele>
        <time>2014-09-14T09:06:37.000Z</time>
      </trkpt>
      <trkpt lat="43.84457" lon="3.19252">
        <ele>783</ele>
        <time>2014-09-14T09:06:39.000Z</time>
      </trkpt>
      <trkpt lat="43.84471" lon="3.19257">
        <ele>783</ele>
        <time>2014-09-14T09:06:41.000Z</time>
      </trkpt>
      <trkpt lat="43.84485" lon="3.19265">
        <ele>782</ele>
        <time>2014-09-14T09:06:43.000Z</time>
      </trkpt>
      <trkpt lat="43.84498" lon="3.19275">
        <ele>783</ele>
        <time>2014-09-14T09:06:45.000Z</time>
      </trkpt>
      <trkpt lat="43.84509" lon="3.1929">
        <ele>782</ele>
        <time>2014-09-14T09:06:47.000Z</time>
      </trkpt>
      <trkpt lat="43.84518" lon="3.19307">
        <ele>782</ele>
        <time>2014-09-14T09:06:49.000Z</time>
      </trkpt>
      <trkpt lat="43.84525" lon="3.19324">
        <ele>783</ele>
        <time>2014-09-14T09:06:51.000Z</time>
      </trkpt>
      <trkpt lat="43.84529" lon="3.19343">
        <ele>782</ele>
        <time>2014-09-14T09:06:53.000Z</time>
      </trkpt>
      <trkpt lat="43.84535" lon="3.1936">
        <ele>781</ele>
        <time>2014-09-14T09:06:55.000Z</time>
      </trkpt>
      <trkpt lat="43.84541" lon="3.19377">
        <ele>782</ele>
        <time>2014-09-14T09:06:57.000Z</time>
      </trkpt>
      <trkpt lat="43.84545" lon="3.19394">
        <ele>783</ele>
        <time>2014-09-14T09:06:59.000Z</time>
      </trkpt>
      <trkpt lat="43.8455" lon="3.19409">
        <ele>783</ele>
        <time>2014-09-14T09:07:01.000Z</time>
      </trkpt>
      <trkpt lat="43.84557" lon="3.19424">
        <ele>784</ele>
        <time>2014-09-14T09:07:03.000Z</time>
      </trkpt>
      <trkpt lat="43.84564" lon="3.19434">
        <ele>786</ele>
        <time>2014-09-14T09:07:05.000Z</time>
      </trkpt>
      <trkpt lat="43.84572" lon="3.19447">
        <ele>786</ele>
        <time>2014-09-14T09:07:07.000Z</time>
      </trkpt>
      <trkpt lat="43.84581" lon="3.19459">
        <ele>785</ele>
        <time>2014-09-14T09:07:09.000Z</time>
      </trkpt>
      <trkpt lat="43.84591" lon="3.19468">
        <ele>785</ele>
        <time>2014-09-14T09:07:11.000Z</time>
      </trkpt>
      <trkpt lat="43.846" lon="3.19476">
        <ele>786</ele>
        <time>2014-09-14T09:07:13.000Z</time>
      </trkpt>
      <trkpt lat="43.84609" lon="3.19485">
        <ele>785</ele>
        <time>2014-09-14T09:07:15.000Z</time>
      </trkpt>
      <trkpt lat="43.84618" lon="3.19494">
        <ele>784</ele>
        <time>2014-09-14T09:07:17.000Z</time>
      </trkpt>
      <trkpt lat="43.84628" lon="3.19502">
        <ele>785</ele>
        <time>2014-09-14T09:07:19.000Z</time>
      </trkpt>
      <trkpt lat="43.84637" lon="3.19509">
        <ele>786</ele>
        <time>2014-09-14T09:07:21.000Z</time>
      </trkpt>
      <trkpt lat="43.84647" lon="3.19518">
        <ele>786</ele>
        <time>2014-09-14T09:07:23.000Z</time>
      </trkpt>
      <trkpt lat="43.84657" lon="3.19527">
        <ele>787</ele>
        <time>2014-09-14T09:07:25.000Z</time>
      </trkpt>
      <trkpt lat="43.84665" lon="3.1954">
        <ele>787</ele>
        <time>2014-09-14T09:07:27.000Z</time>
      </trkpt>
      <trkpt lat="43.84673" lon="3.19553">
        <ele>788</ele>
        <time>2014-09-14T09:07:29.000Z</time>
      </trkpt>
      <trkpt lat="43.84684" lon="3.19561">
        <ele>789</ele>
        <time>2014-09-14T09:07:31.000Z</time>
      </trkpt>
      <trkpt lat="43.84692" lon="3.19573">
        <ele>788</ele>
        <time>2014-09-14T09:07:33.000Z</time>
      </trkpt>
      <trkpt lat="43.84701" lon="3.19579">
        <ele>787</ele>
        <time>2014-09-14T09:07:35.000Z</time>
      </trkpt>
      <trkpt lat="43.84701" lon="3.19579">
        <ele>787</ele>
        <time>2014-09-14T09:07:37.000Z</time>
      </trkpt>
      <trkpt lat="43.84703" lon="3.19589">
        <ele>785</ele>
        <time>2014-09-14T09:07:39.000Z</time>
      </trkpt>
      <trkpt lat="43.84703" lon="3.19589">
        <ele>785</ele>
        <time>2014-09-14T09:07:41.000Z</time>
      </trkpt>
      <trkpt lat="43.84703" lon="3.19589">
        <ele>785</ele>
        <time>2014-09-14T09:07:43.000Z</time>
      </trkpt>
      <trkpt lat="43.84703" lon="3.19589">
        <ele>785</ele>
        <time>2014-09-14T09:07:45.000Z</time>
      </trkpt>
      <trkpt lat="43.84696" lon="3.19585">
        <ele>788</ele>
        <time>2014-09-14T09:07:47.000Z</time>
      </trkpt>
      <trkpt lat="43.84696" lon="3.19585">
        <ele>788</ele>
        <time>2014-09-14T09:07:49.000Z</time>
      </trkpt>
      <trkpt lat="43.84696" lon="3.19585">
        <ele>788</ele>
        <time>2014-09-14T09:07:51.000Z</time>
      </trkpt>
      <trkpt lat="43.84689" lon="3.19583">
        <ele>793</ele>
        <time>2014-09-14T09:07:53.000Z</time>
      </trkpt>
      <trkpt lat="43.84689" lon="3.19583">
        <ele>793</ele>
        <time>2014-09-14T09:07:55.000Z</time>
      </trkpt>
      <trkpt lat="43.84684" lon="3.19579">
        <ele>793</ele>
        <time>2014-09-14T09:07:57.000Z</time>
      </trkpt>
      <trkpt lat="43.84677" lon="3.19576">
        <ele>793</ele>
        <time>2014-09-14T09:08:01.000Z</time>
      </trkpt>
      <trkpt lat="43.8467" lon="3.19569">
        <ele>791</ele>
        <time>2014-09-14T09:08:05.000Z</time>
      </trkpt>
      <trkpt lat="43.84664" lon="3.19563">
        <ele>791</ele>
        <time>2014-09-14T09:08:09.000Z</time>
      </trkpt>
      <trkpt lat="43.84658" lon="3.19558">
        <ele>790</ele>
        <time>2014-09-14T09:08:13.000Z</time>
      </trkpt>
      <trkpt lat="43.84658" lon="3.19558">
        <ele>790</ele>
        <time>2014-09-14T09:08:15.000Z</time>
      </trkpt>
      <trkpt lat="43.84651" lon="3.19553">
        <ele>790</ele>
        <time>2014-09-14T09:08:17.000Z</time>
      </trkpt>
      <trkpt lat="43.84644" lon="3.1955">
        <ele>794</ele>
        <time>2014-09-14T09:08:21.000Z</time>
      </trkpt>
      <trkpt lat="43.84644" lon="3.1955">
        <ele>794</ele>
        <time>2014-09-14T09:08:23.000Z</time>
      </trkpt>
      <trkpt lat="43.84637" lon="3.19548">
        <ele>792</ele>
        <time>2014-09-14T09:08:25.000Z</time>
      </trkpt>
      <trkpt lat="43.84637" lon="3.19548">
        <ele>792</ele>
        <time>2014-09-14T09:08:27.000Z</time>
      </trkpt>
      <trkpt lat="43.84637" lon="3.19548">
        <ele>792</ele>
        <time>2014-09-14T09:08:29.000Z</time>
      </trkpt>
      <trkpt lat="43.84637" lon="3.19548">
        <ele>792</ele>
        <time>2014-09-14T09:08:31.000Z</time>
      </trkpt>
      <trkpt lat="43.84637" lon="3.19548">
        <ele>792</ele>
        <time>2014-09-14T09:08:33.000Z</time>
      </trkpt>
      <trkpt lat="43.84632" lon="3.1956">
        <ele>801</ele>
        <time>2014-09-14T09:08:55.000Z</time>
      </trkpt>
      <trkpt lat="43.84628" lon="3.19568">
        <ele>802</ele>
        <time>2014-09-14T09:08:57.000Z</time>
      </trkpt>
      <trkpt lat="43.84627" lon="3.19572">
        <ele>802</ele>
        <time>2014-09-14T09:08:59.000Z</time>
      </trkpt>
      <trkpt lat="43.84625" lon="3.19576">
        <ele>804</ele>
        <time>2014-09-14T09:09:01.000Z</time>
      </trkpt>
      <trkpt lat="43.84623" lon="3.19579">
        <ele>806</ele>
        <time>2014-09-14T09:09:03.000Z</time>
      </trkpt>
      <trkpt lat="43.84618" lon="3.19583">
        <ele>808</ele>
        <time>2014-09-14T09:09:05.000Z</time>
      </trkpt>
      <trkpt lat="43.84612" lon="3.19586">
        <ele>807</ele>
        <time>2014-09-14T09:09:10.000Z</time>
      </trkpt>
      <trkpt lat="43.84605" lon="3.19591">
        <ele>806</ele>
        <time>2014-09-14T09:09:15.000Z</time>
      </trkpt>
      <trkpt lat="43.84605" lon="3.19591">
        <ele>806</ele>
        <time>2014-09-14T09:09:17.000Z</time>
      </trkpt>
      <trkpt lat="43.84605" lon="3.19591">
        <ele>806</ele>
        <time>2014-09-14T09:09:19.000Z</time>
      </trkpt>
      <trkpt lat="43.84597" lon="3.19595">
        <ele>807</ele>
        <time>2014-09-14T09:09:21.000Z</time>
      </trkpt>
      <trkpt lat="43.84592" lon="3.19598">
        <ele>808</ele>
        <time>2014-09-14T09:09:25.000Z</time>
      </trkpt>
      <trkpt lat="43.84587" lon="3.19604">
        <ele>810</ele>
        <time>2014-09-14T09:09:29.000Z</time>
      </trkpt>
      <trkpt lat="43.84583" lon="3.19608">
        <ele>811</ele>
        <time>2014-09-14T09:09:33.000Z</time>
      </trkpt>
      <trkpt lat="43.84577" lon="3.19608">
        <ele>811</ele>
        <time>2014-09-14T09:09:37.000Z</time>
      </trkpt>
      <trkpt lat="43.84568" lon="3.19603">
        <ele>810</ele>
        <time>2014-09-14T09:09:43.000Z</time>
      </trkpt>
      <trkpt lat="43.84561" lon="3.19602">
        <ele>817</ele>
        <time>2014-09-14T09:09:49.000Z</time>
      </trkpt>
      <trkpt lat="43.84554" lon="3.196">
        <ele>817</ele>
        <time>2014-09-14T09:09:55.000Z</time>
      </trkpt>
      <trkpt lat="43.84549" lon="3.19595">
        <ele>813</ele>
        <time>2014-09-14T09:09:59.000Z</time>
      </trkpt>
      <trkpt lat="43.84541" lon="3.19591">
        <ele>817</ele>
        <time>2014-09-14T09:10:05.000Z</time>
      </trkpt>
      <trkpt lat="43.84535" lon="3.19588">
        <ele>818</ele>
        <time>2014-09-14T09:10:09.000Z</time>
      </trkpt>
      <trkpt lat="43.84528" lon="3.19588">
        <ele>818</ele>
        <time>2014-09-14T09:10:13.000Z</time>
      </trkpt>
      <trkpt lat="43.84522" lon="3.1959">
        <ele>821</ele>
        <time>2014-09-14T09:10:17.000Z</time>
      </trkpt>
      <trkpt lat="43.84515" lon="3.19591">
        <ele>821</ele>
        <time>2014-09-14T09:10:21.000Z</time>
      </trkpt>
      <trkpt lat="43.84509" lon="3.19594">
        <ele>822</ele>
        <time>2014-09-14T09:10:25.000Z</time>
      </trkpt>
      <trkpt lat="43.84503" lon="3.19598">
        <ele>824</ele>
        <time>2014-09-14T09:10:29.000Z</time>
      </trkpt>
      <trkpt lat="43.84496" lon="3.19603">
        <ele>825</ele>
        <time>2014-09-14T09:10:33.000Z</time>
      </trkpt>
      <trkpt lat="43.84492" lon="3.19611">
        <ele>824</ele>
        <time>2014-09-14T09:10:37.000Z</time>
      </trkpt>
      <trkpt lat="43.84484" lon="3.19616">
        <ele>828</ele>
        <time>2014-09-14T09:10:41.000Z</time>
      </trkpt>
      <trkpt lat="43.84476" lon="3.19624">
        <ele>827</ele>
        <time>2014-09-14T09:10:45.000Z</time>
      </trkpt>
      <trkpt lat="43.8447" lon="3.1963">
        <ele>826</ele>
        <time>2014-09-14T09:10:49.000Z</time>
      </trkpt>
      <trkpt lat="43.8447" lon="3.1963">
        <ele>826</ele>
        <time>2014-09-14T09:10:51.000Z</time>
      </trkpt>
      <trkpt lat="43.84467" lon="3.19632">
        <ele>826</ele>
        <time>2014-09-14T09:10:53.000Z</time>
      </trkpt>
      <trkpt lat="43.84463" lon="3.19635">
        <ele>827</ele>
        <time>2014-09-14T09:10:55.000Z</time>
      </trkpt>
      <trkpt lat="43.8446" lon="3.19637">
        <ele>826</ele>
        <time>2014-09-14T09:10:57.000Z</time>
      </trkpt>
      <trkpt lat="43.84456" lon="3.1964">
        <ele>827</ele>
        <time>2014-09-14T09:10:59.000Z</time>
      </trkpt>
      <trkpt lat="43.84453" lon="3.19644">
        <ele>826</ele>
        <time>2014-09-14T09:11:01.000Z</time>
      </trkpt>
      <trkpt lat="43.84446" lon="3.19651">
        <ele>827</ele>
        <time>2014-09-14T09:11:03.000Z</time>
      </trkpt>
      <trkpt lat="43.84438" lon="3.19658">
        <ele>829</ele>
        <time>2014-09-14T09:11:07.000Z</time>
      </trkpt>
      <trkpt lat="43.8443" lon="3.19666">
        <ele>832</ele>
        <time>2014-09-14T09:11:11.000Z</time>
      </trkpt>
      <trkpt lat="43.84425" lon="3.19676">
        <ele>831</ele>
        <time>2014-09-14T09:11:15.000Z</time>
      </trkpt>
      <trkpt lat="43.8442" lon="3.19684">
        <ele>834</ele>
        <time>2014-09-14T09:11:19.000Z</time>
      </trkpt>
      <trkpt lat="43.8442" lon="3.19684">
        <ele>834</ele>
        <time>2014-09-14T09:11:21.000Z</time>
      </trkpt>
      <trkpt lat="43.84416" lon="3.1969">
        <ele>834</ele>
        <time>2014-09-14T09:11:23.000Z</time>
      </trkpt>
      <trkpt lat="43.84416" lon="3.1969">
        <ele>834</ele>
        <time>2014-09-14T09:11:25.000Z</time>
      </trkpt>
      <trkpt lat="43.84414" lon="3.197">
        <ele>835</ele>
        <time>2014-09-14T09:11:27.000Z</time>
      </trkpt>
      <trkpt lat="43.84414" lon="3.197">
        <ele>835</ele>
        <time>2014-09-14T09:11:29.000Z</time>
      </trkpt>
      <trkpt lat="43.84409" lon="3.19708">
        <ele>834</ele>
        <time>2014-09-14T09:11:31.000Z</time>
      </trkpt>
      <trkpt lat="43.84405" lon="3.19714">
        <ele>835</ele>
        <time>2014-09-14T09:11:33.000Z</time>
      </trkpt>
      <trkpt lat="43.84401" lon="3.19719">
        <ele>835</ele>
        <time>2014-09-14T09:11:35.000Z</time>
      </trkpt>
      <trkpt lat="43.84391" lon="3.19724">
        <ele>833</ele>
        <time>2014-09-14T09:11:39.000Z</time>
      </trkpt>
      <trkpt lat="43.84386" lon="3.19725">
        <ele>834</ele>
        <time>2014-09-14T09:11:41.000Z</time>
      </trkpt>
      <trkpt lat="43.84379" lon="3.19727">
        <ele>834</ele>
        <time>2014-09-14T09:11:43.000Z</time>
      </trkpt>
      <trkpt lat="43.84374" lon="3.1973">
        <ele>835</ele>
        <time>2014-09-14T09:11:45.000Z</time>
      </trkpt>
      <trkpt lat="43.84368" lon="3.19733">
        <ele>833</ele>
        <time>2014-09-14T09:11:47.000Z</time>
      </trkpt>
      <trkpt lat="43.84363" lon="3.19737">
        <ele>836</ele>
        <time>2014-09-14T09:11:49.000Z</time>
      </trkpt>
      <trkpt lat="43.84358" lon="3.19743">
        <ele>837</ele>
        <time>2014-09-14T09:11:51.000Z</time>
      </trkpt>
      <trkpt lat="43.84353" lon="3.19748">
        <ele>838</ele>
        <time>2014-09-14T09:11:53.000Z</time>
      </trkpt>
      <trkpt lat="43.84348" lon="3.1975">
        <ele>840</ele>
        <time>2014-09-14T09:11:55.000Z</time>
      </trkpt>
      <trkpt lat="43.84341" lon="3.19753">
        <ele>839</ele>
        <time>2014-09-14T09:11:57.000Z</time>
      </trkpt>
      <trkpt lat="43.84333" lon="3.19754">
        <ele>840</ele>
        <time>2014-09-14T09:11:59.000Z</time>
      </trkpt>
      <trkpt lat="43.84325" lon="3.19752">
        <ele>841</ele>
        <time>2014-09-14T09:12:01.000Z</time>
      </trkpt>
      <trkpt lat="43.84316" lon="3.19752">
        <ele>840</ele>
        <time>2014-09-14T09:12:03.000Z</time>
      </trkpt>
      <trkpt lat="43.84307" lon="3.19754">
        <ele>839</ele>
        <time>2014-09-14T09:12:05.000Z</time>
      </trkpt>
      <trkpt lat="43.8429" lon="3.19766">
        <ele>841</ele>
        <time>2014-09-14T09:12:08.000Z</time>
      </trkpt>
      <trkpt lat="43.84278" lon="3.19767">
        <ele>841</ele>
        <time>2014-09-14T09:12:11.000Z</time>
      </trkpt>
      <trkpt lat="43.84271" lon="3.19769">
        <ele>841</ele>
        <time>2014-09-14T09:12:13.000Z</time>
      </trkpt>
      <trkpt lat="43.84262" lon="3.19767">
        <ele>838</ele>
        <time>2014-09-14T09:12:15.000Z</time>
      </trkpt>
      <trkpt lat="43.84262" lon="3.19767">
        <ele>838</ele>
        <time>2014-09-14T09:12:17.000Z</time>
      </trkpt>
      <trkpt lat="43.84253" lon="3.19772">
        <ele>834</ele>
        <time>2014-09-14T09:12:19.000Z</time>
      </trkpt>
      <trkpt lat="43.84253" lon="3.19772">
        <ele>834</ele>
        <time>2014-09-14T09:12:21.000Z</time>
      </trkpt>
      <trkpt lat="43.84253" lon="3.19781">
        <ele>834</ele>
        <time>2014-09-14T09:12:23.000Z</time>
      </trkpt>
      <trkpt lat="43.84258" lon="3.19782">
        <ele>832</ele>
        <time>2014-09-14T09:12:25.000Z</time>
      </trkpt>
      <trkpt lat="43.84264" lon="3.19785">
        <ele>836</ele>
        <time>2014-09-14T09:12:27.000Z</time>
      </trkpt>
      <trkpt lat="43.84275" lon="3.19789">
        <ele>836</ele>
        <time>2014-09-14T09:12:31.000Z</time>
      </trkpt>
      <trkpt lat="43.84275" lon="3.19789">
        <ele>836</ele>
        <time>2014-09-14T09:12:33.000Z</time>
      </trkpt>
      <trkpt lat="43.84285" lon="3.19791">
        <ele>829</ele>
        <time>2014-09-14T09:12:35.000Z</time>
      </trkpt>
      <trkpt lat="43.84285" lon="3.19791">
        <ele>829</ele>
        <time>2014-09-14T09:12:37.000Z</time>
      </trkpt>
      <trkpt lat="43.84292" lon="3.19799">
        <ele>831</ele>
        <time>2014-09-14T09:12:39.000Z</time>
      </trkpt>
      <trkpt lat="43.84292" lon="3.19799">
        <ele>831</ele>
        <time>2014-09-14T09:12:41.000Z</time>
      </trkpt>
      <trkpt lat="43.84287" lon="3.19809">
        <ele>836</ele>
        <time>2014-09-14T09:12:43.000Z</time>
      </trkpt>
      <trkpt lat="43.84287" lon="3.19809">
        <ele>836</ele>
        <time>2014-09-14T09:12:45.000Z</time>
      </trkpt>
      <trkpt lat="43.84277" lon="3.19807">
        <ele>833</ele>
        <time>2014-09-14T09:12:47.000Z</time>
      </trkpt>
      <trkpt lat="43.84271" lon="3.19807">
        <ele>833</ele>
        <time>2014-09-14T09:12:49.000Z</time>
      </trkpt>
      <trkpt lat="43.84261" lon="3.19809">
        <ele>835</ele>
        <time>2014-09-14T09:12:53.000Z</time>
      </trkpt>
      <trkpt lat="43.84251" lon="3.19814">
        <ele>836</ele>
        <time>2014-09-14T09:12:57.000Z</time>
      </trkpt>
      <trkpt lat="43.84243" lon="3.19821">
        <ele>837</ele>
        <time>2014-09-14T09:13:01.000Z</time>
      </trkpt>
      <trkpt lat="43.84243" lon="3.19821">
        <ele>837</ele>
        <time>2014-09-14T09:13:03.000Z</time>
      </trkpt>
      <trkpt lat="43.84238" lon="3.19833">
        <ele>836</ele>
        <time>2014-09-14T09:13:05.000Z</time>
      </trkpt>
      <trkpt lat="43.84238" lon="3.19833">
        <ele>836</ele>
        <time>2014-09-14T09:13:07.000Z</time>
      </trkpt>
      <trkpt lat="43.84235" lon="3.19844">
        <ele>836</ele>
        <time>2014-09-14T09:13:09.000Z</time>
      </trkpt>
      <trkpt lat="43.84235" lon="3.19844">
        <ele>836</ele>
        <time>2014-09-14T09:13:11.000Z</time>
      </trkpt>
      <trkpt lat="43.84229" lon="3.19854">
        <ele>840</ele>
        <time>2014-09-14T09:13:13.000Z</time>
      </trkpt>
      <trkpt lat="43.84229" lon="3.19854">
        <ele>840</ele>
        <time>2014-09-14T09:13:15.000Z</time>
      </trkpt>
      <trkpt lat="43.84223" lon="3.19863">
        <ele>842</ele>
        <time>2014-09-14T09:13:17.000Z</time>
      </trkpt>
      <trkpt lat="43.84219" lon="3.19869">
        <ele>843</ele>
        <time>2014-09-14T09:13:19.000Z</time>
      </trkpt>
      <trkpt lat="43.84216" lon="3.19876">
        <ele>842</ele>
        <time>2014-09-14T09:13:21.000Z</time>
      </trkpt>
      <trkpt lat="43.84214" lon="3.19885">
        <ele>841</ele>
        <time>2014-09-14T09:13:23.000Z</time>
      </trkpt>
      <trkpt lat="43.84214" lon="3.19894">
        <ele>843</ele>
        <time>2014-09-14T09:13:25.000Z</time>
      </trkpt>
      <trkpt lat="43.84216" lon="3.19904">
        <ele>841</ele>
        <time>2014-09-14T09:13:27.000Z</time>
      </trkpt>
      <trkpt lat="43.84219" lon="3.19911">
        <ele>840</ele>
        <time>2014-09-14T09:13:29.000Z</time>
      </trkpt>
      <trkpt lat="43.84221" lon="3.19919">
        <ele>839</ele>
        <time>2014-09-14T09:13:31.000Z</time>
      </trkpt>
      <trkpt lat="43.84224" lon="3.19928">
        <ele>836</ele>
        <time>2014-09-14T09:13:33.000Z</time>
      </trkpt>
      <trkpt lat="43.84227" lon="3.19938">
        <ele>838</ele>
        <time>2014-09-14T09:13:35.000Z</time>
      </trkpt>
      <trkpt lat="43.84229" lon="3.19946">
        <ele>841</ele>
        <time>2014-09-14T09:13:37.000Z</time>
      </trkpt>
      <trkpt lat="43.84232" lon="3.19954">
        <ele>846</ele>
        <time>2014-09-14T09:13:39.000Z</time>
      </trkpt>
      <trkpt lat="43.84232" lon="3.19954">
        <ele>846</ele>
        <time>2014-09-14T09:13:41.000Z</time>
      </trkpt>
      <trkpt lat="43.84234" lon="3.19966">
        <ele>846</ele>
        <time>2014-09-14T09:13:43.000Z</time>
      </trkpt>
      <trkpt lat="43.84234" lon="3.19966">
        <ele>846</ele>
        <time>2014-09-14T09:13:45.000Z</time>
      </trkpt>
      <trkpt lat="43.84236" lon="3.1998">
        <ele>848</ele>
        <time>2014-09-14T09:13:47.000Z</time>
      </trkpt>
      <trkpt lat="43.84236" lon="3.1998">
        <ele>848</ele>
        <time>2014-09-14T09:13:49.000Z</time>
      </trkpt>
      <trkpt lat="43.84241" lon="3.19992">
        <ele>844</ele>
        <time>2014-09-14T09:13:51.000Z</time>
      </trkpt>
      <trkpt lat="43.84241" lon="3.19992">
        <ele>844</ele>
        <time>2014-09-14T09:13:53.000Z</time>
      </trkpt>
      <trkpt lat="43.84245" lon="3.20006">
        <ele>840</ele>
        <time>2014-09-14T09:13:55.000Z</time>
      </trkpt>
      <trkpt lat="43.84246" lon="3.20017">
        <ele>842</ele>
        <time>2014-09-14T09:13:57.000Z</time>
      </trkpt>
      <trkpt lat="43.84251" lon="3.20044">
        <ele>838</ele>
        <time>2014-09-14T09:14:00.000Z</time>
      </trkpt>
      <trkpt lat="43.84252" lon="3.20057">
        <ele>838</ele>
        <time>2014-09-14T09:14:02.000Z</time>
      </trkpt>
      <trkpt lat="43.8425" lon="3.20072">
        <ele>837</ele>
        <time>2014-09-14T09:14:04.000Z</time>
      </trkpt>
      <trkpt lat="43.84248" lon="3.20086">
        <ele>837</ele>
        <time>2014-09-14T09:14:06.000Z</time>
      </trkpt>
      <trkpt lat="43.84247" lon="3.20099">
        <ele>838</ele>
        <time>2014-09-14T09:14:08.000Z</time>
      </trkpt>
      <trkpt lat="43.84243" lon="3.20106">
        <ele>841</ele>
        <time>2014-09-14T09:14:10.000Z</time>
      </trkpt>
      <trkpt lat="43.84243" lon="3.20117">
        <ele>841</ele>
        <time>2014-09-14T09:14:12.000Z</time>
      </trkpt>
      <trkpt lat="43.8424" lon="3.20126">
        <ele>845</ele>
        <time>2014-09-14T09:14:14.000Z</time>
      </trkpt>
      <trkpt lat="43.84235" lon="3.20138">
        <ele>843</ele>
        <time>2014-09-14T09:14:16.000Z</time>
      </trkpt>
      <trkpt lat="43.84232" lon="3.20148">
        <ele>844</ele>
        <time>2014-09-14T09:14:18.000Z</time>
      </trkpt>
      <trkpt lat="43.8423" lon="3.20164">
        <ele>840</ele>
        <time>2014-09-14T09:14:22.000Z</time>
      </trkpt>
      <trkpt lat="43.84227" lon="3.20175">
        <ele>842</ele>
        <time>2014-09-14T09:14:24.000Z</time>
      </trkpt>
      <trkpt lat="43.84225" lon="3.20187">
        <ele>846</ele>
        <time>2014-09-14T09:14:26.000Z</time>
      </trkpt>
      <trkpt lat="43.84225" lon="3.20196">
        <ele>846</ele>
        <time>2014-09-14T09:14:28.000Z</time>
      </trkpt>
      <trkpt lat="43.84224" lon="3.20206">
        <ele>847</ele>
        <time>2014-09-14T09:14:30.000Z</time>
      </trkpt>
      <trkpt lat="43.84224" lon="3.20216">
        <ele>846</ele>
        <time>2014-09-14T09:14:32.000Z</time>
      </trkpt>
      <trkpt lat="43.84227" lon="3.20225">
        <ele>841</ele>
        <time>2014-09-14T09:14:34.000Z</time>
      </trkpt>
      <trkpt lat="43.8423" lon="3.20233">
        <ele>841</ele>
        <time>2014-09-14T09:14:36.000Z</time>
      </trkpt>
      <trkpt lat="43.8423" lon="3.20233">
        <ele>841</ele>
        <time>2014-09-14T09:14:38.000Z</time>
      </trkpt>
      <trkpt lat="43.84232" lon="3.20244">
        <ele>847</ele>
        <time>2014-09-14T09:14:40.000Z</time>
      </trkpt>
      <trkpt lat="43.84232" lon="3.20244">
        <ele>847</ele>
        <time>2014-09-14T09:14:42.000Z</time>
      </trkpt>
      <trkpt lat="43.84232" lon="3.20256">
        <ele>850</ele>
        <time>2014-09-14T09:14:44.000Z</time>
      </trkpt>
      <trkpt lat="43.84232" lon="3.20256">
        <ele>850</ele>
        <time>2014-09-14T09:14:46.000Z</time>
      </trkpt>
      <trkpt lat="43.84232" lon="3.20264">
        <ele>852</ele>
        <time>2014-09-14T09:14:48.000Z</time>
      </trkpt>
      <trkpt lat="43.84233" lon="3.20271">
        <ele>853</ele>
        <time>2014-09-14T09:14:50.000Z</time>
      </trkpt>
      <trkpt lat="43.84233" lon="3.20277">
        <ele>853</ele>
        <time>2014-09-14T09:14:52.000Z</time>
      </trkpt>
      <trkpt lat="43.84233" lon="3.20283">
        <ele>850</ele>
        <time>2014-09-14T09:14:54.000Z</time>
      </trkpt>
      <trkpt lat="43.84234" lon="3.20289">
        <ele>852</ele>
        <time>2014-09-14T09:14:56.000Z</time>
      </trkpt>
      <trkpt lat="43.84235" lon="3.20299">
        <ele>850</ele>
        <time>2014-09-14T09:14:58.000Z</time>
      </trkpt>
      <trkpt lat="43.84235" lon="3.20299">
        <ele>850</ele>
        <time>2014-09-14T09:15:00.000Z</time>
      </trkpt>
      <trkpt lat="43.84241" lon="3.20309">
        <ele>850</ele>
        <time>2014-09-14T09:15:02.000Z</time>
      </trkpt>
      <trkpt lat="43.84247" lon="3.20315">
        <ele>853</ele>
        <time>2014-09-14T09:15:04.000Z</time>
      </trkpt>
      <trkpt lat="43.84252" lon="3.20321">
        <ele>853</ele>
        <time>2014-09-14T09:15:06.000Z</time>
      </trkpt>
      <trkpt lat="43.84257" lon="3.20328">
        <ele>855</ele>
        <time>2014-09-14T09:15:08.000Z</time>
      </trkpt>
      <trkpt lat="43.84262" lon="3.20334">
        <ele>858</ele>
        <time>2014-09-14T09:15:10.000Z</time>
      </trkpt>
      <trkpt lat="43.84267" lon="3.20341">
        <ele>855</ele>
        <time>2014-09-14T09:15:12.000Z</time>
      </trkpt>
      <trkpt lat="43.84272" lon="3.20348">
        <ele>855</ele>
        <time>2014-09-14T09:15:14.000Z</time>
      </trkpt>
      <trkpt lat="43.84278" lon="3.20352">
        <ele>854</ele>
        <time>2014-09-14T09:15:16.000Z</time>
      </trkpt>
      <trkpt lat="43.84285" lon="3.20355">
        <ele>855</ele>
        <time>2014-09-14T09:15:18.000Z</time>
      </trkpt>
      <trkpt lat="43.8429" lon="3.20359">
        <ele>858</ele>
        <time>2014-09-14T09:15:20.000Z</time>
      </trkpt>
      <trkpt lat="43.84296" lon="3.20362">
        <ele>856</ele>
        <time>2014-09-14T09:15:22.000Z</time>
      </trkpt>
      <trkpt lat="43.84302" lon="3.20367">
        <ele>852</ele>
        <time>2014-09-14T09:15:24.000Z</time>
      </trkpt>
      <trkpt lat="43.84307" lon="3.20373">
        <ele>849</ele>
        <time>2014-09-14T09:15:26.000Z</time>
      </trkpt>
      <trkpt lat="43.84313" lon="3.20379">
        <ele>847</ele>
        <time>2014-09-14T09:15:28.000Z</time>
      </trkpt>
      <trkpt lat="43.84318" lon="3.20385">
        <ele>848</ele>
        <time>2014-09-14T09:15:30.000Z</time>
      </trkpt>
      <trkpt lat="43.84323" lon="3.20391">
        <ele>850</ele>
        <time>2014-09-14T09:15:32.000Z</time>
      </trkpt>
      <trkpt lat="43.84329" lon="3.20397">
        <ele>847</ele>
        <time>2014-09-14T09:15:34.000Z</time>
      </trkpt>
      <trkpt lat="43.84335" lon="3.20402">
        <ele>845</ele>
        <time>2014-09-14T09:15:36.000Z</time>
      </trkpt>
      <trkpt lat="43.8434" lon="3.20406">
        <ele>848</ele>
        <time>2014-09-14T09:15:38.000Z</time>
      </trkpt>
      <trkpt lat="43.8434" lon="3.20406">
        <ele>848</ele>
        <time>2014-09-14T09:15:40.000Z</time>
      </trkpt>
      <trkpt lat="43.84344" lon="3.20416">
        <ele>851</ele>
        <time>2014-09-14T09:15:42.000Z</time>
      </trkpt>
      <trkpt lat="43.84344" lon="3.20416">
        <ele>851</ele>
        <time>2014-09-14T09:15:44.000Z</time>
      </trkpt>
      <trkpt lat="43.84351" lon="3.20427">
        <ele>854</ele>
        <time>2014-09-14T09:15:46.000Z</time>
      </trkpt>
      <trkpt lat="43.84351" lon="3.20427">
        <ele>854</ele>
        <time>2014-09-14T09:15:48.000Z</time>
      </trkpt>
      <trkpt lat="43.84354" lon="3.2044">
        <ele>853</ele>
        <time>2014-09-14T09:15:50.000Z</time>
      </trkpt>
      <trkpt lat="43.84357" lon="3.20449">
        <ele>854</ele>
        <time>2014-09-14T09:15:52.000Z</time>
      </trkpt>
      <trkpt lat="43.84359" lon="3.20457">
        <ele>854</ele>
        <time>2014-09-14T09:15:54.000Z</time>
      </trkpt>
      <trkpt lat="43.84361" lon="3.20466">
        <ele>854</ele>
        <time>2014-09-14T09:15:56.000Z</time>
      </trkpt>
      <trkpt lat="43.84363" lon="3.20474">
        <ele>858</ele>
        <time>2014-09-14T09:15:58.000Z</time>
      </trkpt>
      <trkpt lat="43.84363" lon="3.20474">
        <ele>858</ele>
        <time>2014-09-14T09:16:00.000Z</time>
      </trkpt>
      <trkpt lat="43.84369" lon="3.20487">
        <ele>857</ele>
        <time>2014-09-14T09:16:02.000Z</time>
      </trkpt>
      <trkpt lat="43.84372" lon="3.20495">
        <ele>858</ele>
        <time>2014-09-14T09:16:04.000Z</time>
      </trkpt>
      <trkpt lat="43.84375" lon="3.20504">
        <ele>857</ele>
        <time>2014-09-14T09:16:06.000Z</time>
      </trkpt>
      <trkpt lat="43.84377" lon="3.20514">
        <ele>856</ele>
        <time>2014-09-14T09:16:08.000Z</time>
      </trkpt>
      <trkpt lat="43.84379" lon="3.20527">
        <ele>854</ele>
        <time>2014-09-14T09:16:10.000Z</time>
      </trkpt>
      <trkpt lat="43.84382" lon="3.20554">
        <ele>856</ele>
        <time>2014-09-14T09:16:13.000Z</time>
      </trkpt>
      <trkpt lat="43.8438" lon="3.20568">
        <ele>857</ele>
        <time>2014-09-14T09:16:15.000Z</time>
      </trkpt>
      <trkpt lat="43.84374" lon="3.20581">
        <ele>854</ele>
        <time>2014-09-14T09:16:17.000Z</time>
      </trkpt>
      <trkpt lat="43.84374" lon="3.20595">
        <ele>854</ele>
        <time>2014-09-14T09:16:19.000Z</time>
      </trkpt>
      <trkpt lat="43.8437" lon="3.20606">
        <ele>855</ele>
        <time>2014-09-14T09:16:21.000Z</time>
      </trkpt>
      <trkpt lat="43.84366" lon="3.20616">
        <ele>854</ele>
        <time>2014-09-14T09:16:23.000Z</time>
      </trkpt>
      <trkpt lat="43.84365" lon="3.20629">
        <ele>854</ele>
        <time>2014-09-14T09:16:25.000Z</time>
      </trkpt>
      <trkpt lat="43.84363" lon="3.20642">
        <ele>853</ele>
        <time>2014-09-14T09:16:27.000Z</time>
      </trkpt>
      <trkpt lat="43.8436" lon="3.20652">
        <ele>852</ele>
        <time>2014-09-14T09:16:29.000Z</time>
      </trkpt>
      <trkpt lat="43.84357" lon="3.20661">
        <ele>853</ele>
        <time>2014-09-14T09:16:31.000Z</time>
      </trkpt>
      <trkpt lat="43.84355" lon="3.2067">
        <ele>853</ele>
        <time>2014-09-14T09:16:33.000Z</time>
      </trkpt>
      <trkpt lat="43.84354" lon="3.2068">
        <ele>854</ele>
        <time>2014-09-14T09:16:35.000Z</time>
      </trkpt>
      <trkpt lat="43.84354" lon="3.20689">
        <ele>855</ele>
        <time>2014-09-14T09:16:37.000Z</time>
      </trkpt>
      <trkpt lat="43.84354" lon="3.20699">
        <ele>855</ele>
        <time>2014-09-14T09:16:39.000Z</time>
      </trkpt>
      <trkpt lat="43.84354" lon="3.20709">
        <ele>857</ele>
        <time>2014-09-14T09:16:41.000Z</time>
      </trkpt>
      <trkpt lat="43.84356" lon="3.2072">
        <ele>854</ele>
        <time>2014-09-14T09:16:43.000Z</time>
      </trkpt>
      <trkpt lat="43.84359" lon="3.20731">
        <ele>855</ele>
        <time>2014-09-14T09:16:45.000Z</time>
      </trkpt>
      <trkpt lat="43.84361" lon="3.20742">
        <ele>855</ele>
        <time>2014-09-14T09:16:47.000Z</time>
      </trkpt>
      <trkpt lat="43.84363" lon="3.2075">
        <ele>855</ele>
        <time>2014-09-14T09:16:49.000Z</time>
      </trkpt>
      <trkpt lat="43.84366" lon="3.20758">
        <ele>854</ele>
        <time>2014-09-14T09:16:51.000Z</time>
      </trkpt>
      <trkpt lat="43.84369" lon="3.20765">
        <ele>855</ele>
        <time>2014-09-14T09:16:53.000Z</time>
      </trkpt>
      <trkpt lat="43.84372" lon="3.20772">
        <ele>856</ele>
        <time>2014-09-14T09:16:55.000Z</time>
      </trkpt>
      <trkpt lat="43.84375" lon="3.20779">
        <ele>858</ele>
        <time>2014-09-14T09:16:57.000Z</time>
      </trkpt>
      <trkpt lat="43.84378" lon="3.20786">
        <ele>859</ele>
        <time>2014-09-14T09:16:59.000Z</time>
      </trkpt>
      <trkpt lat="43.84381" lon="3.20794">
        <ele>860</ele>
        <time>2014-09-14T09:17:01.000Z</time>
      </trkpt>
      <trkpt lat="43.84383" lon="3.20806">
        <ele>860</ele>
        <time>2014-09-14T09:17:03.000Z</time>
      </trkpt>
      <trkpt lat="43.84384" lon="3.20819">
        <ele>858</ele>
        <time>2014-09-14T09:17:05.000Z</time>
      </trkpt>
      <trkpt lat="43.84385" lon="3.20832">
        <ele>856</ele>
        <time>2014-09-14T09:17:07.000Z</time>
      </trkpt>
      <trkpt lat="43.84389" lon="3.20845">
        <ele>858</ele>
        <time>2014-09-14T09:17:09.000Z</time>
      </trkpt>
      <trkpt lat="43.84394" lon="3.20857">
        <ele>859</ele>
        <time>2014-09-14T09:17:11.000Z</time>
      </trkpt>
      <trkpt lat="43.84399" lon="3.20867">
        <ele>855</ele>
        <time>2014-09-14T09:17:13.000Z</time>
      </trkpt>
      <trkpt lat="43.84404" lon="3.20878">
        <ele>854</ele>
        <time>2014-09-14T09:17:15.000Z</time>
      </trkpt>
      <trkpt lat="43.84411" lon="3.20889">
        <ele>852</ele>
        <time>2014-09-14T09:17:17.000Z</time>
      </trkpt>
      <trkpt lat="43.84422" lon="3.209">
        <ele>850</ele>
        <time>2014-09-14T09:17:19.000Z</time>
      </trkpt>
      <trkpt lat="43.84427" lon="3.20916">
        <ele>849</ele>
        <time>2014-09-14T09:17:21.000Z</time>
      </trkpt>
      <trkpt lat="43.84432" lon="3.20932">
        <ele>850</ele>
        <time>2014-09-14T09:17:23.000Z</time>
      </trkpt>
      <trkpt lat="43.84431" lon="3.20947">
        <ele>852</ele>
        <time>2014-09-14T09:17:25.000Z</time>
      </trkpt>
      <trkpt lat="43.84433" lon="3.20962">
        <ele>853</ele>
        <time>2014-09-14T09:17:27.000Z</time>
      </trkpt>
      <trkpt lat="43.84434" lon="3.20976">
        <ele>855</ele>
        <time>2014-09-14T09:17:29.000Z</time>
      </trkpt>
      <trkpt lat="43.84436" lon="3.20992">
        <ele>855</ele>
        <time>2014-09-14T09:17:31.000Z</time>
      </trkpt>
      <trkpt lat="43.84435" lon="3.21004">
        <ele>855</ele>
        <time>2014-09-14T09:17:33.000Z</time>
      </trkpt>
      <trkpt lat="43.84435" lon="3.21018">
        <ele>853</ele>
        <time>2014-09-14T09:17:35.000Z</time>
      </trkpt>
      <trkpt lat="43.84432" lon="3.21029">
        <ele>853</ele>
        <time>2014-09-14T09:17:37.000Z</time>
      </trkpt>
      <trkpt lat="43.84429" lon="3.21042">
        <ele>855</ele>
        <time>2014-09-14T09:17:39.000Z</time>
      </trkpt>
      <trkpt lat="43.84426" lon="3.21052">
        <ele>856</ele>
        <time>2014-09-14T09:17:41.000Z</time>
      </trkpt>
      <trkpt lat="43.84419" lon="3.21059">
        <ele>856</ele>
        <time>2014-09-14T09:17:43.000Z</time>
      </trkpt>
      <trkpt lat="43.84413" lon="3.21066">
        <ele>856</ele>
        <time>2014-09-14T09:17:45.000Z</time>
      </trkpt>
      <trkpt lat="43.8441" lon="3.21082">
        <ele>855</ele>
        <time>2014-09-14T09:17:47.000Z</time>
      </trkpt>
      <trkpt lat="43.84404" lon="3.21088">
        <ele>856</ele>
        <time>2014-09-14T09:17:49.000Z</time>
      </trkpt>
      <trkpt lat="43.84399" lon="3.21097">
        <ele>857</ele>
        <time>2014-09-14T09:17:51.000Z</time>
      </trkpt>
      <trkpt lat="43.84396" lon="3.21109">
        <ele>856</ele>
        <time>2014-09-14T09:17:53.000Z</time>
      </trkpt>
      <trkpt lat="43.84394" lon="3.21124">
        <ele>855</ele>
        <time>2014-09-14T09:17:55.000Z</time>
      </trkpt>
      <trkpt lat="43.84394" lon="3.21141">
        <ele>854</ele>
        <time>2014-09-14T09:17:57.000Z</time>
      </trkpt>
      <trkpt lat="43.84388" lon="3.21151">
        <ele>855</ele>
        <time>2014-09-14T09:17:59.000Z</time>
      </trkpt>
      <trkpt lat="43.84385" lon="3.21163">
        <ele>855</ele>
        <time>2014-09-14T09:18:01.000Z</time>
      </trkpt>
      <trkpt lat="43.84382" lon="3.21174">
        <ele>857</ele>
        <time>2014-09-14T09:18:03.000Z</time>
      </trkpt>
      <trkpt lat="43.8438" lon="3.21186">
        <ele>860</ele>
        <time>2014-09-14T09:18:05.000Z</time>
      </trkpt>
      <trkpt lat="43.84376" lon="3.21198">
        <ele>859</ele>
        <time>2014-09-14T09:18:07.000Z</time>
      </trkpt>
      <trkpt lat="43.84372" lon="3.21207">
        <ele>857</ele>
        <time>2014-09-14T09:18:09.000Z</time>
      </trkpt>
      <trkpt lat="43.84367" lon="3.21213">
        <ele>856</ele>
        <time>2014-09-14T09:18:11.000Z</time>
      </trkpt>
      <trkpt lat="43.84361" lon="3.2122">
        <ele>859</ele>
        <time>2014-09-14T09:18:13.000Z</time>
      </trkpt>
      <trkpt lat="43.84355" lon="3.21226">
        <ele>859</ele>
        <time>2014-09-14T09:18:15.000Z</time>
      </trkpt>
      <trkpt lat="43.84349" lon="3.21233">
        <ele>856</ele>
        <time>2014-09-14T09:18:17.000Z</time>
      </trkpt>
      <trkpt lat="43.84343" lon="3.21242">
        <ele>858</ele>
        <time>2014-09-14T09:18:19.000Z</time>
      </trkpt>
      <trkpt lat="43.84339" lon="3.21252">
        <ele>858</ele>
        <time>2014-09-14T09:18:21.000Z</time>
      </trkpt>
      <trkpt lat="43.84333" lon="3.2126">
        <ele>857</ele>
        <time>2014-09-14T09:18:23.000Z</time>
      </trkpt>
      <trkpt lat="43.84327" lon="3.21267">
        <ele>858</ele>
        <time>2014-09-14T09:18:25.000Z</time>
      </trkpt>
      <trkpt lat="43.84323" lon="3.21275">
        <ele>859</ele>
        <time>2014-09-14T09:18:27.000Z</time>
      </trkpt>
      <trkpt lat="43.84319" lon="3.21284">
        <ele>860</ele>
        <time>2014-09-14T09:18:29.000Z</time>
      </trkpt>
      <trkpt lat="43.84317" lon="3.21292">
        <ele>861</ele>
        <time>2014-09-14T09:18:31.000Z</time>
      </trkpt>
      <trkpt lat="43.84315" lon="3.21301">
        <ele>862</ele>
        <time>2014-09-14T09:18:33.000Z</time>
      </trkpt>
      <trkpt lat="43.84312" lon="3.2131">
        <ele>861</ele>
        <time>2014-09-14T09:18:35.000Z</time>
      </trkpt>
      <trkpt lat="43.8431" lon="3.21319">
        <ele>859</ele>
        <time>2014-09-14T09:18:37.000Z</time>
      </trkpt>
      <trkpt lat="43.84307" lon="3.21328">
        <ele>860</ele>
        <time>2014-09-14T09:18:39.000Z</time>
      </trkpt>
      <trkpt lat="43.84304" lon="3.21335">
        <ele>859</ele>
        <time>2014-09-14T09:18:41.000Z</time>
      </trkpt>
      <trkpt lat="43.84299" lon="3.21342">
        <ele>859</ele>
        <time>2014-09-14T09:18:43.000Z</time>
      </trkpt>
      <trkpt lat="43.84293" lon="3.2135">
        <ele>859</ele>
        <time>2014-09-14T09:18:45.000Z</time>
      </trkpt>
      <trkpt lat="43.84286" lon="3.21357">
        <ele>862</ele>
        <time>2014-09-14T09:18:47.000Z</time>
      </trkpt>
      <trkpt lat="43.8428" lon="3.21362">
        <ele>866</ele>
        <time>2014-09-14T09:18:49.000Z</time>
      </trkpt>
      <trkpt lat="43.8428" lon="3.21362">
        <ele>866</ele>
        <time>2014-09-14T09:18:51.000Z</time>
      </trkpt>
      <trkpt lat="43.84274" lon="3.21375">
        <ele>867</ele>
        <time>2014-09-14T09:18:53.000Z</time>
      </trkpt>
      <trkpt lat="43.8427" lon="3.21383">
        <ele>868</ele>
        <time>2014-09-14T09:18:55.000Z</time>
      </trkpt>
      <trkpt lat="43.84267" lon="3.2139">
        <ele>868</ele>
        <time>2014-09-14T09:18:57.000Z</time>
      </trkpt>
      <trkpt lat="43.84267" lon="3.2139">
        <ele>868</ele>
        <time>2014-09-14T09:18:59.000Z</time>
      </trkpt>
      <trkpt lat="43.8426" lon="3.21404">
        <ele>867</ele>
        <time>2014-09-14T09:19:01.000Z</time>
      </trkpt>
      <trkpt lat="43.84258" lon="3.21414">
        <ele>868</ele>
        <time>2014-09-14T09:19:03.000Z</time>
      </trkpt>
      <trkpt lat="43.84256" lon="3.21425">
        <ele>866</ele>
        <time>2014-09-14T09:19:05.000Z</time>
      </trkpt>
      <trkpt lat="43.84253" lon="3.21439">
        <ele>863</ele>
        <time>2014-09-14T09:19:07.000Z</time>
      </trkpt>
      <trkpt lat="43.84251" lon="3.21452">
        <ele>863</ele>
        <time>2014-09-14T09:19:09.000Z</time>
      </trkpt>
      <trkpt lat="43.8425" lon="3.21462">
        <ele>864</ele>
        <time>2014-09-14T09:19:11.000Z</time>
      </trkpt>
      <trkpt lat="43.84248" lon="3.21471">
        <ele>865</ele>
        <time>2014-09-14T09:19:13.000Z</time>
      </trkpt>
      <trkpt lat="43.84248" lon="3.2148">
        <ele>865</ele>
        <time>2014-09-14T09:19:15.000Z</time>
      </trkpt>
      <trkpt lat="43.84248" lon="3.2148">
        <ele>865</ele>
        <time>2014-09-14T09:19:17.000Z</time>
      </trkpt>
      <trkpt lat="43.84246" lon="3.21494">
        <ele>868</ele>
        <time>2014-09-14T09:19:19.000Z</time>
      </trkpt>
      <trkpt lat="43.84246" lon="3.21494">
        <ele>868</ele>
        <time>2014-09-14T09:19:21.000Z</time>
      </trkpt>
      <trkpt lat="43.84242" lon="3.21504">
        <ele>869</ele>
        <time>2014-09-14T09:19:23.000Z</time>
      </trkpt>
      <trkpt lat="43.84242" lon="3.21504">
        <ele>869</ele>
        <time>2014-09-14T09:19:25.000Z</time>
      </trkpt>
      <trkpt lat="43.8424" lon="3.21514">
        <ele>872</ele>
        <time>2014-09-14T09:19:27.000Z</time>
      </trkpt>
      <trkpt lat="43.8424" lon="3.21514">
        <ele>872</ele>
        <time>2014-09-14T09:19:29.000Z</time>
      </trkpt>
      <trkpt lat="43.84239" lon="3.21528">
        <ele>873</ele>
        <time>2014-09-14T09:19:31.000Z</time>
      </trkpt>
      <trkpt lat="43.84239" lon="3.21528">
        <ele>873</ele>
        <time>2014-09-14T09:19:33.000Z</time>
      </trkpt>
      <trkpt lat="43.84238" lon="3.21543">
        <ele>872</ele>
        <time>2014-09-14T09:19:35.000Z</time>
      </trkpt>
      <trkpt lat="43.84235" lon="3.21551">
        <ele>869</ele>
        <time>2014-09-14T09:19:37.000Z</time>
      </trkpt>
      <trkpt lat="43.84232" lon="3.21561">
        <ele>872</ele>
        <time>2014-09-14T09:19:39.000Z</time>
      </trkpt>
      <trkpt lat="43.84229" lon="3.21572">
        <ele>873</ele>
        <time>2014-09-14T09:19:41.000Z</time>
      </trkpt>
      <trkpt lat="43.8423" lon="3.21584">
        <ele>876</ele>
        <time>2014-09-14T09:19:43.000Z</time>
      </trkpt>
      <trkpt lat="43.84231" lon="3.21599">
        <ele>875</ele>
        <time>2014-09-14T09:19:45.000Z</time>
      </trkpt>
      <trkpt lat="43.84233" lon="3.21612">
        <ele>871</ele>
        <time>2014-09-14T09:19:47.000Z</time>
      </trkpt>
      <trkpt lat="43.84234" lon="3.21622">
        <ele>874</ele>
        <time>2014-09-14T09:19:49.000Z</time>
      </trkpt>
      <trkpt lat="43.84231" lon="3.21629">
        <ele>874</ele>
        <time>2014-09-14T09:19:51.000Z</time>
      </trkpt>
      <trkpt lat="43.84231" lon="3.21629">
        <ele>874</ele>
        <time>2014-09-14T09:19:53.000Z</time>
      </trkpt>
      <trkpt lat="43.84222" lon="3.21637">
        <ele>874</ele>
        <time>2014-09-14T09:19:55.000Z</time>
      </trkpt>
      <trkpt lat="43.84217" lon="3.21643">
        <ele>873</ele>
        <time>2014-09-14T09:19:57.000Z</time>
      </trkpt>
      <trkpt lat="43.84217" lon="3.21643">
        <ele>873</ele>
        <time>2014-09-14T09:19:59.000Z</time>
      </trkpt>
      <trkpt lat="43.84212" lon="3.21651">
        <ele>875</ele>
        <time>2014-09-14T09:20:01.000Z</time>
      </trkpt>
      <trkpt lat="43.84212" lon="3.21651">
        <ele>875</ele>
        <time>2014-09-14T09:20:03.000Z</time>
      </trkpt>
      <trkpt lat="43.84207" lon="3.21658">
        <ele>876</ele>
        <time>2014-09-14T09:20:05.000Z</time>
      </trkpt>
      <trkpt lat="43.84207" lon="3.21658">
        <ele>876</ele>
        <time>2014-09-14T09:20:07.000Z</time>
      </trkpt>
      <trkpt lat="43.84203" lon="3.21667">
        <ele>878</ele>
        <time>2014-09-14T09:20:09.000Z</time>
      </trkpt>
      <trkpt lat="43.84203" lon="3.21667">
        <ele>878</ele>
        <time>2014-09-14T09:20:11.000Z</time>
      </trkpt>
      <trkpt lat="43.84198" lon="3.21673">
        <ele>879</ele>
        <time>2014-09-14T09:20:13.000Z</time>
      </trkpt>
      <trkpt lat="43.84198" lon="3.21673">
        <ele>879</ele>
        <time>2014-09-14T09:20:15.000Z</time>
      </trkpt>
      <trkpt lat="43.84194" lon="3.21679">
        <ele>879</ele>
        <time>2014-09-14T09:20:17.000Z</time>
      </trkpt>
      <trkpt lat="43.84194" lon="3.21679">
        <ele>879</ele>
        <time>2014-09-14T09:20:19.000Z</time>
      </trkpt>
      <trkpt lat="43.84192" lon="3.21688">
        <ele>883</ele>
        <time>2014-09-14T09:20:21.000Z</time>
      </trkpt>
      <trkpt lat="43.84192" lon="3.21688">
        <ele>883</ele>
        <time>2014-09-14T09:20:23.000Z</time>
      </trkpt>
      <trkpt lat="43.84192" lon="3.21688">
        <ele>883</ele>
        <time>2014-09-14T09:20:25.000Z</time>
      </trkpt>
      <trkpt lat="43.84185" lon="3.21694">
        <ele>886</ele>
        <time>2014-09-14T09:20:27.000Z</time>
      </trkpt>
      <trkpt lat="43.84184" lon="3.21706">
        <ele>887</ele>
        <time>2014-09-14T09:20:31.000Z</time>
      </trkpt>
      <trkpt lat="43.84181" lon="3.21715">
        <ele>887</ele>
        <time>2014-09-14T09:20:35.000Z</time>
      </trkpt>
      <trkpt lat="43.84177" lon="3.21723">
        <ele>888</ele>
        <time>2014-09-14T09:20:39.000Z</time>
      </trkpt>
      <trkpt lat="43.84174" lon="3.21732">
        <ele>892</ele>
        <time>2014-09-14T09:20:43.000Z</time>
      </trkpt>
      <trkpt lat="43.84172" lon="3.21743">
        <ele>891</ele>
        <time>2014-09-14T09:20:47.000Z</time>
      </trkpt>
      <trkpt lat="43.84168" lon="3.21756">
        <ele>890</ele>
        <time>2014-09-14T09:20:51.000Z</time>
      </trkpt>
      <trkpt lat="43.84162" lon="3.21768">
        <ele>893</ele>
        <time>2014-09-14T09:20:55.000Z</time>
      </trkpt>
      <trkpt lat="43.84156" lon="3.21778">
        <ele>892</ele>
        <time>2014-09-14T09:20:59.000Z</time>
      </trkpt>
      <trkpt lat="43.84156" lon="3.21778">
        <ele>892</ele>
        <time>2014-09-14T09:21:01.000Z</time>
      </trkpt>
      <trkpt lat="43.84153" lon="3.21782">
        <ele>891</ele>
        <time>2014-09-14T09:21:03.000Z</time>
      </trkpt>
      <trkpt lat="43.8415" lon="3.21785">
        <ele>891</ele>
        <time>2014-09-14T09:21:05.000Z</time>
      </trkpt>
      <trkpt lat="43.84148" lon="3.21789">
        <ele>891</ele>
        <time>2014-09-14T09:21:07.000Z</time>
      </trkpt>
      <trkpt lat="43.84145" lon="3.21793">
        <ele>890</ele>
        <time>2014-09-14T09:21:09.000Z</time>
      </trkpt>
      <trkpt lat="43.84143" lon="3.21796">
        <ele>891</ele>
        <time>2014-09-14T09:21:11.000Z</time>
      </trkpt>
      <trkpt lat="43.84143" lon="3.21796">
        <ele>891</ele>
        <time>2014-09-14T09:21:13.000Z</time>
      </trkpt>
      <trkpt lat="43.84143" lon="3.21796">
        <ele>891</ele>
        <time>2014-09-14T09:21:17.000Z</time>
      </trkpt>
      <trkpt lat="43.84143" lon="3.21796">
        <ele>891</ele>
        <time>2014-09-14T09:21:19.000Z</time>
      </trkpt>
      <trkpt lat="43.84142" lon="3.21826">
        <ele>886</ele>
        <time>2014-09-14T09:22:05.000Z</time>
      </trkpt>
      <trkpt lat="43.84141" lon="3.21836">
        <ele>886</ele>
        <time>2014-09-14T09:22:07.000Z</time>
      </trkpt>
      <trkpt lat="43.8414" lon="3.21847">
        <ele>887</ele>
        <time>2014-09-14T09:22:09.000Z</time>
      </trkpt>
      <trkpt lat="43.84137" lon="3.2186">
        <ele>886</ele>
        <time>2014-09-14T09:22:11.000Z</time>
      </trkpt>
      <trkpt lat="43.84133" lon="3.21908">
        <ele>883</ele>
        <time>2014-09-14T09:22:15.000Z</time>
      </trkpt>
      <trkpt lat="43.8413" lon="3.21933">
        <ele>880</ele>
        <time>2014-09-14T09:22:19.000Z</time>
      </trkpt>
      <trkpt lat="43.84129" lon="3.21942">
        <ele>884</ele>
        <time>2014-09-14T09:22:21.000Z</time>
      </trkpt>
      <trkpt lat="43.84129" lon="3.21942">
        <ele>884</ele>
        <time>2014-09-14T09:22:23.000Z</time>
      </trkpt>
      <trkpt lat="43.84127" lon="3.21953">
        <ele>884</ele>
        <time>2014-09-14T09:22:25.000Z</time>
      </trkpt>
      <trkpt lat="43.84126" lon="3.2196">
        <ele>884</ele>
        <time>2014-09-14T09:22:27.000Z</time>
      </trkpt>
      <trkpt lat="43.84126" lon="3.2196">
        <ele>884</ele>
        <time>2014-09-14T09:22:29.000Z</time>
      </trkpt>
      <trkpt lat="43.84124" lon="3.21974">
        <ele>883</ele>
        <time>2014-09-14T09:22:31.000Z</time>
      </trkpt>
      <trkpt lat="43.84124" lon="3.21974">
        <ele>883</ele>
        <time>2014-09-14T09:22:33.000Z</time>
      </trkpt>
      <trkpt lat="43.84122" lon="3.21986">
        <ele>883</ele>
        <time>2014-09-14T09:22:35.000Z</time>
      </trkpt>
      <trkpt lat="43.84122" lon="3.21986">
        <ele>883</ele>
        <time>2014-09-14T09:22:37.000Z</time>
      </trkpt>
      <trkpt lat="43.84121" lon="3.21991">
        <ele>883</ele>
        <time>2014-09-14T09:22:39.000Z</time>
      </trkpt>
      <trkpt lat="43.84119" lon="3.21996">
        <ele>883</ele>
        <time>2014-09-14T09:22:41.000Z</time>
      </trkpt>
      <trkpt lat="43.84118" lon="3.22001">
        <ele>882</ele>
        <time>2014-09-14T09:22:43.000Z</time>
      </trkpt>
      <trkpt lat="43.84115" lon="3.22005">
        <ele>881</ele>
        <time>2014-09-14T09:22:45.000Z</time>
      </trkpt>
      <trkpt lat="43.84112" lon="3.22009">
        <ele>882</ele>
        <time>2014-09-14T09:22:47.000Z</time>
      </trkpt>
      <trkpt lat="43.84106" lon="3.22016">
        <ele>884</ele>
        <time>2014-09-14T09:22:49.000Z</time>
      </trkpt>
      <trkpt lat="43.84106" lon="3.22016">
        <ele>884</ele>
        <time>2014-09-14T09:22:51.000Z</time>
      </trkpt>
      <trkpt lat="43.84106" lon="3.22016">
        <ele>884</ele>
        <time>2014-09-14T09:22:53.000Z</time>
      </trkpt>
      <trkpt lat="43.84099" lon="3.22021">
        <ele>886</ele>
        <time>2014-09-14T09:22:55.000Z</time>
      </trkpt>
      <trkpt lat="43.84099" lon="3.22021">
        <ele>886</ele>
        <time>2014-09-14T09:22:57.000Z</time>
      </trkpt>
      <trkpt lat="43.84094" lon="3.22025">
        <ele>887</ele>
        <time>2014-09-14T09:22:59.000Z</time>
      </trkpt>
      <trkpt lat="43.84094" lon="3.22025">
        <ele>887</ele>
        <time>2014-09-14T09:23:01.000Z</time>
      </trkpt>
      <trkpt lat="43.84087" lon="3.22029">
        <ele>886</ele>
        <time>2014-09-14T09:23:03.000Z</time>
      </trkpt>
      <trkpt lat="43.84087" lon="3.22029">
        <ele>886</ele>
        <time>2014-09-14T09:23:05.000Z</time>
      </trkpt>
      <trkpt lat="43.84081" lon="3.22035">
        <ele>885</ele>
        <time>2014-09-14T09:23:07.000Z</time>
      </trkpt>
      <trkpt lat="43.84081" lon="3.22035">
        <ele>885</ele>
        <time>2014-09-14T09:23:09.000Z</time>
      </trkpt>
      <trkpt lat="43.84074" lon="3.22042">
        <ele>887</ele>
        <time>2014-09-14T09:23:11.000Z</time>
      </trkpt>
      <trkpt lat="43.84067" lon="3.2205">
        <ele>887</ele>
        <time>2014-09-14T09:23:15.000Z</time>
      </trkpt>
      <trkpt lat="43.8406" lon="3.22061">
        <ele>889</ele>
        <time>2014-09-14T09:23:19.000Z</time>
      </trkpt>
      <trkpt lat="43.84053" lon="3.22072">
        <ele>891</ele>
        <time>2014-09-14T09:23:23.000Z</time>
      </trkpt>
      <trkpt lat="43.84045" lon="3.22079">
        <ele>891</ele>
        <time>2014-09-14T09:23:27.000Z</time>
      </trkpt>
      <trkpt lat="43.84037" lon="3.22085">
        <ele>891</ele>
        <time>2014-09-14T09:23:31.000Z</time>
      </trkpt>
      <trkpt lat="43.84037" lon="3.22085">
        <ele>891</ele>
        <time>2014-09-14T09:23:33.000Z</time>
      </trkpt>
      <trkpt lat="43.84029" lon="3.22093">
        <ele>892</ele>
        <time>2014-09-14T09:23:35.000Z</time>
      </trkpt>
      <trkpt lat="43.84025" lon="3.22099">
        <ele>892</ele>
        <time>2014-09-14T09:23:37.000Z</time>
      </trkpt>
      <trkpt lat="43.84019" lon="3.22107">
        <ele>892</ele>
        <time>2014-09-14T09:23:39.000Z</time>
      </trkpt>
      <trkpt lat="43.84013" lon="3.22123">
        <ele>891</ele>
        <time>2014-09-14T09:23:41.000Z</time>
      </trkpt>
      <trkpt lat="43.84009" lon="3.22135">
        <ele>892</ele>
        <time>2014-09-14T09:23:43.000Z</time>
      </trkpt>
      <trkpt lat="43.84004" lon="3.22143">
        <ele>891</ele>
        <time>2014-09-14T09:23:45.000Z</time>
      </trkpt>
      <trkpt lat="43.83999" lon="3.22157">
        <ele>888</ele>
        <time>2014-09-14T09:23:47.000Z</time>
      </trkpt>
      <trkpt lat="43.83993" lon="3.22162">
        <ele>889</ele>
        <time>2014-09-14T09:23:50.000Z</time>
      </trkpt>
      <trkpt lat="43.83993" lon="3.22162">
        <ele>889</ele>
        <time>2014-09-14T09:23:52.000Z</time>
      </trkpt>
      <trkpt lat="43.83986" lon="3.2217">
        <ele>888</ele>
        <time>2014-09-14T09:23:54.000Z</time>
      </trkpt>
      <trkpt lat="43.83986" lon="3.2217">
        <ele>888</ele>
        <time>2014-09-14T09:23:56.000Z</time>
      </trkpt>
      <trkpt lat="43.83982" lon="3.2218">
        <ele>888</ele>
        <time>2014-09-14T09:23:58.000Z</time>
      </trkpt>
      <trkpt lat="43.83979" lon="3.22188">
        <ele>888</ele>
        <time>2014-09-14T09:24:00.000Z</time>
      </trkpt>
      <trkpt lat="43.83976" lon="3.22197">
        <ele>889</ele>
        <time>2014-09-14T09:24:02.000Z</time>
      </trkpt>
      <trkpt lat="43.83972" lon="3.22203">
        <ele>890</ele>
        <time>2014-09-14T09:24:04.000Z</time>
      </trkpt>
      <trkpt lat="43.83967" lon="3.22208">
        <ele>891</ele>
        <time>2014-09-14T09:24:06.000Z</time>
      </trkpt>
      <trkpt lat="43.83963" lon="3.22213">
        <ele>893</ele>
        <time>2014-09-14T09:24:08.000Z</time>
      </trkpt>
      <trkpt lat="43.83958" lon="3.22218">
        <ele>893</ele>
        <time>2014-09-14T09:24:10.000Z</time>
      </trkpt>
      <trkpt lat="43.83954" lon="3.22223">
        <ele>892</ele>
        <time>2014-09-14T09:24:12.000Z</time>
      </trkpt>
      <trkpt lat="43.83954" lon="3.22223">
        <ele>892</ele>
        <time>2014-09-14T09:24:14.000Z</time>
      </trkpt>
      <trkpt lat="43.83947" lon="3.22234">
        <ele>894</ele>
        <time>2014-09-14T09:24:16.000Z</time>
      </trkpt>
      <trkpt lat="43.83947" lon="3.22234">
        <ele>894</ele>
        <time>2014-09-14T09:24:18.000Z</time>
      </trkpt>
      <trkpt lat="43.83941" lon="3.22242">
        <ele>894</ele>
        <time>2014-09-14T09:24:20.000Z</time>
      </trkpt>
      <trkpt lat="43.83941" lon="3.22242">
        <ele>894</ele>
        <time>2014-09-14T09:24:22.000Z</time>
      </trkpt>
      <trkpt lat="43.83934" lon="3.22252">
        <ele>893</ele>
        <time>2014-09-14T09:24:24.000Z</time>
      </trkpt>
      <trkpt lat="43.83934" lon="3.22252">
        <ele>893</ele>
        <time>2014-09-14T09:24:26.000Z</time>
      </trkpt>
      <trkpt lat="43.83925" lon="3.22258">
        <ele>894</ele>
        <time>2014-09-14T09:24:28.000Z</time>
      </trkpt>
      <trkpt lat="43.83925" lon="3.22258">
        <ele>894</ele>
        <time>2014-09-14T09:24:30.000Z</time>
      </trkpt>
      <trkpt lat="43.83915" lon="3.22263">
        <ele>896</ele>
        <time>2014-09-14T09:24:32.000Z</time>
      </trkpt>
      <trkpt lat="43.83915" lon="3.22263">
        <ele>896</ele>
        <time>2014-09-14T09:24:34.000Z</time>
      </trkpt>
      <trkpt lat="43.83905" lon="3.22268">
        <ele>899</ele>
        <time>2014-09-14T09:24:36.000Z</time>
      </trkpt>
      <trkpt lat="43.83898" lon="3.22272">
        <ele>896</ele>
        <time>2014-09-14T09:24:38.000Z</time>
      </trkpt>
      <trkpt lat="43.83891" lon="3.22277">
        <ele>897</ele>
        <time>2014-09-14T09:24:40.000Z</time>
      </trkpt>
      <trkpt lat="43.83884" lon="3.22281">
        <ele>899</ele>
        <time>2014-09-14T09:24:42.000Z</time>
      </trkpt>
      <trkpt lat="43.83876" lon="3.22285">
        <ele>901</ele>
        <time>2014-09-14T09:24:44.000Z</time>
      </trkpt>
      <trkpt lat="43.83861" lon="3.22302">
        <ele>896</ele>
        <time>2014-09-14T09:24:47.000Z</time>
      </trkpt>
      <trkpt lat="43.83851" lon="3.22311">
        <ele>899</ele>
        <time>2014-09-14T09:24:50.000Z</time>
      </trkpt>
      <trkpt lat="43.83842" lon="3.22318">
        <ele>899</ele>
        <time>2014-09-14T09:24:52.000Z</time>
      </trkpt>
      <trkpt lat="43.83834" lon="3.22328">
        <ele>898</ele>
        <time>2014-09-14T09:24:54.000Z</time>
      </trkpt>
      <trkpt lat="43.83826" lon="3.22344">
        <ele>900</ele>
        <time>2014-09-14T09:24:56.000Z</time>
      </trkpt>
      <trkpt lat="43.83813" lon="3.22357">
        <ele>897</ele>
        <time>2014-09-14T09:24:58.000Z</time>
      </trkpt>
      <trkpt lat="43.83803" lon="3.22373">
        <ele>897</ele>
        <time>2014-09-14T09:25:00.000Z</time>
      </trkpt>
      <trkpt lat="43.83793" lon="3.22386">
        <ele>896</ele>
        <time>2014-09-14T09:25:02.000Z</time>
      </trkpt>
      <trkpt lat="43.83787" lon="3.22401">
        <ele>896</ele>
        <time>2014-09-14T09:25:04.000Z</time>
      </trkpt>
      <trkpt lat="43.83782" lon="3.22421">
        <ele>895</ele>
        <time>2014-09-14T09:25:06.000Z</time>
      </trkpt>
      <trkpt lat="43.8377" lon="3.22435">
        <ele>894</ele>
        <time>2014-09-14T09:25:08.000Z</time>
      </trkpt>
      <trkpt lat="43.83759" lon="3.22447">
        <ele>894</ele>
        <time>2014-09-14T09:25:10.000Z</time>
      </trkpt>
      <trkpt lat="43.83754" lon="3.22468">
        <ele>892</ele>
        <time>2014-09-14T09:25:12.000Z</time>
      </trkpt>
      <trkpt lat="43.83749" lon="3.22491">
        <ele>891</ele>
        <time>2014-09-14T09:25:14.000Z</time>
      </trkpt>
      <trkpt lat="43.83738" lon="3.22511">
        <ele>894</ele>
        <time>2014-09-14T09:25:17.000Z</time>
      </trkpt>
      <trkpt lat="43.83728" lon="3.22523">
        <ele>894</ele>
        <time>2014-09-14T09:25:19.000Z</time>
      </trkpt>
      <trkpt lat="43.8372" lon="3.22536">
        <ele>893</ele>
        <time>2014-09-14T09:25:21.000Z</time>
      </trkpt>
      <trkpt lat="43.83719" lon="3.22556">
        <ele>892</ele>
        <time>2014-09-14T09:25:23.000Z</time>
      </trkpt>
      <trkpt lat="43.83717" lon="3.22574">
        <ele>889</ele>
        <time>2014-09-14T09:25:25.000Z</time>
      </trkpt>
      <trkpt lat="43.83711" lon="3.22591">
        <ele>891</ele>
        <time>2014-09-14T09:25:27.000Z</time>
      </trkpt>
      <trkpt lat="43.83702" lon="3.22606">
        <ele>892</ele>
        <time>2014-09-14T09:25:29.000Z</time>
      </trkpt>
      <trkpt lat="43.83697" lon="3.22627">
        <ele>893</ele>
        <time>2014-09-14T09:25:31.000Z</time>
      </trkpt>
      <trkpt lat="43.83683" lon="3.22631">
        <ele>894</ele>
        <time>2014-09-14T09:25:33.000Z</time>
      </trkpt>
      <trkpt lat="43.83673" lon="3.22626">
        <ele>895</ele>
        <time>2014-09-14T09:25:35.000Z</time>
      </trkpt>
      <trkpt lat="43.83662" lon="3.22621">
        <ele>893</ele>
        <time>2014-09-14T09:25:37.000Z</time>
      </trkpt>
      <trkpt lat="43.83648" lon="3.22613">
        <ele>893</ele>
        <time>2014-09-14T09:25:39.000Z</time>
      </trkpt>
      <trkpt lat="43.83634" lon="3.22604">
        <ele>892</ele>
        <time>2014-09-14T09:25:42.000Z</time>
      </trkpt>
      <trkpt lat="43.83624" lon="3.226">
        <ele>892</ele>
        <time>2014-09-14T09:25:44.000Z</time>
      </trkpt>
      <trkpt lat="43.83612" lon="3.22591">
        <ele>890</ele>
        <time>2014-09-14T09:25:46.000Z</time>
      </trkpt>
      <trkpt lat="43.83598" lon="3.22589">
        <ele>890</ele>
        <time>2014-09-14T09:25:48.000Z</time>
      </trkpt>
      <trkpt lat="43.83585" lon="3.22585">
        <ele>890</ele>
        <time>2014-09-14T09:25:50.000Z</time>
      </trkpt>
      <trkpt lat="43.83574" lon="3.22581">
        <ele>889</ele>
        <time>2014-09-14T09:25:52.000Z</time>
      </trkpt>
      <trkpt lat="43.83574" lon="3.22581">
        <ele>889</ele>
        <time>2014-09-14T09:25:54.000Z</time>
      </trkpt>
      <trkpt lat="43.83565" lon="3.22585">
        <ele>889</ele>
        <time>2014-09-14T09:25:56.000Z</time>
      </trkpt>
      <trkpt lat="43.83565" lon="3.22595">
        <ele>889</ele>
        <time>2014-09-14T09:25:58.000Z</time>
      </trkpt>
      <trkpt lat="43.83568" lon="3.22603">
        <ele>888</ele>
        <time>2014-09-14T09:26:00.000Z</time>
      </trkpt>
      <trkpt lat="43.83574" lon="3.22614">
        <ele>887</ele>
        <time>2014-09-14T09:26:02.000Z</time>
      </trkpt>
      <trkpt lat="43.83578" lon="3.22626">
        <ele>888</ele>
        <time>2014-09-14T09:26:04.000Z</time>
      </trkpt>
      <trkpt lat="43.83582" lon="3.22636">
        <ele>886</ele>
        <time>2014-09-14T09:26:06.000Z</time>
      </trkpt>
      <trkpt lat="43.83585" lon="3.22649">
        <ele>885</ele>
        <time>2014-09-14T09:26:08.000Z</time>
      </trkpt>
      <trkpt lat="43.83589" lon="3.22665">
        <ele>884</ele>
        <time>2014-09-14T09:26:10.000Z</time>
      </trkpt>
      <trkpt lat="43.83591" lon="3.22686">
        <ele>886</ele>
        <time>2014-09-14T09:26:12.000Z</time>
      </trkpt>
      <trkpt lat="43.83593" lon="3.22706">
        <ele>887</ele>
        <time>2014-09-14T09:26:14.000Z</time>
      </trkpt>
      <trkpt lat="43.83596" lon="3.22728">
        <ele>886</ele>
        <time>2014-09-14T09:26:16.000Z</time>
      </trkpt>
      <trkpt lat="43.83593" lon="3.22743">
        <ele>887</ele>
        <time>2014-09-14T09:26:18.000Z</time>
      </trkpt>
      <trkpt lat="43.83591" lon="3.22759">
        <ele>882</ele>
        <time>2014-09-14T09:26:20.000Z</time>
      </trkpt>
      <trkpt lat="43.8358" lon="3.22763">
        <ele>882</ele>
        <time>2014-09-14T09:26:22.000Z</time>
      </trkpt>
      <trkpt lat="43.83568" lon="3.2277">
        <ele>882</ele>
        <time>2014-09-14T09:26:24.000Z</time>
      </trkpt>
      <trkpt lat="43.83552" lon="3.2278">
        <ele>880</ele>
        <time>2014-09-14T09:26:26.000Z</time>
      </trkpt>
      <trkpt lat="43.83539" lon="3.22793">
        <ele>882</ele>
        <time>2014-09-14T09:26:28.000Z</time>
      </trkpt>
      <trkpt lat="43.83522" lon="3.22802">
        <ele>883</ele>
        <time>2014-09-14T09:26:30.000Z</time>
      </trkpt>
      <trkpt lat="43.83504" lon="3.22815">
        <ele>883</ele>
        <time>2014-09-14T09:26:32.000Z</time>
      </trkpt>
      <trkpt lat="43.83486" lon="3.22828">
        <ele>882</ele>
        <time>2014-09-14T09:26:34.000Z</time>
      </trkpt>
      <trkpt lat="43.83469" lon="3.22841">
        <ele>881</ele>
        <time>2014-09-14T09:26:36.000Z</time>
      </trkpt>
      <trkpt lat="43.83452" lon="3.22851">
        <ele>879</ele>
        <time>2014-09-14T09:26:38.000Z</time>
      </trkpt>
      <trkpt lat="43.8344" lon="3.22872">
        <ele>876</ele>
        <time>2014-09-14T09:26:40.000Z</time>
      </trkpt>
      <trkpt lat="43.8343" lon="3.2289">
        <ele>873</ele>
        <time>2014-09-14T09:26:42.000Z</time>
      </trkpt>
      <trkpt lat="43.83419" lon="3.22898">
        <ele>873</ele>
        <time>2014-09-14T09:26:44.000Z</time>
      </trkpt>
      <trkpt lat="43.83402" lon="3.22904">
        <ele>870</ele>
        <time>2014-09-14T09:26:46.000Z</time>
      </trkpt>
      <trkpt lat="43.83387" lon="3.22904">
        <ele>868</ele>
        <time>2014-09-14T09:26:48.000Z</time>
      </trkpt>
      <trkpt lat="43.83356" lon="3.22894">
        <ele>868</ele>
        <time>2014-09-14T09:26:51.000Z</time>
      </trkpt>
      <trkpt lat="43.83335" lon="3.22892">
        <ele>866</ele>
        <time>2014-09-14T09:26:53.000Z</time>
      </trkpt>
      <trkpt lat="43.83314" lon="3.22894">
        <ele>866</ele>
        <time>2014-09-14T09:26:55.000Z</time>
      </trkpt>
      <trkpt lat="43.83293" lon="3.22902">
        <ele>865</ele>
        <time>2014-09-14T09:26:57.000Z</time>
      </trkpt>
      <trkpt lat="43.83275" lon="3.22923">
        <ele>860</ele>
        <time>2014-09-14T09:26:59.000Z</time>
      </trkpt>
      <trkpt lat="43.83255" lon="3.22939">
        <ele>857</ele>
        <time>2014-09-14T09:27:01.000Z</time>
      </trkpt>
      <trkpt lat="43.83239" lon="3.22956">
        <ele>857</ele>
        <time>2014-09-14T09:27:03.000Z</time>
      </trkpt>
      <trkpt lat="43.83219" lon="3.22954">
        <ele>854</ele>
        <time>2014-09-14T09:27:05.000Z</time>
      </trkpt>
      <trkpt lat="43.83199" lon="3.22949">
        <ele>851</ele>
        <time>2014-09-14T09:27:07.000Z</time>
      </trkpt>
      <trkpt lat="43.83179" lon="3.22947">
        <ele>848</ele>
        <time>2014-09-14T09:27:09.000Z</time>
      </trkpt>
      <trkpt lat="43.83155" lon="3.2294">
        <ele>846</ele>
        <time>2014-09-14T09:27:11.000Z</time>
      </trkpt>
      <trkpt lat="43.83132" lon="3.2293">
        <ele>845</ele>
        <time>2014-09-14T09:27:13.000Z</time>
      </trkpt>
      <trkpt lat="43.83108" lon="3.22926">
        <ele>841</ele>
        <time>2014-09-14T09:27:15.000Z</time>
      </trkpt>
      <trkpt lat="43.83079" lon="3.22919">
        <ele>839</ele>
        <time>2014-09-14T09:27:17.000Z</time>
      </trkpt>
      <trkpt lat="43.83056" lon="3.22916">
        <ele>840</ele>
        <time>2014-09-14T09:27:19.000Z</time>
      </trkpt>
      <trkpt lat="43.83034" lon="3.22916">
        <ele>838</ele>
        <time>2014-09-14T09:27:21.000Z</time>
      </trkpt>
      <trkpt lat="43.83009" lon="3.22909">
        <ele>837</ele>
        <time>2014-09-14T09:27:27.000Z</time>
      </trkpt>
      <trkpt lat="43.83003" lon="3.22915">
        <ele>832</ele>
        <time>2014-09-14T09:27:29.000Z</time>
      </trkpt>
      <trkpt lat="43.83003" lon="3.22915">
        <ele>832</ele>
        <time>2014-09-14T09:27:32.000Z</time>
      </trkpt>
      <trkpt lat="43.83003" lon="3.22915">
        <ele>832</ele>
        <time>2014-09-14T09:27:35.000Z</time>
      </trkpt>
      <trkpt lat="43.83003" lon="3.22915">
        <ele>832</ele>
        <time>2014-09-14T09:27:37.000Z</time>
      </trkpt>
      <trkpt lat="43.83009" lon="3.22918">
        <ele>828</ele>
        <time>2014-09-14T09:27:39.000Z</time>
      </trkpt>
      <trkpt lat="43.83018" lon="3.22916">
        <ele>824</ele>
        <time>2014-09-14T09:27:47.000Z</time>
      </trkpt>
      <trkpt lat="43.83024" lon="3.22922">
        <ele>823</ele>
        <time>2014-09-14T09:27:51.000Z</time>
      </trkpt>
      <trkpt lat="43.83022" lon="3.22929">
        <ele>822</ele>
        <time>2014-09-14T09:27:53.000Z</time>
      </trkpt>
      <trkpt lat="43.83018" lon="3.22937">
        <ele>820</ele>
        <time>2014-09-14T09:27:55.000Z</time>
      </trkpt>
      <trkpt lat="43.83012" lon="3.22943">
        <ele>821</ele>
        <time>2014-09-14T09:27:57.000Z</time>
      </trkpt>
      <trkpt lat="43.83006" lon="3.22949">
        <ele>822</ele>
        <time>2014-09-14T09:27:59.000Z</time>
      </trkpt>
      <trkpt lat="43.83" lon="3.22955">
        <ele>820</ele>
        <time>2014-09-14T09:28:01.000Z</time>
      </trkpt>
      <trkpt lat="43.82994" lon="3.22958">
        <ele>821</ele>
        <time>2014-09-14T09:28:03.000Z</time>
      </trkpt>
      <trkpt lat="43.82988" lon="3.2296">
        <ele>821</ele>
        <time>2014-09-14T09:28:05.000Z</time>
      </trkpt>
      <trkpt lat="43.82988" lon="3.2296">
        <ele>821</ele>
        <time>2014-09-14T09:28:07.000Z</time>
      </trkpt>
      <trkpt lat="43.82984" lon="3.22971">
        <ele>827</ele>
        <time>2014-09-14T09:28:09.000Z</time>
      </trkpt>
      <trkpt lat="43.82983" lon="3.22979">
        <ele>828</ele>
        <time>2014-09-14T09:28:11.000Z</time>
      </trkpt>
      <trkpt lat="43.82983" lon="3.22989">
        <ele>828</ele>
        <time>2014-09-14T09:28:13.000Z</time>
      </trkpt>
      <trkpt lat="43.82983" lon="3.22999">
        <ele>827</ele>
        <time>2014-09-14T09:28:15.000Z</time>
      </trkpt>
      <trkpt lat="43.82985" lon="3.23009">
        <ele>829</ele>
        <time>2014-09-14T09:28:17.000Z</time>
      </trkpt>
      <trkpt lat="43.82985" lon="3.23018">
        <ele>829</ele>
        <time>2014-09-14T09:28:19.000Z</time>
      </trkpt>
      <trkpt lat="43.82985" lon="3.23018">
        <ele>829</ele>
        <time>2014-09-14T09:28:21.000Z</time>
      </trkpt>
      <trkpt lat="43.82986" lon="3.23024">
        <ele>829</ele>
        <time>2014-09-14T09:28:23.000Z</time>
      </trkpt>
      <trkpt lat="43.82986" lon="3.23029">
        <ele>828</ele>
        <time>2014-09-14T09:28:25.000Z</time>
      </trkpt>
      <trkpt lat="43.82988" lon="3.23034">
        <ele>829</ele>
        <time>2014-09-14T09:28:27.000Z</time>
      </trkpt>
      <trkpt lat="43.8299" lon="3.23039">
        <ele>829</ele>
        <time>2014-09-14T09:28:29.000Z</time>
      </trkpt>
      <trkpt lat="43.8299" lon="3.23045">
        <ele>829</ele>
        <time>2014-09-14T09:28:31.000Z</time>
      </trkpt>
      <trkpt lat="43.82986" lon="3.23055">
        <ele>832</ele>
        <time>2014-09-14T09:28:33.000Z</time>
      </trkpt>
      <trkpt lat="43.82986" lon="3.23055">
        <ele>832</ele>
        <time>2014-09-14T09:28:35.000Z</time>
      </trkpt>
      <trkpt lat="43.8298" lon="3.23058">
        <ele>831</ele>
        <time>2014-09-14T09:28:37.000Z</time>
      </trkpt>
      <trkpt lat="43.8298" lon="3.23058">
        <ele>831</ele>
        <time>2014-09-14T09:28:39.000Z</time>
      </trkpt>
      <trkpt lat="43.8298" lon="3.23058">
        <ele>831</ele>
        <time>2014-09-14T09:28:41.000Z</time>
      </trkpt>
      <trkpt lat="43.82974" lon="3.23062">
        <ele>832</ele>
        <time>2014-09-14T09:28:43.000Z</time>
      </trkpt>
      <trkpt lat="43.82974" lon="3.23062">
        <ele>832</ele>
        <time>2014-09-14T09:28:45.000Z</time>
      </trkpt>
      <trkpt lat="43.82972" lon="3.2307">
        <ele>835</ele>
        <time>2014-09-14T09:28:47.000Z</time>
      </trkpt>
      <trkpt lat="43.82969" lon="3.23079">
        <ele>838</ele>
        <time>2014-09-14T09:28:51.000Z</time>
      </trkpt>
      <trkpt lat="43.82964" lon="3.23086">
        <ele>838</ele>
        <time>2014-09-14T09:28:55.000Z</time>
      </trkpt>
      <trkpt lat="43.82959" lon="3.23096">
        <ele>841</ele>
        <time>2014-09-14T09:28:59.000Z</time>
      </trkpt>
      <trkpt lat="43.82957" lon="3.23107">
        <ele>841</ele>
        <time>2014-09-14T09:29:03.000Z</time>
      </trkpt>
      <trkpt lat="43.82957" lon="3.23122">
        <ele>840</ele>
        <time>2014-09-14T09:29:07.000Z</time>
      </trkpt>
      <trkpt lat="43.82954" lon="3.23132">
        <ele>841</ele>
        <time>2014-09-14T09:29:11.000Z</time>
      </trkpt>
      <trkpt lat="43.82954" lon="3.23132">
        <ele>841</ele>
        <time>2014-09-14T09:29:13.000Z</time>
      </trkpt>
      <trkpt lat="43.82951" lon="3.2314">
        <ele>842</ele>
        <time>2014-09-14T09:29:15.000Z</time>
      </trkpt>
      <trkpt lat="43.82951" lon="3.2314">
        <ele>842</ele>
        <time>2014-09-14T09:29:17.000Z</time>
      </trkpt>
      <trkpt lat="43.82946" lon="3.2315">
        <ele>840</ele>
        <time>2014-09-14T09:29:19.000Z</time>
      </trkpt>
      <trkpt lat="43.8294" lon="3.23158">
        <ele>844</ele>
        <time>2014-09-14T09:29:23.000Z</time>
      </trkpt>
      <trkpt lat="43.82933" lon="3.23165">
        <ele>845</ele>
        <time>2014-09-14T09:29:27.000Z</time>
      </trkpt>
      <trkpt lat="43.82932" lon="3.23178">
        <ele>842</ele>
        <time>2014-09-14T09:29:31.000Z</time>
      </trkpt>
      <trkpt lat="43.82928" lon="3.2319">
        <ele>842</ele>
        <time>2014-09-14T09:29:35.000Z</time>
      </trkpt>
      <trkpt lat="43.82924" lon="3.23197">
        <ele>844</ele>
        <time>2014-09-14T09:29:39.000Z</time>
      </trkpt>
      <trkpt lat="43.82924" lon="3.23197">
        <ele>844</ele>
        <time>2014-09-14T09:29:41.000Z</time>
      </trkpt>
      <trkpt lat="43.82922" lon="3.23205">
        <ele>843</ele>
        <time>2014-09-14T09:29:43.000Z</time>
      </trkpt>
      <trkpt lat="43.82922" lon="3.23205">
        <ele>843</ele>
        <time>2014-09-14T09:29:45.000Z</time>
      </trkpt>
      <trkpt lat="43.8292" lon="3.23215">
        <ele>841</ele>
        <time>2014-09-14T09:29:47.000Z</time>
      </trkpt>
      <trkpt lat="43.82921" lon="3.23227">
        <ele>841</ele>
        <time>2014-09-14T09:29:51.000Z</time>
      </trkpt>
      <trkpt lat="43.82923" lon="3.23244">
        <ele>837</ele>
        <time>2014-09-14T09:29:55.000Z</time>
      </trkpt>
      <trkpt lat="43.82924" lon="3.23252">
        <ele>838</ele>
        <time>2014-09-14T09:29:57.000Z</time>
      </trkpt>
      <trkpt lat="43.82925" lon="3.23261">
        <ele>840</ele>
        <time>2014-09-14T09:29:59.000Z</time>
      </trkpt>
      <trkpt lat="43.82927" lon="3.23269">
        <ele>842</ele>
        <time>2014-09-14T09:30:01.000Z</time>
      </trkpt>
      <trkpt lat="43.8293" lon="3.23278">
        <ele>840</ele>
        <time>2014-09-14T09:30:03.000Z</time>
      </trkpt>
      <trkpt lat="43.82935" lon="3.23286">
        <ele>839</ele>
        <time>2014-09-14T09:30:05.000Z</time>
      </trkpt>
      <trkpt lat="43.8294" lon="3.23292">
        <ele>840</ele>
        <time>2014-09-14T09:30:07.000Z</time>
      </trkpt>
      <trkpt lat="43.82946" lon="3.23297">
        <ele>841</ele>
        <time>2014-09-14T09:30:09.000Z</time>
      </trkpt>
      <trkpt lat="43.82952" lon="3.233">
        <ele>842</ele>
        <time>2014-09-14T09:30:11.000Z</time>
      </trkpt>
      <trkpt lat="43.82955" lon="3.23313">
        <ele>845</ele>
        <time>2014-09-14T09:30:15.000Z</time>
      </trkpt>
      <trkpt lat="43.82954" lon="3.23322">
        <ele>845</ele>
        <time>2014-09-14T09:30:17.000Z</time>
      </trkpt>
      <trkpt lat="43.82954" lon="3.23333">
        <ele>845</ele>
        <time>2014-09-14T09:30:19.000Z</time>
      </trkpt>
      <trkpt lat="43.82955" lon="3.23343">
        <ele>845</ele>
        <time>2014-09-14T09:30:21.000Z</time>
      </trkpt>
      <trkpt lat="43.82957" lon="3.23354">
        <ele>843</ele>
        <time>2014-09-14T09:30:23.000Z</time>
      </trkpt>
      <trkpt lat="43.82961" lon="3.23363">
        <ele>846</ele>
        <time>2014-09-14T09:30:25.000Z</time>
      </trkpt>
      <trkpt lat="43.82965" lon="3.23372">
        <ele>850</ele>
        <time>2014-09-14T09:30:27.000Z</time>
      </trkpt>
      <trkpt lat="43.82965" lon="3.23372">
        <ele>850</ele>
        <time>2014-09-14T09:30:29.000Z</time>
      </trkpt>
      <trkpt lat="43.82965" lon="3.2338">
        <ele>843</ele>
        <time>2014-09-14T09:30:31.000Z</time>
      </trkpt>
      <trkpt lat="43.82965" lon="3.2338">
        <ele>843</ele>
        <time>2014-09-14T09:30:33.000Z</time>
      </trkpt>
      <trkpt lat="43.8296" lon="3.23385">
        <ele>842</ele>
        <time>2014-09-14T09:30:35.000Z</time>
      </trkpt>
      <trkpt lat="43.82954" lon="3.23393">
        <ele>845</ele>
        <time>2014-09-14T09:30:39.000Z</time>
      </trkpt>
      <trkpt lat="43.82951" lon="3.23406">
        <ele>851</ele>
        <time>2014-09-14T09:30:43.000Z</time>
      </trkpt>
      <trkpt lat="43.82951" lon="3.23406">
        <ele>851</ele>
        <time>2014-09-14T09:30:45.000Z</time>
      </trkpt>
      <trkpt lat="43.82948" lon="3.23415">
        <ele>853</ele>
        <time>2014-09-14T09:30:47.000Z</time>
      </trkpt>
      <trkpt lat="43.82948" lon="3.23415">
        <ele>853</ele>
        <time>2014-09-14T09:30:49.000Z</time>
      </trkpt>
      <trkpt lat="43.82948" lon="3.23415">
        <ele>853</ele>
        <time>2014-09-14T09:30:51.000Z</time>
      </trkpt>
      <trkpt lat="43.82944" lon="3.23425">
        <ele>851</ele>
        <time>2014-09-14T09:30:53.000Z</time>
      </trkpt>
      <trkpt lat="43.82944" lon="3.23425">
        <ele>851</ele>
        <time>2014-09-14T09:30:55.000Z</time>
      </trkpt>
      <trkpt lat="43.8294" lon="3.23427">
        <ele>847</ele>
        <time>2014-09-14T09:30:57.000Z</time>
      </trkpt>
      <trkpt lat="43.82936" lon="3.23429">
        <ele>845</ele>
        <time>2014-09-14T09:30:59.000Z</time>
      </trkpt>
      <trkpt lat="43.82934" lon="3.23432">
        <ele>845</ele>
        <time>2014-09-14T09:31:01.000Z</time>
      </trkpt>
      <trkpt lat="43.82934" lon="3.23432">
        <ele>845</ele>
        <time>2014-09-14T09:31:03.000Z</time>
      </trkpt>
      <trkpt lat="43.82932" lon="3.23435">
        <ele>849</ele>
        <time>2014-09-14T09:31:05.000Z</time>
      </trkpt>
      <trkpt lat="43.82929" lon="3.23438">
        <ele>851</ele>
        <time>2014-09-14T09:31:07.000Z</time>
      </trkpt>
      <trkpt lat="43.82928" lon="3.23442">
        <ele>851</ele>
        <time>2014-09-14T09:31:09.000Z</time>
      </trkpt>
      <trkpt lat="43.82927" lon="3.23448">
        <ele>850</ele>
        <time>2014-09-14T09:31:11.000Z</time>
      </trkpt>
      <trkpt lat="43.82927" lon="3.23454">
        <ele>851</ele>
        <time>2014-09-14T09:31:13.000Z</time>
      </trkpt>
      <trkpt lat="43.82924" lon="3.23466">
        <ele>850</ele>
        <time>2014-09-14T09:31:15.000Z</time>
      </trkpt>
      <trkpt lat="43.82921" lon="3.23473">
        <ele>849</ele>
        <time>2014-09-14T09:31:17.000Z</time>
      </trkpt>
      <trkpt lat="43.82917" lon="3.23485">
        <ele>849</ele>
        <time>2014-09-14T09:31:21.000Z</time>
      </trkpt>
      <trkpt lat="43.82911" lon="3.23496">
        <ele>851</ele>
        <time>2014-09-14T09:31:25.000Z</time>
      </trkpt>
      <trkpt lat="43.82911" lon="3.23496">
        <ele>851</ele>
        <time>2014-09-14T09:31:27.000Z</time>
      </trkpt>
      <trkpt lat="43.8291" lon="3.23507">
        <ele>851</ele>
        <time>2014-09-14T09:31:29.000Z</time>
      </trkpt>
      <trkpt lat="43.8291" lon="3.23507">
        <ele>851</ele>
        <time>2014-09-14T09:31:31.000Z</time>
      </trkpt>
      <trkpt lat="43.82913" lon="3.23516">
        <ele>848</ele>
        <time>2014-09-14T09:31:33.000Z</time>
      </trkpt>
      <trkpt lat="43.82913" lon="3.23516">
        <ele>848</ele>
        <time>2014-09-14T09:31:35.000Z</time>
      </trkpt>
      <trkpt lat="43.82912" lon="3.23525">
        <ele>849</ele>
        <time>2014-09-14T09:31:37.000Z</time>
      </trkpt>
      <trkpt lat="43.82911" lon="3.23535">
        <ele>848</ele>
        <time>2014-09-14T09:31:41.000Z</time>
      </trkpt>
      <trkpt lat="43.82907" lon="3.23542">
        <ele>849</ele>
        <time>2014-09-14T09:31:45.000Z</time>
      </trkpt>
      <trkpt lat="43.82902" lon="3.23555">
        <ele>847</ele>
        <time>2014-09-14T09:31:49.000Z</time>
      </trkpt>
      <trkpt lat="43.829" lon="3.23571">
        <ele>851</ele>
        <time>2014-09-14T09:31:53.000Z</time>
      </trkpt>
      <trkpt lat="43.829" lon="3.2358">
        <ele>849</ele>
        <time>2014-09-14T09:31:55.000Z</time>
      </trkpt>
      <trkpt lat="43.82899" lon="3.23592">
        <ele>848</ele>
        <time>2014-09-14T09:31:57.000Z</time>
      </trkpt>
      <trkpt lat="43.82899" lon="3.23604">
        <ele>848</ele>
        <time>2014-09-14T09:31:59.000Z</time>
      </trkpt>
      <trkpt lat="43.82898" lon="3.23615">
        <ele>846</ele>
        <time>2014-09-14T09:32:01.000Z</time>
      </trkpt>
      <trkpt lat="43.82899" lon="3.23626">
        <ele>846</ele>
        <time>2014-09-14T09:32:03.000Z</time>
      </trkpt>
      <trkpt lat="43.82899" lon="3.23636">
        <ele>848</ele>
        <time>2014-09-14T09:32:05.000Z</time>
      </trkpt>
      <trkpt lat="43.82899" lon="3.23636">
        <ele>848</ele>
        <time>2014-09-14T09:32:07.000Z</time>
      </trkpt>
      <trkpt lat="43.82899" lon="3.23636">
        <ele>848</ele>
        <time>2014-09-14T09:32:09.000Z</time>
      </trkpt>
      <trkpt lat="43.82901" lon="3.23647">
        <ele>847</ele>
        <time>2014-09-14T09:32:11.000Z</time>
      </trkpt>
      <trkpt lat="43.82901" lon="3.23647">
        <ele>847</ele>
        <time>2014-09-14T09:32:13.000Z</time>
      </trkpt>
      <trkpt lat="43.82903" lon="3.23656">
        <ele>846</ele>
        <time>2014-09-14T09:32:15.000Z</time>
      </trkpt>
      <trkpt lat="43.82903" lon="3.23656">
        <ele>846</ele>
        <time>2014-09-14T09:32:17.000Z</time>
      </trkpt>
      <trkpt lat="43.82903" lon="3.23656">
        <ele>846</ele>
        <time>2014-09-14T09:32:19.000Z</time>
      </trkpt>
      <trkpt lat="43.82903" lon="3.23656">
        <ele>846</ele>
        <time>2014-09-14T09:32:21.000Z</time>
      </trkpt>
      <trkpt lat="43.82903" lon="3.23656">
        <ele>846</ele>
        <time>2014-09-14T09:32:23.000Z</time>
      </trkpt>
      <trkpt lat="43.8292" lon="3.23665">
        <ele>851</ele>
        <time>2014-09-14T09:32:37.000Z</time>
      </trkpt>
      <trkpt lat="43.82928" lon="3.23664">
        <ele>850</ele>
        <time>2014-09-14T09:32:43.000Z</time>
      </trkpt>
      <trkpt lat="43.82935" lon="3.2366">
        <ele>851</ele>
        <time>2014-09-14T09:32:47.000Z</time>
      </trkpt>
      <trkpt lat="43.82935" lon="3.2366">
        <ele>851</ele>
        <time>2014-09-14T09:32:53.000Z</time>
      </trkpt>
      <trkpt lat="43.82935" lon="3.2366">
        <ele>851</ele>
        <time>2014-09-14T09:32:55.000Z</time>
      </trkpt>
      <trkpt lat="43.82935" lon="3.2366">
        <ele>851</ele>
        <time>2014-09-14T09:32:57.000Z</time>
      </trkpt>
      <trkpt lat="43.82938" lon="3.2366">
        <ele>854</ele>
        <time>2014-09-14T09:32:59.000Z</time>
      </trkpt>
      <trkpt lat="43.82938" lon="3.2366">
        <ele>854</ele>
        <time>2014-09-14T09:33:01.000Z</time>
      </trkpt>
      <trkpt lat="43.82941" lon="3.2366">
        <ele>854</ele>
        <time>2014-09-14T09:33:03.000Z</time>
      </trkpt>
      <trkpt lat="43.82941" lon="3.2366">
        <ele>854</ele>
        <time>2014-09-14T09:33:05.000Z</time>
      </trkpt>
      <trkpt lat="43.82941" lon="3.2366">
        <ele>854</ele>
        <time>2014-09-14T09:33:07.000Z</time>
      </trkpt>
      <trkpt lat="43.82941" lon="3.2366">
        <ele>854</ele>
        <time>2014-09-14T09:33:41.000Z</time>
      </trkpt>
      <trkpt lat="43.82941" lon="3.2366">
        <ele>854</ele>
        <time>2014-09-14T09:33:43.000Z</time>
      </trkpt>
      <trkpt lat="43.82981" lon="3.23674">
        <ele>875</ele>
        <time>2014-09-14T09:35:19.000Z</time>
      </trkpt>
      <trkpt lat="43.83001" lon="3.23684">
        <ele>877</ele>
        <time>2014-09-14T09:35:21.000Z</time>
      </trkpt>
      <trkpt lat="43.8301" lon="3.23692">
        <ele>880</ele>
        <time>2014-09-14T09:35:23.000Z</time>
      </trkpt>
      <trkpt lat="43.83015" lon="3.23698">
        <ele>881</ele>
        <time>2014-09-14T09:35:25.000Z</time>
      </trkpt>
      <trkpt lat="43.83018" lon="3.23703">
        <ele>882</ele>
        <time>2014-09-14T09:35:27.000Z</time>
      </trkpt>
      <trkpt lat="43.83022" lon="3.23713">
        <ele>881</ele>
        <time>2014-09-14T09:35:29.000Z</time>
      </trkpt>
      <trkpt lat="43.83028" lon="3.23723">
        <ele>882</ele>
        <time>2014-09-14T09:35:33.000Z</time>
      </trkpt>
      <trkpt lat="43.83034" lon="3.23734">
        <ele>878</ele>
        <time>2014-09-14T09:35:37.000Z</time>
      </trkpt>
      <trkpt lat="43.83041" lon="3.23746">
        <ele>876</ele>
        <time>2014-09-14T09:35:41.000Z</time>
      </trkpt>
      <trkpt lat="43.83046" lon="3.23753">
        <ele>872</ele>
        <time>2014-09-14T09:35:43.000Z</time>
      </trkpt>
      <trkpt lat="43.8305" lon="3.2376">
        <ele>872</ele>
        <time>2014-09-14T09:35:45.000Z</time>
      </trkpt>
      <trkpt lat="43.8305" lon="3.2376">
        <ele>872</ele>
        <time>2014-09-14T09:35:47.000Z</time>
      </trkpt>
      <trkpt lat="43.83057" lon="3.23772">
        <ele>873</ele>
        <time>2014-09-14T09:35:49.000Z</time>
      </trkpt>
      <trkpt lat="43.83062" lon="3.23784">
        <ele>871</ele>
        <time>2014-09-14T09:35:53.000Z</time>
      </trkpt>
      <trkpt lat="43.83062" lon="3.23784">
        <ele>871</ele>
        <time>2014-09-14T09:35:55.000Z</time>
      </trkpt>
      <trkpt lat="43.83067" lon="3.23791">
        <ele>868</ele>
        <time>2014-09-14T09:35:57.000Z</time>
      </trkpt>
      <trkpt lat="43.83067" lon="3.23791">
        <ele>868</ele>
        <time>2014-09-14T09:35:59.000Z</time>
      </trkpt>
      <trkpt lat="43.8307" lon="3.23801">
        <ele>866</ele>
        <time>2014-09-14T09:36:01.000Z</time>
      </trkpt>
      <trkpt lat="43.8307" lon="3.23801">
        <ele>866</ele>
        <time>2014-09-14T09:36:03.000Z</time>
      </trkpt>
      <trkpt lat="43.83076" lon="3.23809">
        <ele>862</ele>
        <time>2014-09-14T09:36:05.000Z</time>
      </trkpt>
      <trkpt lat="43.83076" lon="3.23809">
        <ele>862</ele>
        <time>2014-09-14T09:36:07.000Z</time>
      </trkpt>
      <trkpt lat="43.8308" lon="3.23818">
        <ele>862</ele>
        <time>2014-09-14T09:36:09.000Z</time>
      </trkpt>
      <trkpt lat="43.8308" lon="3.23818">
        <ele>862</ele>
        <time>2014-09-14T09:36:11.000Z</time>
      </trkpt>
      <trkpt lat="43.83085" lon="3.23826">
        <ele>861</ele>
        <time>2014-09-14T09:36:13.000Z</time>
      </trkpt>
      <trkpt lat="43.83085" lon="3.23826">
        <ele>861</ele>
        <time>2014-09-14T09:36:15.000Z</time>
      </trkpt>
      <trkpt lat="43.83089" lon="3.23835">
        <ele>862</ele>
        <time>2014-09-14T09:36:17.000Z</time>
      </trkpt>
      <trkpt lat="43.83089" lon="3.23835">
        <ele>862</ele>
        <time>2014-09-14T09:36:19.000Z</time>
      </trkpt>
      <trkpt lat="43.83094" lon="3.23842">
        <ele>863</ele>
        <time>2014-09-14T09:36:21.000Z</time>
      </trkpt>
      <trkpt lat="43.83094" lon="3.23842">
        <ele>863</ele>
        <time>2014-09-14T09:36:23.000Z</time>
      </trkpt>
      <trkpt lat="43.83101" lon="3.23851">
        <ele>859</ele>
        <time>2014-09-14T09:36:25.000Z</time>
      </trkpt>
      <trkpt lat="43.83107" lon="3.23861">
        <ele>864</ele>
        <time>2014-09-14T09:36:29.000Z</time>
      </trkpt>
      <trkpt lat="43.8311" lon="3.2387">
        <ele>864</ele>
        <time>2014-09-14T09:36:33.000Z</time>
      </trkpt>
      <trkpt lat="43.83115" lon="3.2388">
        <ele>867</ele>
        <time>2014-09-14T09:36:37.000Z</time>
      </trkpt>
      <trkpt lat="43.83119" lon="3.23891">
        <ele>866</ele>
        <time>2014-09-14T09:36:41.000Z</time>
      </trkpt>
      <trkpt lat="43.83121" lon="3.23902">
        <ele>864</ele>
        <time>2014-09-14T09:36:45.000Z</time>
      </trkpt>
      <trkpt lat="43.83121" lon="3.23902">
        <ele>864</ele>
        <time>2014-09-14T09:36:47.000Z</time>
      </trkpt>
      <trkpt lat="43.83125" lon="3.2391">
        <ele>864</ele>
        <time>2014-09-14T09:36:49.000Z</time>
      </trkpt>
      <trkpt lat="43.83125" lon="3.2391">
        <ele>864</ele>
        <time>2014-09-14T09:36:51.000Z</time>
      </trkpt>
      <trkpt lat="43.83127" lon="3.23918">
        <ele>864</ele>
        <time>2014-09-14T09:36:53.000Z</time>
      </trkpt>
      <trkpt lat="43.83127" lon="3.23918">
        <ele>864</ele>
        <time>2014-09-14T09:36:55.000Z</time>
      </trkpt>
      <trkpt lat="43.8313" lon="3.23926">
        <ele>864</ele>
        <time>2014-09-14T09:36:57.000Z</time>
      </trkpt>
      <trkpt lat="43.8313" lon="3.23926">
        <ele>864</ele>
        <time>2014-09-14T09:36:59.000Z</time>
      </trkpt>
      <trkpt lat="43.83131" lon="3.23935">
        <ele>866</ele>
        <time>2014-09-14T09:37:01.000Z</time>
      </trkpt>
      <trkpt lat="43.83131" lon="3.23935">
        <ele>866</ele>
        <time>2014-09-14T09:37:03.000Z</time>
      </trkpt>
      <trkpt lat="43.83134" lon="3.23943">
        <ele>863</ele>
        <time>2014-09-14T09:37:05.000Z</time>
      </trkpt>
      <trkpt lat="43.83134" lon="3.23943">
        <ele>863</ele>
        <time>2014-09-14T09:37:07.000Z</time>
      </trkpt>
      <trkpt lat="43.83134" lon="3.23943">
        <ele>863</ele>
        <time>2014-09-14T09:37:09.000Z</time>
      </trkpt>
      <trkpt lat="43.83136" lon="3.23954">
        <ele>866</ele>
        <time>2014-09-14T09:37:11.000Z</time>
      </trkpt>
      <trkpt lat="43.83136" lon="3.23954">
        <ele>866</ele>
        <time>2014-09-14T09:37:13.000Z</time>
      </trkpt>
      <trkpt lat="43.83135" lon="3.23962">
        <ele>866</ele>
        <time>2014-09-14T09:37:15.000Z</time>
      </trkpt>
      <trkpt lat="43.83135" lon="3.23962">
        <ele>866</ele>
        <time>2014-09-14T09:37:17.000Z</time>
      </trkpt>
      <trkpt lat="43.83136" lon="3.23972">
        <ele>871</ele>
        <time>2014-09-14T09:37:19.000Z</time>
      </trkpt>
      <trkpt lat="43.83136" lon="3.23982">
        <ele>874</ele>
        <time>2014-09-14T09:37:23.000Z</time>
      </trkpt>
      <trkpt lat="43.83136" lon="3.23982">
        <ele>874</ele>
        <time>2014-09-14T09:37:25.000Z</time>
      </trkpt>
      <trkpt lat="43.83134" lon="3.23992">
        <ele>874</ele>
        <time>2014-09-14T09:37:27.000Z</time>
      </trkpt>
      <trkpt lat="43.83134" lon="3.23992">
        <ele>874</ele>
        <time>2014-09-14T09:37:29.000Z</time>
      </trkpt>
      <trkpt lat="43.83137" lon="3.23997">
        <ele>873</ele>
        <time>2014-09-14T09:37:31.000Z</time>
      </trkpt>
      <trkpt lat="43.83137" lon="3.23997">
        <ele>873</ele>
        <time>2014-09-14T09:37:33.000Z</time>
      </trkpt>
      <trkpt lat="43.8314" lon="3.23995">
        <ele>872</ele>
        <time>2014-09-14T09:37:35.000Z</time>
      </trkpt>
      <trkpt lat="43.83143" lon="3.23991">
        <ele>874</ele>
        <time>2014-09-14T09:37:37.000Z</time>
      </trkpt>
      <trkpt lat="43.83145" lon="3.23987">
        <ele>878</ele>
        <time>2014-09-14T09:37:39.000Z</time>
      </trkpt>
      <trkpt lat="43.83148" lon="3.23983">
        <ele>881</ele>
        <time>2014-09-14T09:37:41.000Z</time>
      </trkpt>
      <trkpt lat="43.8315" lon="3.23979">
        <ele>879</ele>
        <time>2014-09-14T09:37:43.000Z</time>
      </trkpt>
      <trkpt lat="43.83154" lon="3.23971">
        <ele>879</ele>
        <time>2014-09-14T09:37:45.000Z</time>
      </trkpt>
      <trkpt lat="43.83157" lon="3.23959">
        <ele>879</ele>
        <time>2014-09-14T09:37:49.000Z</time>
      </trkpt>
      <trkpt lat="43.8316" lon="3.2395">
        <ele>882</ele>
        <time>2014-09-14T09:37:53.000Z</time>
      </trkpt>
      <trkpt lat="43.8316" lon="3.2395">
        <ele>882</ele>
        <time>2014-09-14T09:37:55.000Z</time>
      </trkpt>
      <trkpt lat="43.83164" lon="3.23941">
        <ele>883</ele>
        <time>2014-09-14T09:37:57.000Z</time>
      </trkpt>
      <trkpt lat="43.83164" lon="3.23941">
        <ele>883</ele>
        <time>2014-09-14T09:37:59.000Z</time>
      </trkpt>
      <trkpt lat="43.83164" lon="3.23941">
        <ele>883</ele>
        <time>2014-09-14T09:38:01.000Z</time>
      </trkpt>
      <trkpt lat="43.83167" lon="3.23932">
        <ele>884</ele>
        <time>2014-09-14T09:38:03.000Z</time>
      </trkpt>
      <trkpt lat="43.83167" lon="3.23932">
        <ele>884</ele>
        <time>2014-09-14T09:38:05.000Z</time>
      </trkpt>
      <trkpt lat="43.83167" lon="3.23932">
        <ele>884</ele>
        <time>2014-09-14T09:38:07.000Z</time>
      </trkpt>
      <trkpt lat="43.83173" lon="3.23925">
        <ele>890</ele>
        <time>2014-09-14T09:38:09.000Z</time>
      </trkpt>
      <trkpt lat="43.83173" lon="3.23925">
        <ele>890</ele>
        <time>2014-09-14T09:38:11.000Z</time>
      </trkpt>
      <trkpt lat="43.83179" lon="3.2392">
        <ele>891</ele>
        <time>2014-09-14T09:38:13.000Z</time>
      </trkpt>
      <trkpt lat="43.83179" lon="3.2392">
        <ele>891</ele>
        <time>2014-09-14T09:38:15.000Z</time>
      </trkpt>
      <trkpt lat="43.83184" lon="3.23913">
        <ele>890</ele>
        <time>2014-09-14T09:38:17.000Z</time>
      </trkpt>
      <trkpt lat="43.83184" lon="3.23913">
        <ele>890</ele>
        <time>2014-09-14T09:38:19.000Z</time>
      </trkpt>
      <trkpt lat="43.83189" lon="3.23909">
        <ele>891</ele>
        <time>2014-09-14T09:38:21.000Z</time>
      </trkpt>
      <trkpt lat="43.83189" lon="3.23909">
        <ele>891</ele>
        <time>2014-09-14T09:38:23.000Z</time>
      </trkpt>
      <trkpt lat="43.83194" lon="3.23905">
        <ele>891</ele>
        <time>2014-09-14T09:38:25.000Z</time>
      </trkpt>
      <trkpt lat="43.83194" lon="3.23905">
        <ele>891</ele>
        <time>2014-09-14T09:38:27.000Z</time>
      </trkpt>
      <trkpt lat="43.83194" lon="3.23905">
        <ele>891</ele>
        <time>2014-09-14T09:38:29.000Z</time>
      </trkpt>
      <trkpt lat="43.832" lon="3.23901">
        <ele>891</ele>
        <time>2014-09-14T09:38:31.000Z</time>
      </trkpt>
      <trkpt lat="43.832" lon="3.23901">
        <ele>891</ele>
        <time>2014-09-14T09:38:33.000Z</time>
      </trkpt>
      <trkpt lat="43.832" lon="3.23901">
        <ele>891</ele>
        <time>2014-09-14T09:38:35.000Z</time>
      </trkpt>
      <trkpt lat="43.83207" lon="3.23896">
        <ele>892</ele>
        <time>2014-09-14T09:38:37.000Z</time>
      </trkpt>
      <trkpt lat="43.83207" lon="3.23896">
        <ele>892</ele>
        <time>2014-09-14T09:38:39.000Z</time>
      </trkpt>
      <trkpt lat="43.83207" lon="3.23896">
        <ele>892</ele>
        <time>2014-09-14T09:38:41.000Z</time>
      </trkpt>
      <trkpt lat="43.83212" lon="3.23888">
        <ele>893</ele>
        <time>2014-09-14T09:38:43.000Z</time>
      </trkpt>
      <trkpt lat="43.83218" lon="3.23881">
        <ele>893</ele>
        <time>2014-09-14T09:38:49.000Z</time>
      </trkpt>
      <trkpt lat="43.83218" lon="3.23881">
        <ele>893</ele>
        <time>2014-09-14T09:38:51.000Z</time>
      </trkpt>
      <trkpt lat="43.83218" lon="3.23881">
        <ele>893</ele>
        <time>2014-09-14T09:38:54.000Z</time>
      </trkpt>
      <trkpt lat="43.83226" lon="3.23878">
        <ele>894</ele>
        <time>2014-09-14T09:38:55.000Z</time>
      </trkpt>
      <trkpt lat="43.83226" lon="3.23878">
        <ele>894</ele>
        <time>2014-09-14T09:38:57.000Z</time>
      </trkpt>
      <trkpt lat="43.83226" lon="3.23878">
        <ele>894</ele>
        <time>2014-09-14T09:38:59.000Z</time>
      </trkpt>
      <trkpt lat="43.83233" lon="3.23874">
        <ele>900</ele>
        <time>2014-09-14T09:39:01.000Z</time>
      </trkpt>
      <trkpt lat="43.83233" lon="3.23874">
        <ele>900</ele>
        <time>2014-09-14T09:39:03.000Z</time>
      </trkpt>
      <trkpt lat="43.83239" lon="3.2387">
        <ele>903</ele>
        <time>2014-09-14T09:39:05.000Z</time>
      </trkpt>
      <trkpt lat="43.83239" lon="3.2387">
        <ele>903</ele>
        <time>2014-09-14T09:39:07.000Z</time>
      </trkpt>
      <trkpt lat="43.83239" lon="3.2387">
        <ele>903</ele>
        <time>2014-09-14T09:39:09.000Z</time>
      </trkpt>
      <trkpt lat="43.83247" lon="3.23867">
        <ele>903</ele>
        <time>2014-09-14T09:39:11.000Z</time>
      </trkpt>
      <trkpt lat="43.83247" lon="3.23867">
        <ele>903</ele>
        <time>2014-09-14T09:39:13.000Z</time>
      </trkpt>
      <trkpt lat="43.83252" lon="3.23863">
        <ele>900</ele>
        <time>2014-09-14T09:39:15.000Z</time>
      </trkpt>
      <trkpt lat="43.83257" lon="3.23857">
        <ele>898</ele>
        <time>2014-09-14T09:39:19.000Z</time>
      </trkpt>
      <trkpt lat="43.83261" lon="3.23851">
        <ele>898</ele>
        <time>2014-09-14T09:39:21.000Z</time>
      </trkpt>
      <trkpt lat="43.83268" lon="3.23844">
        <ele>896</ele>
        <time>2014-09-14T09:39:25.000Z</time>
      </trkpt>
      <trkpt lat="43.83271" lon="3.23843">
        <ele>894</ele>
        <time>2014-09-14T09:39:29.000Z</time>
      </trkpt>
      <trkpt lat="43.83275" lon="3.23843">
        <ele>895</ele>
        <time>2014-09-14T09:39:31.000Z</time>
      </trkpt>
      <trkpt lat="43.83278" lon="3.23844">
        <ele>894</ele>
        <time>2014-09-14T09:39:33.000Z</time>
      </trkpt>
      <trkpt lat="43.83281" lon="3.23845">
        <ele>894</ele>
        <time>2014-09-14T09:39:35.000Z</time>
      </trkpt>
      <trkpt lat="43.83286" lon="3.23847">
        <ele>895</ele>
        <time>2014-09-14T09:39:37.000Z</time>
      </trkpt>
      <trkpt lat="43.83295" lon="3.23852">
        <ele>895</ele>
        <time>2014-09-14T09:39:39.000Z</time>
      </trkpt>
      <trkpt lat="43.83302" lon="3.23857">
        <ele>897</ele>
        <time>2014-09-14T09:39:41.000Z</time>
      </trkpt>
      <trkpt lat="43.83309" lon="3.23861">
        <ele>898</ele>
        <time>2014-09-14T09:39:43.000Z</time>
      </trkpt>
      <trkpt lat="43.83319" lon="3.23866">
        <ele>899</ele>
        <time>2014-09-14T09:39:47.000Z</time>
      </trkpt>
      <trkpt lat="43.83319" lon="3.23866">
        <ele>899</ele>
        <time>2014-09-14T09:39:49.000Z</time>
      </trkpt>
      <trkpt lat="43.83326" lon="3.23869">
        <ele>904</ele>
        <time>2014-09-14T09:39:51.000Z</time>
      </trkpt>
      <trkpt lat="43.83326" lon="3.23869">
        <ele>904</ele>
        <time>2014-09-14T09:39:53.000Z</time>
      </trkpt>
      <trkpt lat="43.83331" lon="3.23876">
        <ele>902</ele>
        <time>2014-09-14T09:39:55.000Z</time>
      </trkpt>
      <trkpt lat="43.83331" lon="3.23876">
        <ele>902</ele>
        <time>2014-09-14T09:39:57.000Z</time>
      </trkpt>
      <trkpt lat="43.83333" lon="3.23888">
        <ele>904</ele>
        <time>2014-09-14T09:39:59.000Z</time>
      </trkpt>
      <trkpt lat="43.83333" lon="3.23888">
        <ele>904</ele>
        <time>2014-09-14T09:40:01.000Z</time>
      </trkpt>
      <trkpt lat="43.83334" lon="3.239">
        <ele>903</ele>
        <time>2014-09-14T09:40:03.000Z</time>
      </trkpt>
      <trkpt lat="43.83336" lon="3.23914">
        <ele>905</ele>
        <time>2014-09-14T09:40:07.000Z</time>
      </trkpt>
      <trkpt lat="43.83341" lon="3.23927">
        <ele>905</ele>
        <time>2014-09-14T09:40:11.000Z</time>
      </trkpt>
      <trkpt lat="43.83341" lon="3.23927">
        <ele>905</ele>
        <time>2014-09-14T09:40:13.000Z</time>
      </trkpt>
      <trkpt lat="43.83348" lon="3.23935">
        <ele>900</ele>
        <time>2014-09-14T09:40:15.000Z</time>
      </trkpt>
      <trkpt lat="43.83359" lon="3.2394">
        <ele>905</ele>
        <time>2014-09-14T09:40:19.000Z</time>
      </trkpt>
      <trkpt lat="43.83364" lon="3.2394">
        <ele>905</ele>
        <time>2014-09-14T09:40:21.000Z</time>
      </trkpt>
      <trkpt lat="43.8337" lon="3.23938">
        <ele>906</ele>
        <time>2014-09-14T09:40:23.000Z</time>
      </trkpt>
      <trkpt lat="43.8337" lon="3.23938">
        <ele>906</ele>
        <time>2014-09-14T09:40:25.000Z</time>
      </trkpt>
      <trkpt lat="43.83379" lon="3.23935">
        <ele>907</ele>
        <time>2014-09-14T09:40:27.000Z</time>
      </trkpt>
      <trkpt lat="43.83379" lon="3.23935">
        <ele>907</ele>
        <time>2014-09-14T09:40:29.000Z</time>
      </trkpt>
      <trkpt lat="43.83386" lon="3.2393">
        <ele>908</ele>
        <time>2014-09-14T09:40:31.000Z</time>
      </trkpt>
      <trkpt lat="43.83386" lon="3.2393">
        <ele>908</ele>
        <time>2014-09-14T09:40:33.000Z</time>
      </trkpt>
      <trkpt lat="43.83394" lon="3.23925">
        <ele>909</ele>
        <time>2014-09-14T09:40:35.000Z</time>
      </trkpt>
      <trkpt lat="43.83394" lon="3.23925">
        <ele>909</ele>
        <time>2014-09-14T09:40:37.000Z</time>
      </trkpt>
      <trkpt lat="43.83401" lon="3.23921">
        <ele>910</ele>
        <time>2014-09-14T09:40:39.000Z</time>
      </trkpt>
      <trkpt lat="43.83401" lon="3.23921">
        <ele>910</ele>
        <time>2014-09-14T09:40:41.000Z</time>
      </trkpt>
      <trkpt lat="43.83406" lon="3.23917">
        <ele>908</ele>
        <time>2014-09-14T09:40:43.000Z</time>
      </trkpt>
      <trkpt lat="43.83406" lon="3.23917">
        <ele>908</ele>
        <time>2014-09-14T09:40:45.000Z</time>
      </trkpt>
      <trkpt lat="43.83413" lon="3.23915">
        <ele>910</ele>
        <time>2014-09-14T09:40:47.000Z</time>
      </trkpt>
      <trkpt lat="43.83413" lon="3.23915">
        <ele>910</ele>
        <time>2014-09-14T09:40:49.000Z</time>
      </trkpt>
      <trkpt lat="43.8342" lon="3.23913">
        <ele>911</ele>
        <time>2014-09-14T09:40:51.000Z</time>
      </trkpt>
      <trkpt lat="43.8342" lon="3.23913">
        <ele>911</ele>
        <time>2014-09-14T09:40:53.000Z</time>
      </trkpt>
      <trkpt lat="43.83426" lon="3.23911">
        <ele>911</ele>
        <time>2014-09-14T09:40:55.000Z</time>
      </trkpt>
      <trkpt lat="43.83426" lon="3.23911">
        <ele>911</ele>
        <time>2014-09-14T09:40:57.000Z</time>
      </trkpt>
      <trkpt lat="43.83432" lon="3.2391">
        <ele>912</ele>
        <time>2014-09-14T09:40:59.000Z</time>
      </trkpt>
      <trkpt lat="43.83432" lon="3.2391">
        <ele>912</ele>
        <time>2014-09-14T09:41:01.000Z</time>
      </trkpt>
      <trkpt lat="43.83438" lon="3.23908">
        <ele>912</ele>
        <time>2014-09-14T09:41:03.000Z</time>
      </trkpt>
      <trkpt lat="43.83438" lon="3.23908">
        <ele>912</ele>
        <time>2014-09-14T09:41:05.000Z</time>
      </trkpt>
      <trkpt lat="43.83445" lon="3.23906">
        <ele>914</ele>
        <time>2014-09-14T09:41:07.000Z</time>
      </trkpt>
      <trkpt lat="43.83445" lon="3.23906">
        <ele>914</ele>
        <time>2014-09-14T09:41:09.000Z</time>
      </trkpt>
      <trkpt lat="43.83451" lon="3.23905">
        <ele>915</ele>
        <time>2014-09-14T09:41:11.000Z</time>
      </trkpt>
      <trkpt lat="43.83451" lon="3.23905">
        <ele>915</ele>
        <time>2014-09-14T09:41:13.000Z</time>
      </trkpt>
      <trkpt lat="43.83459" lon="3.23904">
        <ele>915</ele>
        <time>2014-09-14T09:41:15.000Z</time>
      </trkpt>
      <trkpt lat="43.83467" lon="3.23904">
        <ele>912</ele>
        <time>2014-09-14T09:41:19.000Z</time>
      </trkpt>
      <trkpt lat="43.83474" lon="3.23903">
        <ele>915</ele>
        <time>2014-09-14T09:41:21.000Z</time>
      </trkpt>
      <trkpt lat="43.83481" lon="3.239">
        <ele>913</ele>
        <time>2014-09-14T09:41:23.000Z</time>
      </trkpt>
      <trkpt lat="43.83487" lon="3.23897">
        <ele>912</ele>
        <time>2014-09-14T09:41:25.000Z</time>
      </trkpt>
      <trkpt lat="43.83493" lon="3.23895">
        <ele>912</ele>
        <time>2014-09-14T09:41:27.000Z</time>
      </trkpt>
      <trkpt lat="43.835" lon="3.23894">
        <ele>912</ele>
        <time>2014-09-14T09:41:29.000Z</time>
      </trkpt>
      <trkpt lat="43.83506" lon="3.23894">
        <ele>912</ele>
        <time>2014-09-14T09:41:31.000Z</time>
      </trkpt>
      <trkpt lat="43.83513" lon="3.23893">
        <ele>916</ele>
        <time>2014-09-14T09:41:33.000Z</time>
      </trkpt>
      <trkpt lat="43.83521" lon="3.23896">
        <ele>915</ele>
        <time>2014-09-14T09:41:35.000Z</time>
      </trkpt>
      <trkpt lat="43.83528" lon="3.23901">
        <ele>914</ele>
        <time>2014-09-14T09:41:37.000Z</time>
      </trkpt>
      <trkpt lat="43.83536" lon="3.23909">
        <ele>915</ele>
        <time>2014-09-14T09:41:39.000Z</time>
      </trkpt>
      <trkpt lat="43.83546" lon="3.23915">
        <ele>915</ele>
        <time>2014-09-14T09:41:41.000Z</time>
      </trkpt>
      <trkpt lat="43.83556" lon="3.2392">
        <ele>914</ele>
        <time>2014-09-14T09:41:43.000Z</time>
      </trkpt>
      <trkpt lat="43.83566" lon="3.23928">
        <ele>914</ele>
        <time>2014-09-14T09:41:45.000Z</time>
      </trkpt>
      <trkpt lat="43.83577" lon="3.23935">
        <ele>916</ele>
        <time>2014-09-14T09:41:47.000Z</time>
      </trkpt>
      <trkpt lat="43.83587" lon="3.23939">
        <ele>916</ele>
        <time>2014-09-14T09:41:49.000Z</time>
      </trkpt>
      <trkpt lat="43.83596" lon="3.23947">
        <ele>916</ele>
        <time>2014-09-14T09:41:51.000Z</time>
      </trkpt>
      <trkpt lat="43.83608" lon="3.23955">
        <ele>921</ele>
        <time>2014-09-14T09:41:53.000Z</time>
      </trkpt>
      <trkpt lat="43.8362" lon="3.23961">
        <ele>921</ele>
        <time>2014-09-14T09:41:55.000Z</time>
      </trkpt>
      <trkpt lat="43.83628" lon="3.23971">
        <ele>920</ele>
        <time>2014-09-14T09:41:57.000Z</time>
      </trkpt>
      <trkpt lat="43.83633" lon="3.23982">
        <ele>919</ele>
        <time>2014-09-14T09:41:59.000Z</time>
      </trkpt>
      <trkpt lat="43.83643" lon="3.23994">
        <ele>921</ele>
        <time>2014-09-14T09:42:01.000Z</time>
      </trkpt>
      <trkpt lat="43.83648" lon="3.24004">
        <ele>913</ele>
        <time>2014-09-14T09:42:03.000Z</time>
      </trkpt>
      <trkpt lat="43.83653" lon="3.24015">
        <ele>916</ele>
        <time>2014-09-14T09:42:05.000Z</time>
      </trkpt>
      <trkpt lat="43.83656" lon="3.2403">
        <ele>919</ele>
        <time>2014-09-14T09:42:07.000Z</time>
      </trkpt>
      <trkpt lat="43.83662" lon="3.24047">
        <ele>920</ele>
        <time>2014-09-14T09:42:09.000Z</time>
      </trkpt>
      <trkpt lat="43.83667" lon="3.24063">
        <ele>919</ele>
        <time>2014-09-14T09:42:11.000Z</time>
      </trkpt>
      <trkpt lat="43.83671" lon="3.24072">
        <ele>917</ele>
        <time>2014-09-14T09:42:15.000Z</time>
      </trkpt>
      <trkpt lat="43.83683" lon="3.24072">
        <ele>917</ele>
        <time>2014-09-14T09:42:19.000Z</time>
      </trkpt>
      <trkpt lat="43.83691" lon="3.24075">
        <ele>918</ele>
        <time>2014-09-14T09:42:21.000Z</time>
      </trkpt>
      <trkpt lat="43.83698" lon="3.24082">
        <ele>918</ele>
        <time>2014-09-14T09:42:23.000Z</time>
      </trkpt>
      <trkpt lat="43.83707" lon="3.24095">
        <ele>918</ele>
        <time>2014-09-14T09:42:25.000Z</time>
      </trkpt>
      <trkpt lat="43.83715" lon="3.24104">
        <ele>916</ele>
        <time>2014-09-14T09:42:27.000Z</time>
      </trkpt>
      <trkpt lat="43.83723" lon="3.24111">
        <ele>915</ele>
        <time>2014-09-14T09:42:29.000Z</time>
      </trkpt>
      <trkpt lat="43.83735" lon="3.24113">
        <ele>913</ele>
        <time>2014-09-14T09:42:31.000Z</time>
      </trkpt>
      <trkpt lat="43.83747" lon="3.24114">
        <ele>909</ele>
        <time>2014-09-14T09:42:33.000Z</time>
      </trkpt>
      <trkpt lat="43.83759" lon="3.24116">
        <ele>909</ele>
        <time>2014-09-14T09:42:35.000Z</time>
      </trkpt>
      <trkpt lat="43.83772" lon="3.24115">
        <ele>910</ele>
        <time>2014-09-14T09:42:37.000Z</time>
      </trkpt>
      <trkpt lat="43.83786" lon="3.24113">
        <ele>912</ele>
        <time>2014-09-14T09:42:39.000Z</time>
      </trkpt>
      <trkpt lat="43.83799" lon="3.24103">
        <ele>911</ele>
        <time>2014-09-14T09:42:41.000Z</time>
      </trkpt>
      <trkpt lat="43.83813" lon="3.24103">
        <ele>910</ele>
        <time>2014-09-14T09:42:44.000Z</time>
      </trkpt>
      <trkpt lat="43.83834" lon="3.24103">
        <ele>911</ele>
        <time>2014-09-14T09:42:47.000Z</time>
      </trkpt>
      <trkpt lat="43.8385" lon="3.24101">
        <ele>912</ele>
        <time>2014-09-14T09:42:49.000Z</time>
      </trkpt>
      <trkpt lat="43.83861" lon="3.24102">
        <ele>914</ele>
        <time>2014-09-14T09:42:51.000Z</time>
      </trkpt>
      <trkpt lat="43.8387" lon="3.24102">
        <ele>914</ele>
        <time>2014-09-14T09:42:53.000Z</time>
      </trkpt>
      <trkpt lat="43.83884" lon="3.24108">
        <ele>913</ele>
        <time>2014-09-14T09:42:55.000Z</time>
      </trkpt>
      <trkpt lat="43.83895" lon="3.24112">
        <ele>914</ele>
        <time>2014-09-14T09:42:57.000Z</time>
      </trkpt>
      <trkpt lat="43.83909" lon="3.24118">
        <ele>913</ele>
        <time>2014-09-14T09:42:59.000Z</time>
      </trkpt>
      <trkpt lat="43.83916" lon="3.24126">
        <ele>914</ele>
        <time>2014-09-14T09:43:01.000Z</time>
      </trkpt>
      <trkpt lat="43.83936" lon="3.24139">
        <ele>912</ele>
        <time>2014-09-14T09:43:04.000Z</time>
      </trkpt>
      <trkpt lat="43.83953" lon="3.24153">
        <ele>907</ele>
        <time>2014-09-14T09:43:07.000Z</time>
      </trkpt>
      <trkpt lat="43.83978" lon="3.24175">
        <ele>907</ele>
        <time>2014-09-14T09:43:10.000Z</time>
      </trkpt>
      <trkpt lat="43.83995" lon="3.24182">
        <ele>907</ele>
        <time>2014-09-14T09:43:16.000Z</time>
      </trkpt>
      <trkpt lat="43.84003" lon="3.24186">
        <ele>907</ele>
        <time>2014-09-14T09:43:18.000Z</time>
      </trkpt>
      <trkpt lat="43.84012" lon="3.24187">
        <ele>910</ele>
        <time>2014-09-14T09:43:20.000Z</time>
      </trkpt>
      <trkpt lat="43.84019" lon="3.24189">
        <ele>910</ele>
        <time>2014-09-14T09:43:22.000Z</time>
      </trkpt>
      <trkpt lat="43.84028" lon="3.24192">
        <ele>910</ele>
        <time>2014-09-14T09:43:24.000Z</time>
      </trkpt>
      <trkpt lat="43.84036" lon="3.24188">
        <ele>908</ele>
        <time>2014-09-14T09:43:26.000Z</time>
      </trkpt>
      <trkpt lat="43.84044" lon="3.24186">
        <ele>908</ele>
        <time>2014-09-14T09:43:28.000Z</time>
      </trkpt>
      <trkpt lat="43.84052" lon="3.24186">
        <ele>908</ele>
        <time>2014-09-14T09:43:30.000Z</time>
      </trkpt>
      <trkpt lat="43.84059" lon="3.24182">
        <ele>906</ele>
        <time>2014-09-14T09:43:32.000Z</time>
      </trkpt>
      <trkpt lat="43.84067" lon="3.24176">
        <ele>907</ele>
        <time>2014-09-14T09:43:34.000Z</time>
      </trkpt>
      <trkpt lat="43.84075" lon="3.24173">
        <ele>907</ele>
        <time>2014-09-14T09:43:36.000Z</time>
      </trkpt>
      <trkpt lat="43.84084" lon="3.24172">
        <ele>905</ele>
        <time>2014-09-14T09:43:38.000Z</time>
      </trkpt>
      <trkpt lat="43.84095" lon="3.24175">
        <ele>905</ele>
        <time>2014-09-14T09:43:40.000Z</time>
      </trkpt>
      <trkpt lat="43.84115" lon="3.24187">
        <ele>903</ele>
        <time>2014-09-14T09:43:43.000Z</time>
      </trkpt>
      <trkpt lat="43.84126" lon="3.24189">
        <ele>906</ele>
        <time>2014-09-14T09:43:47.000Z</time>
      </trkpt>
      <trkpt lat="43.8415" lon="3.24204">
        <ele>902</ele>
        <time>2014-09-14T09:43:51.000Z</time>
      </trkpt>
      <trkpt lat="43.84162" lon="3.2421">
        <ele>898</ele>
        <time>2014-09-14T09:43:54.000Z</time>
      </trkpt>
      <trkpt lat="43.84172" lon="3.24214">
        <ele>899</ele>
        <time>2014-09-14T09:43:56.000Z</time>
      </trkpt>
      <trkpt lat="43.84172" lon="3.24214">
        <ele>899</ele>
        <time>2014-09-14T09:43:58.000Z</time>
      </trkpt>
      <trkpt lat="43.8419" lon="3.24227">
        <ele>895</ele>
        <time>2014-09-14T09:44:01.000Z</time>
      </trkpt>
      <trkpt lat="43.84198" lon="3.24228">
        <ele>896</ele>
        <time>2014-09-14T09:44:03.000Z</time>
      </trkpt>
      <trkpt lat="43.84206" lon="3.24227">
        <ele>904</ele>
        <time>2014-09-14T09:44:05.000Z</time>
      </trkpt>
      <trkpt lat="43.84212" lon="3.24225">
        <ele>904</ele>
        <time>2014-09-14T09:44:07.000Z</time>
      </trkpt>
      <trkpt lat="43.84212" lon="3.24225">
        <ele>904</ele>
        <time>2014-09-14T09:44:09.000Z</time>
      </trkpt>
      <trkpt lat="43.84219" lon="3.24222">
        <ele>899</ele>
        <time>2014-09-14T09:44:11.000Z</time>
      </trkpt>
      <trkpt lat="43.84219" lon="3.24222">
        <ele>899</ele>
        <time>2014-09-14T09:44:13.000Z</time>
      </trkpt>
      <trkpt lat="43.84224" lon="3.24231">
        <ele>899</ele>
        <time>2014-09-14T09:44:15.000Z</time>
      </trkpt>
      <trkpt lat="43.84227" lon="3.24241">
        <ele>899</ele>
        <time>2014-09-14T09:44:17.000Z</time>
      </trkpt>
      <trkpt lat="43.8423" lon="3.24251">
        <ele>900</ele>
        <time>2014-09-14T09:44:21.000Z</time>
      </trkpt>
      <trkpt lat="43.8423" lon="3.24251">
        <ele>900</ele>
        <time>2014-09-14T09:44:23.000Z</time>
      </trkpt>
      <trkpt lat="43.8423" lon="3.24251">
        <ele>900</ele>
        <time>2014-09-14T09:44:25.000Z</time>
      </trkpt>
      <trkpt lat="43.84232" lon="3.24256">
        <ele>906</ele>
        <time>2014-09-14T09:44:27.000Z</time>
      </trkpt>
      <trkpt lat="43.84234" lon="3.2426">
        <ele>905</ele>
        <time>2014-09-14T09:44:29.000Z</time>
      </trkpt>
      <trkpt lat="43.84236" lon="3.24263">
        <ele>908</ele>
        <time>2014-09-14T09:44:31.000Z</time>
      </trkpt>
      <trkpt lat="43.84236" lon="3.24263">
        <ele>908</ele>
        <time>2014-09-14T09:44:33.000Z</time>
      </trkpt>
      <trkpt lat="43.84238" lon="3.24268">
        <ele>906</ele>
        <time>2014-09-14T09:44:35.000Z</time>
      </trkpt>
      <trkpt lat="43.84239" lon="3.24272">
        <ele>905</ele>
        <time>2014-09-14T09:44:37.000Z</time>
      </trkpt>
      <trkpt lat="43.84241" lon="3.24276">
        <ele>907</ele>
        <time>2014-09-14T09:44:39.000Z</time>
      </trkpt>
      <trkpt lat="43.84241" lon="3.24276">
        <ele>907</ele>
        <time>2014-09-14T09:44:41.000Z</time>
      </trkpt>
      <trkpt lat="43.84244" lon="3.24281">
        <ele>908</ele>
        <time>2014-09-14T09:44:43.000Z</time>
      </trkpt>
      <trkpt lat="43.84246" lon="3.24285">
        <ele>907</ele>
        <time>2014-09-14T09:44:45.000Z</time>
      </trkpt>
      <trkpt lat="43.84247" lon="3.2429">
        <ele>908</ele>
        <time>2014-09-14T09:44:47.000Z</time>
      </trkpt>
      <trkpt lat="43.84249" lon="3.24296">
        <ele>907</ele>
        <time>2014-09-14T09:44:49.000Z</time>
      </trkpt>
      <trkpt lat="43.84252" lon="3.24302">
        <ele>906</ele>
        <time>2014-09-14T09:44:51.000Z</time>
      </trkpt>
      <trkpt lat="43.84258" lon="3.24314">
        <ele>906</ele>
        <time>2014-09-14T09:44:53.000Z</time>
      </trkpt>
      <trkpt lat="43.84264" lon="3.24328">
        <ele>908</ele>
        <time>2014-09-14T09:44:57.000Z</time>
      </trkpt>
      <trkpt lat="43.84267" lon="3.24337">
        <ele>909</ele>
        <time>2014-09-14T09:44:59.000Z</time>
      </trkpt>
      <trkpt lat="43.84269" lon="3.24347">
        <ele>908</ele>
        <time>2014-09-14T09:45:01.000Z</time>
      </trkpt>
      <trkpt lat="43.84271" lon="3.24357">
        <ele>909</ele>
        <time>2014-09-14T09:45:03.000Z</time>
      </trkpt>
      <trkpt lat="43.84272" lon="3.24366">
        <ele>910</ele>
        <time>2014-09-14T09:45:05.000Z</time>
      </trkpt>
      <trkpt lat="43.84272" lon="3.24366">
        <ele>910</ele>
        <time>2014-09-14T09:45:07.000Z</time>
      </trkpt>
      <trkpt lat="43.84275" lon="3.24381">
        <ele>911</ele>
        <time>2014-09-14T09:45:09.000Z</time>
      </trkpt>
      <trkpt lat="43.84275" lon="3.24381">
        <ele>911</ele>
        <time>2014-09-14T09:45:11.000Z</time>
      </trkpt>
      <trkpt lat="43.84279" lon="3.24395">
        <ele>911</ele>
        <time>2014-09-14T09:45:13.000Z</time>
      </trkpt>
      <trkpt lat="43.84282" lon="3.24403">
        <ele>913</ele>
        <time>2014-09-14T09:45:15.000Z</time>
      </trkpt>
      <trkpt lat="43.84284" lon="3.24411">
        <ele>912</ele>
        <time>2014-09-14T09:45:17.000Z</time>
      </trkpt>
      <trkpt lat="43.84286" lon="3.24419">
        <ele>911</ele>
        <time>2014-09-14T09:45:19.000Z</time>
      </trkpt>
      <trkpt lat="43.84286" lon="3.24419">
        <ele>911</ele>
        <time>2014-09-14T09:45:21.000Z</time>
      </trkpt>
      <trkpt lat="43.84294" lon="3.24433">
        <ele>914</ele>
        <time>2014-09-14T09:45:23.000Z</time>
      </trkpt>
      <trkpt lat="43.843" lon="3.2444">
        <ele>914</ele>
        <time>2014-09-14T09:45:25.000Z</time>
      </trkpt>
      <trkpt lat="43.84306" lon="3.24447">
        <ele>912</ele>
        <time>2014-09-14T09:45:27.000Z</time>
      </trkpt>
      <trkpt lat="43.84311" lon="3.24453">
        <ele>913</ele>
        <time>2014-09-14T09:45:29.000Z</time>
      </trkpt>
      <trkpt lat="43.84316" lon="3.24459">
        <ele>914</ele>
        <time>2014-09-14T09:45:31.000Z</time>
      </trkpt>
      <trkpt lat="43.84323" lon="3.24465">
        <ele>909</ele>
        <time>2014-09-14T09:45:33.000Z</time>
      </trkpt>
      <trkpt lat="43.8433" lon="3.24473">
        <ele>906</ele>
        <time>2014-09-14T09:45:35.000Z</time>
      </trkpt>
      <trkpt lat="43.84336" lon="3.24479">
        <ele>905</ele>
        <time>2014-09-14T09:45:37.000Z</time>
      </trkpt>
      <trkpt lat="43.84336" lon="3.24479">
        <ele>905</ele>
        <time>2014-09-14T09:45:39.000Z</time>
      </trkpt>
      <trkpt lat="43.84344" lon="3.24483">
        <ele>906</ele>
        <time>2014-09-14T09:45:41.000Z</time>
      </trkpt>
      <trkpt lat="43.84344" lon="3.24483">
        <ele>906</ele>
        <time>2014-09-14T09:45:43.000Z</time>
      </trkpt>
      <trkpt lat="43.84344" lon="3.24483">
        <ele>906</ele>
        <time>2014-09-14T09:45:45.000Z</time>
      </trkpt>
      <trkpt lat="43.84351" lon="3.24487">
        <ele>905</ele>
        <time>2014-09-14T09:45:47.000Z</time>
      </trkpt>
      <trkpt lat="43.84351" lon="3.24487">
        <ele>905</ele>
        <time>2014-09-14T09:45:49.000Z</time>
      </trkpt>
      <trkpt lat="43.84351" lon="3.24487">
        <ele>905</ele>
        <time>2014-09-14T09:45:51.000Z</time>
      </trkpt>
      <trkpt lat="43.8436" lon="3.24492">
        <ele>914</ele>
        <time>2014-09-14T09:45:53.000Z</time>
      </trkpt>
      <trkpt lat="43.84367" lon="3.24499">
        <ele>910</ele>
        <time>2014-09-14T09:45:57.000Z</time>
      </trkpt>
      <trkpt lat="43.84372" lon="3.24506">
        <ele>915</ele>
        <time>2014-09-14T09:46:01.000Z</time>
      </trkpt>
      <trkpt lat="43.84377" lon="3.24515">
        <ele>914</ele>
        <time>2014-09-14T09:46:05.000Z</time>
      </trkpt>
      <trkpt lat="43.84383" lon="3.24524">
        <ele>911</ele>
        <time>2014-09-14T09:46:09.000Z</time>
      </trkpt>
      <trkpt lat="43.84387" lon="3.24534">
        <ele>912</ele>
        <time>2014-09-14T09:46:13.000Z</time>
      </trkpt>
      <trkpt lat="43.84392" lon="3.24546">
        <ele>916</ele>
        <time>2014-09-14T09:46:17.000Z</time>
      </trkpt>
      <trkpt lat="43.84397" lon="3.2456">
        <ele>914</ele>
        <time>2014-09-14T09:46:21.000Z</time>
      </trkpt>
      <trkpt lat="43.84401" lon="3.24573">
        <ele>914</ele>
        <time>2014-09-14T09:46:25.000Z</time>
      </trkpt>
      <trkpt lat="43.84403" lon="3.24586">
        <ele>912</ele>
        <time>2014-09-14T09:46:29.000Z</time>
      </trkpt>
      <trkpt lat="43.84407" lon="3.24597">
        <ele>920</ele>
        <time>2014-09-14T09:46:33.000Z</time>
      </trkpt>
      <trkpt lat="43.84407" lon="3.2461">
        <ele>918</ele>
        <time>2014-09-14T09:46:37.000Z</time>
      </trkpt>
      <trkpt lat="43.84406" lon="3.24621">
        <ele>917</ele>
        <time>2014-09-14T09:46:39.000Z</time>
      </trkpt>
      <trkpt lat="43.84404" lon="3.24632">
        <ele>918</ele>
        <time>2014-09-14T09:46:41.000Z</time>
      </trkpt>
      <trkpt lat="43.84402" lon="3.24641">
        <ele>920</ele>
        <time>2014-09-14T09:46:43.000Z</time>
      </trkpt>
      <trkpt lat="43.84399" lon="3.24651">
        <ele>920</ele>
        <time>2014-09-14T09:46:45.000Z</time>
      </trkpt>
      <trkpt lat="43.84397" lon="3.24664">
        <ele>915</ele>
        <time>2014-09-14T09:46:47.000Z</time>
      </trkpt>
      <trkpt lat="43.84395" lon="3.24678">
        <ele>914</ele>
        <time>2014-09-14T09:46:49.000Z</time>
      </trkpt>
      <trkpt lat="43.84393" lon="3.24691">
        <ele>917</ele>
        <time>2014-09-14T09:46:51.000Z</time>
      </trkpt>
      <trkpt lat="43.84393" lon="3.24706">
        <ele>919</ele>
        <time>2014-09-14T09:46:53.000Z</time>
      </trkpt>
      <trkpt lat="43.84398" lon="3.24738">
        <ele>919</ele>
        <time>2014-09-14T09:46:56.000Z</time>
      </trkpt>
      <trkpt lat="43.84392" lon="3.24754">
        <ele>912</ele>
        <time>2014-09-14T09:46:58.000Z</time>
      </trkpt>
      <trkpt lat="43.84391" lon="3.24766">
        <ele>912</ele>
        <time>2014-09-14T09:47:00.000Z</time>
      </trkpt>
      <trkpt lat="43.84389" lon="3.24777">
        <ele>910</ele>
        <time>2014-09-14T09:47:02.000Z</time>
      </trkpt>
      <trkpt lat="43.84393" lon="3.24809">
        <ele>910</ele>
        <time>2014-09-14T09:47:05.000Z</time>
      </trkpt>
      <trkpt lat="43.84393" lon="3.24828">
        <ele>909</ele>
        <time>2014-09-14T09:47:07.000Z</time>
      </trkpt>
      <trkpt lat="43.84394" lon="3.24844">
        <ele>911</ele>
        <time>2014-09-14T09:47:09.000Z</time>
      </trkpt>
      <trkpt lat="43.84391" lon="3.24859">
        <ele>911</ele>
        <time>2014-09-14T09:47:11.000Z</time>
      </trkpt>
      <trkpt lat="43.84386" lon="3.24873">
        <ele>914</ele>
        <time>2014-09-14T09:47:13.000Z</time>
      </trkpt>
      <trkpt lat="43.8438" lon="3.24888">
        <ele>910</ele>
        <time>2014-09-14T09:47:15.000Z</time>
      </trkpt>
      <trkpt lat="43.84383" lon="3.24909">
        <ele>909</ele>
        <time>2014-09-14T09:47:17.000Z</time>
      </trkpt>
      <trkpt lat="43.8438" lon="3.24927">
        <ele>908</ele>
        <time>2014-09-14T09:47:19.000Z</time>
      </trkpt>
      <trkpt lat="43.84384" lon="3.24946">
        <ele>910</ele>
        <time>2014-09-14T09:47:21.000Z</time>
      </trkpt>
      <trkpt lat="43.84386" lon="3.24963">
        <ele>908</ele>
        <time>2014-09-14T09:47:23.000Z</time>
      </trkpt>
      <trkpt lat="43.84388" lon="3.24984">
        <ele>907</ele>
        <time>2014-09-14T09:47:25.000Z</time>
      </trkpt>
      <trkpt lat="43.84393" lon="3.25006">
        <ele>914</ele>
        <time>2014-09-14T09:47:27.000Z</time>
      </trkpt>
      <trkpt lat="43.84394" lon="3.25029">
        <ele>911</ele>
        <time>2014-09-14T09:47:30.000Z</time>
      </trkpt>
      <trkpt lat="43.84392" lon="3.25043">
        <ele>910</ele>
        <time>2014-09-14T09:47:32.000Z</time>
      </trkpt>
      <trkpt lat="43.84392" lon="3.25075">
        <ele>909</ele>
        <time>2014-09-14T09:47:35.000Z</time>
      </trkpt>
      <trkpt lat="43.8438" lon="3.25091">
        <ele>907</ele>
        <time>2014-09-14T09:47:39.000Z</time>
      </trkpt>
      <trkpt lat="43.84381" lon="3.25107">
        <ele>905</ele>
        <time>2014-09-14T09:47:41.000Z</time>
      </trkpt>
      <trkpt lat="43.84386" lon="3.25156">
        <ele>903</ele>
        <time>2014-09-14T09:47:45.000Z</time>
      </trkpt>
      <trkpt lat="43.84374" lon="3.25168">
        <ele>902</ele>
        <time>2014-09-14T09:47:51.000Z</time>
      </trkpt>
      <trkpt lat="43.84368" lon="3.25166">
        <ele>898</ele>
        <time>2014-09-14T09:47:53.000Z</time>
      </trkpt>
      <trkpt lat="43.84362" lon="3.25157">
        <ele>898</ele>
        <time>2014-09-14T09:47:57.000Z</time>
      </trkpt>
      <trkpt lat="43.84356" lon="3.25154">
        <ele>895</ele>
        <time>2014-09-14T09:47:59.000Z</time>
      </trkpt>
      <trkpt lat="43.84348" lon="3.25151">
        <ele>893</ele>
        <time>2014-09-14T09:48:01.000Z</time>
      </trkpt>
      <trkpt lat="43.84339" lon="3.2515">
        <ele>893</ele>
        <time>2014-09-14T09:48:03.000Z</time>
      </trkpt>
      <trkpt lat="43.8433" lon="3.25146">
        <ele>890</ele>
        <time>2014-09-14T09:48:05.000Z</time>
      </trkpt>
      <trkpt lat="43.84297" lon="3.25135">
        <ele>883</ele>
        <time>2014-09-14T09:48:09.000Z</time>
      </trkpt>
      <trkpt lat="43.84277" lon="3.25129">
        <ele>879</ele>
        <time>2014-09-14T09:48:11.000Z</time>
      </trkpt>
      <trkpt lat="43.84261" lon="3.25125">
        <ele>876</ele>
        <time>2014-09-14T09:48:13.000Z</time>
      </trkpt>
      <trkpt lat="43.84249" lon="3.25122">
        <ele>875</ele>
        <time>2014-09-14T09:48:15.000Z</time>
      </trkpt>
      <trkpt lat="43.84232" lon="3.25123">
        <ele>876</ele>
        <time>2014-09-14T09:48:17.000Z</time>
      </trkpt>
      <trkpt lat="43.84218" lon="3.25125">
        <ele>877</ele>
        <time>2014-09-14T09:48:19.000Z</time>
      </trkpt>
      <trkpt lat="43.84204" lon="3.25123">
        <ele>876</ele>
        <time>2014-09-14T09:48:21.000Z</time>
      </trkpt>
      <trkpt lat="43.84192" lon="3.25124">
        <ele>874</ele>
        <time>2014-09-14T09:48:23.000Z</time>
      </trkpt>
      <trkpt lat="43.84181" lon="3.25125">
        <ele>876</ele>
        <time>2014-09-14T09:48:25.000Z</time>
      </trkpt>
      <trkpt lat="43.84172" lon="3.2513">
        <ele>876</ele>
        <time>2014-09-14T09:48:27.000Z</time>
      </trkpt>
      <trkpt lat="43.84164" lon="3.25133">
        <ele>876</ele>
        <time>2014-09-14T09:48:29.000Z</time>
      </trkpt>
      <trkpt lat="43.84155" lon="3.25134">
        <ele>876</ele>
        <time>2014-09-14T09:48:31.000Z</time>
      </trkpt>
      <trkpt lat="43.84144" lon="3.25138">
        <ele>875</ele>
        <time>2014-09-14T09:48:33.000Z</time>
      </trkpt>
      <trkpt lat="43.84134" lon="3.25138">
        <ele>875</ele>
        <time>2014-09-14T09:48:35.000Z</time>
      </trkpt>
      <trkpt lat="43.84124" lon="3.2514">
        <ele>874</ele>
        <time>2014-09-14T09:48:37.000Z</time>
      </trkpt>
      <trkpt lat="43.84117" lon="3.25146">
        <ele>873</ele>
        <time>2014-09-14T09:48:39.000Z</time>
      </trkpt>
      <trkpt lat="43.84105" lon="3.25149">
        <ele>874</ele>
        <time>2014-09-14T09:48:41.000Z</time>
      </trkpt>
      <trkpt lat="43.84097" lon="3.25156">
        <ele>873</ele>
        <time>2014-09-14T09:48:43.000Z</time>
      </trkpt>
      <trkpt lat="43.84088" lon="3.25158">
        <ele>875</ele>
        <time>2014-09-14T09:48:45.000Z</time>
      </trkpt>
      <trkpt lat="43.84076" lon="3.25161">
        <ele>875</ele>
        <time>2014-09-14T09:48:47.000Z</time>
      </trkpt>
      <trkpt lat="43.84064" lon="3.25162">
        <ele>876</ele>
        <time>2014-09-14T09:48:49.000Z</time>
      </trkpt>
      <trkpt lat="43.84052" lon="3.25162">
        <ele>874</ele>
        <time>2014-09-14T09:48:51.000Z</time>
      </trkpt>
      <trkpt lat="43.84044" lon="3.25165">
        <ele>876</ele>
        <time>2014-09-14T09:48:53.000Z</time>
      </trkpt>
      <trkpt lat="43.84035" lon="3.25167">
        <ele>874</ele>
        <time>2014-09-14T09:48:55.000Z</time>
      </trkpt>
      <trkpt lat="43.84026" lon="3.25165">
        <ele>876</ele>
        <time>2014-09-14T09:48:57.000Z</time>
      </trkpt>
      <trkpt lat="43.84014" lon="3.25164">
        <ele>875</ele>
        <time>2014-09-14T09:48:59.000Z</time>
      </trkpt>
      <trkpt lat="43.84005" lon="3.25166">
        <ele>874</ele>
        <time>2014-09-14T09:49:01.000Z</time>
      </trkpt>
      <trkpt lat="43.83998" lon="3.25168">
        <ele>876</ele>
        <time>2014-09-14T09:49:03.000Z</time>
      </trkpt>
      <trkpt lat="43.83993" lon="3.25171">
        <ele>875</ele>
        <time>2014-09-14T09:49:05.000Z</time>
      </trkpt>
      <trkpt lat="43.83984" lon="3.25175">
        <ele>873</ele>
        <time>2014-09-14T09:49:07.000Z</time>
      </trkpt>
      <trkpt lat="43.83974" lon="3.25177">
        <ele>872</ele>
        <time>2014-09-14T09:49:09.000Z</time>
      </trkpt>
      <trkpt lat="43.83966" lon="3.25183">
        <ele>871</ele>
        <time>2014-09-14T09:49:11.000Z</time>
      </trkpt>
      <trkpt lat="43.83957" lon="3.25186">
        <ele>872</ele>
        <time>2014-09-14T09:49:13.000Z</time>
      </trkpt>
      <trkpt lat="43.83949" lon="3.25186">
        <ele>873</ele>
        <time>2014-09-14T09:49:15.000Z</time>
      </trkpt>
      <trkpt lat="43.8393" lon="3.25194">
        <ele>866</ele>
        <time>2014-09-14T09:49:18.000Z</time>
      </trkpt>
      <trkpt lat="43.83923" lon="3.25202">
        <ele>866</ele>
        <time>2014-09-14T09:49:20.000Z</time>
      </trkpt>
      <trkpt lat="43.83914" lon="3.25205">
        <ele>868</ele>
        <time>2014-09-14T09:49:22.000Z</time>
      </trkpt>
      <trkpt lat="43.83902" lon="3.25208">
        <ele>868</ele>
        <time>2014-09-14T09:49:24.000Z</time>
      </trkpt>
      <trkpt lat="43.83894" lon="3.25207">
        <ele>869</ele>
        <time>2014-09-14T09:49:26.000Z</time>
      </trkpt>
      <trkpt lat="43.83884" lon="3.25204">
        <ele>868</ele>
        <time>2014-09-14T09:49:28.000Z</time>
      </trkpt>
      <trkpt lat="43.83871" lon="3.25202">
        <ele>868</ele>
        <time>2014-09-14T09:49:30.000Z</time>
      </trkpt>
      <trkpt lat="43.83863" lon="3.25198">
        <ele>869</ele>
        <time>2014-09-14T09:49:32.000Z</time>
      </trkpt>
      <trkpt lat="43.83858" lon="3.25191">
        <ele>874</ele>
        <time>2014-09-14T09:49:34.000Z</time>
      </trkpt>
      <trkpt lat="43.83858" lon="3.25191">
        <ele>874</ele>
        <time>2014-09-14T09:49:36.000Z</time>
      </trkpt>
      <trkpt lat="43.83828" lon="3.25173">
        <ele>872</ele>
        <time>2014-09-14T09:49:41.000Z</time>
      </trkpt>
      <trkpt lat="43.83819" lon="3.25165">
        <ele>871</ele>
        <time>2014-09-14T09:49:43.000Z</time>
      </trkpt>
      <trkpt lat="43.83807" lon="3.25162">
        <ele>871</ele>
        <time>2014-09-14T09:49:45.000Z</time>
      </trkpt>
      <trkpt lat="43.83797" lon="3.25156">
        <ele>871</ele>
        <time>2014-09-14T09:49:48.000Z</time>
      </trkpt>
      <trkpt lat="43.83788" lon="3.25147">
        <ele>870</ele>
        <time>2014-09-14T09:49:50.000Z</time>
      </trkpt>
      <trkpt lat="43.83774" lon="3.2514">
        <ele>871</ele>
        <time>2014-09-14T09:49:52.000Z</time>
      </trkpt>
      <trkpt lat="43.83761" lon="3.25133">
        <ele>870</ele>
        <time>2014-09-14T09:49:56.000Z</time>
      </trkpt>
      <trkpt lat="43.83761" lon="3.25133">
        <ele>870</ele>
        <time>2014-09-14T09:49:58.000Z</time>
      </trkpt>
      <trkpt lat="43.83751" lon="3.25127">
        <ele>871</ele>
        <time>2014-09-14T09:50:00.000Z</time>
      </trkpt>
      <trkpt lat="43.83745" lon="3.25122">
        <ele>872</ele>
        <time>2014-09-14T09:50:02.000Z</time>
      </trkpt>
      <trkpt lat="43.83745" lon="3.25122">
        <ele>872</ele>
        <time>2014-09-14T09:50:04.000Z</time>
      </trkpt>
      <trkpt lat="43.83736" lon="3.25117">
        <ele>871</ele>
        <time>2014-09-14T09:50:06.000Z</time>
      </trkpt>
      <trkpt lat="43.83736" lon="3.25117">
        <ele>871</ele>
        <time>2014-09-14T09:50:08.000Z</time>
      </trkpt>
      <trkpt lat="43.83729" lon="3.25111">
        <ele>872</ele>
        <time>2014-09-14T09:50:10.000Z</time>
      </trkpt>
      <trkpt lat="43.83729" lon="3.25111">
        <ele>872</ele>
        <time>2014-09-14T09:50:12.000Z</time>
      </trkpt>
      <trkpt lat="43.83723" lon="3.25106">
        <ele>875</ele>
        <time>2014-09-14T09:50:14.000Z</time>
      </trkpt>
      <trkpt lat="43.83723" lon="3.25106">
        <ele>875</ele>
        <time>2014-09-14T09:50:16.000Z</time>
      </trkpt>
      <trkpt lat="43.83715" lon="3.25103">
        <ele>875</ele>
        <time>2014-09-14T09:50:18.000Z</time>
      </trkpt>
      <trkpt lat="43.83715" lon="3.25103">
        <ele>875</ele>
        <time>2014-09-14T09:50:20.000Z</time>
      </trkpt>
      <trkpt lat="43.83707" lon="3.25101">
        <ele>876</ele>
        <time>2014-09-14T09:50:22.000Z</time>
      </trkpt>
      <trkpt lat="43.83707" lon="3.25101">
        <ele>876</ele>
        <time>2014-09-14T09:50:24.000Z</time>
      </trkpt>
      <trkpt lat="43.83698" lon="3.25097">
        <ele>880</ele>
        <time>2014-09-14T09:50:26.000Z</time>
      </trkpt>
      <trkpt lat="43.83698" lon="3.25097">
        <ele>880</ele>
        <time>2014-09-14T09:50:28.000Z</time>
      </trkpt>
      <trkpt lat="43.83695" lon="3.25096">
        <ele>880</ele>
        <time>2014-09-14T09:50:30.000Z</time>
      </trkpt>
      <trkpt lat="43.83691" lon="3.25094">
        <ele>879</ele>
        <time>2014-09-14T09:50:32.000Z</time>
      </trkpt>
      <trkpt lat="43.83688" lon="3.25094">
        <ele>878</ele>
        <time>2014-09-14T09:50:34.000Z</time>
      </trkpt>
      <trkpt lat="43.83685" lon="3.25094">
        <ele>882</ele>
        <time>2014-09-14T09:50:36.000Z</time>
      </trkpt>
      <trkpt lat="43.83685" lon="3.25094">
        <ele>882</ele>
        <time>2014-09-14T09:50:38.000Z</time>
      </trkpt>
      <trkpt lat="43.83681" lon="3.25093">
        <ele>886</ele>
        <time>2014-09-14T09:50:40.000Z</time>
      </trkpt>
      <trkpt lat="43.83678" lon="3.25093">
        <ele>887</ele>
        <time>2014-09-14T09:50:42.000Z</time>
      </trkpt>
      <trkpt lat="43.83675" lon="3.25093">
        <ele>888</ele>
        <time>2014-09-14T09:50:44.000Z</time>
      </trkpt>
      <trkpt lat="43.83672" lon="3.25093">
        <ele>888</ele>
        <time>2014-09-14T09:50:46.000Z</time>
      </trkpt>
      <trkpt lat="43.83669" lon="3.25094">
        <ele>887</ele>
        <time>2014-09-14T09:50:48.000Z</time>
      </trkpt>
      <trkpt lat="43.83661" lon="3.25095">
        <ele>883</ele>
        <time>2014-09-14T09:50:50.000Z</time>
      </trkpt>
      <trkpt lat="43.83654" lon="3.25096">
        <ele>885</ele>
        <time>2014-09-14T09:50:54.000Z</time>
      </trkpt>
      <trkpt lat="43.83648" lon="3.25096">
        <ele>888</ele>
        <time>2014-09-14T09:50:58.000Z</time>
      </trkpt>
      <trkpt lat="43.83648" lon="3.25096">
        <ele>888</ele>
        <time>2014-09-14T09:51:00.000Z</time>
      </trkpt>
      <trkpt lat="43.83648" lon="3.25096">
        <ele>888</ele>
        <time>2014-09-14T09:51:02.000Z</time>
      </trkpt>
      <trkpt lat="43.83641" lon="3.25096">
        <ele>889</ele>
        <time>2014-09-14T09:51:04.000Z</time>
      </trkpt>
      <trkpt lat="43.83641" lon="3.25096">
        <ele>889</ele>
        <time>2014-09-14T09:51:06.000Z</time>
      </trkpt>
      <trkpt lat="43.83633" lon="3.25097">
        <ele>890</ele>
        <time>2014-09-14T09:51:10.000Z</time>
      </trkpt>
      <trkpt lat="43.83633" lon="3.25097">
        <ele>890</ele>
        <time>2014-09-14T09:51:12.000Z</time>
      </trkpt>
      <trkpt lat="43.83633" lon="3.25097">
        <ele>890</ele>
        <time>2014-09-14T09:51:14.000Z</time>
      </trkpt>
      <trkpt lat="43.83625" lon="3.25099">
        <ele>892</ele>
        <time>2014-09-14T09:51:16.000Z</time>
      </trkpt>
      <trkpt lat="43.83616" lon="3.25097">
        <ele>889</ele>
        <time>2014-09-14T09:51:22.000Z</time>
      </trkpt>
      <trkpt lat="43.83609" lon="3.25098">
        <ele>890</ele>
        <time>2014-09-14T09:51:26.000Z</time>
      </trkpt>
      <trkpt lat="43.83602" lon="3.25099">
        <ele>889</ele>
        <time>2014-09-14T09:51:30.000Z</time>
      </trkpt>
      <trkpt lat="43.83596" lon="3.25099">
        <ele>891</ele>
        <time>2014-09-14T09:51:34.000Z</time>
      </trkpt>
      <trkpt lat="43.83588" lon="3.25099">
        <ele>890</ele>
        <time>2014-09-14T09:51:40.000Z</time>
      </trkpt>
      <trkpt lat="43.8358" lon="3.25098">
        <ele>889</ele>
        <time>2014-09-14T09:51:46.000Z</time>
      </trkpt>
      <trkpt lat="43.83574" lon="3.25096">
        <ele>893</ele>
        <time>2014-09-14T09:51:52.000Z</time>
      </trkpt>
      <trkpt lat="43.83567" lon="3.25092">
        <ele>894</ele>
        <time>2014-09-14T09:51:58.000Z</time>
      </trkpt>
      <trkpt lat="43.83561" lon="3.25094">
        <ele>891</ele>
        <time>2014-09-14T09:52:02.000Z</time>
      </trkpt>
      <trkpt lat="43.83554" lon="3.25095">
        <ele>891</ele>
        <time>2014-09-14T09:52:06.000Z</time>
      </trkpt>
      <trkpt lat="43.83546" lon="3.25096">
        <ele>889</ele>
        <time>2014-09-14T09:52:10.000Z</time>
      </trkpt>
      <trkpt lat="43.8354" lon="3.25098">
        <ele>888</ele>
        <time>2014-09-14T09:52:14.000Z</time>
      </trkpt>
      <trkpt lat="43.83535" lon="3.25101">
        <ele>890</ele>
        <time>2014-09-14T09:52:18.000Z</time>
      </trkpt>
      <trkpt lat="43.83535" lon="3.25101">
        <ele>890</ele>
        <time>2014-09-14T09:52:20.000Z</time>
      </trkpt>
      <trkpt lat="43.83535" lon="3.25101">
        <ele>890</ele>
        <time>2014-09-14T09:52:22.000Z</time>
      </trkpt>
      <trkpt lat="43.83528" lon="3.25107">
        <ele>896</ele>
        <time>2014-09-14T09:52:24.000Z</time>
      </trkpt>
      <trkpt lat="43.83525" lon="3.25119">
        <ele>900</ele>
        <time>2014-09-14T09:52:28.000Z</time>
      </trkpt>
      <trkpt lat="43.83523" lon="3.25129">
        <ele>900</ele>
        <time>2014-09-14T09:52:30.000Z</time>
      </trkpt>
      <trkpt lat="43.83521" lon="3.2514">
        <ele>899</ele>
        <time>2014-09-14T09:52:32.000Z</time>
      </trkpt>
      <trkpt lat="43.83517" lon="3.25153">
        <ele>897</ele>
        <time>2014-09-14T09:52:34.000Z</time>
      </trkpt>
      <trkpt lat="43.83514" lon="3.25165">
        <ele>895</ele>
        <time>2014-09-14T09:52:36.000Z</time>
      </trkpt>
      <trkpt lat="43.83511" lon="3.25177">
        <ele>895</ele>
        <time>2014-09-14T09:52:38.000Z</time>
      </trkpt>
      <trkpt lat="43.83508" lon="3.25189">
        <ele>893</ele>
        <time>2014-09-14T09:52:40.000Z</time>
      </trkpt>
      <trkpt lat="43.83504" lon="3.25204">
        <ele>893</ele>
        <time>2014-09-14T09:52:42.000Z</time>
      </trkpt>
      <trkpt lat="43.83499" lon="3.25215">
        <ele>891</ele>
        <time>2014-09-14T09:52:44.000Z</time>
      </trkpt>
      <trkpt lat="43.83497" lon="3.25232">
        <ele>891</ele>
        <time>2014-09-14T09:52:46.000Z</time>
      </trkpt>
      <trkpt lat="43.83493" lon="3.25246">
        <ele>892</ele>
        <time>2014-09-14T09:52:48.000Z</time>
      </trkpt>
      <trkpt lat="43.83491" lon="3.25259">
        <ele>891</ele>
        <time>2014-09-14T09:52:50.000Z</time>
      </trkpt>
      <trkpt lat="43.8349" lon="3.25286">
        <ele>890</ele>
        <time>2014-09-14T09:52:53.000Z</time>
      </trkpt>
      <trkpt lat="43.83485" lon="3.25297">
        <ele>889</ele>
        <time>2014-09-14T09:52:56.000Z</time>
      </trkpt>
      <trkpt lat="43.83483" lon="3.25306">
        <ele>891</ele>
        <time>2014-09-14T09:52:58.000Z</time>
      </trkpt>
      <trkpt lat="43.83483" lon="3.25306">
        <ele>891</ele>
        <time>2014-09-14T09:53:00.000Z</time>
      </trkpt>
      <trkpt lat="43.83482" lon="3.25315">
        <ele>893</ele>
        <time>2014-09-14T09:53:02.000Z</time>
      </trkpt>
      <trkpt lat="43.83477" lon="3.25323">
        <ele>893</ele>
        <time>2014-09-14T09:53:04.000Z</time>
      </trkpt>
      <trkpt lat="43.83473" lon="3.25332">
        <ele>891</ele>
        <time>2014-09-14T09:53:06.000Z</time>
      </trkpt>
      <trkpt lat="43.83469" lon="3.2534">
        <ele>890</ele>
        <time>2014-09-14T09:53:08.000Z</time>
      </trkpt>
      <trkpt lat="43.83464" lon="3.2535">
        <ele>894</ele>
        <time>2014-09-14T09:53:10.000Z</time>
      </trkpt>
      <trkpt lat="43.83458" lon="3.25375">
        <ele>893</ele>
        <time>2014-09-14T09:53:12.000Z</time>
      </trkpt>
      <trkpt lat="43.83453" lon="3.25386">
        <ele>890</ele>
        <time>2014-09-14T09:53:14.000Z</time>
      </trkpt>
      <trkpt lat="43.83451" lon="3.25395">
        <ele>885</ele>
        <time>2014-09-14T09:53:16.000Z</time>
      </trkpt>
      <trkpt lat="43.83463" lon="3.25417">
        <ele>885</ele>
        <time>2014-09-14T09:53:19.000Z</time>
      </trkpt>
      <trkpt lat="43.8347" lon="3.25428">
        <ele>884</ele>
        <time>2014-09-14T09:53:21.000Z</time>
      </trkpt>
      <trkpt lat="43.83478" lon="3.25441">
        <ele>885</ele>
        <time>2014-09-14T09:53:23.000Z</time>
      </trkpt>
      <trkpt lat="43.83487" lon="3.25454">
        <ele>885</ele>
        <time>2014-09-14T09:53:25.000Z</time>
      </trkpt>
      <trkpt lat="43.83498" lon="3.25473">
        <ele>884</ele>
        <time>2014-09-14T09:53:27.000Z</time>
      </trkpt>
      <trkpt lat="43.83507" lon="3.2549">
        <ele>885</ele>
        <time>2014-09-14T09:53:29.000Z</time>
      </trkpt>
      <trkpt lat="43.83514" lon="3.25507">
        <ele>887</ele>
        <time>2014-09-14T09:53:31.000Z</time>
      </trkpt>
      <trkpt lat="43.83521" lon="3.25523">
        <ele>886</ele>
        <time>2014-09-14T09:53:33.000Z</time>
      </trkpt>
      <trkpt lat="43.83531" lon="3.25537">
        <ele>886</ele>
        <time>2014-09-14T09:53:35.000Z</time>
      </trkpt>
      <trkpt lat="43.83536" lon="3.25554">
        <ele>887</ele>
        <time>2014-09-14T09:53:37.000Z</time>
      </trkpt>
      <trkpt lat="43.83539" lon="3.2557">
        <ele>884</ele>
        <time>2014-09-14T09:53:39.000Z</time>
      </trkpt>
      <trkpt lat="43.83542" lon="3.25584">
        <ele>881</ele>
        <time>2014-09-14T09:53:41.000Z</time>
      </trkpt>
      <trkpt lat="43.83545" lon="3.25602">
        <ele>879</ele>
        <time>2014-09-14T09:53:43.000Z</time>
      </trkpt>
      <trkpt lat="43.83553" lon="3.25624">
        <ele>877</ele>
        <time>2014-09-14T09:53:45.000Z</time>
      </trkpt>
      <trkpt lat="43.83559" lon="3.25644">
        <ele>875</ele>
        <time>2014-09-14T09:53:47.000Z</time>
      </trkpt>
      <trkpt lat="43.83563" lon="3.2566">
        <ele>875</ele>
        <time>2014-09-14T09:53:49.000Z</time>
      </trkpt>
      <trkpt lat="43.83571" lon="3.2568">
        <ele>875</ele>
        <time>2014-09-14T09:53:51.000Z</time>
      </trkpt>
      <trkpt lat="43.83577" lon="3.25706">
        <ele>877</ele>
        <time>2014-09-14T09:53:53.000Z</time>
      </trkpt>
      <trkpt lat="43.83581" lon="3.25736">
        <ele>877</ele>
        <time>2014-09-14T09:53:56.000Z</time>
      </trkpt>
      <trkpt lat="43.83581" lon="3.2575">
        <ele>877</ele>
        <time>2014-09-14T09:53:58.000Z</time>
      </trkpt>
      <trkpt lat="43.83582" lon="3.2577">
        <ele>875</ele>
        <time>2014-09-14T09:54:00.000Z</time>
      </trkpt>
      <trkpt lat="43.83585" lon="3.25791">
        <ele>873</ele>
        <time>2014-09-14T09:54:02.000Z</time>
      </trkpt>
      <trkpt lat="43.83581" lon="3.25807">
        <ele>873</ele>
        <time>2014-09-14T09:54:04.000Z</time>
      </trkpt>
      <trkpt lat="43.8358" lon="3.25824">
        <ele>877</ele>
        <time>2014-09-14T09:54:06.000Z</time>
      </trkpt>
      <trkpt lat="43.8358" lon="3.25844">
        <ele>877</ele>
        <time>2014-09-14T09:54:08.000Z</time>
      </trkpt>
      <trkpt lat="43.83577" lon="3.25858">
        <ele>874</ele>
        <time>2014-09-14T09:54:10.000Z</time>
      </trkpt>
      <trkpt lat="43.83575" lon="3.25867">
        <ele>873</ele>
        <time>2014-09-14T09:54:12.000Z</time>
      </trkpt>
      <trkpt lat="43.8358" lon="3.25888">
        <ele>878</ele>
        <time>2014-09-14T09:54:15.000Z</time>
      </trkpt>
      <trkpt lat="43.83581" lon="3.25906">
        <ele>875</ele>
        <time>2014-09-14T09:54:17.000Z</time>
      </trkpt>
      <trkpt lat="43.83583" lon="3.25918">
        <ele>876</ele>
        <time>2014-09-14T09:54:19.000Z</time>
      </trkpt>
      <trkpt lat="43.83583" lon="3.25936">
        <ele>875</ele>
        <time>2014-09-14T09:54:21.000Z</time>
      </trkpt>
      <trkpt lat="43.83583" lon="3.25954">
        <ele>872</ele>
        <time>2014-09-14T09:54:23.000Z</time>
      </trkpt>
      <trkpt lat="43.83581" lon="3.25969">
        <ele>870</ele>
        <time>2014-09-14T09:54:25.000Z</time>
      </trkpt>
      <trkpt lat="43.83578" lon="3.25989">
        <ele>870</ele>
        <time>2014-09-14T09:54:27.000Z</time>
      </trkpt>
      <trkpt lat="43.83578" lon="3.26006">
        <ele>871</ele>
        <time>2014-09-14T09:54:29.000Z</time>
      </trkpt>
      <trkpt lat="43.8358" lon="3.26028">
        <ele>870</ele>
        <time>2014-09-14T09:54:31.000Z</time>
      </trkpt>
      <trkpt lat="43.83588" lon="3.26054">
        <ele>874</ele>
        <time>2014-09-14T09:54:33.000Z</time>
      </trkpt>
      <trkpt lat="43.83591" lon="3.2608">
        <ele>873</ele>
        <time>2014-09-14T09:54:35.000Z</time>
      </trkpt>
      <trkpt lat="43.83577" lon="3.26096">
        <ele>867</ele>
        <time>2014-09-14T09:54:37.000Z</time>
      </trkpt>
      <trkpt lat="43.83574" lon="3.26116">
        <ele>867</ele>
        <time>2014-09-14T09:54:39.000Z</time>
      </trkpt>
      <trkpt lat="43.83574" lon="3.26132">
        <ele>869</ele>
        <time>2014-09-14T09:54:41.000Z</time>
      </trkpt>
      <trkpt lat="43.83575" lon="3.26152">
        <ele>865</ele>
        <time>2014-09-14T09:54:43.000Z</time>
      </trkpt>
      <trkpt lat="43.83576" lon="3.26175">
        <ele>859</ele>
        <time>2014-09-14T09:54:45.000Z</time>
      </trkpt>
      <trkpt lat="43.83581" lon="3.26196">
        <ele>861</ele>
        <time>2014-09-14T09:54:47.000Z</time>
      </trkpt>
      <trkpt lat="43.83584" lon="3.26219">
        <ele>858</ele>
        <time>2014-09-14T09:54:50.000Z</time>
      </trkpt>
      <trkpt lat="43.83592" lon="3.26238">
        <ele>859</ele>
        <time>2014-09-14T09:54:52.000Z</time>
      </trkpt>
      <trkpt lat="43.83603" lon="3.26253">
        <ele>858</ele>
        <time>2014-09-14T09:54:54.000Z</time>
      </trkpt>
      <trkpt lat="43.83614" lon="3.26272">
        <ele>860</ele>
        <time>2014-09-14T09:54:56.000Z</time>
      </trkpt>
      <trkpt lat="43.83624" lon="3.26284">
        <ele>857</ele>
        <time>2014-09-14T09:54:58.000Z</time>
      </trkpt>
      <trkpt lat="43.83634" lon="3.26294">
        <ele>858</ele>
        <time>2014-09-14T09:55:00.000Z</time>
      </trkpt>
      <trkpt lat="43.83645" lon="3.26307">
        <ele>857</ele>
        <time>2014-09-14T09:55:02.000Z</time>
      </trkpt>
      <trkpt lat="43.83653" lon="3.26322">
        <ele>878</ele>
        <time>2014-09-14T09:55:04.000Z</time>
      </trkpt>
      <trkpt lat="43.83662" lon="3.26336">
        <ele>870</ele>
        <time>2014-09-14T09:55:06.000Z</time>
      </trkpt>
      <trkpt lat="43.8367" lon="3.26347">
        <ele>864</ele>
        <time>2014-09-14T09:55:08.000Z</time>
      </trkpt>
      <trkpt lat="43.83677" lon="3.26357">
        <ele>861</ele>
        <time>2014-09-14T09:55:10.000Z</time>
      </trkpt>
      <trkpt lat="43.83687" lon="3.26372">
        <ele>862</ele>
        <time>2014-09-14T09:55:12.000Z</time>
      </trkpt>
      <trkpt lat="43.83695" lon="3.26384">
        <ele>860</ele>
        <time>2014-09-14T09:55:14.000Z</time>
      </trkpt>
      <trkpt lat="43.83705" lon="3.26392">
        <ele>859</ele>
        <time>2014-09-14T09:55:16.000Z</time>
      </trkpt>
      <trkpt lat="43.83714" lon="3.264">
        <ele>859</ele>
        <time>2014-09-14T09:55:18.000Z</time>
      </trkpt>
      <trkpt lat="43.83724" lon="3.26409">
        <ele>861</ele>
        <time>2014-09-14T09:55:20.000Z</time>
      </trkpt>
      <trkpt lat="43.83728" lon="3.26415">
        <ele>859</ele>
        <time>2014-09-14T09:55:22.000Z</time>
      </trkpt>
      <trkpt lat="43.83728" lon="3.26415">
        <ele>859</ele>
        <time>2014-09-14T09:55:24.000Z</time>
      </trkpt>
      <trkpt lat="43.8373" lon="3.26425">
        <ele>858</ele>
        <time>2014-09-14T09:55:26.000Z</time>
      </trkpt>
      <trkpt lat="43.83737" lon="3.26429">
        <ele>858</ele>
        <time>2014-09-14T09:55:28.000Z</time>
      </trkpt>
      <trkpt lat="43.83746" lon="3.26433">
        <ele>857</ele>
        <time>2014-09-14T09:55:30.000Z</time>
      </trkpt>
      <trkpt lat="43.83752" lon="3.26442">
        <ele>856</ele>
        <time>2014-09-14T09:55:32.000Z</time>
      </trkpt>
      <trkpt lat="43.83759" lon="3.26452">
        <ele>856</ele>
        <time>2014-09-14T09:55:34.000Z</time>
      </trkpt>
      <trkpt lat="43.83766" lon="3.26462">
        <ele>855</ele>
        <time>2014-09-14T09:55:36.000Z</time>
      </trkpt>
      <trkpt lat="43.83772" lon="3.26474">
        <ele>855</ele>
        <time>2014-09-14T09:55:38.000Z</time>
      </trkpt>
      <trkpt lat="43.83781" lon="3.26484">
        <ele>853</ele>
        <time>2014-09-14T09:55:40.000Z</time>
      </trkpt>
      <trkpt lat="43.83788" lon="3.26493">
        <ele>851</ele>
        <time>2014-09-14T09:55:42.000Z</time>
      </trkpt>
      <trkpt lat="43.83794" lon="3.26506">
        <ele>852</ele>
        <time>2014-09-14T09:55:44.000Z</time>
      </trkpt>
      <trkpt lat="43.83801" lon="3.26516">
        <ele>853</ele>
        <time>2014-09-14T09:55:46.000Z</time>
      </trkpt>
      <trkpt lat="43.8381" lon="3.26526">
        <ele>853</ele>
        <time>2014-09-14T09:55:48.000Z</time>
      </trkpt>
      <trkpt lat="43.83823" lon="3.26533">
        <ele>852</ele>
        <time>2014-09-14T09:55:50.000Z</time>
      </trkpt>
      <trkpt lat="43.83834" lon="3.26542">
        <ele>854</ele>
        <time>2014-09-14T09:55:52.000Z</time>
      </trkpt>
      <trkpt lat="43.83847" lon="3.26551">
        <ele>853</ele>
        <time>2014-09-14T09:55:54.000Z</time>
      </trkpt>
      <trkpt lat="43.83855" lon="3.26559">
        <ele>853</ele>
        <time>2014-09-14T09:55:56.000Z</time>
      </trkpt>
      <trkpt lat="43.83865" lon="3.26567">
        <ele>852</ele>
        <time>2014-09-14T09:55:58.000Z</time>
      </trkpt>
      <trkpt lat="43.83878" lon="3.26571">
        <ele>852</ele>
        <time>2014-09-14T09:56:00.000Z</time>
      </trkpt>
      <trkpt lat="43.83889" lon="3.26574">
        <ele>851</ele>
        <time>2014-09-14T09:56:02.000Z</time>
      </trkpt>
      <trkpt lat="43.839" lon="3.26582">
        <ele>851</ele>
        <time>2014-09-14T09:56:04.000Z</time>
      </trkpt>
      <trkpt lat="43.83909" lon="3.26585">
        <ele>850</ele>
        <time>2014-09-14T09:56:06.000Z</time>
      </trkpt>
      <trkpt lat="43.83916" lon="3.26585">
        <ele>851</ele>
        <time>2014-09-14T09:56:08.000Z</time>
      </trkpt>
      <trkpt lat="43.83925" lon="3.26588">
        <ele>851</ele>
        <time>2014-09-14T09:56:10.000Z</time>
      </trkpt>
      <trkpt lat="43.83933" lon="3.26593">
        <ele>854</ele>
        <time>2014-09-14T09:56:12.000Z</time>
      </trkpt>
      <trkpt lat="43.83941" lon="3.26594">
        <ele>854</ele>
        <time>2014-09-14T09:56:14.000Z</time>
      </trkpt>
      <trkpt lat="43.83951" lon="3.26596">
        <ele>852</ele>
        <time>2014-09-14T09:56:16.000Z</time>
      </trkpt>
      <trkpt lat="43.83958" lon="3.266">
        <ele>852</ele>
        <time>2014-09-14T09:56:18.000Z</time>
      </trkpt>
      <trkpt lat="43.83967" lon="3.26601">
        <ele>854</ele>
        <time>2014-09-14T09:56:20.000Z</time>
      </trkpt>
      <trkpt lat="43.83978" lon="3.26602">
        <ele>852</ele>
        <time>2014-09-14T09:56:22.000Z</time>
      </trkpt>
      <trkpt lat="43.83987" lon="3.26606">
        <ele>852</ele>
        <time>2014-09-14T09:56:24.000Z</time>
      </trkpt>
      <trkpt lat="43.83998" lon="3.26608">
        <ele>851</ele>
        <time>2014-09-14T09:56:26.000Z</time>
      </trkpt>
      <trkpt lat="43.84006" lon="3.26615">
        <ele>851</ele>
        <time>2014-09-14T09:56:28.000Z</time>
      </trkpt>
      <trkpt lat="43.84015" lon="3.26628">
        <ele>850</ele>
        <time>2014-09-14T09:56:30.000Z</time>
      </trkpt>
      <trkpt lat="43.84024" lon="3.26639">
        <ele>849</ele>
        <time>2014-09-14T09:56:32.000Z</time>
      </trkpt>
      <trkpt lat="43.8403" lon="3.26649">
        <ele>848</ele>
        <time>2014-09-14T09:56:34.000Z</time>
      </trkpt>
      <trkpt lat="43.84038" lon="3.26658">
        <ele>847</ele>
        <time>2014-09-14T09:56:36.000Z</time>
      </trkpt>
      <trkpt lat="43.84044" lon="3.26668">
        <ele>847</ele>
        <time>2014-09-14T09:56:38.000Z</time>
      </trkpt>
      <trkpt lat="43.8405" lon="3.26678">
        <ele>847</ele>
        <time>2014-09-14T09:56:40.000Z</time>
      </trkpt>
      <trkpt lat="43.84058" lon="3.26687">
        <ele>845</ele>
        <time>2014-09-14T09:56:42.000Z</time>
      </trkpt>
      <trkpt lat="43.84065" lon="3.26696">
        <ele>843</ele>
        <time>2014-09-14T09:56:44.000Z</time>
      </trkpt>
      <trkpt lat="43.84074" lon="3.26708">
        <ele>844</ele>
        <time>2014-09-14T09:56:46.000Z</time>
      </trkpt>
      <trkpt lat="43.84077" lon="3.26726">
        <ele>844</ele>
        <time>2014-09-14T09:56:48.000Z</time>
      </trkpt>
      <trkpt lat="43.8408" lon="3.26744">
        <ele>843</ele>
        <time>2014-09-14T09:56:50.000Z</time>
      </trkpt>
      <trkpt lat="43.84083" lon="3.26759">
        <ele>841</ele>
        <time>2014-09-14T09:56:52.000Z</time>
      </trkpt>
      <trkpt lat="43.84094" lon="3.26771">
        <ele>839</ele>
        <time>2014-09-14T09:56:54.000Z</time>
      </trkpt>
      <trkpt lat="43.84104" lon="3.2678">
        <ele>837</ele>
        <time>2014-09-14T09:56:56.000Z</time>
      </trkpt>
      <trkpt lat="43.84109" lon="3.26786">
        <ele>834</ele>
        <time>2014-09-14T09:56:58.000Z</time>
      </trkpt>
      <trkpt lat="43.84118" lon="3.26792">
        <ele>833</ele>
        <time>2014-09-14T09:57:00.000Z</time>
      </trkpt>
      <trkpt lat="43.84126" lon="3.26785">
        <ele>832</ele>
        <time>2014-09-14T09:57:02.000Z</time>
      </trkpt>
      <trkpt lat="43.84132" lon="3.26774">
        <ele>832</ele>
        <time>2014-09-14T09:57:04.000Z</time>
      </trkpt>
      <trkpt lat="43.84142" lon="3.26763">
        <ele>830</ele>
        <time>2014-09-14T09:57:06.000Z</time>
      </trkpt>
      <trkpt lat="43.84153" lon="3.26757">
        <ele>829</ele>
        <time>2014-09-14T09:57:08.000Z</time>
      </trkpt>
      <trkpt lat="43.84164" lon="3.26751">
        <ele>829</ele>
        <time>2014-09-14T09:57:10.000Z</time>
      </trkpt>
      <trkpt lat="43.84168" lon="3.26744">
        <ele>829</ele>
        <time>2014-09-14T09:57:12.000Z</time>
      </trkpt>
      <trkpt lat="43.84171" lon="3.26733">
        <ele>827</ele>
        <time>2014-09-14T09:57:14.000Z</time>
      </trkpt>
      <trkpt lat="43.84173" lon="3.26723">
        <ele>826</ele>
        <time>2014-09-14T09:57:16.000Z</time>
      </trkpt>
      <trkpt lat="43.84179" lon="3.26732">
        <ele>826</ele>
        <time>2014-09-14T09:57:18.000Z</time>
      </trkpt>
      <trkpt lat="43.84185" lon="3.26743">
        <ele>824</ele>
        <time>2014-09-14T09:57:20.000Z</time>
      </trkpt>
      <trkpt lat="43.8419" lon="3.26752">
        <ele>825</ele>
        <time>2014-09-14T09:57:22.000Z</time>
      </trkpt>
      <trkpt lat="43.84198" lon="3.26756">
        <ele>823</ele>
        <time>2014-09-14T09:57:24.000Z</time>
      </trkpt>
      <trkpt lat="43.84206" lon="3.26762">
        <ele>824</ele>
        <time>2014-09-14T09:57:26.000Z</time>
      </trkpt>
      <trkpt lat="43.84213" lon="3.26767">
        <ele>823</ele>
        <time>2014-09-14T09:57:28.000Z</time>
      </trkpt>
      <trkpt lat="43.84221" lon="3.26776">
        <ele>823</ele>
        <time>2014-09-14T09:57:30.000Z</time>
      </trkpt>
      <trkpt lat="43.84221" lon="3.26776">
        <ele>823</ele>
        <time>2014-09-14T09:57:32.000Z</time>
      </trkpt>
      <trkpt lat="43.84233" lon="3.26773">
        <ele>823</ele>
        <time>2014-09-14T09:57:34.000Z</time>
      </trkpt>
      <trkpt lat="43.8424" lon="3.2677">
        <ele>824</ele>
        <time>2014-09-14T09:57:36.000Z</time>
      </trkpt>
      <trkpt lat="43.8424" lon="3.2677">
        <ele>824</ele>
        <time>2014-09-14T09:57:38.000Z</time>
      </trkpt>
      <trkpt lat="43.84247" lon="3.26774">
        <ele>823</ele>
        <time>2014-09-14T09:57:40.000Z</time>
      </trkpt>
      <trkpt lat="43.84253" lon="3.26774">
        <ele>824</ele>
        <time>2014-09-14T09:57:42.000Z</time>
      </trkpt>
      <trkpt lat="43.84253" lon="3.26774">
        <ele>824</ele>
        <time>2014-09-14T09:57:44.000Z</time>
      </trkpt>
      <trkpt lat="43.84262" lon="3.26776">
        <ele>824</ele>
        <time>2014-09-14T09:57:46.000Z</time>
      </trkpt>
      <trkpt lat="43.84262" lon="3.26776">
        <ele>824</ele>
        <time>2014-09-14T09:57:48.000Z</time>
      </trkpt>
      <trkpt lat="43.84262" lon="3.26776">
        <ele>824</ele>
        <time>2014-09-14T09:57:50.000Z</time>
      </trkpt>
      <trkpt lat="43.84262" lon="3.26776">
        <ele>824</ele>
        <time>2014-09-14T09:57:52.000Z</time>
      </trkpt>
      <trkpt lat="43.84262" lon="3.26776">
        <ele>824</ele>
        <time>2014-09-14T09:57:54.000Z</time>
      </trkpt>
      <trkpt lat="43.84262" lon="3.26776">
        <ele>824</ele>
        <time>2014-09-14T09:58:10.000Z</time>
      </trkpt>
      <trkpt lat="43.84262" lon="3.26781">
        <ele>817</ele>
        <time>2014-09-14T10:02:54.000Z</time>
      </trkpt>
      <trkpt lat="43.84265" lon="3.26785">
        <ele>817</ele>
        <time>2014-09-14T10:02:56.000Z</time>
      </trkpt>
      <trkpt lat="43.84269" lon="3.26788">
        <ele>816</ele>
        <time>2014-09-14T10:02:58.000Z</time>
      </trkpt>
      <trkpt lat="43.84274" lon="3.26791">
        <ele>816</ele>
        <time>2014-09-14T10:03:00.000Z</time>
      </trkpt>
      <trkpt lat="43.84279" lon="3.26794">
        <ele>816</ele>
        <time>2014-09-14T10:03:02.000Z</time>
      </trkpt>
      <trkpt lat="43.843" lon="3.26795">
        <ele>818</ele>
        <time>2014-09-14T10:03:05.000Z</time>
      </trkpt>
      <trkpt lat="43.84307" lon="3.26794">
        <ele>817</ele>
        <time>2014-09-14T10:03:07.000Z</time>
      </trkpt>
      <trkpt lat="43.84314" lon="3.26787">
        <ele>815</ele>
        <time>2014-09-14T10:03:09.000Z</time>
      </trkpt>
      <trkpt lat="43.84321" lon="3.26772">
        <ele>815</ele>
        <time>2014-09-14T10:03:11.000Z</time>
      </trkpt>
      <trkpt lat="43.84328" lon="3.26758">
        <ele>815</ele>
        <time>2014-09-14T10:03:13.000Z</time>
      </trkpt>
      <trkpt lat="43.84336" lon="3.26742">
        <ele>814</ele>
        <time>2014-09-14T10:03:15.000Z</time>
      </trkpt>
      <trkpt lat="43.84343" lon="3.26731">
        <ele>814</ele>
        <time>2014-09-14T10:03:17.000Z</time>
      </trkpt>
      <trkpt lat="43.84354" lon="3.26721">
        <ele>814</ele>
        <time>2014-09-14T10:03:19.000Z</time>
      </trkpt>
      <trkpt lat="43.84365" lon="3.26718">
        <ele>815</ele>
        <time>2014-09-14T10:03:21.000Z</time>
      </trkpt>
      <trkpt lat="43.84377" lon="3.26717">
        <ele>812</ele>
        <time>2014-09-14T10:03:23.000Z</time>
      </trkpt>
      <trkpt lat="43.84386" lon="3.26718">
        <ele>813</ele>
        <time>2014-09-14T10:03:25.000Z</time>
      </trkpt>
      <trkpt lat="43.84395" lon="3.26718">
        <ele>814</ele>
        <time>2014-09-14T10:03:27.000Z</time>
      </trkpt>
      <trkpt lat="43.84401" lon="3.26722">
        <ele>816</ele>
        <time>2014-09-14T10:03:29.000Z</time>
      </trkpt>
      <trkpt lat="43.84401" lon="3.26722">
        <ele>816</ele>
        <time>2014-09-14T10:03:31.000Z</time>
      </trkpt>
      <trkpt lat="43.84408" lon="3.26727">
        <ele>817</ele>
        <time>2014-09-14T10:03:33.000Z</time>
      </trkpt>
      <trkpt lat="43.84408" lon="3.26727">
        <ele>817</ele>
        <time>2014-09-14T10:03:35.000Z</time>
      </trkpt>
      <trkpt lat="43.84417" lon="3.26735">
        <ele>818</ele>
        <time>2014-09-14T10:03:37.000Z</time>
      </trkpt>
      <trkpt lat="43.84423" lon="3.26741">
        <ele>817</ele>
        <time>2014-09-14T10:03:39.000Z</time>
      </trkpt>
      <trkpt lat="43.84432" lon="3.26747">
        <ele>817</ele>
        <time>2014-09-14T10:03:41.000Z</time>
      </trkpt>
      <trkpt lat="43.84439" lon="3.26755">
        <ele>816</ele>
        <time>2014-09-14T10:03:43.000Z</time>
      </trkpt>
      <trkpt lat="43.84444" lon="3.26765">
        <ele>816</ele>
        <time>2014-09-14T10:03:45.000Z</time>
      </trkpt>
      <trkpt lat="43.8445" lon="3.26774">
        <ele>818</ele>
        <time>2014-09-14T10:03:47.000Z</time>
      </trkpt>
      <trkpt lat="43.84462" lon="3.26784">
        <ele>814</ele>
        <time>2014-09-14T10:03:49.000Z</time>
      </trkpt>
      <trkpt lat="43.84468" lon="3.26798">
        <ele>812</ele>
        <time>2014-09-14T10:03:51.000Z</time>
      </trkpt>
      <trkpt lat="43.8447" lon="3.26815">
        <ele>812</ele>
        <time>2014-09-14T10:03:53.000Z</time>
      </trkpt>
      <trkpt lat="43.84473" lon="3.26829">
        <ele>812</ele>
        <time>2014-09-14T10:03:55.000Z</time>
      </trkpt>
      <trkpt lat="43.84477" lon="3.26845">
        <ele>812</ele>
        <time>2014-09-14T10:03:57.000Z</time>
      </trkpt>
      <trkpt lat="43.8448" lon="3.26861">
        <ele>813</ele>
        <time>2014-09-14T10:03:59.000Z</time>
      </trkpt>
      <trkpt lat="43.84481" lon="3.26877">
        <ele>814</ele>
        <time>2014-09-14T10:04:01.000Z</time>
      </trkpt>
      <trkpt lat="43.84482" lon="3.26891">
        <ele>813</ele>
        <time>2014-09-14T10:04:03.000Z</time>
      </trkpt>
      <trkpt lat="43.84486" lon="3.26907">
        <ele>814</ele>
        <time>2014-09-14T10:04:05.000Z</time>
      </trkpt>
      <trkpt lat="43.84488" lon="3.26923">
        <ele>813</ele>
        <time>2014-09-14T10:04:07.000Z</time>
      </trkpt>
      <trkpt lat="43.84491" lon="3.26937">
        <ele>811</ele>
        <time>2014-09-14T10:04:09.000Z</time>
      </trkpt>
      <trkpt lat="43.84489" lon="3.26948">
        <ele>809</ele>
        <time>2014-09-14T10:04:11.000Z</time>
      </trkpt>
      <trkpt lat="43.84488" lon="3.26961">
        <ele>809</ele>
        <time>2014-09-14T10:04:13.000Z</time>
      </trkpt>
      <trkpt lat="43.84486" lon="3.26975">
        <ele>808</ele>
        <time>2014-09-14T10:04:15.000Z</time>
      </trkpt>
      <trkpt lat="43.84484" lon="3.26989">
        <ele>807</ele>
        <time>2014-09-14T10:04:17.000Z</time>
      </trkpt>
      <trkpt lat="43.84482" lon="3.27004">
        <ele>807</ele>
        <time>2014-09-14T10:04:19.000Z</time>
      </trkpt>
      <trkpt lat="43.8448" lon="3.27021">
        <ele>808</ele>
        <time>2014-09-14T10:04:21.000Z</time>
      </trkpt>
      <trkpt lat="43.84476" lon="3.27035">
        <ele>805</ele>
        <time>2014-09-14T10:04:23.000Z</time>
      </trkpt>
      <trkpt lat="43.84473" lon="3.27052">
        <ele>805</ele>
        <time>2014-09-14T10:04:25.000Z</time>
      </trkpt>
      <trkpt lat="43.84469" lon="3.27066">
        <ele>805</ele>
        <time>2014-09-14T10:04:27.000Z</time>
      </trkpt>
      <trkpt lat="43.84468" lon="3.27088">
        <ele>804</ele>
        <time>2014-09-14T10:04:29.000Z</time>
      </trkpt>
      <trkpt lat="43.84471" lon="3.27108">
        <ele>806</ele>
        <time>2014-09-14T10:04:31.000Z</time>
      </trkpt>
      <trkpt lat="43.84473" lon="3.27125">
        <ele>804</ele>
        <time>2014-09-14T10:04:33.000Z</time>
      </trkpt>
      <trkpt lat="43.84488" lon="3.27166">
        <ele>801</ele>
        <time>2014-09-14T10:04:37.000Z</time>
      </trkpt>
      <trkpt lat="43.84494" lon="3.27185">
        <ele>801</ele>
        <time>2014-09-14T10:04:39.000Z</time>
      </trkpt>
      <trkpt lat="43.84499" lon="3.27201">
        <ele>800</ele>
        <time>2014-09-14T10:04:41.000Z</time>
      </trkpt>
      <trkpt lat="43.84502" lon="3.27217">
        <ele>799</ele>
        <time>2014-09-14T10:04:43.000Z</time>
      </trkpt>
      <trkpt lat="43.84504" lon="3.27235">
        <ele>799</ele>
        <time>2014-09-14T10:04:45.000Z</time>
      </trkpt>
      <trkpt lat="43.84505" lon="3.27251">
        <ele>798</ele>
        <time>2014-09-14T10:04:47.000Z</time>
      </trkpt>
      <trkpt lat="43.84507" lon="3.27266">
        <ele>797</ele>
        <time>2014-09-14T10:04:49.000Z</time>
      </trkpt>
      <trkpt lat="43.84514" lon="3.27278">
        <ele>796</ele>
        <time>2014-09-14T10:04:51.000Z</time>
      </trkpt>
      <trkpt lat="43.84527" lon="3.27288">
        <ele>796</ele>
        <time>2014-09-14T10:04:53.000Z</time>
      </trkpt>
      <trkpt lat="43.84541" lon="3.27295">
        <ele>797</ele>
        <time>2014-09-14T10:04:55.000Z</time>
      </trkpt>
      <trkpt lat="43.84553" lon="3.27304">
        <ele>798</ele>
        <time>2014-09-14T10:04:57.000Z</time>
      </trkpt>
      <trkpt lat="43.84563" lon="3.27319">
        <ele>799</ele>
        <time>2014-09-14T10:04:59.000Z</time>
      </trkpt>
      <trkpt lat="43.84572" lon="3.27334">
        <ele>797</ele>
        <time>2014-09-14T10:05:01.000Z</time>
      </trkpt>
      <trkpt lat="43.84578" lon="3.27351">
        <ele>798</ele>
        <time>2014-09-14T10:05:03.000Z</time>
      </trkpt>
      <trkpt lat="43.84584" lon="3.27367">
        <ele>797</ele>
        <time>2014-09-14T10:05:05.000Z</time>
      </trkpt>
      <trkpt lat="43.84592" lon="3.27383">
        <ele>798</ele>
        <time>2014-09-14T10:05:07.000Z</time>
      </trkpt>
      <trkpt lat="43.84604" lon="3.27402">
        <ele>798</ele>
        <time>2014-09-14T10:05:09.000Z</time>
      </trkpt>
      <trkpt lat="43.84615" lon="3.27417">
        <ele>797</ele>
        <time>2014-09-14T10:05:11.000Z</time>
      </trkpt>
      <trkpt lat="43.84625" lon="3.27434">
        <ele>797</ele>
        <time>2014-09-14T10:05:13.000Z</time>
      </trkpt>
      <trkpt lat="43.84633" lon="3.2745">
        <ele>797</ele>
        <time>2014-09-14T10:05:15.000Z</time>
      </trkpt>
      <trkpt lat="43.84644" lon="3.27468">
        <ele>796</ele>
        <time>2014-09-14T10:05:17.000Z</time>
      </trkpt>
      <trkpt lat="43.84651" lon="3.27486">
        <ele>796</ele>
        <time>2014-09-14T10:05:19.000Z</time>
      </trkpt>
      <trkpt lat="43.84661" lon="3.27505">
        <ele>796</ele>
        <time>2014-09-14T10:05:21.000Z</time>
      </trkpt>
      <trkpt lat="43.84669" lon="3.27521">
        <ele>795</ele>
        <time>2014-09-14T10:05:23.000Z</time>
      </trkpt>
      <trkpt lat="43.84682" lon="3.27536">
        <ele>796</ele>
        <time>2014-09-14T10:05:25.000Z</time>
      </trkpt>
      <trkpt lat="43.84693" lon="3.27554">
        <ele>795</ele>
        <time>2014-09-14T10:05:27.000Z</time>
      </trkpt>
      <trkpt lat="43.84702" lon="3.27573">
        <ele>795</ele>
        <time>2014-09-14T10:05:29.000Z</time>
      </trkpt>
      <trkpt lat="43.8471" lon="3.27591">
        <ele>795</ele>
        <time>2014-09-14T10:05:31.000Z</time>
      </trkpt>
      <trkpt lat="43.84718" lon="3.27606">
        <ele>796</ele>
        <time>2014-09-14T10:05:33.000Z</time>
      </trkpt>
      <trkpt lat="43.84726" lon="3.27622">
        <ele>794</ele>
        <time>2014-09-14T10:05:35.000Z</time>
      </trkpt>
      <trkpt lat="43.84731" lon="3.2764">
        <ele>793</ele>
        <time>2014-09-14T10:05:37.000Z</time>
      </trkpt>
      <trkpt lat="43.84735" lon="3.27658">
        <ele>794</ele>
        <time>2014-09-14T10:05:39.000Z</time>
      </trkpt>
      <trkpt lat="43.84738" lon="3.27676">
        <ele>794</ele>
        <time>2014-09-14T10:05:41.000Z</time>
      </trkpt>
      <trkpt lat="43.84742" lon="3.27693">
        <ele>794</ele>
        <time>2014-09-14T10:05:43.000Z</time>
      </trkpt>
      <trkpt lat="43.84745" lon="3.27711">
        <ele>796</ele>
        <time>2014-09-14T10:05:45.000Z</time>
      </trkpt>
      <trkpt lat="43.84748" lon="3.27728">
        <ele>796</ele>
        <time>2014-09-14T10:05:47.000Z</time>
      </trkpt>
      <trkpt lat="43.84756" lon="3.27742">
        <ele>797</ele>
        <time>2014-09-14T10:05:49.000Z</time>
      </trkpt>
      <trkpt lat="43.84758" lon="3.27756">
        <ele>798</ele>
        <time>2014-09-14T10:05:51.000Z</time>
      </trkpt>
      <trkpt lat="43.84764" lon="3.27772">
        <ele>800</ele>
        <time>2014-09-14T10:05:53.000Z</time>
      </trkpt>
      <trkpt lat="43.84769" lon="3.27786">
        <ele>800</ele>
        <time>2014-09-14T10:05:55.000Z</time>
      </trkpt>
      <trkpt lat="43.84776" lon="3.27801">
        <ele>800</ele>
        <time>2014-09-14T10:05:57.000Z</time>
      </trkpt>
      <trkpt lat="43.84784" lon="3.27816">
        <ele>799</ele>
        <time>2014-09-14T10:05:59.000Z</time>
      </trkpt>
      <trkpt lat="43.84792" lon="3.2783">
        <ele>799</ele>
        <time>2014-09-14T10:06:01.000Z</time>
      </trkpt>
      <trkpt lat="43.84803" lon="3.27844">
        <ele>799</ele>
        <time>2014-09-14T10:06:03.000Z</time>
      </trkpt>
      <trkpt lat="43.84814" lon="3.27857">
        <ele>798</ele>
        <time>2014-09-14T10:06:05.000Z</time>
      </trkpt>
      <trkpt lat="43.84821" lon="3.27872">
        <ele>798</ele>
        <time>2014-09-14T10:06:07.000Z</time>
      </trkpt>
      <trkpt lat="43.8483" lon="3.27884">
        <ele>797</ele>
        <time>2014-09-14T10:06:09.000Z</time>
      </trkpt>
      <trkpt lat="43.84838" lon="3.27898">
        <ele>798</ele>
        <time>2014-09-14T10:06:11.000Z</time>
      </trkpt>
      <trkpt lat="43.84843" lon="3.2791">
        <ele>798</ele>
        <time>2014-09-14T10:06:13.000Z</time>
      </trkpt>
      <trkpt lat="43.84852" lon="3.27921">
        <ele>799</ele>
        <time>2014-09-14T10:06:15.000Z</time>
      </trkpt>
      <trkpt lat="43.84859" lon="3.27935">
        <ele>799</ele>
        <time>2014-09-14T10:06:17.000Z</time>
      </trkpt>
      <trkpt lat="43.84869" lon="3.2795">
        <ele>798</ele>
        <time>2014-09-14T10:06:19.000Z</time>
      </trkpt>
      <trkpt lat="43.84877" lon="3.27965">
        <ele>796</ele>
        <time>2014-09-14T10:06:21.000Z</time>
      </trkpt>
      <trkpt lat="43.84885" lon="3.27977">
        <ele>796</ele>
        <time>2014-09-14T10:06:23.000Z</time>
      </trkpt>
      <trkpt lat="43.84893" lon="3.2799">
        <ele>796</ele>
        <time>2014-09-14T10:06:25.000Z</time>
      </trkpt>
      <trkpt lat="43.84903" lon="3.28002">
        <ele>796</ele>
        <time>2014-09-14T10:06:27.000Z</time>
      </trkpt>
      <trkpt lat="43.84913" lon="3.28012">
        <ele>796</ele>
        <time>2014-09-14T10:06:29.000Z</time>
      </trkpt>
      <trkpt lat="43.84923" lon="3.28021">
        <ele>796</ele>
        <time>2014-09-14T10:06:31.000Z</time>
      </trkpt>
      <trkpt lat="43.84933" lon="3.28031">
        <ele>796</ele>
        <time>2014-09-14T10:06:33.000Z</time>
      </trkpt>
      <trkpt lat="43.84945" lon="3.28041">
        <ele>796</ele>
        <time>2014-09-14T10:06:35.000Z</time>
      </trkpt>
      <trkpt lat="43.84955" lon="3.2805">
        <ele>795</ele>
        <time>2014-09-14T10:06:37.000Z</time>
      </trkpt>
      <trkpt lat="43.84965" lon="3.28063">
        <ele>795</ele>
        <time>2014-09-14T10:06:39.000Z</time>
      </trkpt>
      <trkpt lat="43.84972" lon="3.28079">
        <ele>794</ele>
        <time>2014-09-14T10:06:41.000Z</time>
      </trkpt>
      <trkpt lat="43.84978" lon="3.28094">
        <ele>796</ele>
        <time>2014-09-14T10:06:43.000Z</time>
      </trkpt>
      <trkpt lat="43.84982" lon="3.28109">
        <ele>796</ele>
        <time>2014-09-14T10:06:45.000Z</time>
      </trkpt>
      <trkpt lat="43.84986" lon="3.28124">
        <ele>796</ele>
        <time>2014-09-14T10:06:47.000Z</time>
      </trkpt>
      <trkpt lat="43.84995" lon="3.28141">
        <ele>797</ele>
        <time>2014-09-14T10:06:49.000Z</time>
      </trkpt>
      <trkpt lat="43.84999" lon="3.28155">
        <ele>795</ele>
        <time>2014-09-14T10:06:51.000Z</time>
      </trkpt>
      <trkpt lat="43.85005" lon="3.2817">
        <ele>794</ele>
        <time>2014-09-14T10:06:53.000Z</time>
      </trkpt>
      <trkpt lat="43.85012" lon="3.28185">
        <ele>794</ele>
        <time>2014-09-14T10:06:55.000Z</time>
      </trkpt>
      <trkpt lat="43.8502" lon="3.28202">
        <ele>792</ele>
        <time>2014-09-14T10:06:57.000Z</time>
      </trkpt>
      <trkpt lat="43.85025" lon="3.28216">
        <ele>791</ele>
        <time>2014-09-14T10:06:59.000Z</time>
      </trkpt>
      <trkpt lat="43.85032" lon="3.28233">
        <ele>792</ele>
        <time>2014-09-14T10:07:01.000Z</time>
      </trkpt>
      <trkpt lat="43.85037" lon="3.28249">
        <ele>791</ele>
        <time>2014-09-14T10:07:03.000Z</time>
      </trkpt>
      <trkpt lat="43.85043" lon="3.28265">
        <ele>791</ele>
        <time>2014-09-14T10:07:05.000Z</time>
      </trkpt>
      <trkpt lat="43.85051" lon="3.28282">
        <ele>792</ele>
        <time>2014-09-14T10:07:07.000Z</time>
      </trkpt>
      <trkpt lat="43.85057" lon="3.28298">
        <ele>791</ele>
        <time>2014-09-14T10:07:09.000Z</time>
      </trkpt>
      <trkpt lat="43.85064" lon="3.28315">
        <ele>790</ele>
        <time>2014-09-14T10:07:11.000Z</time>
      </trkpt>
      <trkpt lat="43.85071" lon="3.28332">
        <ele>790</ele>
        <time>2014-09-14T10:07:13.000Z</time>
      </trkpt>
      <trkpt lat="43.85077" lon="3.28348">
        <ele>790</ele>
        <time>2014-09-14T10:07:15.000Z</time>
      </trkpt>
      <trkpt lat="43.85082" lon="3.28363">
        <ele>790</ele>
        <time>2014-09-14T10:07:17.000Z</time>
      </trkpt>
      <trkpt lat="43.85087" lon="3.28378">
        <ele>792</ele>
        <time>2014-09-14T10:07:19.000Z</time>
      </trkpt>
      <trkpt lat="43.85092" lon="3.28393">
        <ele>793</ele>
        <time>2014-09-14T10:07:21.000Z</time>
      </trkpt>
      <trkpt lat="43.85099" lon="3.28408">
        <ele>798</ele>
        <time>2014-09-14T10:07:23.000Z</time>
      </trkpt>
      <trkpt lat="43.85104" lon="3.28426">
        <ele>795</ele>
        <time>2014-09-14T10:07:25.000Z</time>
      </trkpt>
      <trkpt lat="43.85111" lon="3.28443">
        <ele>792</ele>
        <time>2014-09-14T10:07:27.000Z</time>
      </trkpt>
      <trkpt lat="43.85118" lon="3.2846">
        <ele>790</ele>
        <time>2014-09-14T10:07:29.000Z</time>
      </trkpt>
      <trkpt lat="43.85126" lon="3.28476">
        <ele>790</ele>
        <time>2014-09-14T10:07:31.000Z</time>
      </trkpt>
      <trkpt lat="43.85136" lon="3.28494">
        <ele>791</ele>
        <time>2014-09-14T10:07:33.000Z</time>
      </trkpt>
      <trkpt lat="43.85143" lon="3.28511">
        <ele>792</ele>
        <time>2014-09-14T10:07:35.000Z</time>
      </trkpt>
      <trkpt lat="43.85151" lon="3.28527">
        <ele>792</ele>
        <time>2014-09-14T10:07:37.000Z</time>
      </trkpt>
      <trkpt lat="43.85159" lon="3.28541">
        <ele>791</ele>
        <time>2014-09-14T10:07:39.000Z</time>
      </trkpt>
      <trkpt lat="43.85169" lon="3.28558">
        <ele>792</ele>
        <time>2014-09-14T10:07:41.000Z</time>
      </trkpt>
      <trkpt lat="43.85175" lon="3.28574">
        <ele>791</ele>
        <time>2014-09-14T10:07:43.000Z</time>
      </trkpt>
      <trkpt lat="43.85197" lon="3.28597">
        <ele>791</ele>
        <time>2014-09-14T10:07:46.000Z</time>
      </trkpt>
      <trkpt lat="43.85207" lon="3.28611">
        <ele>790</ele>
        <time>2014-09-14T10:07:48.000Z</time>
      </trkpt>
      <trkpt lat="43.85225" lon="3.28638">
        <ele>788</ele>
        <time>2014-09-14T10:07:51.000Z</time>
      </trkpt>
      <trkpt lat="43.85233" lon="3.28655">
        <ele>788</ele>
        <time>2014-09-14T10:07:53.000Z</time>
      </trkpt>
      <trkpt lat="43.85241" lon="3.28672">
        <ele>788</ele>
        <time>2014-09-14T10:07:55.000Z</time>
      </trkpt>
      <trkpt lat="43.85248" lon="3.2869">
        <ele>788</ele>
        <time>2014-09-14T10:07:57.000Z</time>
      </trkpt>
      <trkpt lat="43.85253" lon="3.28709">
        <ele>789</ele>
        <time>2014-09-14T10:07:59.000Z</time>
      </trkpt>
      <trkpt lat="43.85259" lon="3.28727">
        <ele>788</ele>
        <time>2014-09-14T10:08:01.000Z</time>
      </trkpt>
      <trkpt lat="43.85262" lon="3.28744">
        <ele>789</ele>
        <time>2014-09-14T10:08:03.000Z</time>
      </trkpt>
      <trkpt lat="43.85268" lon="3.28759">
        <ele>788</ele>
        <time>2014-09-14T10:08:05.000Z</time>
      </trkpt>
      <trkpt lat="43.85275" lon="3.28772">
        <ele>789</ele>
        <time>2014-09-14T10:08:07.000Z</time>
      </trkpt>
      <trkpt lat="43.85278" lon="3.28785">
        <ele>788</ele>
        <time>2014-09-14T10:08:09.000Z</time>
      </trkpt>
      <trkpt lat="43.85285" lon="3.28798">
        <ele>789</ele>
        <time>2014-09-14T10:08:11.000Z</time>
      </trkpt>
      <trkpt lat="43.85291" lon="3.28811">
        <ele>790</ele>
        <time>2014-09-14T10:08:13.000Z</time>
      </trkpt>
      <trkpt lat="43.85295" lon="3.28826">
        <ele>789</ele>
        <time>2014-09-14T10:08:15.000Z</time>
      </trkpt>
      <trkpt lat="43.853" lon="3.2884">
        <ele>789</ele>
        <time>2014-09-14T10:08:17.000Z</time>
      </trkpt>
      <trkpt lat="43.85305" lon="3.28856">
        <ele>788</ele>
        <time>2014-09-14T10:08:19.000Z</time>
      </trkpt>
      <trkpt lat="43.8531" lon="3.28873">
        <ele>790</ele>
        <time>2014-09-14T10:08:21.000Z</time>
      </trkpt>
      <trkpt lat="43.85317" lon="3.2889">
        <ele>792</ele>
        <time>2014-09-14T10:08:23.000Z</time>
      </trkpt>
      <trkpt lat="43.85322" lon="3.28906">
        <ele>793</ele>
        <time>2014-09-14T10:08:25.000Z</time>
      </trkpt>
      <trkpt lat="43.85326" lon="3.28918">
        <ele>795</ele>
        <time>2014-09-14T10:08:27.000Z</time>
      </trkpt>
      <trkpt lat="43.85329" lon="3.28934">
        <ele>795</ele>
        <time>2014-09-14T10:08:29.000Z</time>
      </trkpt>
      <trkpt lat="43.85333" lon="3.28945">
        <ele>793</ele>
        <time>2014-09-14T10:08:31.000Z</time>
      </trkpt>
      <trkpt lat="43.85334" lon="3.28958">
        <ele>795</ele>
        <time>2014-09-14T10:08:33.000Z</time>
      </trkpt>
      <trkpt lat="43.85337" lon="3.28971">
        <ele>793</ele>
        <time>2014-09-14T10:08:35.000Z</time>
      </trkpt>
      <trkpt lat="43.85337" lon="3.28982">
        <ele>793</ele>
        <time>2014-09-14T10:08:37.000Z</time>
      </trkpt>
      <trkpt lat="43.85341" lon="3.28994">
        <ele>793</ele>
        <time>2014-09-14T10:08:39.000Z</time>
      </trkpt>
      <trkpt lat="43.85345" lon="3.29007">
        <ele>792</ele>
        <time>2014-09-14T10:08:41.000Z</time>
      </trkpt>
      <trkpt lat="43.85347" lon="3.29019">
        <ele>792</ele>
        <time>2014-09-14T10:08:43.000Z</time>
      </trkpt>
      <trkpt lat="43.85348" lon="3.29034">
        <ele>792</ele>
        <time>2014-09-14T10:08:45.000Z</time>
      </trkpt>
      <trkpt lat="43.85352" lon="3.29049">
        <ele>791</ele>
        <time>2014-09-14T10:08:47.000Z</time>
      </trkpt>
      <trkpt lat="43.85355" lon="3.29064">
        <ele>792</ele>
        <time>2014-09-14T10:08:49.000Z</time>
      </trkpt>
      <trkpt lat="43.85357" lon="3.29083">
        <ele>790</ele>
        <time>2014-09-14T10:08:51.000Z</time>
      </trkpt>
      <trkpt lat="43.8536" lon="3.29101">
        <ele>792</ele>
        <time>2014-09-14T10:08:53.000Z</time>
      </trkpt>
      <trkpt lat="43.85363" lon="3.29118">
        <ele>791</ele>
        <time>2014-09-14T10:08:55.000Z</time>
      </trkpt>
      <trkpt lat="43.8537" lon="3.29135">
        <ele>792</ele>
        <time>2014-09-14T10:08:57.000Z</time>
      </trkpt>
      <trkpt lat="43.85376" lon="3.29154">
        <ele>792</ele>
        <time>2014-09-14T10:08:59.000Z</time>
      </trkpt>
      <trkpt lat="43.85382" lon="3.29171">
        <ele>792</ele>
        <time>2014-09-14T10:09:01.000Z</time>
      </trkpt>
      <trkpt lat="43.85384" lon="3.29187">
        <ele>792</ele>
        <time>2014-09-14T10:09:03.000Z</time>
      </trkpt>
      <trkpt lat="43.85394" lon="3.29205">
        <ele>790</ele>
        <time>2014-09-14T10:09:05.000Z</time>
      </trkpt>
      <trkpt lat="43.85398" lon="3.2922">
        <ele>789</ele>
        <time>2014-09-14T10:09:07.000Z</time>
      </trkpt>
      <trkpt lat="43.85403" lon="3.29233">
        <ele>791</ele>
        <time>2014-09-14T10:09:09.000Z</time>
      </trkpt>
      <trkpt lat="43.85408" lon="3.29248">
        <ele>792</ele>
        <time>2014-09-14T10:09:11.000Z</time>
      </trkpt>
      <trkpt lat="43.85413" lon="3.29261">
        <ele>791</ele>
        <time>2014-09-14T10:09:13.000Z</time>
      </trkpt>
      <trkpt lat="43.85418" lon="3.29273">
        <ele>789</ele>
        <time>2014-09-14T10:09:15.000Z</time>
      </trkpt>
      <trkpt lat="43.85425" lon="3.29285">
        <ele>790</ele>
        <time>2014-09-14T10:09:17.000Z</time>
      </trkpt>
      <trkpt lat="43.8543" lon="3.29299">
        <ele>790</ele>
        <time>2014-09-14T10:09:19.000Z</time>
      </trkpt>
      <trkpt lat="43.85437" lon="3.29314">
        <ele>790</ele>
        <time>2014-09-14T10:09:21.000Z</time>
      </trkpt>
      <trkpt lat="43.85437" lon="3.29329">
        <ele>791</ele>
        <time>2014-09-14T10:09:23.000Z</time>
      </trkpt>
      <trkpt lat="43.85442" lon="3.29345">
        <ele>791</ele>
        <time>2014-09-14T10:09:25.000Z</time>
      </trkpt>
      <trkpt lat="43.85448" lon="3.29361">
        <ele>790</ele>
        <time>2014-09-14T10:09:27.000Z</time>
      </trkpt>
      <trkpt lat="43.85454" lon="3.29376">
        <ele>791</ele>
        <time>2014-09-14T10:09:29.000Z</time>
      </trkpt>
      <trkpt lat="43.85457" lon="3.2939">
        <ele>791</ele>
        <time>2014-09-14T10:09:31.000Z</time>
      </trkpt>
      <trkpt lat="43.8546" lon="3.29405">
        <ele>792</ele>
        <time>2014-09-14T10:09:33.000Z</time>
      </trkpt>
      <trkpt lat="43.85463" lon="3.29418">
        <ele>792</ele>
        <time>2014-09-14T10:09:35.000Z</time>
      </trkpt>
      <trkpt lat="43.85465" lon="3.29433">
        <ele>791</ele>
        <time>2014-09-14T10:09:37.000Z</time>
      </trkpt>
      <trkpt lat="43.85464" lon="3.29449">
        <ele>791</ele>
        <time>2014-09-14T10:09:39.000Z</time>
      </trkpt>
      <trkpt lat="43.85469" lon="3.29465">
        <ele>790</ele>
        <time>2014-09-14T10:09:41.000Z</time>
      </trkpt>
      <trkpt lat="43.85472" lon="3.2948">
        <ele>791</ele>
        <time>2014-09-14T10:09:43.000Z</time>
      </trkpt>
      <trkpt lat="43.85476" lon="3.29496">
        <ele>791</ele>
        <time>2014-09-14T10:09:45.000Z</time>
      </trkpt>
      <trkpt lat="43.85484" lon="3.29512">
        <ele>791</ele>
        <time>2014-09-14T10:09:47.000Z</time>
      </trkpt>
      <trkpt lat="43.85492" lon="3.29526">
        <ele>792</ele>
        <time>2014-09-14T10:09:49.000Z</time>
      </trkpt>
      <trkpt lat="43.85501" lon="3.29536">
        <ele>791</ele>
        <time>2014-09-14T10:09:51.000Z</time>
      </trkpt>
      <trkpt lat="43.85508" lon="3.29549">
        <ele>791</ele>
        <time>2014-09-14T10:09:53.000Z</time>
      </trkpt>
      <trkpt lat="43.85516" lon="3.29562">
        <ele>789</ele>
        <time>2014-09-14T10:09:55.000Z</time>
      </trkpt>
      <trkpt lat="43.85523" lon="3.29575">
        <ele>791</ele>
        <time>2014-09-14T10:09:57.000Z</time>
      </trkpt>
      <trkpt lat="43.85534" lon="3.2959">
        <ele>792</ele>
        <time>2014-09-14T10:09:59.000Z</time>
      </trkpt>
      <trkpt lat="43.85538" lon="3.29605">
        <ele>792</ele>
        <time>2014-09-14T10:10:01.000Z</time>
      </trkpt>
      <trkpt lat="43.85544" lon="3.2962">
        <ele>792</ele>
        <time>2014-09-14T10:10:03.000Z</time>
      </trkpt>
      <trkpt lat="43.85551" lon="3.29635">
        <ele>792</ele>
        <time>2014-09-14T10:10:05.000Z</time>
      </trkpt>
      <trkpt lat="43.85557" lon="3.2965">
        <ele>792</ele>
        <time>2014-09-14T10:10:07.000Z</time>
      </trkpt>
      <trkpt lat="43.85563" lon="3.29667">
        <ele>792</ele>
        <time>2014-09-14T10:10:09.000Z</time>
      </trkpt>
      <trkpt lat="43.8557" lon="3.29683">
        <ele>792</ele>
        <time>2014-09-14T10:10:11.000Z</time>
      </trkpt>
      <trkpt lat="43.85577" lon="3.29698">
        <ele>792</ele>
        <time>2014-09-14T10:10:13.000Z</time>
      </trkpt>
      <trkpt lat="43.85579" lon="3.29711">
        <ele>793</ele>
        <time>2014-09-14T10:10:15.000Z</time>
      </trkpt>
      <trkpt lat="43.85584" lon="3.29725">
        <ele>793</ele>
        <time>2014-09-14T10:10:17.000Z</time>
      </trkpt>
      <trkpt lat="43.85588" lon="3.29737">
        <ele>794</ele>
        <time>2014-09-14T10:10:19.000Z</time>
      </trkpt>
      <trkpt lat="43.85588" lon="3.2975">
        <ele>792</ele>
        <time>2014-09-14T10:10:21.000Z</time>
      </trkpt>
      <trkpt lat="43.8559" lon="3.29762">
        <ele>792</ele>
        <time>2014-09-14T10:10:23.000Z</time>
      </trkpt>
      <trkpt lat="43.85592" lon="3.29774">
        <ele>793</ele>
        <time>2014-09-14T10:10:25.000Z</time>
      </trkpt>
      <trkpt lat="43.85594" lon="3.29785">
        <ele>792</ele>
        <time>2014-09-14T10:10:27.000Z</time>
      </trkpt>
      <trkpt lat="43.85596" lon="3.29799">
        <ele>791</ele>
        <time>2014-09-14T10:10:29.000Z</time>
      </trkpt>
      <trkpt lat="43.85601" lon="3.29811">
        <ele>794</ele>
        <time>2014-09-14T10:10:31.000Z</time>
      </trkpt>
      <trkpt lat="43.85605" lon="3.29824">
        <ele>794</ele>
        <time>2014-09-14T10:10:33.000Z</time>
      </trkpt>
      <trkpt lat="43.85604" lon="3.29837">
        <ele>794</ele>
        <time>2014-09-14T10:10:35.000Z</time>
      </trkpt>
      <trkpt lat="43.85606" lon="3.29851">
        <ele>795</ele>
        <time>2014-09-14T10:10:37.000Z</time>
      </trkpt>
      <trkpt lat="43.85607" lon="3.29862">
        <ele>795</ele>
        <time>2014-09-14T10:10:39.000Z</time>
      </trkpt>
      <trkpt lat="43.85608" lon="3.29872">
        <ele>796</ele>
        <time>2014-09-14T10:10:41.000Z</time>
      </trkpt>
      <trkpt lat="43.85612" lon="3.29883">
        <ele>798</ele>
        <time>2014-09-14T10:10:43.000Z</time>
      </trkpt>
      <trkpt lat="43.85614" lon="3.29892">
        <ele>799</ele>
        <time>2014-09-14T10:10:45.000Z</time>
      </trkpt>
      <trkpt lat="43.85619" lon="3.29903">
        <ele>797</ele>
        <time>2014-09-14T10:10:47.000Z</time>
      </trkpt>
      <trkpt lat="43.85623" lon="3.29913">
        <ele>798</ele>
        <time>2014-09-14T10:10:49.000Z</time>
      </trkpt>
      <trkpt lat="43.85623" lon="3.29921">
        <ele>799</ele>
        <time>2014-09-14T10:10:51.000Z</time>
      </trkpt>
      <trkpt lat="43.85627" lon="3.29933">
        <ele>800</ele>
        <time>2014-09-14T10:10:53.000Z</time>
      </trkpt>
      <trkpt lat="43.85629" lon="3.29942">
        <ele>802</ele>
        <time>2014-09-14T10:10:55.000Z</time>
      </trkpt>
      <trkpt lat="43.85632" lon="3.29953">
        <ele>803</ele>
        <time>2014-09-14T10:10:57.000Z</time>
      </trkpt>
      <trkpt lat="43.85635" lon="3.29963">
        <ele>803</ele>
        <time>2014-09-14T10:10:59.000Z</time>
      </trkpt>
      <trkpt lat="43.8564" lon="3.2997">
        <ele>803</ele>
        <time>2014-09-14T10:11:01.000Z</time>
      </trkpt>
      <trkpt lat="43.85647" lon="3.29978">
        <ele>803</ele>
        <time>2014-09-14T10:11:03.000Z</time>
      </trkpt>
      <trkpt lat="43.85652" lon="3.29986">
        <ele>799</ele>
        <time>2014-09-14T10:11:05.000Z</time>
      </trkpt>
      <trkpt lat="43.85656" lon="3.29995">
        <ele>803</ele>
        <time>2014-09-14T10:11:07.000Z</time>
      </trkpt>
      <trkpt lat="43.85658" lon="3.30006">
        <ele>803</ele>
        <time>2014-09-14T10:11:09.000Z</time>
      </trkpt>
      <trkpt lat="43.8566" lon="3.30017">
        <ele>803</ele>
        <time>2014-09-14T10:11:11.000Z</time>
      </trkpt>
      <trkpt lat="43.8566" lon="3.30028">
        <ele>803</ele>
        <time>2014-09-14T10:11:13.000Z</time>
      </trkpt>
      <trkpt lat="43.8566" lon="3.30038">
        <ele>805</ele>
        <time>2014-09-14T10:11:15.000Z</time>
      </trkpt>
      <trkpt lat="43.85662" lon="3.30048">
        <ele>805</ele>
        <time>2014-09-14T10:11:17.000Z</time>
      </trkpt>
      <trkpt lat="43.85666" lon="3.30059">
        <ele>804</ele>
        <time>2014-09-14T10:11:19.000Z</time>
      </trkpt>
      <trkpt lat="43.85669" lon="3.30072">
        <ele>804</ele>
        <time>2014-09-14T10:11:21.000Z</time>
      </trkpt>
      <trkpt lat="43.85673" lon="3.30087">
        <ele>804</ele>
        <time>2014-09-14T10:11:23.000Z</time>
      </trkpt>
      <trkpt lat="43.85674" lon="3.30101">
        <ele>804</ele>
        <time>2014-09-14T10:11:25.000Z</time>
      </trkpt>
      <trkpt lat="43.85677" lon="3.30116">
        <ele>803</ele>
        <time>2014-09-14T10:11:27.000Z</time>
      </trkpt>
      <trkpt lat="43.8568" lon="3.3013">
        <ele>803</ele>
        <time>2014-09-14T10:11:29.000Z</time>
      </trkpt>
      <trkpt lat="43.85687" lon="3.30144">
        <ele>802</ele>
        <time>2014-09-14T10:11:31.000Z</time>
      </trkpt>
      <trkpt lat="43.85694" lon="3.30163">
        <ele>800</ele>
        <time>2014-09-14T10:11:33.000Z</time>
      </trkpt>
      <trkpt lat="43.85698" lon="3.30179">
        <ele>799</ele>
        <time>2014-09-14T10:11:35.000Z</time>
      </trkpt>
      <trkpt lat="43.85703" lon="3.30197">
        <ele>799</ele>
        <time>2014-09-14T10:11:37.000Z</time>
      </trkpt>
      <trkpt lat="43.85707" lon="3.30216">
        <ele>798</ele>
        <time>2014-09-14T10:11:39.000Z</time>
      </trkpt>
      <trkpt lat="43.85709" lon="3.30236">
        <ele>795</ele>
        <time>2014-09-14T10:11:41.000Z</time>
      </trkpt>
      <trkpt lat="43.8572" lon="3.30256">
        <ele>794</ele>
        <time>2014-09-14T10:11:43.000Z</time>
      </trkpt>
      <trkpt lat="43.85733" lon="3.30279">
        <ele>795</ele>
        <time>2014-09-14T10:11:46.000Z</time>
      </trkpt>
      <trkpt lat="43.8574" lon="3.30295">
        <ele>795</ele>
        <time>2014-09-14T10:11:48.000Z</time>
      </trkpt>
      <trkpt lat="43.85748" lon="3.30316">
        <ele>796</ele>
        <time>2014-09-14T10:11:50.000Z</time>
      </trkpt>
      <trkpt lat="43.85754" lon="3.30336">
        <ele>794</ele>
        <time>2014-09-14T10:11:52.000Z</time>
      </trkpt>
      <trkpt lat="43.85763" lon="3.30357">
        <ele>792</ele>
        <time>2014-09-14T10:11:54.000Z</time>
      </trkpt>
      <trkpt lat="43.85769" lon="3.30374">
        <ele>789</ele>
        <time>2014-09-14T10:11:56.000Z</time>
      </trkpt>
      <trkpt lat="43.85773" lon="3.30391">
        <ele>787</ele>
        <time>2014-09-14T10:11:58.000Z</time>
      </trkpt>
      <trkpt lat="43.85777" lon="3.30411">
        <ele>787</ele>
        <time>2014-09-14T10:12:00.000Z</time>
      </trkpt>
      <trkpt lat="43.8578" lon="3.3043">
        <ele>787</ele>
        <time>2014-09-14T10:12:02.000Z</time>
      </trkpt>
      <trkpt lat="43.85781" lon="3.30449">
        <ele>786</ele>
        <time>2014-09-14T10:12:04.000Z</time>
      </trkpt>
      <trkpt lat="43.85784" lon="3.30468">
        <ele>786</ele>
        <time>2014-09-14T10:12:06.000Z</time>
      </trkpt>
      <trkpt lat="43.85785" lon="3.30486">
        <ele>786</ele>
        <time>2014-09-14T10:12:08.000Z</time>
      </trkpt>
      <trkpt lat="43.85789" lon="3.30499">
        <ele>787</ele>
        <time>2014-09-14T10:12:10.000Z</time>
      </trkpt>
      <trkpt lat="43.85812" lon="3.3051">
        <ele>785</ele>
        <time>2014-09-14T10:12:13.000Z</time>
      </trkpt>
      <trkpt lat="43.85828" lon="3.30518">
        <ele>786</ele>
        <time>2014-09-14T10:12:17.000Z</time>
      </trkpt>
      <trkpt lat="43.85836" lon="3.30529">
        <ele>788</ele>
        <time>2014-09-14T10:12:19.000Z</time>
      </trkpt>
      <trkpt lat="43.85843" lon="3.30538">
        <ele>790</ele>
        <time>2014-09-14T10:12:21.000Z</time>
      </trkpt>
      <trkpt lat="43.85849" lon="3.30548">
        <ele>791</ele>
        <time>2014-09-14T10:12:23.000Z</time>
      </trkpt>
      <trkpt lat="43.85855" lon="3.30556">
        <ele>792</ele>
        <time>2014-09-14T10:12:25.000Z</time>
      </trkpt>
      <trkpt lat="43.85863" lon="3.30564">
        <ele>792</ele>
        <time>2014-09-14T10:12:27.000Z</time>
      </trkpt>
      <trkpt lat="43.85869" lon="3.30574">
        <ele>794</ele>
        <time>2014-09-14T10:12:29.000Z</time>
      </trkpt>
      <trkpt lat="43.85877" lon="3.30583">
        <ele>794</ele>
        <time>2014-09-14T10:12:31.000Z</time>
      </trkpt>
      <trkpt lat="43.85885" lon="3.30595">
        <ele>795</ele>
        <time>2014-09-14T10:12:33.000Z</time>
      </trkpt>
      <trkpt lat="43.85893" lon="3.30608">
        <ele>795</ele>
        <time>2014-09-14T10:12:35.000Z</time>
      </trkpt>
      <trkpt lat="43.85898" lon="3.30623">
        <ele>793</ele>
        <time>2014-09-14T10:12:37.000Z</time>
      </trkpt>
      <trkpt lat="43.85904" lon="3.30638">
        <ele>793</ele>
        <time>2014-09-14T10:12:39.000Z</time>
      </trkpt>
      <trkpt lat="43.85912" lon="3.30649">
        <ele>793</ele>
        <time>2014-09-14T10:12:41.000Z</time>
      </trkpt>
      <trkpt lat="43.85921" lon="3.30656">
        <ele>794</ele>
        <time>2014-09-14T10:12:43.000Z</time>
      </trkpt>
      <trkpt lat="43.85929" lon="3.3066">
        <ele>794</ele>
        <time>2014-09-14T10:12:45.000Z</time>
      </trkpt>
      <trkpt lat="43.8594" lon="3.30666">
        <ele>794</ele>
        <time>2014-09-14T10:12:47.000Z</time>
      </trkpt>
      <trkpt lat="43.85954" lon="3.30668">
        <ele>792</ele>
        <time>2014-09-14T10:12:49.000Z</time>
      </trkpt>
      <trkpt lat="43.85964" lon="3.30673">
        <ele>792</ele>
        <time>2014-09-14T10:12:51.000Z</time>
      </trkpt>
      <trkpt lat="43.85974" lon="3.30677">
        <ele>792</ele>
        <time>2014-09-14T10:12:53.000Z</time>
      </trkpt>
      <trkpt lat="43.85983" lon="3.30683">
        <ele>793</ele>
        <time>2014-09-14T10:12:55.000Z</time>
      </trkpt>
      <trkpt lat="43.85989" lon="3.30693">
        <ele>794</ele>
        <time>2014-09-14T10:12:57.000Z</time>
      </trkpt>
      <trkpt lat="43.85998" lon="3.307">
        <ele>793</ele>
        <time>2014-09-14T10:12:59.000Z</time>
      </trkpt>
      <trkpt lat="43.86007" lon="3.30707">
        <ele>793</ele>
        <time>2014-09-14T10:13:01.000Z</time>
      </trkpt>
      <trkpt lat="43.86015" lon="3.30716">
        <ele>795</ele>
        <time>2014-09-14T10:13:03.000Z</time>
      </trkpt>
      <trkpt lat="43.86023" lon="3.30726">
        <ele>795</ele>
        <time>2014-09-14T10:13:05.000Z</time>
      </trkpt>
      <trkpt lat="43.86031" lon="3.30735">
        <ele>796</ele>
        <time>2014-09-14T10:13:07.000Z</time>
      </trkpt>
      <trkpt lat="43.86038" lon="3.30745">
        <ele>794</ele>
        <time>2014-09-14T10:13:09.000Z</time>
      </trkpt>
      <trkpt lat="43.86044" lon="3.30759">
        <ele>791</ele>
        <time>2014-09-14T10:13:11.000Z</time>
      </trkpt>
      <trkpt lat="43.8605" lon="3.30776">
        <ele>794</ele>
        <time>2014-09-14T10:13:13.000Z</time>
      </trkpt>
      <trkpt lat="43.86055" lon="3.30792">
        <ele>794</ele>
        <time>2014-09-14T10:13:15.000Z</time>
      </trkpt>
      <trkpt lat="43.8606" lon="3.30806">
        <ele>794</ele>
        <time>2014-09-14T10:13:17.000Z</time>
      </trkpt>
      <trkpt lat="43.86064" lon="3.30823">
        <ele>794</ele>
        <time>2014-09-14T10:13:19.000Z</time>
      </trkpt>
      <trkpt lat="43.86066" lon="3.30841">
        <ele>794</ele>
        <time>2014-09-14T10:13:21.000Z</time>
      </trkpt>
      <trkpt lat="43.8607" lon="3.30857">
        <ele>795</ele>
        <time>2014-09-14T10:13:23.000Z</time>
      </trkpt>
      <trkpt lat="43.86071" lon="3.30874">
        <ele>794</ele>
        <time>2014-09-14T10:13:25.000Z</time>
      </trkpt>
      <trkpt lat="43.86074" lon="3.30895">
        <ele>793</ele>
        <time>2014-09-14T10:13:27.000Z</time>
      </trkpt>
      <trkpt lat="43.86075" lon="3.30914">
        <ele>793</ele>
        <time>2014-09-14T10:13:29.000Z</time>
      </trkpt>
      <trkpt lat="43.86075" lon="3.30934">
        <ele>794</ele>
        <time>2014-09-14T10:13:31.000Z</time>
      </trkpt>
      <trkpt lat="43.8608" lon="3.30956">
        <ele>793</ele>
        <time>2014-09-14T10:13:33.000Z</time>
      </trkpt>
      <trkpt lat="43.86083" lon="3.30972">
        <ele>793</ele>
        <time>2014-09-14T10:13:35.000Z</time>
      </trkpt>
      <trkpt lat="43.86074" lon="3.30983">
        <ele>792</ele>
        <time>2014-09-14T10:13:37.000Z</time>
      </trkpt>
      <trkpt lat="43.86065" lon="3.30982">
        <ele>791</ele>
        <time>2014-09-14T10:13:39.000Z</time>
      </trkpt>
      <trkpt lat="43.86058" lon="3.3098">
        <ele>793</ele>
        <time>2014-09-14T10:13:41.000Z</time>
      </trkpt>
      <trkpt lat="43.86047" lon="3.30974">
        <ele>791</ele>
        <time>2014-09-14T10:13:43.000Z</time>
      </trkpt>
      <trkpt lat="43.86034" lon="3.3097">
        <ele>790</ele>
        <time>2014-09-14T10:13:45.000Z</time>
      </trkpt>
      <trkpt lat="43.86018" lon="3.30965">
        <ele>789</ele>
        <time>2014-09-14T10:13:47.000Z</time>
      </trkpt>
      <trkpt lat="43.86003" lon="3.30961">
        <ele>788</ele>
        <time>2014-09-14T10:13:49.000Z</time>
      </trkpt>
      <trkpt lat="43.8599" lon="3.30958">
        <ele>787</ele>
        <time>2014-09-14T10:13:51.000Z</time>
      </trkpt>
      <trkpt lat="43.85975" lon="3.30958">
        <ele>787</ele>
        <time>2014-09-14T10:13:53.000Z</time>
      </trkpt>
      <trkpt lat="43.8596" lon="3.30968">
        <ele>787</ele>
        <time>2014-09-14T10:13:55.000Z</time>
      </trkpt>
      <trkpt lat="43.85951" lon="3.30988">
        <ele>786</ele>
        <time>2014-09-14T10:13:57.000Z</time>
      </trkpt>
      <trkpt lat="43.85954" lon="3.31016">
        <ele>786</ele>
        <time>2014-09-14T10:13:59.000Z</time>
      </trkpt>
      <trkpt lat="43.85947" lon="3.31048">
        <ele>791</ele>
        <time>2014-09-14T10:14:03.000Z</time>
      </trkpt>
      <trkpt lat="43.85957" lon="3.3106">
        <ele>790</ele>
        <time>2014-09-14T10:14:05.000Z</time>
      </trkpt>
      <trkpt lat="43.85968" lon="3.31066">
        <ele>793</ele>
        <time>2014-09-14T10:14:07.000Z</time>
      </trkpt>
      <trkpt lat="43.85979" lon="3.31067">
        <ele>792</ele>
        <time>2014-09-14T10:14:09.000Z</time>
      </trkpt>
      <trkpt lat="43.85994" lon="3.31068">
        <ele>791</ele>
        <time>2014-09-14T10:14:11.000Z</time>
      </trkpt>
      <trkpt lat="43.86003" lon="3.31067">
        <ele>791</ele>
        <time>2014-09-14T10:14:13.000Z</time>
      </trkpt>
      <trkpt lat="43.86016" lon="3.31065">
        <ele>791</ele>
        <time>2014-09-14T10:14:15.000Z</time>
      </trkpt>
      <trkpt lat="43.86028" lon="3.31064">
        <ele>790</ele>
        <time>2014-09-14T10:14:17.000Z</time>
      </trkpt>
      <trkpt lat="43.86039" lon="3.31063">
        <ele>788</ele>
        <time>2014-09-14T10:14:19.000Z</time>
      </trkpt>
      <trkpt lat="43.86049" lon="3.31071">
        <ele>789</ele>
        <time>2014-09-14T10:14:21.000Z</time>
      </trkpt>
      <trkpt lat="43.86057" lon="3.31083">
        <ele>788</ele>
        <time>2014-09-14T10:14:23.000Z</time>
      </trkpt>
      <trkpt lat="43.86063" lon="3.31097">
        <ele>790</ele>
        <time>2014-09-14T10:14:25.000Z</time>
      </trkpt>
      <trkpt lat="43.8607" lon="3.31112">
        <ele>789</ele>
        <time>2014-09-14T10:14:27.000Z</time>
      </trkpt>
      <trkpt lat="43.86078" lon="3.31128">
        <ele>788</ele>
        <time>2014-09-14T10:14:29.000Z</time>
      </trkpt>
      <trkpt lat="43.86086" lon="3.31144">
        <ele>789</ele>
        <time>2014-09-14T10:14:31.000Z</time>
      </trkpt>
      <trkpt lat="43.86095" lon="3.31163">
        <ele>789</ele>
        <time>2014-09-14T10:14:33.000Z</time>
      </trkpt>
      <trkpt lat="43.861" lon="3.31179">
        <ele>788</ele>
        <time>2014-09-14T10:14:35.000Z</time>
      </trkpt>
      <trkpt lat="43.86104" lon="3.31197">
        <ele>788</ele>
        <time>2014-09-14T10:14:37.000Z</time>
      </trkpt>
      <trkpt lat="43.8611" lon="3.31213">
        <ele>787</ele>
        <time>2014-09-14T10:14:39.000Z</time>
      </trkpt>
      <trkpt lat="43.86115" lon="3.31229">
        <ele>787</ele>
        <time>2014-09-14T10:14:41.000Z</time>
      </trkpt>
      <trkpt lat="43.86124" lon="3.31244">
        <ele>787</ele>
        <time>2014-09-14T10:14:43.000Z</time>
      </trkpt>
      <trkpt lat="43.86133" lon="3.31259">
        <ele>789</ele>
        <time>2014-09-14T10:14:45.000Z</time>
      </trkpt>
      <trkpt lat="43.86137" lon="3.31272">
        <ele>789</ele>
        <time>2014-09-14T10:14:47.000Z</time>
      </trkpt>
      <trkpt lat="43.86172" lon="3.31286">
        <ele>788</ele>
        <time>2014-09-14T10:14:51.000Z</time>
      </trkpt>
      <trkpt lat="43.86185" lon="3.31296">
        <ele>788</ele>
        <time>2014-09-14T10:14:53.000Z</time>
      </trkpt>
      <trkpt lat="43.86196" lon="3.31308">
        <ele>789</ele>
        <time>2014-09-14T10:14:55.000Z</time>
      </trkpt>
      <trkpt lat="43.862" lon="3.31319">
        <ele>788</ele>
        <time>2014-09-14T10:14:57.000Z</time>
      </trkpt>
      <trkpt lat="43.86209" lon="3.31327">
        <ele>788</ele>
        <time>2014-09-14T10:14:59.000Z</time>
      </trkpt>
      <trkpt lat="43.86213" lon="3.31344">
        <ele>787</ele>
        <time>2014-09-14T10:15:01.000Z</time>
      </trkpt>
      <trkpt lat="43.86221" lon="3.31358">
        <ele>790</ele>
        <time>2014-09-14T10:15:03.000Z</time>
      </trkpt>
      <trkpt lat="43.86225" lon="3.31375">
        <ele>790</ele>
        <time>2014-09-14T10:15:05.000Z</time>
      </trkpt>
      <trkpt lat="43.86222" lon="3.31394">
        <ele>790</ele>
        <time>2014-09-14T10:15:07.000Z</time>
      </trkpt>
      <trkpt lat="43.86221" lon="3.3141">
        <ele>790</ele>
        <time>2014-09-14T10:15:09.000Z</time>
      </trkpt>
      <trkpt lat="43.86216" lon="3.31422">
        <ele>787</ele>
        <time>2014-09-14T10:15:11.000Z</time>
      </trkpt>
      <trkpt lat="43.86214" lon="3.31436">
        <ele>788</ele>
        <time>2014-09-14T10:15:13.000Z</time>
      </trkpt>
      <trkpt lat="43.86214" lon="3.31447">
        <ele>788</ele>
        <time>2014-09-14T10:15:15.000Z</time>
      </trkpt>
      <trkpt lat="43.86213" lon="3.31457">
        <ele>791</ele>
        <time>2014-09-14T10:15:17.000Z</time>
      </trkpt>
      <trkpt lat="43.86213" lon="3.31457">
        <ele>791</ele>
        <time>2014-09-14T10:15:19.000Z</time>
      </trkpt>
      <trkpt lat="43.86209" lon="3.31476">
        <ele>793</ele>
        <time>2014-09-14T10:15:21.000Z</time>
      </trkpt>
      <trkpt lat="43.8621" lon="3.31489">
        <ele>794</ele>
        <time>2014-09-14T10:15:23.000Z</time>
      </trkpt>
      <trkpt lat="43.86216" lon="3.315">
        <ele>794</ele>
        <time>2014-09-14T10:15:25.000Z</time>
      </trkpt>
      <trkpt lat="43.86224" lon="3.31508">
        <ele>797</ele>
        <time>2014-09-14T10:15:27.000Z</time>
      </trkpt>
      <trkpt lat="43.86232" lon="3.31517">
        <ele>797</ele>
        <time>2014-09-14T10:15:29.000Z</time>
      </trkpt>
      <trkpt lat="43.86242" lon="3.31524">
        <ele>798</ele>
        <time>2014-09-14T10:15:31.000Z</time>
      </trkpt>
      <trkpt lat="43.86248" lon="3.31538">
        <ele>796</ele>
        <time>2014-09-14T10:15:33.000Z</time>
      </trkpt>
      <trkpt lat="43.86251" lon="3.31547">
        <ele>798</ele>
        <time>2014-09-14T10:15:35.000Z</time>
      </trkpt>
      <trkpt lat="43.86251" lon="3.31559">
        <ele>797</ele>
        <time>2014-09-14T10:15:37.000Z</time>
      </trkpt>
      <trkpt lat="43.86249" lon="3.31572">
        <ele>795</ele>
        <time>2014-09-14T10:15:39.000Z</time>
      </trkpt>
      <trkpt lat="43.86245" lon="3.31586">
        <ele>795</ele>
        <time>2014-09-14T10:15:41.000Z</time>
      </trkpt>
      <trkpt lat="43.86243" lon="3.31594">
        <ele>796</ele>
        <time>2014-09-14T10:15:43.000Z</time>
      </trkpt>
      <trkpt lat="43.86242" lon="3.31605">
        <ele>797</ele>
        <time>2014-09-14T10:15:45.000Z</time>
      </trkpt>
      <trkpt lat="43.86243" lon="3.31616">
        <ele>798</ele>
        <time>2014-09-14T10:15:47.000Z</time>
      </trkpt>
      <trkpt lat="43.86243" lon="3.31628">
        <ele>795</ele>
        <time>2014-09-14T10:15:49.000Z</time>
      </trkpt>
      <trkpt lat="43.86242" lon="3.31639">
        <ele>794</ele>
        <time>2014-09-14T10:15:51.000Z</time>
      </trkpt>
      <trkpt lat="43.86248" lon="3.31648">
        <ele>794</ele>
        <time>2014-09-14T10:15:53.000Z</time>
      </trkpt>
      <trkpt lat="43.86257" lon="3.31649">
        <ele>797</ele>
        <time>2014-09-14T10:15:55.000Z</time>
      </trkpt>
      <trkpt lat="43.86267" lon="3.31651">
        <ele>799</ele>
        <time>2014-09-14T10:15:57.000Z</time>
      </trkpt>
      <trkpt lat="43.86273" lon="3.31659">
        <ele>800</ele>
        <time>2014-09-14T10:15:59.000Z</time>
      </trkpt>
      <trkpt lat="43.86283" lon="3.31666">
        <ele>798</ele>
        <time>2014-09-14T10:16:01.000Z</time>
      </trkpt>
      <trkpt lat="43.8629" lon="3.31675">
        <ele>797</ele>
        <time>2014-09-14T10:16:03.000Z</time>
      </trkpt>
      <trkpt lat="43.86303" lon="3.31681">
        <ele>796</ele>
        <time>2014-09-14T10:16:05.000Z</time>
      </trkpt>
      <trkpt lat="43.86314" lon="3.31684">
        <ele>798</ele>
        <time>2014-09-14T10:16:07.000Z</time>
      </trkpt>
      <trkpt lat="43.86322" lon="3.31692">
        <ele>799</ele>
        <time>2014-09-14T10:16:09.000Z</time>
      </trkpt>
      <trkpt lat="43.86332" lon="3.31699">
        <ele>800</ele>
        <time>2014-09-14T10:16:11.000Z</time>
      </trkpt>
      <trkpt lat="43.86342" lon="3.3171">
        <ele>799</ele>
        <time>2014-09-14T10:16:13.000Z</time>
      </trkpt>
      <trkpt lat="43.86348" lon="3.3172">
        <ele>800</ele>
        <time>2014-09-14T10:16:15.000Z</time>
      </trkpt>
      <trkpt lat="43.86356" lon="3.31728">
        <ele>799</ele>
        <time>2014-09-14T10:16:17.000Z</time>
      </trkpt>
      <trkpt lat="43.86359" lon="3.31739">
        <ele>800</ele>
        <time>2014-09-14T10:16:19.000Z</time>
      </trkpt>
      <trkpt lat="43.86366" lon="3.31749">
        <ele>798</ele>
        <time>2014-09-14T10:16:21.000Z</time>
      </trkpt>
      <trkpt lat="43.86373" lon="3.3176">
        <ele>799</ele>
        <time>2014-09-14T10:16:23.000Z</time>
      </trkpt>
      <trkpt lat="43.86377" lon="3.31769">
        <ele>799</ele>
        <time>2014-09-14T10:16:25.000Z</time>
      </trkpt>
      <trkpt lat="43.86383" lon="3.31778">
        <ele>799</ele>
        <time>2014-09-14T10:16:27.000Z</time>
      </trkpt>
      <trkpt lat="43.86386" lon="3.31792">
        <ele>801</ele>
        <time>2014-09-14T10:16:29.000Z</time>
      </trkpt>
      <trkpt lat="43.86386" lon="3.31801">
        <ele>802</ele>
        <time>2014-09-14T10:16:31.000Z</time>
      </trkpt>
      <trkpt lat="43.86393" lon="3.31805">
        <ele>802</ele>
        <time>2014-09-14T10:16:33.000Z</time>
      </trkpt>
      <trkpt lat="43.86393" lon="3.31805">
        <ele>802</ele>
        <time>2014-09-14T10:16:36.000Z</time>
      </trkpt>
      <trkpt lat="43.86384" lon="3.31815">
        <ele>803</ele>
        <time>2014-09-14T10:16:38.000Z</time>
      </trkpt>
      <trkpt lat="43.86377" lon="3.3182">
        <ele>805</ele>
        <time>2014-09-14T10:16:40.000Z</time>
      </trkpt>
      <trkpt lat="43.8637" lon="3.31824">
        <ele>807</ele>
        <time>2014-09-14T10:16:42.000Z</time>
      </trkpt>
      <trkpt lat="43.86365" lon="3.31828">
        <ele>813</ele>
        <time>2014-09-14T10:16:44.000Z</time>
      </trkpt>
      <trkpt lat="43.8636" lon="3.31832">
        <ele>813</ele>
        <time>2014-09-14T10:16:46.000Z</time>
      </trkpt>
      <trkpt lat="43.86352" lon="3.31838">
        <ele>813</ele>
        <time>2014-09-14T10:16:48.000Z</time>
      </trkpt>
      <trkpt lat="43.86344" lon="3.31845">
        <ele>818</ele>
        <time>2014-09-14T10:16:50.000Z</time>
      </trkpt>
      <trkpt lat="43.86337" lon="3.31859">
        <ele>817</ele>
        <time>2014-09-14T10:16:52.000Z</time>
      </trkpt>
      <trkpt lat="43.86332" lon="3.31867">
        <ele>816</ele>
        <time>2014-09-14T10:16:54.000Z</time>
      </trkpt>
      <trkpt lat="43.86324" lon="3.31878">
        <ele>813</ele>
        <time>2014-09-14T10:16:56.000Z</time>
      </trkpt>
      <trkpt lat="43.86319" lon="3.31888">
        <ele>816</ele>
        <time>2014-09-14T10:16:58.000Z</time>
      </trkpt>
      <trkpt lat="43.86303" lon="3.31905">
        <ele>811</ele>
        <time>2014-09-14T10:17:01.000Z</time>
      </trkpt>
      <trkpt lat="43.86293" lon="3.31913">
        <ele>812</ele>
        <time>2014-09-14T10:17:03.000Z</time>
      </trkpt>
      <trkpt lat="43.8626" lon="3.31933">
        <ele>807</ele>
        <time>2014-09-14T10:17:07.000Z</time>
      </trkpt>
      <trkpt lat="43.86244" lon="3.3195">
        <ele>807</ele>
        <time>2014-09-14T10:17:10.000Z</time>
      </trkpt>
      <trkpt lat="43.86237" lon="3.31964">
        <ele>807</ele>
        <time>2014-09-14T10:17:12.000Z</time>
      </trkpt>
      <trkpt lat="43.86223" lon="3.31996">
        <ele>800</ele>
        <time>2014-09-14T10:17:15.000Z</time>
      </trkpt>
      <trkpt lat="43.86204" lon="3.31991">
        <ele>799</ele>
        <time>2014-09-14T10:17:20.000Z</time>
      </trkpt>
      <trkpt lat="43.86198" lon="3.31994">
        <ele>798</ele>
        <time>2014-09-14T10:17:22.000Z</time>
      </trkpt>
      <trkpt lat="43.86195" lon="3.32001">
        <ele>796</ele>
        <time>2014-09-14T10:17:24.000Z</time>
      </trkpt>
      <trkpt lat="43.86195" lon="3.32001">
        <ele>796</ele>
        <time>2014-09-14T10:17:26.000Z</time>
      </trkpt>
      <trkpt lat="43.86195" lon="3.32001">
        <ele>796</ele>
        <time>2014-09-14T10:17:28.000Z</time>
      </trkpt>
      <trkpt lat="43.86195" lon="3.32001">
        <ele>796</ele>
        <time>2014-09-14T10:17:30.000Z</time>
      </trkpt>
      <trkpt lat="43.86195" lon="3.32001">
        <ele>796</ele>
        <time>2014-09-14T10:17:32.000Z</time>
      </trkpt>
      <trkpt lat="43.86195" lon="3.32001">
        <ele>796</ele>
        <time>2014-09-14T10:17:43.000Z</time>
      </trkpt>
    </trkseg>
  </trk>
</gpx>